<?xml version='1.0' encoding='UTF-8'?><gpx version="1.1" creator="JPX - https://github.com/jenetics/jpx" xmlns="http://www.topografix.com/GPX/1/1"><trk><trkseg><trkpt lat="43.479195" lon="11.6186833"><ele>231.99999999999997</ele><time>2026-03-31T13:19:11.796Z</time></trkpt><trkpt lat="43.4792832" lon="11.6186787"><ele>232.0</ele><time>2026-03-31T13:21:11.797Z</time></trkpt><trkpt lat="43.4792986" lon="11.618584"><ele>232.0</ele><time>2026-03-31T13:21:17.839Z</time></trkpt><trkpt lat="43.4792611" lon="11.6186639"><ele>232.0</ele><time>2026-03-31T13:22:19.797Z</time></trkpt><trkpt lat="43.4792555" lon="11.6185737"><ele>231.99999999999997</ele><time>2026-03-31T13:22:50.836Z</time></trkpt><trkpt lat="43.4792545" lon="11.6184509"><ele>232.0</ele><time>2026-03-31T13:33:04.756Z</time></trkpt><trkpt lat="43.479213" lon="11.6183599"><ele>232.25</ele><time>2026-03-31T13:33:07.823Z</time></trkpt><trkpt lat="43.4791729" lon="11.6182912"><ele>232.5</ele><time>2026-03-31T13:33:09.8Z</time></trkpt><trkpt lat="43.4790388" lon="11.618053"><ele>232.75</ele><time>2026-03-31T13:33:11.798Z</time></trkpt><trkpt lat="43.4789437" lon="11.6178959"><ele>233.0</ele><time>2026-03-31T13:33:12.798Z</time></trkpt><trkpt lat="43.4788947" lon="11.6178029"><ele>233.2</ele><time>2026-03-31T13:33:13.807Z</time></trkpt><trkpt lat="43.4788482" lon="11.617698"><ele>233.4</ele><time>2026-03-31T13:33:15.797Z</time></trkpt><trkpt lat="43.4788232" lon="11.6176019"><ele>233.59999999999997</ele><time>2026-03-31T13:33:18.798Z</time></trkpt><trkpt lat="43.4788245" lon="11.6174957"><ele>233.79999999999998</ele><time>2026-03-31T13:33:20.799Z</time></trkpt><trkpt lat="43.478865" lon="11.6173417"><ele>234.0</ele><time>2026-03-31T13:33:22.796Z</time></trkpt><trkpt lat="43.4789367" lon="11.6172"><ele>234.0</ele><time>2026-03-31T13:33:24.797Z</time></trkpt><trkpt lat="43.4789883" lon="11.6171017"><ele>234.0</ele><time>2026-03-31T13:33:26.798Z</time></trkpt><trkpt lat="43.47907" lon="11.6171083"><ele>234.0</ele><time>2026-03-31T13:33:29.797Z</time></trkpt><trkpt lat="43.4791567" lon="11.6171667"><ele>234.0</ele><time>2026-03-31T13:33:31.797Z</time></trkpt><trkpt lat="43.4792067" lon="11.6172517"><ele>234.0</ele><time>2026-03-31T13:33:34.799Z</time></trkpt><trkpt lat="43.4791583" lon="11.6173467"><ele>234.0</ele><time>2026-03-31T13:33:37.798Z</time></trkpt><trkpt lat="43.479105" lon="11.6174017"><ele>234.0</ele><time>2026-03-31T13:33:41.797Z</time></trkpt><trkpt lat="43.4790317" lon="11.6174533"><ele>233.99999999999997</ele><time>2026-03-31T13:33:55.797Z</time></trkpt><trkpt lat="43.47896" lon="11.6174867"><ele>233.99999999999997</ele><time>2026-03-31T13:33:57.797Z</time></trkpt><trkpt lat="43.478915" lon="11.6175817"><ele>234.0</ele><time>2026-03-31T13:33:59.798Z</time></trkpt><trkpt lat="43.47898" lon="11.6177633"><ele>234.0</ele><time>2026-03-31T13:34:01.799Z</time></trkpt><trkpt lat="43.4790433" lon="11.6178517"><ele>233.75</ele><time>2026-03-31T13:34:02.799Z</time></trkpt><trkpt lat="43.479145" lon="11.6179267"><ele>233.5</ele><time>2026-03-31T13:34:03.798Z</time></trkpt><trkpt lat="43.479245" lon="11.6179817"><ele>233.25</ele><time>2026-03-31T13:34:04.797Z</time></trkpt><trkpt lat="43.4793467" lon="11.618025"><ele>233.0</ele><time>2026-03-31T13:34:05.797Z</time></trkpt><trkpt lat="43.479485" lon="11.618055"><ele>229.60000000000002</ele><time>2026-03-31T13:34:06.796Z</time></trkpt><trkpt lat="43.4796067" lon="11.6180983"><ele>226.20000000000002</ele><time>2026-03-31T13:34:07.798Z</time></trkpt><trkpt lat="43.4797167" lon="11.618155"><ele>222.8</ele><time>2026-03-31T13:34:08.801Z</time></trkpt><trkpt lat="43.4798017" lon="11.6182133"><ele>219.4</ele><time>2026-03-31T13:34:09.797Z</time></trkpt><trkpt lat="43.479875" lon="11.61829"><ele>216.0</ele><time>2026-03-31T13:34:10.797Z</time></trkpt><trkpt lat="43.47994" lon="11.61837"><ele>216.0</ele><time>2026-03-31T13:34:11.797Z</time></trkpt><trkpt lat="43.4800417" lon="11.61846"><ele>216.0</ele><time>2026-03-31T13:34:13.799Z</time></trkpt><trkpt lat="43.48009" lon="11.618525"><ele>216.0</ele><time>2026-03-31T13:34:15.798Z</time></trkpt><trkpt lat="43.4801083" lon="11.6186533"><ele>216.0</ele><time>2026-03-31T13:34:17.798Z</time></trkpt><trkpt lat="43.480105" lon="11.61876"><ele>216.0</ele><time>2026-03-31T13:34:18.797Z</time></trkpt><trkpt lat="43.4801067" lon="11.6188717"><ele>216.0</ele><time>2026-03-31T13:34:19.797Z</time></trkpt><trkpt lat="43.4801" lon="11.6190467"><ele>216.0</ele><time>2026-03-31T13:34:20.8Z</time></trkpt><trkpt lat="43.4801133" lon="11.6194117"><ele>216.0</ele><time>2026-03-31T13:34:22.798Z</time></trkpt><trkpt lat="43.4801117" lon="11.619595"><ele>216.0</ele><time>2026-03-31T13:34:23.797Z</time></trkpt><trkpt lat="43.4800933" lon="11.619775"><ele>215.8</ele><time>2026-03-31T13:34:24.798Z</time></trkpt><trkpt lat="43.48005" lon="11.6199217"><ele>215.60000000000002</ele><time>2026-03-31T13:34:25.798Z</time></trkpt><trkpt lat="43.4800133" lon="11.6200117"><ele>215.4</ele><time>2026-03-31T13:34:26.798Z</time></trkpt><trkpt lat="43.479955" lon="11.6201017"><ele>215.2</ele><time>2026-03-31T13:34:28.796Z</time></trkpt><trkpt lat="43.4799017" lon="11.6201683"><ele>215.0</ele><time>2026-03-31T13:34:30.798Z</time></trkpt><trkpt lat="43.4797967" lon="11.6202917"><ele>215.6</ele><time>2026-03-31T13:34:32.798Z</time></trkpt><trkpt lat="43.4797183" lon="11.6203583"><ele>216.2</ele><time>2026-03-31T13:34:33.799Z</time></trkpt><trkpt lat="43.479635" lon="11.6204217"><ele>216.8</ele><time>2026-03-31T13:34:34.798Z</time></trkpt><trkpt lat="43.4795233" lon="11.6204283"><ele>217.4</ele><time>2026-03-31T13:34:35.797Z</time></trkpt><trkpt lat="43.4794033" lon="11.6204017"><ele>218.0</ele><time>2026-03-31T13:34:36.797Z</time></trkpt><trkpt lat="43.4792917" lon="11.6203583"><ele>218.0</ele><time>2026-03-31T13:34:37.798Z</time></trkpt><trkpt lat="43.4791867" lon="11.6203167"><ele>218.0</ele><time>2026-03-31T13:34:38.799Z</time></trkpt><trkpt lat="43.4790917" lon="11.6202783"><ele>218.0</ele><time>2026-03-31T13:34:39.798Z</time></trkpt><trkpt lat="43.479015" lon="11.6202467"><ele>218.0</ele><time>2026-03-31T13:34:40.797Z</time></trkpt><trkpt lat="43.478955" lon="11.62022"><ele>218.0</ele><time>2026-03-31T13:34:41.797Z</time></trkpt><trkpt lat="43.4788733" lon="11.6201417"><ele>219.5</ele><time>2026-03-31T13:34:43.798Z</time></trkpt><trkpt lat="43.4788533" lon="11.61999"><ele>221.0</ele><time>2026-03-31T13:34:45.798Z</time></trkpt><trkpt lat="43.4788683" lon="11.6198517"><ele>222.5</ele><time>2026-03-31T13:34:46.797Z</time></trkpt><trkpt lat="43.47889" lon="11.6196883"><ele>224.0</ele><time>2026-03-31T13:34:47.799Z</time></trkpt><trkpt lat="43.4789167" lon="11.6195283"><ele>225.6</ele><time>2026-03-31T13:34:48.798Z</time></trkpt><trkpt lat="43.478935" lon="11.61937"><ele>227.2</ele><time>2026-03-31T13:34:49.798Z</time></trkpt><trkpt lat="43.4789533" lon="11.6192217"><ele>228.79999999999998</ele><time>2026-03-31T13:34:50.8Z</time></trkpt><trkpt lat="43.4789683" lon="11.6190883"><ele>230.39999999999998</ele><time>2026-03-31T13:34:51.798Z</time></trkpt><trkpt lat="43.4789867" lon="11.6189767"><ele>232.0</ele><time>2026-03-31T13:34:52.798Z</time></trkpt><trkpt lat="43.4790167" lon="11.6188783"><ele>231.99999999999997</ele><time>2026-03-31T13:34:53.799Z</time></trkpt><trkpt lat="43.4790417" lon="11.6187933"><ele>232.0</ele><time>2026-03-31T13:34:54.795Z</time></trkpt><trkpt lat="43.4791067" lon="11.6186883"><ele>232.0</ele><time>2026-03-31T13:34:56.799Z</time></trkpt><trkpt lat="43.47917" lon="11.61864"><ele>232.0</ele><time>2026-03-31T13:34:59.798Z</time></trkpt><trkpt lat="43.4792117" lon="11.6185517"><ele>231.99999999999997</ele><time>2026-03-31T13:35:01.797Z</time></trkpt><trkpt lat="43.4792283" lon="11.618445"><ele>232.0</ele><time>2026-03-31T13:35:03.797Z</time></trkpt><trkpt lat="43.4791983" lon="11.6183417"><ele>232.2</ele><time>2026-03-31T13:35:06.799Z</time></trkpt><trkpt lat="43.47914" lon="11.618265"><ele>232.39999999999998</ele><time>2026-03-31T13:35:08.797Z</time></trkpt><trkpt lat="43.4790717" lon="11.6181933"><ele>232.60000000000002</ele><time>2026-03-31T13:35:10.795Z</time></trkpt><trkpt lat="43.47901" lon="11.6180667"><ele>232.8</ele><time>2026-03-31T13:36:21.798Z</time></trkpt><trkpt lat="43.4789567" lon="11.6179267"><ele>233.0</ele><time>2026-03-31T13:36:23.798Z</time></trkpt><trkpt lat="43.4789067" lon="11.617795"><ele>233.2</ele><time>2026-03-31T13:36:25.797Z</time></trkpt><trkpt lat="43.4788583" lon="11.617715"><ele>233.4</ele><time>2026-03-31T13:36:27.796Z</time></trkpt><trkpt lat="43.4787817" lon="11.6176917"><ele>233.59999999999997</ele><time>2026-03-31T13:36:30.8Z</time></trkpt><trkpt lat="43.47871" lon="11.6177267"><ele>233.79999999999998</ele><time>2026-03-31T13:36:32.799Z</time></trkpt><trkpt lat="43.4785983" lon="11.61786"><ele>234.0</ele><time>2026-03-31T13:36:34.797Z</time></trkpt><trkpt lat="43.47852" lon="11.618015"><ele>235.0</ele><time>2026-03-31T13:36:35.797Z</time></trkpt><trkpt lat="43.47844" lon="11.6181667"><ele>236.0</ele><time>2026-03-31T13:36:36.797Z</time></trkpt><trkpt lat="43.4783733" lon="11.6183183"><ele>237.0</ele><time>2026-03-31T13:36:37.796Z</time></trkpt><trkpt lat="43.4783267" lon="11.6184683"><ele>238.0</ele><time>2026-03-31T13:36:38.795Z</time></trkpt><trkpt lat="43.4782967" lon="11.6186117"><ele>237.2</ele><time>2026-03-31T13:36:39.798Z</time></trkpt><trkpt lat="43.4782867" lon="11.61876"><ele>236.4</ele><time>2026-03-31T13:36:40.796Z</time></trkpt><trkpt lat="43.47828" lon="11.61891"><ele>235.59999999999997</ele><time>2026-03-31T13:36:41.797Z</time></trkpt><trkpt lat="43.4782867" lon="11.619055"><ele>234.79999999999998</ele><time>2026-03-31T13:36:42.797Z</time></trkpt><trkpt lat="43.4783" lon="11.6191933"><ele>234.0</ele><time>2026-03-31T13:36:43.796Z</time></trkpt><trkpt lat="43.478315" lon="11.61933"><ele>234.0</ele><time>2026-03-31T13:36:44.798Z</time></trkpt><trkpt lat="43.4783283" lon="11.619465"><ele>233.99999999999997</ele><time>2026-03-31T13:36:45.796Z</time></trkpt><trkpt lat="43.478335" lon="11.6195867"><ele>233.99999999999997</ele><time>2026-03-31T13:36:46.797Z</time></trkpt><trkpt lat="43.4783433" lon="11.6197117"><ele>234.0</ele><time>2026-03-31T13:36:47.796Z</time></trkpt><trkpt lat="43.47833" lon="11.61984"><ele>234.0</ele><time>2026-03-31T13:36:48.796Z</time></trkpt><trkpt lat="43.4783" lon="11.6199683"><ele>232.0</ele><time>2026-03-31T13:36:49.798Z</time></trkpt><trkpt lat="43.4782583" lon="11.6200933"><ele>229.99999999999997</ele><time>2026-03-31T13:36:50.796Z</time></trkpt><trkpt lat="43.4782017" lon="11.620215"><ele>227.99999999999997</ele><time>2026-03-31T13:36:51.797Z</time></trkpt><trkpt lat="43.4781433" lon="11.6203283"><ele>226.0</ele><time>2026-03-31T13:36:52.796Z</time></trkpt><trkpt lat="43.4780817" lon="11.62044"><ele>224.0</ele><time>2026-03-31T13:36:53.797Z</time></trkpt><trkpt lat="43.4780167" lon="11.6205433"><ele>223.79999999999998</ele><time>2026-03-31T13:36:54.796Z</time></trkpt><trkpt lat="43.4779517" lon="11.62064"><ele>223.59999999999997</ele><time>2026-03-31T13:36:55.797Z</time></trkpt><trkpt lat="43.4778883" lon="11.620725"><ele>223.4</ele><time>2026-03-31T13:36:56.797Z</time></trkpt><trkpt lat="43.4778217" lon="11.6207833"><ele>223.2</ele><time>2026-03-31T13:36:57.799Z</time></trkpt><trkpt lat="43.4777017" lon="11.6207933"><ele>223.0</ele><time>2026-03-31T13:36:59.799Z</time></trkpt><trkpt lat="43.4776383" lon="11.620745"><ele>223.0</ele><time>2026-03-31T13:37:00.797Z</time></trkpt><trkpt lat="43.477595" lon="11.62066"><ele>223.0</ele><time>2026-03-31T13:37:01.797Z</time></trkpt><trkpt lat="43.4775617" lon="11.620505"><ele>223.0</ele><time>2026-03-31T13:37:02.797Z</time></trkpt><trkpt lat="43.4775233" lon="11.6203383"><ele>223.0</ele><time>2026-03-31T13:37:03.797Z</time></trkpt><trkpt lat="43.4774833" lon="11.62017"><ele>223.0</ele><time>2026-03-31T13:37:04.796Z</time></trkpt><trkpt lat="43.4774417" lon="11.6200117"><ele>224.0</ele><time>2026-03-31T13:37:05.796Z</time></trkpt><trkpt lat="43.4774017" lon="11.6198617"><ele>225.0</ele><time>2026-03-31T13:37:06.795Z</time></trkpt><trkpt lat="43.4773583" lon="11.6197033"><ele>226.0</ele><time>2026-03-31T13:37:07.796Z</time></trkpt><trkpt lat="43.4773167" lon="11.6195417"><ele>227.0</ele><time>2026-03-31T13:37:08.796Z</time></trkpt><trkpt lat="43.4772717" lon="11.6193733"><ele>228.5</ele><time>2026-03-31T13:37:09.796Z</time></trkpt><trkpt lat="43.477225" lon="11.6192"><ele>230.0</ele><time>2026-03-31T13:37:10.798Z</time></trkpt><trkpt lat="43.477175" lon="11.619035"><ele>231.5</ele><time>2026-03-31T13:37:11.796Z</time></trkpt><trkpt lat="43.4771133" lon="11.6188733"><ele>233.0</ele><time>2026-03-31T13:37:12.796Z</time></trkpt><trkpt lat="43.47704" lon="11.6187233"><ele>232.5</ele><time>2026-03-31T13:37:13.797Z</time></trkpt><trkpt lat="43.47696" lon="11.61859"><ele>232.0</ele><time>2026-03-31T13:37:14.797Z</time></trkpt><trkpt lat="43.4768767" lon="11.6184733"><ele>231.5</ele><time>2026-03-31T13:37:15.798Z</time></trkpt><trkpt lat="43.4767867" lon="11.6183667"><ele>231.0</ele><time>2026-03-31T13:37:16.795Z</time></trkpt><trkpt lat="43.47669" lon="11.6182783"><ele>231.0</ele><time>2026-03-31T13:37:17.797Z</time></trkpt><trkpt lat="43.4765867" lon="11.6182"><ele>231.0</ele><time>2026-03-31T13:37:18.798Z</time></trkpt><trkpt lat="43.4764817" lon="11.6181267"><ele>231.0</ele><time>2026-03-31T13:37:19.797Z</time></trkpt><trkpt lat="43.4763683" lon="11.61806"><ele>231.0</ele><time>2026-03-31T13:37:20.798Z</time></trkpt><trkpt lat="43.476255" lon="11.617995"><ele>231.25</ele><time>2026-03-31T13:37:21.797Z</time></trkpt><trkpt lat="43.47614" lon="11.617925"><ele>231.5</ele><time>2026-03-31T13:37:22.796Z</time></trkpt><trkpt lat="43.4760167" lon="11.6178517"><ele>231.75</ele><time>2026-03-31T13:37:23.796Z</time></trkpt><trkpt lat="43.4758883" lon="11.6177783"><ele>232.0</ele><time>2026-03-31T13:37:24.799Z</time></trkpt><trkpt lat="43.4757667" lon="11.617705"><ele>233.75</ele><time>2026-03-31T13:37:25.798Z</time></trkpt><trkpt lat="43.4756467" lon="11.6176333"><ele>235.5</ele><time>2026-03-31T13:37:26.799Z</time></trkpt><trkpt lat="43.47553" lon="11.61756"><ele>237.25</ele><time>2026-03-31T13:37:27.799Z</time></trkpt><trkpt lat="43.47541" lon="11.6174883"><ele>239.0</ele><time>2026-03-31T13:37:28.796Z</time></trkpt><trkpt lat="43.47529" lon="11.6174167"><ele>239.0</ele><time>2026-03-31T13:37:29.797Z</time></trkpt><trkpt lat="43.475165" lon="11.6173433"><ele>239.0</ele><time>2026-03-31T13:37:30.797Z</time></trkpt><trkpt lat="43.4750433" lon="11.6172733"><ele>239.0</ele><time>2026-03-31T13:37:31.798Z</time></trkpt><trkpt lat="43.4749217" lon="11.6172067"><ele>239.0</ele><time>2026-03-31T13:37:32.798Z</time></trkpt><trkpt lat="43.4748017" lon="11.6171367"><ele>239.0</ele><time>2026-03-31T13:37:33.798Z</time></trkpt><trkpt lat="43.4746833" lon="11.6170667"><ele>239.0</ele><time>2026-03-31T13:37:34.797Z</time></trkpt><trkpt lat="43.47457" lon="11.6169967"><ele>239.0</ele><time>2026-03-31T13:37:35.797Z</time></trkpt><trkpt lat="43.4744567" lon="11.61693"><ele>239.0</ele><time>2026-03-31T13:37:36.797Z</time></trkpt><trkpt lat="43.4743433" lon="11.616865"><ele>240.0</ele><time>2026-03-31T13:37:37.798Z</time></trkpt><trkpt lat="43.474235" lon="11.6168017"><ele>241.0</ele><time>2026-03-31T13:37:38.799Z</time></trkpt><trkpt lat="43.4741317" lon="11.6167383"><ele>242.0</ele><time>2026-03-31T13:37:39.797Z</time></trkpt><trkpt lat="43.4740267" lon="11.616675"><ele>243.0</ele><time>2026-03-31T13:37:40.797Z</time></trkpt><trkpt lat="43.4739167" lon="11.6166133"><ele>243.0</ele><time>2026-03-31T13:37:41.797Z</time></trkpt><trkpt lat="43.47381" lon="11.61655"><ele>243.0</ele><time>2026-03-31T13:37:42.797Z</time></trkpt><trkpt lat="43.4737033" lon="11.616485"><ele>243.0</ele><time>2026-03-31T13:37:43.796Z</time></trkpt><trkpt lat="43.4736017" lon="11.61642"><ele>243.0</ele><time>2026-03-31T13:37:44.799Z</time></trkpt><trkpt lat="43.4735" lon="11.6163583"><ele>243.75</ele><time>2026-03-31T13:37:45.796Z</time></trkpt><trkpt lat="43.4733983" lon="11.6162967"><ele>244.5</ele><time>2026-03-31T13:37:46.797Z</time></trkpt><trkpt lat="43.47329" lon="11.6162333"><ele>245.25</ele><time>2026-03-31T13:37:47.797Z</time></trkpt><trkpt lat="43.473175" lon="11.6161617"><ele>246.0</ele><time>2026-03-31T13:37:48.798Z</time></trkpt><trkpt lat="43.4730517" lon="11.6160883"><ele>247.25</ele><time>2026-03-31T13:37:49.798Z</time></trkpt><trkpt lat="43.4729333" lon="11.616015"><ele>248.5</ele><time>2026-03-31T13:37:50.798Z</time></trkpt><trkpt lat="43.4728233" lon="11.6159467"><ele>249.75</ele><time>2026-03-31T13:37:51.797Z</time></trkpt><trkpt lat="43.4727233" lon="11.6158867"><ele>251.0</ele><time>2026-03-31T13:37:52.797Z</time></trkpt><trkpt lat="43.4726217" lon="11.6158217"><ele>251.0</ele><time>2026-03-31T13:37:53.797Z</time></trkpt><trkpt lat="43.472515" lon="11.6157517"><ele>251.0</ele><time>2026-03-31T13:37:54.799Z</time></trkpt><trkpt lat="43.4724033" lon="11.61567"><ele>251.0</ele><time>2026-03-31T13:37:55.798Z</time></trkpt><trkpt lat="43.4722867" lon="11.6155833"><ele>251.0</ele><time>2026-03-31T13:37:56.799Z</time></trkpt><trkpt lat="43.472165" lon="11.6154867"><ele>251.25</ele><time>2026-03-31T13:37:57.798Z</time></trkpt><trkpt lat="43.4720433" lon="11.6153833"><ele>251.5</ele><time>2026-03-31T13:37:58.797Z</time></trkpt><trkpt lat="43.4719267" lon="11.61528"><ele>251.75</ele><time>2026-03-31T13:37:59.798Z</time></trkpt><trkpt lat="43.4718233" lon="11.6151933"><ele>252.0</ele><time>2026-03-31T13:38:00.796Z</time></trkpt><trkpt lat="43.4717217" lon="11.61512"><ele>252.0</ele><time>2026-03-31T13:38:01.797Z</time></trkpt><trkpt lat="43.4716267" lon="11.6150517"><ele>252.0</ele><time>2026-03-31T13:38:02.799Z</time></trkpt><trkpt lat="43.4715383" lon="11.614995"><ele>252.0</ele><time>2026-03-31T13:38:03.797Z</time></trkpt><trkpt lat="43.4714517" lon="11.6149617"><ele>252.0</ele><time>2026-03-31T13:38:04.797Z</time></trkpt><trkpt lat="43.4713617" lon="11.6149517"><ele>252.0</ele><time>2026-03-31T13:38:05.798Z</time></trkpt><trkpt lat="43.4712733" lon="11.6149767"><ele>251.33333333333334</ele><time>2026-03-31T13:38:06.797Z</time></trkpt><trkpt lat="43.471215" lon="11.6150567"><ele>250.66666666666669</ele><time>2026-03-31T13:38:07.797Z</time></trkpt><trkpt lat="43.47116" lon="11.6151733"><ele>250.0</ele><time>2026-03-31T13:38:08.798Z</time></trkpt><trkpt lat="43.471095" lon="11.6152633"><ele>249.33333333333334</ele><time>2026-03-31T13:38:09.798Z</time></trkpt><trkpt lat="43.47102" lon="11.615305"><ele>248.66666666666669</ele><time>2026-03-31T13:38:10.797Z</time></trkpt><trkpt lat="43.4709433" lon="11.6152733"><ele>248.0</ele><time>2026-03-31T13:38:11.798Z</time></trkpt><trkpt lat="43.47085" lon="11.6152433"><ele>248.0</ele><time>2026-03-31T13:38:12.798Z</time></trkpt><trkpt lat="43.4707467" lon="11.6152317"><ele>248.0</ele><time>2026-03-31T13:38:13.797Z</time></trkpt><trkpt lat="43.4706367" lon="11.6152367"><ele>248.0</ele><time>2026-03-31T13:38:14.799Z</time></trkpt><trkpt lat="43.47053" lon="11.6152617"><ele>248.0</ele><time>2026-03-31T13:38:15.798Z</time></trkpt><trkpt lat="43.4704333" lon="11.6152933"><ele>248.0</ele><time>2026-03-31T13:38:16.797Z</time></trkpt><trkpt lat="43.470335" lon="11.6153333"><ele>245.75</ele><time>2026-03-31T13:38:17.799Z</time></trkpt><trkpt lat="43.4702283" lon="11.6153783"><ele>243.5</ele><time>2026-03-31T13:38:18.798Z</time></trkpt><trkpt lat="43.4701167" lon="11.61542"><ele>241.25</ele><time>2026-03-31T13:38:19.798Z</time></trkpt><trkpt lat="43.469995" lon="11.6154583"><ele>239.0</ele><time>2026-03-31T13:38:20.799Z</time></trkpt><trkpt lat="43.4698817" lon="11.61547"><ele>239.0</ele><time>2026-03-31T13:38:21.799Z</time></trkpt><trkpt lat="43.4697483" lon="11.6154483"><ele>239.0</ele><time>2026-03-31T13:38:22.797Z</time></trkpt><trkpt lat="43.469615" lon="11.6153867"><ele>239.0</ele><time>2026-03-31T13:38:23.797Z</time></trkpt><trkpt lat="43.46947" lon="11.615295"><ele>239.0</ele><time>2026-03-31T13:38:24.8Z</time></trkpt><trkpt lat="43.469315" lon="11.6151933"><ele>237.66666666666669</ele><time>2026-03-31T13:38:25.797Z</time></trkpt><trkpt lat="43.4691567" lon="11.6150917"><ele>236.33333333333331</ele><time>2026-03-31T13:38:26.799Z</time></trkpt><trkpt lat="43.4689983" lon="11.6149983"><ele>235.0</ele><time>2026-03-31T13:38:27.798Z</time></trkpt><trkpt lat="43.4688433" lon="11.6149067"><ele>233.0</ele><time>2026-03-31T13:38:28.798Z</time></trkpt><trkpt lat="43.46869" lon="11.6148183"><ele>231.0</ele><time>2026-03-31T13:38:29.798Z</time></trkpt><trkpt lat="43.4685417" lon="11.6147367"><ele>229.0</ele><time>2026-03-31T13:38:30.796Z</time></trkpt><trkpt lat="43.4683983" lon="11.614665"><ele>229.0</ele><time>2026-03-31T13:38:31.794Z</time></trkpt><trkpt lat="43.46826" lon="11.6145967"><ele>229.0</ele><time>2026-03-31T13:38:32.799Z</time></trkpt><trkpt lat="43.4681283" lon="11.61453"><ele>229.0</ele><time>2026-03-31T13:38:33.798Z</time></trkpt><trkpt lat="43.468005" lon="11.6144617"><ele>229.0</ele><time>2026-03-31T13:38:34.797Z</time></trkpt><trkpt lat="43.467895" lon="11.61439"><ele>228.5</ele><time>2026-03-31T13:38:35.797Z</time></trkpt><trkpt lat="43.4677933" lon="11.6143"><ele>228.0</ele><time>2026-03-31T13:38:36.797Z</time></trkpt><trkpt lat="43.4677033" lon="11.614185"><ele>227.5</ele><time>2026-03-31T13:38:37.796Z</time></trkpt><trkpt lat="43.467605" lon="11.6140767"><ele>227.0</ele><time>2026-03-31T13:38:38.798Z</time></trkpt><trkpt lat="43.4675017" lon="11.6139867"><ele>227.0</ele><time>2026-03-31T13:38:39.799Z</time></trkpt><trkpt lat="43.46739" lon="11.6139383"><ele>227.0</ele><time>2026-03-31T13:38:40.798Z</time></trkpt><trkpt lat="43.4672633" lon="11.6139267"><ele>227.0</ele><time>2026-03-31T13:38:41.799Z</time></trkpt><trkpt lat="43.4671233" lon="11.6139433"><ele>227.0</ele><time>2026-03-31T13:38:42.797Z</time></trkpt><trkpt lat="43.4669833" lon="11.613975"><ele>226.0</ele><time>2026-03-31T13:38:43.797Z</time></trkpt><trkpt lat="43.4668433" lon="11.6140183"><ele>225.0</ele><time>2026-03-31T13:38:44.798Z</time></trkpt><trkpt lat="43.4667117" lon="11.61408"><ele>224.0</ele><time>2026-03-31T13:38:45.798Z</time></trkpt><trkpt lat="43.466585" lon="11.614155"><ele>223.0</ele><time>2026-03-31T13:38:46.796Z</time></trkpt><trkpt lat="43.4664767" lon="11.61423"><ele>222.99999999999997</ele><time>2026-03-31T13:38:47.798Z</time></trkpt><trkpt lat="43.4663767" lon="11.6142883"><ele>223.0</ele><time>2026-03-31T13:38:48.797Z</time></trkpt><trkpt lat="43.4663033" lon="11.6143283"><ele>223.0</ele><time>2026-03-31T13:38:49.798Z</time></trkpt><trkpt lat="43.4662433" lon="11.6143583"><ele>223.0</ele><time>2026-03-31T13:38:50.798Z</time></trkpt><trkpt lat="43.4661633" lon="11.6144083"><ele>222.99999999999997</ele><time>2026-03-31T13:38:52.797Z</time></trkpt><trkpt lat="43.46611" lon="11.6145117"><ele>223.0</ele><time>2026-03-31T13:38:54.798Z</time></trkpt><trkpt lat="43.4661033" lon="11.6146017"><ele>222.83333333333331</ele><time>2026-03-31T13:38:55.796Z</time></trkpt><trkpt lat="43.466085" lon="11.6146867"><ele>222.66666666666666</ele><time>2026-03-31T13:38:56.798Z</time></trkpt><trkpt lat="43.4660617" lon="11.614805"><ele>222.5</ele><time>2026-03-31T13:38:58.797Z</time></trkpt><trkpt lat="43.46603" lon="11.6148917"><ele>222.33333333333331</ele><time>2026-03-31T13:39:12.801Z</time></trkpt><trkpt lat="43.4660133" lon="11.615"><ele>222.16666666666666</ele><time>2026-03-31T13:39:17.797Z</time></trkpt><trkpt lat="43.4659633" lon="11.61509"><ele>222.0</ele><time>2026-03-31T13:39:34.799Z</time></trkpt><trkpt lat="43.4658383" lon="11.6151767"><ele>222.0</ele><time>2026-03-31T13:39:36.8Z</time></trkpt><trkpt lat="43.4657683" lon="11.6152417"><ele>222.0</ele><time>2026-03-31T13:39:37.799Z</time></trkpt><trkpt lat="43.4656867" lon="11.6153183"><ele>222.0</ele><time>2026-03-31T13:39:38.801Z</time></trkpt><trkpt lat="43.4655967" lon="11.6154033"><ele>222.0</ele><time>2026-03-31T13:39:39.798Z</time></trkpt><trkpt lat="43.465515" lon="11.615485"><ele>222.0</ele><time>2026-03-31T13:39:40.797Z</time></trkpt><trkpt lat="43.4654383" lon="11.615575"><ele>224.25</ele><time>2026-03-31T13:39:41.799Z</time></trkpt><trkpt lat="43.4653583" lon="11.6156717"><ele>226.5</ele><time>2026-03-31T13:39:42.798Z</time></trkpt><trkpt lat="43.4652683" lon="11.6157817"><ele>228.75</ele><time>2026-03-31T13:39:43.798Z</time></trkpt><trkpt lat="43.4651767" lon="11.6158967"><ele>231.0</ele><time>2026-03-31T13:39:44.801Z</time></trkpt><trkpt lat="43.4650867" lon="11.6160067"><ele>231.0</ele><time>2026-03-31T13:39:45.799Z</time></trkpt><trkpt lat="43.465" lon="11.6161283"><ele>231.0</ele><time>2026-03-31T13:39:46.796Z</time></trkpt><trkpt lat="43.4649267" lon="11.6162683"><ele>231.0</ele><time>2026-03-31T13:39:47.797Z</time></trkpt><trkpt lat="43.46487" lon="11.6164267"><ele>231.0</ele><time>2026-03-31T13:39:48.799Z</time></trkpt><trkpt lat="43.46483" lon="11.61659"><ele>230.75</ele><time>2026-03-31T13:39:49.798Z</time></trkpt><trkpt lat="43.4648083" lon="11.6167583"><ele>230.5</ele><time>2026-03-31T13:39:50.799Z</time></trkpt><trkpt lat="43.4647833" lon="11.6169117"><ele>230.25</ele><time>2026-03-31T13:39:51.798Z</time></trkpt><trkpt lat="43.4647533" lon="11.6170583"><ele>230.0</ele><time>2026-03-31T13:39:52.798Z</time></trkpt><trkpt lat="43.46472" lon="11.617215"><ele>229.6</ele><time>2026-03-31T13:39:53.797Z</time></trkpt><trkpt lat="43.46469" lon="11.6173683"><ele>229.2</ele><time>2026-03-31T13:39:54.798Z</time></trkpt><trkpt lat="43.46466" lon="11.6174983"><ele>228.8</ele><time>2026-03-31T13:39:55.798Z</time></trkpt><trkpt lat="43.4646067" lon="11.61761"><ele>228.4</ele><time>2026-03-31T13:39:56.799Z</time></trkpt><trkpt lat="43.4645467" lon="11.6177017"><ele>228.0</ele><time>2026-03-31T13:39:57.798Z</time></trkpt><trkpt lat="43.46449" lon="11.6177767"><ele>229.66666666666666</ele><time>2026-03-31T13:39:58.797Z</time></trkpt><trkpt lat="43.464445" lon="11.61784"><ele>231.33333333333331</ele><time>2026-03-31T13:39:59.798Z</time></trkpt><trkpt lat="43.46439" lon="11.61794"><ele>233.0</ele><time>2026-03-31T13:40:01.799Z</time></trkpt><trkpt lat="43.4643567" lon="11.6180817"><ele>234.66666666666666</ele><time>2026-03-31T13:40:03.798Z</time></trkpt><trkpt lat="43.4643517" lon="11.6181783"><ele>236.33333333333331</ele><time>2026-03-31T13:40:04.797Z</time></trkpt><trkpt lat="43.464365" lon="11.618285"><ele>238.0</ele><time>2026-03-31T13:40:05.796Z</time></trkpt><trkpt lat="43.4643883" lon="11.6184"><ele>237.99999999999997</ele><time>2026-03-31T13:40:06.797Z</time></trkpt><trkpt lat="43.4644117" lon="11.6185017"><ele>238.0</ele><time>2026-03-31T13:40:07.797Z</time></trkpt><trkpt lat="43.4644433" lon="11.61859"><ele>238.0</ele><time>2026-03-31T13:40:08.797Z</time></trkpt><trkpt lat="43.4644717" lon="11.618675"><ele>238.0</ele><time>2026-03-31T13:40:09.797Z</time></trkpt><trkpt lat="43.4645017" lon="11.61876"><ele>237.99999999999997</ele><time>2026-03-31T13:40:10.796Z</time></trkpt><trkpt lat="43.4645533" lon="11.61891"><ele>238.0</ele><time>2026-03-31T13:40:12.796Z</time></trkpt><trkpt lat="43.4645633" lon="11.6190267"><ele>237.0</ele><time>2026-03-31T13:40:14.798Z</time></trkpt><trkpt lat="43.4645133" lon="11.6191433"><ele>236.0</ele><time>2026-03-31T13:40:16.797Z</time></trkpt><trkpt lat="43.46446" lon="11.6191917"><ele>235.0</ele><time>2026-03-31T13:40:17.798Z</time></trkpt><trkpt lat="43.4643783" lon="11.6192317"><ele>234.0</ele><time>2026-03-31T13:40:18.798Z</time></trkpt><trkpt lat="43.46427" lon="11.6192717"><ele>233.0</ele><time>2026-03-31T13:40:19.797Z</time></trkpt><trkpt lat="43.4641467" lon="11.6193217"><ele>233.0</ele><time>2026-03-31T13:40:20.798Z</time></trkpt><trkpt lat="43.46403" lon="11.6193767"><ele>233.0</ele><time>2026-03-31T13:40:21.798Z</time></trkpt><trkpt lat="43.46392" lon="11.61943"><ele>233.0</ele><time>2026-03-31T13:40:22.797Z</time></trkpt><trkpt lat="43.4638083" lon="11.6194733"><ele>233.0</ele><time>2026-03-31T13:40:23.797Z</time></trkpt><trkpt lat="43.4636983" lon="11.619505"><ele>232.66666666666669</ele><time>2026-03-31T13:40:24.798Z</time></trkpt><trkpt lat="43.4635983" lon="11.619525"><ele>232.33333333333334</ele><time>2026-03-31T13:40:25.793Z</time></trkpt><trkpt lat="43.4635083" lon="11.6195367"><ele>232.0</ele><time>2026-03-31T13:40:26.798Z</time></trkpt><trkpt lat="43.463425" lon="11.6195567"><ele>231.66666666666669</ele><time>2026-03-31T13:40:27.798Z</time></trkpt><trkpt lat="43.4633483" lon="11.6195833"><ele>231.33333333333334</ele><time>2026-03-31T13:40:28.799Z</time></trkpt><trkpt lat="43.46328" lon="11.6196183"><ele>231.0</ele><time>2026-03-31T13:40:29.799Z</time></trkpt><trkpt lat="43.4632183" lon="11.619665"><ele>231.0</ele><time>2026-03-31T13:40:30.799Z</time></trkpt><trkpt lat="43.46316" lon="11.61973"><ele>231.00000000000003</ele><time>2026-03-31T13:40:31.799Z</time></trkpt><trkpt lat="43.463105" lon="11.619825"><ele>231.00000000000003</ele><time>2026-03-31T13:40:32.799Z</time></trkpt><trkpt lat="43.4630583" lon="11.6199433"><ele>231.0</ele><time>2026-03-31T13:40:33.797Z</time></trkpt><trkpt lat="43.463035" lon="11.6200983"><ele>231.0</ele><time>2026-03-31T13:40:34.798Z</time></trkpt><trkpt lat="43.4630117" lon="11.620275"><ele>231.0</ele><time>2026-03-31T13:40:35.797Z</time></trkpt><trkpt lat="43.4629867" lon="11.6204633"><ele>231.0</ele><time>2026-03-31T13:40:36.798Z</time></trkpt><trkpt lat="43.4629767" lon="11.6206467"><ele>231.0</ele><time>2026-03-31T13:40:37.798Z</time></trkpt><trkpt lat="43.46297" lon="11.620825"><ele>231.0</ele><time>2026-03-31T13:40:38.798Z</time></trkpt><trkpt lat="43.462955" lon="11.6209933"><ele>236.0</ele><time>2026-03-31T13:40:39.798Z</time></trkpt><trkpt lat="43.46294" lon="11.6211667"><ele>241.0</ele><time>2026-03-31T13:40:40.797Z</time></trkpt><trkpt lat="43.4629233" lon="11.621335"><ele>246.0</ele><time>2026-03-31T13:40:41.798Z</time></trkpt><trkpt lat="43.4629167" lon="11.6215"><ele>251.0</ele><time>2026-03-31T13:40:42.799Z</time></trkpt><trkpt lat="43.4629067" lon="11.621665"><ele>251.0</ele><time>2026-03-31T13:40:43.798Z</time></trkpt><trkpt lat="43.46289" lon="11.6218233"><ele>251.0</ele><time>2026-03-31T13:40:44.798Z</time></trkpt><trkpt lat="43.46287" lon="11.6219833"><ele>251.0</ele><time>2026-03-31T13:40:45.797Z</time></trkpt><trkpt lat="43.4628367" lon="11.622155"><ele>251.0</ele><time>2026-03-31T13:40:46.797Z</time></trkpt><trkpt lat="43.4627933" lon="11.6223283"><ele>251.0</ele><time>2026-03-31T13:40:47.796Z</time></trkpt><trkpt lat="43.462745" lon="11.6225"><ele>251.0</ele><time>2026-03-31T13:40:48.798Z</time></trkpt><trkpt lat="43.4627067" lon="11.6226617"><ele>251.0</ele><time>2026-03-31T13:40:49.797Z</time></trkpt><trkpt lat="43.4626783" lon="11.622815"><ele>251.0</ele><time>2026-03-31T13:40:50.798Z</time></trkpt><trkpt lat="43.4626583" lon="11.622965"><ele>251.0</ele><time>2026-03-31T13:40:51.799Z</time></trkpt><trkpt lat="43.4626333" lon="11.6231133"><ele>251.00000000000003</ele><time>2026-03-31T13:40:52.797Z</time></trkpt><trkpt lat="43.4625933" lon="11.6232533"><ele>251.00000000000003</ele><time>2026-03-31T13:40:53.798Z</time></trkpt><trkpt lat="43.4625533" lon="11.623375"><ele>251.0</ele><time>2026-03-31T13:40:54.797Z</time></trkpt><trkpt lat="43.4625167" lon="11.62349"><ele>251.0</ele><time>2026-03-31T13:40:55.799Z</time></trkpt><trkpt lat="43.462495" lon="11.6236133"><ele>251.75</ele><time>2026-03-31T13:40:56.799Z</time></trkpt><trkpt lat="43.4624883" lon="11.6237467"><ele>252.5</ele><time>2026-03-31T13:40:57.798Z</time></trkpt><trkpt lat="43.4624883" lon="11.6239017"><ele>253.25</ele><time>2026-03-31T13:40:58.797Z</time></trkpt><trkpt lat="43.4624967" lon="11.6240783"><ele>254.0</ele><time>2026-03-31T13:40:59.797Z</time></trkpt><trkpt lat="43.4625" lon="11.6242633"><ele>254.0</ele><time>2026-03-31T13:41:00.8Z</time></trkpt><trkpt lat="43.462505" lon="11.6244717"><ele>254.0</ele><time>2026-03-31T13:41:01.799Z</time></trkpt><trkpt lat="43.4625117" lon="11.6246867"><ele>254.0</ele><time>2026-03-31T13:41:02.799Z</time></trkpt><trkpt lat="43.4625167" lon="11.6249033"><ele>255.66666666666669</ele><time>2026-03-31T13:41:03.798Z</time></trkpt><trkpt lat="43.4625183" lon="11.6251233"><ele>257.3333333333333</ele><time>2026-03-31T13:41:04.797Z</time></trkpt><trkpt lat="43.4625233" lon="11.625345"><ele>259.0</ele><time>2026-03-31T13:41:05.799Z</time></trkpt><trkpt lat="43.46253" lon="11.6255567"><ele>260.5</ele><time>2026-03-31T13:41:06.798Z</time></trkpt><trkpt lat="43.4625383" lon="11.6257633"><ele>262.0</ele><time>2026-03-31T13:41:07.798Z</time></trkpt><trkpt lat="43.4625483" lon="11.6259583"><ele>263.5</ele><time>2026-03-31T13:41:08.799Z</time></trkpt><trkpt lat="43.4625583" lon="11.6261483"><ele>265.0</ele><time>2026-03-31T13:41:09.798Z</time></trkpt><trkpt lat="43.462565" lon="11.626335"><ele>265.0</ele><time>2026-03-31T13:41:10.798Z</time></trkpt><trkpt lat="43.4625583" lon="11.62652"><ele>265.0</ele><time>2026-03-31T13:41:11.802Z</time></trkpt><trkpt lat="43.4625483" lon="11.6267067"><ele>265.0</ele><time>2026-03-31T13:41:12.798Z</time></trkpt><trkpt lat="43.4625417" lon="11.6268867"><ele>265.0</ele><time>2026-03-31T13:41:13.799Z</time></trkpt><trkpt lat="43.4625367" lon="11.6270617"><ele>265.0</ele><time>2026-03-31T13:41:14.798Z</time></trkpt><trkpt lat="43.462535" lon="11.62723"><ele>265.0</ele><time>2026-03-31T13:41:15.797Z</time></trkpt><trkpt lat="43.4625267" lon="11.6273983"><ele>265.0</ele><time>2026-03-31T13:41:16.797Z</time></trkpt><trkpt lat="43.4625117" lon="11.62757"><ele>265.0</ele><time>2026-03-31T13:41:17.799Z</time></trkpt><trkpt lat="43.4624883" lon="11.62774"><ele>264.5</ele><time>2026-03-31T13:41:18.797Z</time></trkpt><trkpt lat="43.4624633" lon="11.6279033"><ele>264.0</ele><time>2026-03-31T13:41:19.799Z</time></trkpt><trkpt lat="43.4624383" lon="11.6280667"><ele>263.5</ele><time>2026-03-31T13:41:20.8Z</time></trkpt><trkpt lat="43.4624117" lon="11.6282283"><ele>263.0</ele><time>2026-03-31T13:41:21.799Z</time></trkpt><trkpt lat="43.4623883" lon="11.62839"><ele>263.0</ele><time>2026-03-31T13:41:22.796Z</time></trkpt><trkpt lat="43.4623667" lon="11.6285533"><ele>263.0</ele><time>2026-03-31T13:41:23.797Z</time></trkpt><trkpt lat="43.4623467" lon="11.62872"><ele>263.0</ele><time>2026-03-31T13:41:24.799Z</time></trkpt><trkpt lat="43.4623283" lon="11.6288833"><ele>263.0</ele><time>2026-03-31T13:41:25.798Z</time></trkpt><trkpt lat="43.4623067" lon="11.6290367"><ele>262.6</ele><time>2026-03-31T13:41:26.799Z</time></trkpt><trkpt lat="43.4622867" lon="11.629185"><ele>262.20000000000005</ele><time>2026-03-31T13:41:27.799Z</time></trkpt><trkpt lat="43.4622683" lon="11.6293233"><ele>261.8</ele><time>2026-03-31T13:41:28.797Z</time></trkpt><trkpt lat="43.4622583" lon="11.629445"><ele>261.40000000000003</ele><time>2026-03-31T13:41:29.798Z</time></trkpt><trkpt lat="43.4622617" lon="11.6295767"><ele>261.0</ele><time>2026-03-31T13:41:30.799Z</time></trkpt><trkpt lat="43.4622783" lon="11.6297133"><ele>261.0</ele><time>2026-03-31T13:41:31.798Z</time></trkpt><trkpt lat="43.4622967" lon="11.629855"><ele>261.0</ele><time>2026-03-31T13:41:32.798Z</time></trkpt><trkpt lat="43.46231" lon="11.63"><ele>261.0</ele><time>2026-03-31T13:41:33.797Z</time></trkpt><trkpt lat="43.4623267" lon="11.6301483"><ele>261.0</ele><time>2026-03-31T13:41:34.796Z</time></trkpt><trkpt lat="43.4623467" lon="11.6302967"><ele>261.0</ele><time>2026-03-31T13:41:35.797Z</time></trkpt><trkpt lat="43.4623667" lon="11.6304417"><ele>261.0</ele><time>2026-03-31T13:41:36.8Z</time></trkpt><trkpt lat="43.4623867" lon="11.630585"><ele>261.0</ele><time>2026-03-31T13:41:37.798Z</time></trkpt><trkpt lat="43.4623917" lon="11.6307233"><ele>261.0</ele><time>2026-03-31T13:41:38.799Z</time></trkpt><trkpt lat="43.4623817" lon="11.6308633"><ele>261.0</ele><time>2026-03-31T13:41:39.797Z</time></trkpt><trkpt lat="43.4623567" lon="11.631"><ele>261.0</ele><time>2026-03-31T13:41:40.798Z</time></trkpt><trkpt lat="43.462315" lon="11.6311283"><ele>261.6</ele><time>2026-03-31T13:41:41.799Z</time></trkpt><trkpt lat="43.46226" lon="11.631245"><ele>262.20000000000005</ele><time>2026-03-31T13:41:42.799Z</time></trkpt><trkpt lat="43.462195" lon="11.63136"><ele>262.79999999999995</ele><time>2026-03-31T13:41:43.797Z</time></trkpt><trkpt lat="43.462125" lon="11.63146"><ele>263.4</ele><time>2026-03-31T13:41:44.799Z</time></trkpt><trkpt lat="43.4620433" lon="11.63155"><ele>264.0</ele><time>2026-03-31T13:41:45.799Z</time></trkpt><trkpt lat="43.4619483" lon="11.631645"><ele>264.75</ele><time>2026-03-31T13:41:46.797Z</time></trkpt><trkpt lat="43.4618483" lon="11.63175"><ele>265.5</ele><time>2026-03-31T13:41:47.798Z</time></trkpt><trkpt lat="43.4617383" lon="11.6318517"><ele>266.25</ele><time>2026-03-31T13:41:48.798Z</time></trkpt><trkpt lat="43.4616417" lon="11.6319533"><ele>267.0</ele><time>2026-03-31T13:41:49.798Z</time></trkpt><trkpt lat="43.4615483" lon="11.63205"><ele>267.0</ele><time>2026-03-31T13:41:50.799Z</time></trkpt><trkpt lat="43.4614633" lon="11.6321383"><ele>267.0</ele><time>2026-03-31T13:41:51.798Z</time></trkpt><trkpt lat="43.4613783" lon="11.632215"><ele>267.0</ele><time>2026-03-31T13:41:52.799Z</time></trkpt><trkpt lat="43.4612983" lon="11.6322883"><ele>267.0</ele><time>2026-03-31T13:41:53.796Z</time></trkpt><trkpt lat="43.4612367" lon="11.6323433"><ele>267.0</ele><time>2026-03-31T13:41:54.797Z</time></trkpt><trkpt lat="43.46115" lon="11.6324067"><ele>268.1666666666667</ele><time>2026-03-31T13:41:56.797Z</time></trkpt><trkpt lat="43.4610683" lon="11.63244"><ele>269.3333333333333</ele><time>2026-03-31T13:41:58.797Z</time></trkpt><trkpt lat="43.4610017" lon="11.6324683"><ele>270.5</ele><time>2026-03-31T13:42:00.798Z</time></trkpt><trkpt lat="43.46092" lon="11.6325067"><ele>271.66666666666663</ele><time>2026-03-31T13:42:02.798Z</time></trkpt><trkpt lat="43.4608267" lon="11.6324783"><ele>272.8333333333333</ele><time>2026-03-31T13:42:04.797Z</time></trkpt><trkpt lat="43.4607717" lon="11.6324317"><ele>274.0</ele><time>2026-03-31T13:42:05.797Z</time></trkpt><trkpt lat="43.4606583" lon="11.6323667"><ele>274.0</ele><time>2026-03-31T13:42:07.796Z</time></trkpt><trkpt lat="43.4605433" lon="11.6323217"><ele>274.0</ele><time>2026-03-31T13:42:09.796Z</time></trkpt><trkpt lat="43.4604933" lon="11.632265"><ele>274.0</ele><time>2026-03-31T13:42:10.798Z</time></trkpt><trkpt lat="43.4604317" lon="11.6321867"><ele>274.0</ele><time>2026-03-31T13:42:11.798Z</time></trkpt><trkpt lat="43.46038" lon="11.632105"><ele>274.0</ele><time>2026-03-31T13:42:12.798Z</time></trkpt><trkpt lat="43.460345" lon="11.6320233"><ele>274.0</ele><time>2026-03-31T13:42:13.798Z</time></trkpt><trkpt lat="43.4602917" lon="11.63194"><ele>276.3333333333333</ele><time>2026-03-31T13:42:14.798Z</time></trkpt><trkpt lat="43.4602417" lon="11.63186"><ele>278.66666666666663</ele><time>2026-03-31T13:42:15.798Z</time></trkpt><trkpt lat="43.4601967" lon="11.6317933"><ele>281.0</ele><time>2026-03-31T13:42:16.797Z</time></trkpt><trkpt lat="43.460095" lon="11.6317167"><ele>283.3333333333333</ele><time>2026-03-31T13:42:18.798Z</time></trkpt><trkpt lat="43.46003" lon="11.6316967"><ele>285.6666666666667</ele><time>2026-03-31T13:42:19.796Z</time></trkpt><trkpt lat="43.4599533" lon="11.63167"><ele>288.0</ele><time>2026-03-31T13:42:20.798Z</time></trkpt><trkpt lat="43.4598667" lon="11.6316433"><ele>288.0</ele><time>2026-03-31T13:42:21.791Z</time></trkpt><trkpt lat="43.4597817" lon="11.6316267"><ele>288.0</ele><time>2026-03-31T13:42:22.797Z</time></trkpt><trkpt lat="43.459705" lon="11.6316117"><ele>288.0</ele><time>2026-03-31T13:42:23.797Z</time></trkpt><trkpt lat="43.4596283" lon="11.631585"><ele>288.0</ele><time>2026-03-31T13:42:24.797Z</time></trkpt><trkpt lat="43.4595583" lon="11.631535"><ele>288.0</ele><time>2026-03-31T13:42:25.797Z</time></trkpt><trkpt lat="43.4595" lon="11.63149"><ele>288.0</ele><time>2026-03-31T13:42:26.798Z</time></trkpt><trkpt lat="43.459445" lon="11.6314367"><ele>289.5</ele><time>2026-03-31T13:42:27.798Z</time></trkpt><trkpt lat="43.4593967" lon="11.6313567"><ele>291.0</ele><time>2026-03-31T13:42:28.796Z</time></trkpt><trkpt lat="43.4593433" lon="11.63127"><ele>292.5</ele><time>2026-03-31T13:42:29.798Z</time></trkpt><trkpt lat="43.459285" lon="11.6311917"><ele>294.0</ele><time>2026-03-31T13:42:30.798Z</time></trkpt><trkpt lat="43.45922" lon="11.6311233"><ele>295.5</ele><time>2026-03-31T13:42:31.798Z</time></trkpt><trkpt lat="43.4591517" lon="11.6310483"><ele>297.0</ele><time>2026-03-31T13:42:32.799Z</time></trkpt><trkpt lat="43.4590883" lon="11.6309783"><ele>298.5</ele><time>2026-03-31T13:42:33.796Z</time></trkpt><trkpt lat="43.4590317" lon="11.6309083"><ele>300.0</ele><time>2026-03-31T13:42:34.797Z</time></trkpt><trkpt lat="43.4589733" lon="11.6308267"><ele>301.5</ele><time>2026-03-31T13:42:35.799Z</time></trkpt><trkpt lat="43.4589133" lon="11.6307467"><ele>303.0</ele><time>2026-03-31T13:42:36.799Z</time></trkpt><trkpt lat="43.4588467" lon="11.6306717"><ele>304.5</ele><time>2026-03-31T13:42:37.799Z</time></trkpt><trkpt lat="43.4587733" lon="11.6306067"><ele>306.0</ele><time>2026-03-31T13:42:38.799Z</time></trkpt><trkpt lat="43.4586933" lon="11.6305483"><ele>307.6</ele><time>2026-03-31T13:42:39.798Z</time></trkpt><trkpt lat="43.4586" lon="11.6304933"><ele>309.20000000000005</ele><time>2026-03-31T13:42:40.798Z</time></trkpt><trkpt lat="43.4585033" lon="11.6304367"><ele>310.79999999999995</ele><time>2026-03-31T13:42:41.798Z</time></trkpt><trkpt lat="43.4584067" lon="11.6303917"><ele>312.4</ele><time>2026-03-31T13:42:42.799Z</time></trkpt><trkpt lat="43.4583217" lon="11.6303467"><ele>314.0</ele><time>2026-03-31T13:42:43.796Z</time></trkpt><trkpt lat="43.4582533" lon="11.6302967"><ele>314.8</ele><time>2026-03-31T13:42:44.799Z</time></trkpt><trkpt lat="43.45815" lon="11.6302117"><ele>315.59999999999997</ele><time>2026-03-31T13:42:46.797Z</time></trkpt><trkpt lat="43.4580883" lon="11.630175"><ele>316.4</ele><time>2026-03-31T13:42:47.798Z</time></trkpt><trkpt lat="43.458025" lon="11.6301483"><ele>317.2</ele><time>2026-03-31T13:42:48.798Z</time></trkpt><trkpt lat="43.4579183" lon="11.630085"><ele>318.0</ele><time>2026-03-31T13:42:50.8Z</time></trkpt><trkpt lat="43.4578217" lon="11.6300033"><ele>319.0</ele><time>2026-03-31T13:42:52.797Z</time></trkpt><trkpt lat="43.4577283" lon="11.6299483"><ele>320.0</ele><time>2026-03-31T13:42:54.797Z</time></trkpt><trkpt lat="43.4576033" lon="11.6299417"><ele>321.0</ele><time>2026-03-31T13:42:56.799Z</time></trkpt><trkpt lat="43.457515" lon="11.6298933"><ele>322.0</ele><time>2026-03-31T13:42:58.797Z</time></trkpt><trkpt lat="43.4574533" lon="11.6297967"><ele>323.0</ele><time>2026-03-31T13:43:00.797Z</time></trkpt><trkpt lat="43.4574383" lon="11.6297017"><ele>323.0</ele><time>2026-03-31T13:43:02.8Z</time></trkpt><trkpt lat="43.457465" lon="11.62957"><ele>323.0</ele><time>2026-03-31T13:43:04.797Z</time></trkpt><trkpt lat="43.45747" lon="11.62944"><ele>323.0</ele><time>2026-03-31T13:43:06.797Z</time></trkpt><trkpt lat="43.4573817" lon="11.6293183"><ele>323.0</ele><time>2026-03-31T13:43:08.798Z</time></trkpt><trkpt lat="43.45732" lon="11.629265"><ele>323.0</ele><time>2026-03-31T13:43:09.797Z</time></trkpt><trkpt lat="43.4572633" lon="11.6292017"><ele>323.1666666666667</ele><time>2026-03-31T13:43:10.796Z</time></trkpt><trkpt lat="43.4572133" lon="11.6291317"><ele>323.33333333333337</ele><time>2026-03-31T13:43:11.798Z</time></trkpt><trkpt lat="43.4571667" lon="11.6290567"><ele>323.5</ele><time>2026-03-31T13:43:12.798Z</time></trkpt><trkpt lat="43.4571233" lon="11.6289883"><ele>323.6666666666667</ele><time>2026-03-31T13:43:13.799Z</time></trkpt><trkpt lat="43.457025" lon="11.6289117"><ele>323.8333333333333</ele><time>2026-03-31T13:43:15.798Z</time></trkpt><trkpt lat="43.4569583" lon="11.62891"><ele>324.0</ele><time>2026-03-31T13:43:16.795Z</time></trkpt><trkpt lat="43.4568933" lon="11.62892"><ele>325.6666666666667</ele><time>2026-03-31T13:43:17.798Z</time></trkpt><trkpt lat="43.4568067" lon="11.6289133"><ele>327.3333333333333</ele><time>2026-03-31T13:43:19.798Z</time></trkpt><trkpt lat="43.4567483" lon="11.6288367"><ele>329.0</ele><time>2026-03-31T13:43:21.799Z</time></trkpt><trkpt lat="43.4566667" lon="11.6288133"><ele>330.66666666666663</ele><time>2026-03-31T13:43:23.797Z</time></trkpt><trkpt lat="43.4565983" lon="11.6288267"><ele>332.3333333333333</ele><time>2026-03-31T13:43:24.798Z</time></trkpt><trkpt lat="43.4565167" lon="11.6288467"><ele>334.0</ele><time>2026-03-31T13:43:25.797Z</time></trkpt><trkpt lat="43.456435" lon="11.6288617"><ele>334.0</ele><time>2026-03-31T13:43:26.798Z</time></trkpt><trkpt lat="43.45636" lon="11.6288633"><ele>334.0</ele><time>2026-03-31T13:43:27.798Z</time></trkpt><trkpt lat="43.456295" lon="11.628855"><ele>334.0</ele><time>2026-03-31T13:43:28.797Z</time></trkpt><trkpt lat="43.4561683" lon="11.6288383"><ele>334.0</ele><time>2026-03-31T13:43:30.797Z</time></trkpt><trkpt lat="43.4560533" lon="11.62881"><ele>334.0</ele><time>2026-03-31T13:43:32.797Z</time></trkpt><trkpt lat="43.455935" lon="11.628805"><ele>334.0</ele><time>2026-03-31T13:43:34.798Z</time></trkpt><trkpt lat="43.4558617" lon="11.6288133"><ele>334.0</ele><time>2026-03-31T13:43:35.797Z</time></trkpt><trkpt lat="43.4557867" lon="11.6288183"><ele>334.0</ele><time>2026-03-31T13:43:36.794Z</time></trkpt><trkpt lat="43.4557083" lon="11.6288217"><ele>334.0</ele><time>2026-03-31T13:43:37.798Z</time></trkpt><trkpt lat="43.455635" lon="11.6288183"><ele>334.0</ele><time>2026-03-31T13:43:38.799Z</time></trkpt><trkpt lat="43.4555617" lon="11.6288183"><ele>334.0</ele><time>2026-03-31T13:43:39.798Z</time></trkpt><trkpt lat="43.4554883" lon="11.62882"><ele>334.0</ele><time>2026-03-31T13:43:40.797Z</time></trkpt><trkpt lat="43.45542" lon="11.6288167"><ele>335.3333333333333</ele><time>2026-03-31T13:43:41.798Z</time></trkpt><trkpt lat="43.4553433" lon="11.6288067"><ele>336.66666666666663</ele><time>2026-03-31T13:43:42.799Z</time></trkpt><trkpt lat="43.4552783" lon="11.628785"><ele>338.0</ele><time>2026-03-31T13:43:43.798Z</time></trkpt><trkpt lat="43.4552133" lon="11.628775"><ele>339.3333333333333</ele><time>2026-03-31T13:43:44.799Z</time></trkpt><trkpt lat="43.4551033" lon="11.6288433"><ele>340.6666666666667</ele><time>2026-03-31T13:43:46.797Z</time></trkpt><trkpt lat="43.4550367" lon="11.6289217"><ele>342.0</ele><time>2026-03-31T13:43:47.799Z</time></trkpt><trkpt lat="43.454975" lon="11.629"><ele>342.0</ele><time>2026-03-31T13:43:48.799Z</time></trkpt><trkpt lat="43.4549133" lon="11.62907"><ele>342.0</ele><time>2026-03-31T13:43:49.799Z</time></trkpt><trkpt lat="43.4548533" lon="11.6291417"><ele>342.0</ele><time>2026-03-31T13:43:50.798Z</time></trkpt><trkpt lat="43.45479" lon="11.6292267"><ele>342.0</ele><time>2026-03-31T13:43:51.798Z</time></trkpt><trkpt lat="43.4547167" lon="11.6293217"><ele>342.0</ele><time>2026-03-31T13:43:52.798Z</time></trkpt><trkpt lat="43.4546567" lon="11.629415"><ele>342.0</ele><time>2026-03-31T13:43:53.798Z</time></trkpt><trkpt lat="43.4546033" lon="11.6295183"><ele>343.0</ele><time>2026-03-31T13:43:54.797Z</time></trkpt><trkpt lat="43.4545633" lon="11.629605"><ele>344.0</ele><time>2026-03-31T13:43:55.798Z</time></trkpt><trkpt lat="43.454495" lon="11.6296917"><ele>345.0</ele><time>2026-03-31T13:43:56.799Z</time></trkpt><trkpt lat="43.4544333" lon="11.6297617"><ele>346.0</ele><time>2026-03-31T13:43:57.796Z</time></trkpt><trkpt lat="43.4543517" lon="11.6298133"><ele>347.0</ele><time>2026-03-31T13:43:58.795Z</time></trkpt><trkpt lat="43.4542633" lon="11.629845"><ele>348.0</ele><time>2026-03-31T13:43:59.797Z</time></trkpt><trkpt lat="43.4541567" lon="11.6298867"><ele>348.0</ele><time>2026-03-31T13:44:00.798Z</time></trkpt><trkpt lat="43.4540517" lon="11.6299367"><ele>348.0</ele><time>2026-03-31T13:44:01.798Z</time></trkpt><trkpt lat="43.4539533" lon="11.6299933"><ele>348.0</ele><time>2026-03-31T13:44:02.8Z</time></trkpt><trkpt lat="43.4538533" lon="11.6300767"><ele>348.0</ele><time>2026-03-31T13:44:03.798Z</time></trkpt><trkpt lat="43.45376" lon="11.6301633"><ele>348.0</ele><time>2026-03-31T13:44:04.797Z</time></trkpt><trkpt lat="43.4536717" lon="11.6302467"><ele>348.79999999999995</ele><time>2026-03-31T13:44:05.797Z</time></trkpt><trkpt lat="43.453585" lon="11.6303233"><ele>349.6</ele><time>2026-03-31T13:44:06.798Z</time></trkpt><trkpt lat="43.45351" lon="11.6304033"><ele>350.4</ele><time>2026-03-31T13:44:07.798Z</time></trkpt><trkpt lat="43.4534467" lon="11.630495"><ele>351.20000000000005</ele><time>2026-03-31T13:44:08.798Z</time></trkpt><trkpt lat="43.4533917" lon="11.6306133"><ele>352.0</ele><time>2026-03-31T13:44:09.797Z</time></trkpt><trkpt lat="43.4533383" lon="11.6307417"><ele>352.0</ele><time>2026-03-31T13:44:10.796Z</time></trkpt><trkpt lat="43.45329" lon="11.630875"><ele>352.0</ele><time>2026-03-31T13:44:11.797Z</time></trkpt><trkpt lat="43.4532433" lon="11.6310067"><ele>352.0</ele><time>2026-03-31T13:44:12.799Z</time></trkpt><trkpt lat="43.45321" lon="11.6311283"><ele>352.0</ele><time>2026-03-31T13:44:13.798Z</time></trkpt><trkpt lat="43.4531783" lon="11.63125"><ele>352.0</ele><time>2026-03-31T13:44:14.794Z</time></trkpt><trkpt lat="43.45315" lon="11.63137"><ele>351.66666666666663</ele><time>2026-03-31T13:44:15.798Z</time></trkpt><trkpt lat="43.453125" lon="11.6314917"><ele>351.3333333333333</ele><time>2026-03-31T13:44:16.797Z</time></trkpt><trkpt lat="43.453105" lon="11.6315933"><ele>351.0</ele><time>2026-03-31T13:44:17.797Z</time></trkpt><trkpt lat="43.4530883" lon="11.6316833"><ele>350.6666666666667</ele><time>2026-03-31T13:44:18.799Z</time></trkpt><trkpt lat="43.4530733" lon="11.6317767"><ele>350.33333333333337</ele><time>2026-03-31T13:44:19.798Z</time></trkpt><trkpt lat="43.4530567" lon="11.631875"><ele>350.0</ele><time>2026-03-31T13:44:20.798Z</time></trkpt><trkpt lat="43.45302" lon="11.632025"><ele>349.83333333333337</ele><time>2026-03-31T13:44:22.795Z</time></trkpt><trkpt lat="43.4530067" lon="11.6321767"><ele>349.6666666666667</ele><time>2026-03-31T13:44:24.797Z</time></trkpt><trkpt lat="43.452995" lon="11.6322667"><ele>349.5</ele><time>2026-03-31T13:44:25.797Z</time></trkpt><trkpt lat="43.4529817" lon="11.6323533"><ele>349.3333333333333</ele><time>2026-03-31T13:44:26.799Z</time></trkpt><trkpt lat="43.4529483" lon="11.6324967"><ele>349.16666666666663</ele><time>2026-03-31T13:44:28.797Z</time></trkpt><trkpt lat="43.4529" lon="11.6325633"><ele>349.0</ele><time>2026-03-31T13:44:30.797Z</time></trkpt><trkpt lat="43.4528567" lon="11.6324983"><ele>348.25</ele><time>2026-03-31T13:44:33.796Z</time></trkpt><trkpt lat="43.4528733" lon="11.632315"><ele>347.5</ele><time>2026-03-31T13:44:35.797Z</time></trkpt><trkpt lat="43.45288" lon="11.6321033"><ele>346.75</ele><time>2026-03-31T13:44:36.799Z</time></trkpt><trkpt lat="43.4528833" lon="11.63192"><ele>346.0</ele><time>2026-03-31T13:44:37.797Z</time></trkpt><trkpt lat="43.4528783" lon="11.6317633"><ele>345.6</ele><time>2026-03-31T13:44:38.799Z</time></trkpt><trkpt lat="43.4528717" lon="11.631615"><ele>345.20000000000005</ele><time>2026-03-31T13:44:39.797Z</time></trkpt><trkpt lat="43.4528633" lon="11.631475"><ele>344.79999999999995</ele><time>2026-03-31T13:44:40.795Z</time></trkpt><trkpt lat="43.4528383" lon="11.6313517"><ele>344.4</ele><time>2026-03-31T13:44:41.798Z</time></trkpt><trkpt lat="43.4527933" lon="11.6312333"><ele>344.0</ele><time>2026-03-31T13:44:42.798Z</time></trkpt><trkpt lat="43.452705" lon="11.6311083"><ele>344.0</ele><time>2026-03-31T13:44:43.798Z</time></trkpt><trkpt lat="43.4526167" lon="11.6309833"><ele>344.0</ele><time>2026-03-31T13:44:44.798Z</time></trkpt><trkpt lat="43.45254" lon="11.630845"><ele>344.0</ele><time>2026-03-31T13:44:45.797Z</time></trkpt><trkpt lat="43.4524517" lon="11.630715"><ele>344.0</ele><time>2026-03-31T13:44:46.798Z</time></trkpt><trkpt lat="43.452365" lon="11.6305883"><ele>344.0</ele><time>2026-03-31T13:44:47.798Z</time></trkpt><trkpt lat="43.4522883" lon="11.6304667"><ele>344.0</ele><time>2026-03-31T13:44:48.797Z</time></trkpt><trkpt lat="43.4522117" lon="11.63035"><ele>344.0</ele><time>2026-03-31T13:44:49.797Z</time></trkpt><trkpt lat="43.4521433" lon="11.6302317"><ele>344.0</ele><time>2026-03-31T13:44:50.799Z</time></trkpt><trkpt lat="43.45208" lon="11.63012"><ele>344.0</ele><time>2026-03-31T13:44:51.798Z</time></trkpt><trkpt lat="43.4520267" lon="11.6300117"><ele>341.6</ele><time>2026-03-31T13:44:52.798Z</time></trkpt><trkpt lat="43.4519667" lon="11.6299067"><ele>339.2</ele><time>2026-03-31T13:44:53.797Z</time></trkpt><trkpt lat="43.4519017" lon="11.62981"><ele>336.8</ele><time>2026-03-31T13:44:54.795Z</time></trkpt><trkpt lat="43.4518283" lon="11.62972"><ele>334.40000000000003</ele><time>2026-03-31T13:44:55.797Z</time></trkpt><trkpt lat="43.4517533" lon="11.629635"><ele>332.0</ele><time>2026-03-31T13:44:56.798Z</time></trkpt><trkpt lat="43.451685" lon="11.62954"><ele>331.5</ele><time>2026-03-31T13:44:57.798Z</time></trkpt><trkpt lat="43.45162" lon="11.6294183"><ele>331.0</ele><time>2026-03-31T13:44:58.797Z</time></trkpt><trkpt lat="43.451555" lon="11.6292867"><ele>330.5</ele><time>2026-03-31T13:44:59.797Z</time></trkpt><trkpt lat="43.45148" lon="11.62916"><ele>330.0</ele><time>2026-03-31T13:45:00.798Z</time></trkpt><trkpt lat="43.4514" lon="11.6290417"><ele>330.0</ele><time>2026-03-31T13:45:01.797Z</time></trkpt><trkpt lat="43.4513167" lon="11.6289167"><ele>330.0</ele><time>2026-03-31T13:45:02.798Z</time></trkpt><trkpt lat="43.451245" lon="11.6287683"><ele>330.0</ele><time>2026-03-31T13:45:03.797Z</time></trkpt><trkpt lat="43.4511767" lon="11.6286"><ele>330.0</ele><time>2026-03-31T13:45:04.796Z</time></trkpt><trkpt lat="43.4511117" lon="11.62844"><ele>328.25</ele><time>2026-03-31T13:45:05.798Z</time></trkpt><trkpt lat="43.45106" lon="11.628295"><ele>326.5</ele><time>2026-03-31T13:45:06.799Z</time></trkpt><trkpt lat="43.45102" lon="11.6281517"><ele>324.75</ele><time>2026-03-31T13:45:07.799Z</time></trkpt><trkpt lat="43.45099" lon="11.628"><ele>323.0</ele><time>2026-03-31T13:45:08.799Z</time></trkpt><trkpt lat="43.4509617" lon="11.6278433"><ele>322.5</ele><time>2026-03-31T13:45:09.798Z</time></trkpt><trkpt lat="43.4509317" lon="11.6276983"><ele>322.0</ele><time>2026-03-31T13:45:10.795Z</time></trkpt><trkpt lat="43.4508883" lon="11.6275583"><ele>321.5</ele><time>2026-03-31T13:45:11.798Z</time></trkpt><trkpt lat="43.4508317" lon="11.6274167"><ele>321.0</ele><time>2026-03-31T13:45:12.798Z</time></trkpt><trkpt lat="43.45076" lon="11.6272583"><ele>321.0</ele><time>2026-03-31T13:45:13.798Z</time></trkpt><trkpt lat="43.45069" lon="11.62709"><ele>321.0</ele><time>2026-03-31T13:45:14.797Z</time></trkpt><trkpt lat="43.450625" lon="11.6269133"><ele>321.0</ele><time>2026-03-31T13:45:15.796Z</time></trkpt><trkpt lat="43.45056" lon="11.626735"><ele>321.0</ele><time>2026-03-31T13:45:16.796Z</time></trkpt><trkpt lat="43.4505017" lon="11.6265617"><ele>320.25</ele><time>2026-03-31T13:45:17.798Z</time></trkpt><trkpt lat="43.450445" lon="11.6263933"><ele>319.5</ele><time>2026-03-31T13:45:18.798Z</time></trkpt><trkpt lat="43.4503933" lon="11.6262333"><ele>318.75</ele><time>2026-03-31T13:45:19.798Z</time></trkpt><trkpt lat="43.45034" lon="11.62608"><ele>318.0</ele><time>2026-03-31T13:45:20.799Z</time></trkpt><trkpt lat="43.4502783" lon="11.6259233"><ele>318.0</ele><time>2026-03-31T13:45:21.797Z</time></trkpt><trkpt lat="43.4502033" lon="11.6257733"><ele>318.0</ele><time>2026-03-31T13:45:22.794Z</time></trkpt><trkpt lat="43.45011" lon="11.6256283"><ele>318.0</ele><time>2026-03-31T13:45:23.799Z</time></trkpt><trkpt lat="43.4500167" lon="11.625485"><ele>318.0</ele><time>2026-03-31T13:45:24.799Z</time></trkpt><trkpt lat="43.4499183" lon="11.62534"><ele>317.25</ele><time>2026-03-31T13:45:25.798Z</time></trkpt><trkpt lat="43.4498333" lon="11.6252083"><ele>316.5</ele><time>2026-03-31T13:45:26.798Z</time></trkpt><trkpt lat="43.4497533" lon="11.6250833"><ele>315.75</ele><time>2026-03-31T13:45:27.798Z</time></trkpt><trkpt lat="43.4496833" lon="11.6249517"><ele>315.0</ele><time>2026-03-31T13:45:28.798Z</time></trkpt><trkpt lat="43.44962" lon="11.6248167"><ele>315.0</ele><time>2026-03-31T13:45:29.798Z</time></trkpt><trkpt lat="43.4495583" lon="11.624685"><ele>315.0</ele><time>2026-03-31T13:45:30.797Z</time></trkpt><trkpt lat="43.4495067" lon="11.6245583"><ele>315.0</ele><time>2026-03-31T13:45:31.798Z</time></trkpt><trkpt lat="43.44947" lon="11.6244583"><ele>315.0</ele><time>2026-03-31T13:45:32.799Z</time></trkpt><trkpt lat="43.4494383" lon="11.62437"><ele>315.0</ele><time>2026-03-31T13:45:33.797Z</time></trkpt><trkpt lat="43.4494083" lon="11.6242817"><ele>315.0</ele><time>2026-03-31T13:45:34.797Z</time></trkpt><trkpt lat="43.4493867" lon="11.62419"><ele>314.2</ele><time>2026-03-31T13:45:35.797Z</time></trkpt><trkpt lat="43.4493717" lon="11.6240967"><ele>313.4</ele><time>2026-03-31T13:45:36.797Z</time></trkpt><trkpt lat="43.449365" lon="11.6239933"><ele>312.6</ele><time>2026-03-31T13:45:37.798Z</time></trkpt><trkpt lat="43.4493683" lon="11.623875"><ele>311.8</ele><time>2026-03-31T13:45:38.798Z</time></trkpt><trkpt lat="43.4493983" lon="11.6237417"><ele>311.0</ele><time>2026-03-31T13:45:39.798Z</time></trkpt><trkpt lat="43.4494233" lon="11.62357"><ele>309.8</ele><time>2026-03-31T13:45:40.797Z</time></trkpt><trkpt lat="43.44944" lon="11.6234"><ele>308.6</ele><time>2026-03-31T13:45:41.798Z</time></trkpt><trkpt lat="43.4494517" lon="11.6232367"><ele>307.4</ele><time>2026-03-31T13:45:42.797Z</time></trkpt><trkpt lat="43.4494467" lon="11.6230917"><ele>306.2</ele><time>2026-03-31T13:45:43.797Z</time></trkpt><trkpt lat="43.44943" lon="11.6229683"><ele>305.0</ele><time>2026-03-31T13:45:44.799Z</time></trkpt><trkpt lat="43.4493983" lon="11.6228617"><ele>304.6</ele><time>2026-03-31T13:45:45.798Z</time></trkpt><trkpt lat="43.44934" lon="11.6227683"><ele>304.2</ele><time>2026-03-31T13:45:46.797Z</time></trkpt><trkpt lat="43.4492567" lon="11.622695"><ele>303.8</ele><time>2026-03-31T13:45:47.797Z</time></trkpt><trkpt lat="43.4491767" lon="11.62263"><ele>303.4</ele><time>2026-03-31T13:45:48.797Z</time></trkpt><trkpt lat="43.4490983" lon="11.62256"><ele>303.0</ele><time>2026-03-31T13:45:49.799Z</time></trkpt><trkpt lat="43.4490333" lon="11.6224817"><ele>303.0</ele><time>2026-03-31T13:45:50.796Z</time></trkpt><trkpt lat="43.44897" lon="11.6224017"><ele>303.0</ele><time>2026-03-31T13:45:51.798Z</time></trkpt><trkpt lat="43.4489117" lon="11.6223267"><ele>303.0</ele><time>2026-03-31T13:45:52.797Z</time></trkpt><trkpt lat="43.448855" lon="11.6222633"><ele>303.0</ele><time>2026-03-31T13:45:53.797Z</time></trkpt><trkpt lat="43.4487933" lon="11.622215"><ele>303.0</ele><time>2026-03-31T13:45:54.796Z</time></trkpt><trkpt lat="43.4487267" lon="11.6221783"><ele>303.0</ele><time>2026-03-31T13:45:55.797Z</time></trkpt><trkpt lat="43.44866" lon="11.6221417"><ele>301.1666666666667</ele><time>2026-03-31T13:45:56.797Z</time></trkpt><trkpt lat="43.44859" lon="11.6220933"><ele>299.3333333333333</ele><time>2026-03-31T13:45:57.798Z</time></trkpt><trkpt lat="43.4485233" lon="11.62204"><ele>297.5</ele><time>2026-03-31T13:45:58.797Z</time></trkpt><trkpt lat="43.4484583" lon="11.62199"><ele>295.66666666666663</ele><time>2026-03-31T13:45:59.796Z</time></trkpt><trkpt lat="43.4483867" lon="11.6219467"><ele>293.8333333333333</ele><time>2026-03-31T13:46:00.796Z</time></trkpt><trkpt lat="43.4483067" lon="11.6219117"><ele>292.0</ele><time>2026-03-31T13:46:01.797Z</time></trkpt><trkpt lat="43.44823" lon="11.62189"><ele>291.8</ele><time>2026-03-31T13:46:02.798Z</time></trkpt><trkpt lat="43.4481483" lon="11.6218617"><ele>291.6</ele><time>2026-03-31T13:46:03.798Z</time></trkpt><trkpt lat="43.4480683" lon="11.6218317"><ele>291.40000000000003</ele><time>2026-03-31T13:46:04.792Z</time></trkpt><trkpt lat="43.44798" lon="11.6217983"><ele>291.2</ele><time>2026-03-31T13:46:05.797Z</time></trkpt><trkpt lat="43.4478967" lon="11.62173"><ele>291.0</ele><time>2026-03-31T13:46:06.798Z</time></trkpt><trkpt lat="43.4478017" lon="11.62164"><ele>288.8</ele><time>2026-03-31T13:46:07.797Z</time></trkpt><trkpt lat="43.4477117" lon="11.62156"><ele>286.6</ele><time>2026-03-31T13:46:08.798Z</time></trkpt><trkpt lat="43.447625" lon="11.6214917"><ele>284.4</ele><time>2026-03-31T13:46:09.797Z</time></trkpt><trkpt lat="43.4475367" lon="11.62144"><ele>282.2</ele><time>2026-03-31T13:46:10.797Z</time></trkpt><trkpt lat="43.4474267" lon="11.6214183"><ele>280.0</ele><time>2026-03-31T13:46:11.797Z</time></trkpt><trkpt lat="43.447295" lon="11.6214133"><ele>280.0</ele><time>2026-03-31T13:46:12.797Z</time></trkpt><trkpt lat="43.4471533" lon="11.621415"><ele>280.0</ele><time>2026-03-31T13:46:13.797Z</time></trkpt><trkpt lat="43.4470183" lon="11.6214167"><ele>280.0</ele><time>2026-03-31T13:46:14.797Z</time></trkpt><trkpt lat="43.4468933" lon="11.62141"><ele>280.0</ele><time>2026-03-31T13:46:15.797Z</time></trkpt><trkpt lat="43.4467767" lon="11.621395"><ele>278.8333333333333</ele><time>2026-03-31T13:46:16.797Z</time></trkpt><trkpt lat="43.4466817" lon="11.6213683"><ele>277.66666666666663</ele><time>2026-03-31T13:46:17.797Z</time></trkpt><trkpt lat="43.4466" lon="11.62135"><ele>276.5</ele><time>2026-03-31T13:46:18.799Z</time></trkpt><trkpt lat="43.44651" lon="11.62135"><ele>275.3333333333333</ele><time>2026-03-31T13:46:19.796Z</time></trkpt><trkpt lat="43.4464267" lon="11.6213767"><ele>274.1666666666667</ele><time>2026-03-31T13:46:20.798Z</time></trkpt><trkpt lat="43.4463533" lon="11.6214017"><ele>273.0</ele><time>2026-03-31T13:46:21.799Z</time></trkpt><trkpt lat="43.4462867" lon="11.6214167"><ele>270.8333333333333</ele><time>2026-03-31T13:46:22.797Z</time></trkpt><trkpt lat="43.4462117" lon="11.6214317"><ele>268.6666666666667</ele><time>2026-03-31T13:46:23.797Z</time></trkpt><trkpt lat="43.4461383" lon="11.6214533"><ele>266.5</ele><time>2026-03-31T13:46:24.797Z</time></trkpt><trkpt lat="43.44606" lon="11.621495"><ele>264.33333333333337</ele><time>2026-03-31T13:46:25.798Z</time></trkpt><trkpt lat="43.4459833" lon="11.6215483"><ele>262.1666666666667</ele><time>2026-03-31T13:46:26.797Z</time></trkpt><trkpt lat="43.4459117" lon="11.6216067"><ele>260.0</ele><time>2026-03-31T13:46:27.797Z</time></trkpt><trkpt lat="43.4458483" lon="11.62166"><ele>260.0</ele><time>2026-03-31T13:46:28.797Z</time></trkpt><trkpt lat="43.4457867" lon="11.6217067"><ele>260.0</ele><time>2026-03-31T13:46:29.798Z</time></trkpt><trkpt lat="43.4457217" lon="11.6217467"><ele>260.0</ele><time>2026-03-31T13:46:30.797Z</time></trkpt><trkpt lat="43.4456567" lon="11.621775"><ele>260.0</ele><time>2026-03-31T13:46:31.796Z</time></trkpt><trkpt lat="43.445595" lon="11.6217933"><ele>260.0</ele><time>2026-03-31T13:46:32.797Z</time></trkpt><trkpt lat="43.4454717" lon="11.6218117"><ele>260.0</ele><time>2026-03-31T13:46:34.796Z</time></trkpt><trkpt lat="43.4454067" lon="11.6218017"><ele>257.83333333333337</ele><time>2026-03-31T13:46:35.796Z</time></trkpt><trkpt lat="43.4453383" lon="11.6217817"><ele>255.66666666666669</ele><time>2026-03-31T13:46:36.799Z</time></trkpt><trkpt lat="43.4452683" lon="11.6217417"><ele>253.5</ele><time>2026-03-31T13:46:37.797Z</time></trkpt><trkpt lat="43.4452" lon="11.62169"><ele>251.33333333333331</ele><time>2026-03-31T13:46:38.797Z</time></trkpt><trkpt lat="43.4451333" lon="11.621625"><ele>249.16666666666666</ele><time>2026-03-31T13:46:39.796Z</time></trkpt><trkpt lat="43.4450683" lon="11.621555"><ele>247.0</ele><time>2026-03-31T13:46:40.797Z</time></trkpt><trkpt lat="43.445005" lon="11.6214933"><ele>246.99999999999997</ele><time>2026-03-31T13:46:41.797Z</time></trkpt><trkpt lat="43.4449383" lon="11.6214417"><ele>247.0</ele><time>2026-03-31T13:46:42.798Z</time></trkpt><trkpt lat="43.4448667" lon="11.621395"><ele>247.0</ele><time>2026-03-31T13:46:43.798Z</time></trkpt><trkpt lat="43.4448017" lon="11.6213467"><ele>247.0</ele><time>2026-03-31T13:46:44.797Z</time></trkpt><trkpt lat="43.444745" lon="11.62129"><ele>246.99999999999997</ele><time>2026-03-31T13:46:45.794Z</time></trkpt><trkpt lat="43.44471" lon="11.6212017"><ele>247.0</ele><time>2026-03-31T13:46:46.796Z</time></trkpt><trkpt lat="43.4447" lon="11.621095"><ele>246.99999999999997</ele><time>2026-03-31T13:46:47.796Z</time></trkpt><trkpt lat="43.4446917" lon="11.6209983"><ele>247.0</ele><time>2026-03-31T13:46:48.798Z</time></trkpt><trkpt lat="43.4446817" lon="11.6208617"><ele>247.0</ele><time>2026-03-31T13:46:50.797Z</time></trkpt><trkpt lat="43.44466" lon="11.6207483"><ele>247.0</ele><time>2026-03-31T13:47:00.8Z</time></trkpt><trkpt lat="43.44458" lon="11.6207783"><ele>246.99999999999997</ele><time>2026-03-31T13:47:02.797Z</time></trkpt><trkpt lat="43.44451" lon="11.6208433"><ele>247.0</ele><time>2026-03-31T13:47:03.797Z</time></trkpt><trkpt lat="43.4444283" lon="11.62093"><ele>245.0</ele><time>2026-03-31T13:47:04.796Z</time></trkpt><trkpt lat="43.4443333" lon="11.6210333"><ele>243.0</ele><time>2026-03-31T13:47:05.796Z</time></trkpt><trkpt lat="43.4442383" lon="11.6211367"><ele>241.0</ele><time>2026-03-31T13:47:06.799Z</time></trkpt><trkpt lat="43.4441383" lon="11.621235"><ele>239.0</ele><time>2026-03-31T13:47:07.798Z</time></trkpt><trkpt lat="43.4440433" lon="11.6213317"><ele>238.75</ele><time>2026-03-31T13:47:08.798Z</time></trkpt><trkpt lat="43.443945" lon="11.6214333"><ele>238.5</ele><time>2026-03-31T13:47:09.797Z</time></trkpt><trkpt lat="43.4438433" lon="11.6215383"><ele>238.25</ele><time>2026-03-31T13:47:10.797Z</time></trkpt><trkpt lat="43.4437383" lon="11.6216433"><ele>238.0</ele><time>2026-03-31T13:47:11.797Z</time></trkpt><trkpt lat="43.4436317" lon="11.6217483"><ele>237.25</ele><time>2026-03-31T13:47:12.799Z</time></trkpt><trkpt lat="43.4435233" lon="11.6218517"><ele>236.5</ele><time>2026-03-31T13:47:13.797Z</time></trkpt><trkpt lat="43.44341" lon="11.6219433"><ele>235.75</ele><time>2026-03-31T13:47:14.798Z</time></trkpt><trkpt lat="43.4432867" lon="11.622025"><ele>235.0</ele><time>2026-03-31T13:47:15.797Z</time></trkpt><trkpt lat="43.4431633" lon="11.6220817"><ele>235.0</ele><time>2026-03-31T13:47:16.797Z</time></trkpt><trkpt lat="43.4430383" lon="11.6221133"><ele>235.0</ele><time>2026-03-31T13:47:17.797Z</time></trkpt><trkpt lat="43.4429183" lon="11.6221333"><ele>235.0</ele><time>2026-03-31T13:47:18.797Z</time></trkpt><trkpt lat="43.4427983" lon="11.622155"><ele>235.0</ele><time>2026-03-31T13:47:19.8Z</time></trkpt><trkpt lat="43.4426767" lon="11.62218"><ele>234.25</ele><time>2026-03-31T13:47:20.799Z</time></trkpt><trkpt lat="43.442555" lon="11.6221983"><ele>233.5</ele><time>2026-03-31T13:47:21.799Z</time></trkpt><trkpt lat="43.442435" lon="11.622215"><ele>232.75</ele><time>2026-03-31T13:47:22.796Z</time></trkpt><trkpt lat="43.4423183" lon="11.6222333"><ele>232.0</ele><time>2026-03-31T13:47:23.798Z</time></trkpt><trkpt lat="43.442205" lon="11.6222467"><ele>232.2</ele><time>2026-03-31T13:47:24.798Z</time></trkpt><trkpt lat="43.4420883" lon="11.622255"><ele>232.39999999999998</ele><time>2026-03-31T13:47:25.797Z</time></trkpt><trkpt lat="43.441975" lon="11.6222567"><ele>232.60000000000002</ele><time>2026-03-31T13:47:26.798Z</time></trkpt><trkpt lat="43.4418717" lon="11.6222517"><ele>232.8</ele><time>2026-03-31T13:47:27.798Z</time></trkpt><trkpt lat="43.441785" lon="11.6222433"><ele>233.0</ele><time>2026-03-31T13:47:28.798Z</time></trkpt><trkpt lat="43.4417217" lon="11.6222333"><ele>233.00000000000003</ele><time>2026-03-31T13:47:29.797Z</time></trkpt><trkpt lat="43.4416517" lon="11.62222"><ele>233.0</ele><time>2026-03-31T13:47:31.798Z</time></trkpt><trkpt lat="43.4415783" lon="11.6222483"><ele>233.0</ele><time>2026-03-31T13:47:39.798Z</time></trkpt><trkpt lat="43.4415733" lon="11.6223417"><ele>233.0</ele><time>2026-03-31T13:47:41.798Z</time></trkpt><trkpt lat="43.4416133" lon="11.6224217"><ele>233.00000000000003</ele><time>2026-03-31T13:47:42.798Z</time></trkpt><trkpt lat="43.4416783" lon="11.6225083"><ele>233.0</ele><time>2026-03-31T13:47:43.799Z</time></trkpt><trkpt lat="43.4417417" lon="11.622595"><ele>233.0</ele><time>2026-03-31T13:47:44.799Z</time></trkpt><trkpt lat="43.4417983" lon="11.6226717"><ele>233.0</ele><time>2026-03-31T13:47:45.796Z</time></trkpt><trkpt lat="43.441855" lon="11.6228083"><ele>233.0</ele><time>2026-03-31T13:47:47.796Z</time></trkpt><trkpt lat="43.44182" lon="11.6229433"><ele>233.0</ele><time>2026-03-31T13:47:49.797Z</time></trkpt><trkpt lat="43.441765" lon="11.623015"><ele>233.0</ele><time>2026-03-31T13:47:50.797Z</time></trkpt><trkpt lat="43.4416867" lon="11.6230983"><ele>235.2</ele><time>2026-03-31T13:47:51.797Z</time></trkpt><trkpt lat="43.4415983" lon="11.6231867"><ele>237.4</ele><time>2026-03-31T13:47:52.796Z</time></trkpt><trkpt lat="43.4415233" lon="11.6232783"><ele>239.59999999999997</ele><time>2026-03-31T13:47:53.798Z</time></trkpt><trkpt lat="43.4414533" lon="11.6233733"><ele>241.79999999999998</ele><time>2026-03-31T13:47:54.796Z</time></trkpt><trkpt lat="43.441395" lon="11.6234767"><ele>244.0</ele><time>2026-03-31T13:47:55.798Z</time></trkpt><trkpt lat="43.441345" lon="11.6235817"><ele>245.33333333333331</ele><time>2026-03-31T13:47:56.798Z</time></trkpt><trkpt lat="43.44132" lon="11.6236933"><ele>246.66666666666666</ele><time>2026-03-31T13:47:57.798Z</time></trkpt><trkpt lat="43.441295" lon="11.6238117"><ele>248.0</ele><time>2026-03-31T13:47:58.796Z</time></trkpt><trkpt lat="43.4412633" lon="11.62393"><ele>249.33333333333331</ele><time>2026-03-31T13:47:59.795Z</time></trkpt><trkpt lat="43.441235" lon="11.62404"><ele>250.66666666666666</ele><time>2026-03-31T13:48:00.797Z</time></trkpt><trkpt lat="43.4412167" lon="11.62414"><ele>252.0</ele><time>2026-03-31T13:48:01.797Z</time></trkpt><trkpt lat="43.4412067" lon="11.6242433"><ele>252.0</ele><time>2026-03-31T13:48:02.798Z</time></trkpt><trkpt lat="43.4412133" lon="11.6243417"><ele>252.0</ele><time>2026-03-31T13:48:03.795Z</time></trkpt><trkpt lat="43.4412417" lon="11.624425"><ele>252.0</ele><time>2026-03-31T13:48:04.796Z</time></trkpt><trkpt lat="43.4412817" lon="11.6245033"><ele>252.0</ele><time>2026-03-31T13:48:05.797Z</time></trkpt><trkpt lat="43.4413517" lon="11.6246"><ele>252.0</ele><time>2026-03-31T13:48:07.796Z</time></trkpt><trkpt lat="43.44145" lon="11.6246333"><ele>252.0</ele><time>2026-03-31T13:48:09.796Z</time></trkpt><trkpt lat="43.4415133" lon="11.6246233"><ele>252.33333333333334</ele><time>2026-03-31T13:48:10.796Z</time></trkpt><trkpt lat="43.4416017" lon="11.6245683"><ele>252.66666666666669</ele><time>2026-03-31T13:48:12.796Z</time></trkpt><trkpt lat="43.4416317" lon="11.6244833"><ele>253.0</ele><time>2026-03-31T13:48:15.797Z</time></trkpt><trkpt lat="43.4415667" lon="11.6245017"><ele>253.33333333333334</ele><time>2026-03-31T13:50:43.796Z</time></trkpt><trkpt lat="43.44147" lon="11.6245617"><ele>253.66666666666669</ele><time>2026-03-31T13:50:45.797Z</time></trkpt><trkpt lat="43.4413883" lon="11.6245883"><ele>254.0</ele><time>2026-03-31T13:50:47.795Z</time></trkpt><trkpt lat="43.4413233" lon="11.624655"><ele>254.0</ele><time>2026-03-31T13:50:49.796Z</time></trkpt><trkpt lat="43.44132" lon="11.6248167"><ele>253.99999999999997</ele><time>2026-03-31T13:50:51.796Z</time></trkpt><trkpt lat="43.441355" lon="11.6249283"><ele>253.99999999999997</ele><time>2026-03-31T13:50:52.796Z</time></trkpt><trkpt lat="43.4414217" lon="11.6250517"><ele>254.0</ele><time>2026-03-31T13:50:53.796Z</time></trkpt><trkpt lat="43.4414883" lon="11.625165"><ele>254.0</ele><time>2026-03-31T13:50:54.797Z</time></trkpt><trkpt lat="43.4415467" lon="11.6252733"><ele>255.2</ele><time>2026-03-31T13:50:55.795Z</time></trkpt><trkpt lat="43.441595" lon="11.6253933"><ele>256.4</ele><time>2026-03-31T13:50:56.798Z</time></trkpt><trkpt lat="43.4416233" lon="11.6255233"><ele>257.6</ele><time>2026-03-31T13:50:57.797Z</time></trkpt><trkpt lat="43.441635" lon="11.625655"><ele>258.8</ele><time>2026-03-31T13:50:58.796Z</time></trkpt><trkpt lat="43.44164" lon="11.62578"><ele>260.0</ele><time>2026-03-31T13:50:59.797Z</time></trkpt><trkpt lat="43.4416317" lon="11.625885"><ele>260.0</ele><time>2026-03-31T13:51:00.796Z</time></trkpt><trkpt lat="43.4416167" lon="11.6259883"><ele>260.0</ele><time>2026-03-31T13:51:01.797Z</time></trkpt><trkpt lat="43.4415867" lon="11.6260833"><ele>260.0</ele><time>2026-03-31T13:51:02.798Z</time></trkpt><trkpt lat="43.4415433" lon="11.6261633"><ele>260.0</ele><time>2026-03-31T13:51:03.796Z</time></trkpt><trkpt lat="43.4414833" lon="11.626255"><ele>260.0</ele><time>2026-03-31T13:51:04.797Z</time></trkpt><trkpt lat="43.441415" lon="11.6263433"><ele>260.0</ele><time>2026-03-31T13:51:05.799Z</time></trkpt><trkpt lat="43.4413417" lon="11.62641"><ele>261.4</ele><time>2026-03-31T13:51:06.798Z</time></trkpt><trkpt lat="43.44124" lon="11.626445"><ele>262.8</ele><time>2026-03-31T13:51:07.797Z</time></trkpt><trkpt lat="43.4411217" lon="11.62646"><ele>264.2</ele><time>2026-03-31T13:51:08.798Z</time></trkpt><trkpt lat="43.441025" lon="11.6264933"><ele>265.6</ele><time>2026-03-31T13:51:09.795Z</time></trkpt><trkpt lat="43.4409417" lon="11.6265333"><ele>267.0</ele><time>2026-03-31T13:51:10.797Z</time></trkpt><trkpt lat="43.4408733" lon="11.6265933"><ele>267.0</ele><time>2026-03-31T13:51:11.797Z</time></trkpt><trkpt lat="43.440805" lon="11.62666"><ele>267.0</ele><time>2026-03-31T13:51:12.796Z</time></trkpt><trkpt lat="43.4407283" lon="11.6267333"><ele>267.0</ele><time>2026-03-31T13:51:13.798Z</time></trkpt><trkpt lat="43.4406417" lon="11.62681"><ele>267.0</ele><time>2026-03-31T13:51:14.797Z</time></trkpt><trkpt lat="43.440565" lon="11.6268633"><ele>267.0</ele><time>2026-03-31T13:51:15.797Z</time></trkpt><trkpt lat="43.4404967" lon="11.6268933"><ele>267.0</ele><time>2026-03-31T13:51:16.798Z</time></trkpt><trkpt lat="43.44043" lon="11.6269017"><ele>267.6666666666667</ele><time>2026-03-31T13:51:17.798Z</time></trkpt><trkpt lat="43.4403667" lon="11.6268983"><ele>268.3333333333333</ele><time>2026-03-31T13:51:18.798Z</time></trkpt><trkpt lat="43.4402967" lon="11.6269083"><ele>269.0</ele><time>2026-03-31T13:51:19.798Z</time></trkpt><trkpt lat="43.4402183" lon="11.6269183"><ele>269.66666666666663</ele><time>2026-03-31T13:51:20.797Z</time></trkpt><trkpt lat="43.440125" lon="11.6269533"><ele>270.3333333333333</ele><time>2026-03-31T13:51:21.798Z</time></trkpt><trkpt lat="43.4400417" lon="11.6269883"><ele>271.0</ele><time>2026-03-31T13:51:22.796Z</time></trkpt><trkpt lat="43.4399683" lon="11.6270167"><ele>271.0</ele><time>2026-03-31T13:51:23.797Z</time></trkpt><trkpt lat="43.4399" lon="11.6270467"><ele>271.0</ele><time>2026-03-31T13:51:24.797Z</time></trkpt><trkpt lat="43.439785" lon="11.6271083"><ele>271.0</ele><time>2026-03-31T13:51:26.799Z</time></trkpt><trkpt lat="43.4397333" lon="11.62716"><ele>271.0</ele><time>2026-03-31T13:51:27.798Z</time></trkpt><trkpt lat="43.4396817" lon="11.627215"><ele>271.0</ele><time>2026-03-31T13:51:28.796Z</time></trkpt><trkpt lat="43.4395883" lon="11.6272833"><ele>271.0</ele><time>2026-03-31T13:51:30.797Z</time></trkpt><trkpt lat="43.4394917" lon="11.6272767"><ele>274.25</ele><time>2026-03-31T13:51:32.798Z</time></trkpt><trkpt lat="43.4393683" lon="11.627295"><ele>277.5</ele><time>2026-03-31T13:51:34.797Z</time></trkpt><trkpt lat="43.4392583" lon="11.627365"><ele>280.75</ele><time>2026-03-31T13:51:36.796Z</time></trkpt><trkpt lat="43.43916" lon="11.6274733"><ele>284.0</ele><time>2026-03-31T13:51:38.799Z</time></trkpt><trkpt lat="43.4390817" lon="11.6275883"><ele>284.0</ele><time>2026-03-31T13:51:40.796Z</time></trkpt><trkpt lat="43.4390083" lon="11.6276417"><ele>284.0</ele><time>2026-03-31T13:51:42.797Z</time></trkpt><trkpt lat="43.438925" lon="11.6276367"><ele>284.0</ele><time>2026-03-31T13:51:44.797Z</time></trkpt><trkpt lat="43.4388333" lon="11.6276483"><ele>284.0</ele><time>2026-03-31T13:51:46.795Z</time></trkpt><trkpt lat="43.4387483" lon="11.62769"><ele>284.0</ele><time>2026-03-31T13:51:48.797Z</time></trkpt><trkpt lat="43.4386533" lon="11.627745"><ele>287.2</ele><time>2026-03-31T13:51:50.799Z</time></trkpt><trkpt lat="43.438555" lon="11.627815"><ele>290.4</ele><time>2026-03-31T13:51:52.796Z</time></trkpt><trkpt lat="43.43846" lon="11.6279283"><ele>293.6</ele><time>2026-03-31T13:51:54.798Z</time></trkpt><trkpt lat="43.4384267" lon="11.6280117"><ele>296.8</ele><time>2026-03-31T13:51:55.795Z</time></trkpt><trkpt lat="43.4383567" lon="11.6281567"><ele>300.0</ele><time>2026-03-31T13:51:57.797Z</time></trkpt><trkpt lat="43.4383167" lon="11.6282383"><ele>300.0</ele><time>2026-03-31T13:51:58.797Z</time></trkpt><trkpt lat="43.438275" lon="11.628325"><ele>300.0</ele><time>2026-03-31T13:51:59.798Z</time></trkpt><trkpt lat="43.4382317" lon="11.6284217"><ele>300.0</ele><time>2026-03-31T13:52:00.797Z</time></trkpt><trkpt lat="43.4381917" lon="11.62851"><ele>300.0</ele><time>2026-03-31T13:52:01.798Z</time></trkpt><trkpt lat="43.4381517" lon="11.628595"><ele>300.0</ele><time>2026-03-31T13:52:02.8Z</time></trkpt><trkpt lat="43.4381033" lon="11.62868"><ele>300.0</ele><time>2026-03-31T13:52:03.797Z</time></trkpt><trkpt lat="43.4380517" lon="11.62876"><ele>298.8</ele><time>2026-03-31T13:52:04.797Z</time></trkpt><trkpt lat="43.4380033" lon="11.6288167"><ele>297.6</ele><time>2026-03-31T13:52:05.798Z</time></trkpt><trkpt lat="43.4379017" lon="11.6288983"><ele>296.4</ele><time>2026-03-31T13:52:07.798Z</time></trkpt><trkpt lat="43.4378033" lon="11.6289467"><ele>295.2</ele><time>2026-03-31T13:52:09.797Z</time></trkpt><trkpt lat="43.4376983" lon="11.628995"><ele>294.0</ele><time>2026-03-31T13:52:11.797Z</time></trkpt><trkpt lat="43.4375767" lon="11.629015"><ele>296.57142857142856</ele><time>2026-03-31T13:52:13.798Z</time></trkpt><trkpt lat="43.4374633" lon="11.6290333"><ele>299.1428571428571</ele><time>2026-03-31T13:52:15.797Z</time></trkpt><trkpt lat="43.4374033" lon="11.6290633"><ele>301.7142857142857</ele><time>2026-03-31T13:52:16.797Z</time></trkpt><trkpt lat="43.4373417" lon="11.6291033"><ele>304.2857142857143</ele><time>2026-03-31T13:52:17.796Z</time></trkpt><trkpt lat="43.4372867" lon="11.6291483"><ele>306.85714285714283</ele><time>2026-03-31T13:52:18.792Z</time></trkpt><trkpt lat="43.4372267" lon="11.6291983"><ele>309.42857142857144</ele><time>2026-03-31T13:52:19.796Z</time></trkpt><trkpt lat="43.4371717" lon="11.6292417"><ele>312.0</ele><time>2026-03-31T13:52:20.798Z</time></trkpt><trkpt lat="43.437085" lon="11.6293"><ele>316.0</ele><time>2026-03-31T13:52:22.796Z</time></trkpt><trkpt lat="43.4369933" lon="11.62932"><ele>320.0</ele><time>2026-03-31T13:52:24.797Z</time></trkpt><trkpt lat="43.4368717" lon="11.629315"><ele>324.0</ele><time>2026-03-31T13:52:26.798Z</time></trkpt><trkpt lat="43.436755" lon="11.6292933"><ele>328.0</ele><time>2026-03-31T13:52:28.797Z</time></trkpt><trkpt lat="43.43663" lon="11.62928"><ele>328.0</ele><time>2026-03-31T13:52:30.797Z</time></trkpt><trkpt lat="43.4365517" lon="11.629245"><ele>328.0</ele><time>2026-03-31T13:52:31.796Z</time></trkpt><trkpt lat="43.4364683" lon="11.6292033"><ele>328.0</ele><time>2026-03-31T13:52:32.797Z</time></trkpt><trkpt lat="43.43639" lon="11.6291683"><ele>328.0</ele><time>2026-03-31T13:52:33.798Z</time></trkpt><trkpt lat="43.4363167" lon="11.62914"><ele>328.0</ele><time>2026-03-31T13:52:34.797Z</time></trkpt><trkpt lat="43.43625" lon="11.62911"><ele>328.0</ele><time>2026-03-31T13:52:35.797Z</time></trkpt><trkpt lat="43.43618" lon="11.629085"><ele>329.4285714285714</ele><time>2026-03-31T13:52:36.796Z</time></trkpt><trkpt lat="43.43611" lon="11.629075"><ele>330.85714285714283</ele><time>2026-03-31T13:52:37.797Z</time></trkpt><trkpt lat="43.436045" lon="11.6290833"><ele>332.2857142857143</ele><time>2026-03-31T13:52:38.798Z</time></trkpt><trkpt lat="43.4359817" lon="11.6291183"><ele>333.71428571428567</ele><time>2026-03-31T13:52:39.797Z</time></trkpt><trkpt lat="43.4359267" lon="11.62918"><ele>335.1428571428571</ele><time>2026-03-31T13:52:40.796Z</time></trkpt><trkpt lat="43.4358767" lon="11.6292483"><ele>336.57142857142856</ele><time>2026-03-31T13:52:41.797Z</time></trkpt><trkpt lat="43.4358033" lon="11.629345"><ele>338.0</ele><time>2026-03-31T13:52:43.797Z</time></trkpt><trkpt lat="43.435725" lon="11.6293433"><ele>338.0</ele><time>2026-03-31T13:52:45.797Z</time></trkpt><trkpt lat="43.4356217" lon="11.6293317"><ele>338.0</ele><time>2026-03-31T13:52:47.798Z</time></trkpt><trkpt lat="43.43552" lon="11.6293367"><ele>338.0</ele><time>2026-03-31T13:52:49.798Z</time></trkpt><trkpt lat="43.4354133" lon="11.6294133"><ele>338.0</ele><time>2026-03-31T13:52:51.795Z</time></trkpt><trkpt lat="43.43535" lon="11.6295283"><ele>338.0</ele><time>2026-03-31T13:52:53.796Z</time></trkpt><trkpt lat="43.4353217" lon="11.62966"><ele>339.5</ele><time>2026-03-31T13:52:55.796Z</time></trkpt><trkpt lat="43.43529" lon="11.6298"><ele>341.0</ele><time>2026-03-31T13:52:57.796Z</time></trkpt><trkpt lat="43.4352633" lon="11.6298867"><ele>342.5</ele><time>2026-03-31T13:52:58.796Z</time></trkpt><trkpt lat="43.4352233" lon="11.6299717"><ele>344.0</ele><time>2026-03-31T13:52:59.797Z</time></trkpt><trkpt lat="43.43518" lon="11.63006"><ele>345.5</ele><time>2026-03-31T13:53:00.797Z</time></trkpt><trkpt lat="43.4351367" lon="11.6301467"><ele>347.0</ele><time>2026-03-31T13:53:01.798Z</time></trkpt><trkpt lat="43.4350867" lon="11.6302133"><ele>347.0</ele><time>2026-03-31T13:53:02.798Z</time></trkpt><trkpt lat="43.4350333" lon="11.630275"><ele>347.0</ele><time>2026-03-31T13:53:03.797Z</time></trkpt><trkpt lat="43.4349733" lon="11.6303267"><ele>347.0</ele><time>2026-03-31T13:53:04.796Z</time></trkpt><trkpt lat="43.4348683" lon="11.6304033"><ele>347.0</ele><time>2026-03-31T13:53:06.797Z</time></trkpt><trkpt lat="43.43482" lon="11.6305383"><ele>347.0</ele><time>2026-03-31T13:53:08.797Z</time></trkpt><trkpt lat="43.4347917" lon="11.6307033"><ele>347.33333333333337</ele><time>2026-03-31T13:53:10.796Z</time></trkpt><trkpt lat="43.43476" lon="11.6307817"><ele>347.6666666666667</ele><time>2026-03-31T13:53:11.796Z</time></trkpt><trkpt lat="43.4347017" lon="11.630875"><ele>348.0</ele><time>2026-03-31T13:53:12.798Z</time></trkpt><trkpt lat="43.4346667" lon="11.630975"><ele>348.3333333333333</ele><time>2026-03-31T13:53:13.796Z</time></trkpt><trkpt lat="43.434635" lon="11.6310767"><ele>348.66666666666663</ele><time>2026-03-31T13:53:14.799Z</time></trkpt><trkpt lat="43.4346083" lon="11.6311733"><ele>349.0</ele><time>2026-03-31T13:53:15.795Z</time></trkpt><trkpt lat="43.4345817" lon="11.6312633"><ele>350.0</ele><time>2026-03-31T13:53:16.795Z</time></trkpt><trkpt lat="43.4345467" lon="11.6313467"><ele>351.0</ele><time>2026-03-31T13:53:17.801Z</time></trkpt><trkpt lat="43.4345017" lon="11.63143"><ele>352.0</ele><time>2026-03-31T13:53:18.796Z</time></trkpt><trkpt lat="43.4344467" lon="11.631515"><ele>353.0</ele><time>2026-03-31T13:53:19.797Z</time></trkpt><trkpt lat="43.4343967" lon="11.631595"><ele>354.0</ele><time>2026-03-31T13:53:20.798Z</time></trkpt><trkpt lat="43.4343417" lon="11.6316933"><ele>355.0</ele><time>2026-03-31T13:53:21.797Z</time></trkpt><trkpt lat="43.43429" lon="11.6318033"><ele>355.0</ele><time>2026-03-31T13:53:22.796Z</time></trkpt><trkpt lat="43.43424" lon="11.63191"><ele>355.0</ele><time>2026-03-31T13:53:23.797Z</time></trkpt><trkpt lat="43.4341933" lon="11.6320133"><ele>355.0</ele><time>2026-03-31T13:53:24.797Z</time></trkpt><trkpt lat="43.4341433" lon="11.6321033"><ele>355.0</ele><time>2026-03-31T13:53:25.796Z</time></trkpt><trkpt lat="43.4340917" lon="11.6321817"><ele>355.0</ele><time>2026-03-31T13:53:26.798Z</time></trkpt><trkpt lat="43.4340533" lon="11.632255"><ele>355.0</ele><time>2026-03-31T13:53:27.797Z</time></trkpt><trkpt lat="43.4339983" lon="11.6323783"><ele>356.3333333333333</ele><time>2026-03-31T13:53:29.795Z</time></trkpt><trkpt lat="43.4339167" lon="11.6324417"><ele>357.66666666666663</ele><time>2026-03-31T13:53:31.796Z</time></trkpt><trkpt lat="43.4338033" lon="11.6324983"><ele>359.0</ele><time>2026-03-31T13:53:33.799Z</time></trkpt><trkpt lat="43.43374" lon="11.63254"><ele>360.3333333333333</ele><time>2026-03-31T13:53:34.799Z</time></trkpt><trkpt lat="43.4336717" lon="11.63258"><ele>361.6666666666667</ele><time>2026-03-31T13:53:35.797Z</time></trkpt><trkpt lat="43.433605" lon="11.6326083"><ele>363.0</ele><time>2026-03-31T13:53:36.798Z</time></trkpt><trkpt lat="43.43354" lon="11.6326383"><ele>363.4</ele><time>2026-03-31T13:53:37.797Z</time></trkpt><trkpt lat="43.433425" lon="11.63271"><ele>363.79999999999995</ele><time>2026-03-31T13:53:39.796Z</time></trkpt><trkpt lat="43.4333217" lon="11.63281"><ele>364.2</ele><time>2026-03-31T13:53:41.797Z</time></trkpt><trkpt lat="43.4332717" lon="11.6328783"><ele>364.6</ele><time>2026-03-31T13:53:42.796Z</time></trkpt><trkpt lat="43.4332217" lon="11.6329583"><ele>365.0</ele><time>2026-03-31T13:53:43.796Z</time></trkpt><trkpt lat="43.4331767" lon="11.6330367"><ele>365.42857142857144</ele><time>2026-03-31T13:53:44.798Z</time></trkpt><trkpt lat="43.4331383" lon="11.6331067"><ele>365.8571428571429</ele><time>2026-03-31T13:53:45.797Z</time></trkpt><trkpt lat="43.4330967" lon="11.6331783"><ele>366.28571428571433</ele><time>2026-03-31T13:53:46.797Z</time></trkpt><trkpt lat="43.43305" lon="11.6332583"><ele>366.7142857142857</ele><time>2026-03-31T13:53:47.797Z</time></trkpt><trkpt lat="43.4329933" lon="11.63334"><ele>367.1428571428571</ele><time>2026-03-31T13:53:48.797Z</time></trkpt><trkpt lat="43.4329317" lon="11.6334133"><ele>367.5714285714286</ele><time>2026-03-31T13:53:49.797Z</time></trkpt><trkpt lat="43.432865" lon="11.6334767"><ele>368.0</ele><time>2026-03-31T13:53:50.798Z</time></trkpt><trkpt lat="43.4328017" lon="11.633525"><ele>368.0</ele><time>2026-03-31T13:53:51.796Z</time></trkpt><trkpt lat="43.4327367" lon="11.63357"><ele>368.0</ele><time>2026-03-31T13:53:52.796Z</time></trkpt><trkpt lat="43.4326817" lon="11.6336167"><ele>368.0</ele><time>2026-03-31T13:53:53.797Z</time></trkpt><trkpt lat="43.43263" lon="11.6336767"><ele>368.0</ele><time>2026-03-31T13:53:54.798Z</time></trkpt><trkpt lat="43.4325617" lon="11.63376"><ele>368.0</ele><time>2026-03-31T13:53:56.798Z</time></trkpt><trkpt lat="43.4325117" lon="11.63385"><ele>368.0</ele><time>2026-03-31T13:53:58.795Z</time></trkpt><trkpt lat="43.432475" lon="11.63393"><ele>368.0</ele><time>2026-03-31T13:53:59.796Z</time></trkpt><trkpt lat="43.432435" lon="11.6340217"><ele>369.1666666666667</ele><time>2026-03-31T13:54:00.797Z</time></trkpt><trkpt lat="43.4323917" lon="11.6341167"><ele>370.33333333333337</ele><time>2026-03-31T13:54:01.797Z</time></trkpt><trkpt lat="43.4323667" lon="11.634205"><ele>371.5</ele><time>2026-03-31T13:54:02.799Z</time></trkpt><trkpt lat="43.4323567" lon="11.6342983"><ele>372.6666666666667</ele><time>2026-03-31T13:54:03.796Z</time></trkpt><trkpt lat="43.43236" lon="11.634405"><ele>373.8333333333333</ele><time>2026-03-31T13:54:04.797Z</time></trkpt><trkpt lat="43.4323817" lon="11.6345183"><ele>375.0</ele><time>2026-03-31T13:54:05.797Z</time></trkpt><trkpt lat="43.432395" lon="11.6346217"><ele>375.0</ele><time>2026-03-31T13:54:06.797Z</time></trkpt><trkpt lat="43.43241" lon="11.63472"><ele>375.0</ele><time>2026-03-31T13:54:07.797Z</time></trkpt><trkpt lat="43.4324233" lon="11.6348067"><ele>375.0</ele><time>2026-03-31T13:54:08.798Z</time></trkpt><trkpt lat="43.4324383" lon="11.634925"><ele>375.0</ele><time>2026-03-31T13:54:10.796Z</time></trkpt><trkpt lat="43.432445" lon="11.6350467"><ele>375.0</ele><time>2026-03-31T13:54:13.797Z</time></trkpt><trkpt lat="43.4324233" lon="11.63517"><ele>375.0</ele><time>2026-03-31T13:54:16.796Z</time></trkpt><trkpt lat="43.4324017" lon="11.6352833"><ele>374.5</ele><time>2026-03-31T13:54:18.797Z</time></trkpt><trkpt lat="43.43239" lon="11.6354333"><ele>374.0</ele><time>2026-03-31T13:54:20.798Z</time></trkpt><trkpt lat="43.432375" lon="11.6355283"><ele>373.5</ele><time>2026-03-31T13:54:21.796Z</time></trkpt><trkpt lat="43.43235" lon="11.6356367"><ele>373.0</ele><time>2026-03-31T13:54:22.793Z</time></trkpt><trkpt lat="43.4323233" lon="11.6357517"><ele>372.5</ele><time>2026-03-31T13:54:23.796Z</time></trkpt><trkpt lat="43.4322933" lon="11.6358617"><ele>372.0</ele><time>2026-03-31T13:54:24.798Z</time></trkpt><trkpt lat="43.43226" lon="11.63596"><ele>372.0</ele><time>2026-03-31T13:54:25.795Z</time></trkpt><trkpt lat="43.4322283" lon="11.636035"><ele>372.0</ele><time>2026-03-31T13:54:26.796Z</time></trkpt><trkpt lat="43.4321233" lon="11.6360833"><ele>372.0</ele><time>2026-03-31T13:54:28.797Z</time></trkpt><trkpt lat="43.4320517" lon="11.6360633"><ele>372.0</ele><time>2026-03-31T13:54:29.796Z</time></trkpt><trkpt lat="43.4319817" lon="11.636045"><ele>372.0</ele><time>2026-03-31T13:54:30.796Z</time></trkpt><trkpt lat="43.43191" lon="11.636025"><ele>372.0</ele><time>2026-03-31T13:54:31.796Z</time></trkpt><trkpt lat="43.4318383" lon="11.6360067"><ele>372.3333333333333</ele><time>2026-03-31T13:54:32.798Z</time></trkpt><trkpt lat="43.4317533" lon="11.6359783"><ele>372.6666666666667</ele><time>2026-03-31T13:54:33.796Z</time></trkpt><trkpt lat="43.431665" lon="11.6359583"><ele>373.0</ele><time>2026-03-31T13:54:34.796Z</time></trkpt><trkpt lat="43.43158" lon="11.6359583"><ele>373.33333333333337</ele><time>2026-03-31T13:54:35.796Z</time></trkpt><trkpt lat="43.4314933" lon="11.6359833"><ele>373.6666666666667</ele><time>2026-03-31T13:54:36.797Z</time></trkpt><trkpt lat="43.4314067" lon="11.6360183"><ele>374.0</ele><time>2026-03-31T13:54:37.798Z</time></trkpt><trkpt lat="43.431325" lon="11.6360633"><ele>374.0</ele><time>2026-03-31T13:54:38.797Z</time></trkpt><trkpt lat="43.4312317" lon="11.6361183"><ele>374.0</ele><time>2026-03-31T13:54:39.796Z</time></trkpt><trkpt lat="43.4311367" lon="11.6361733"><ele>374.0</ele><time>2026-03-31T13:54:40.796Z</time></trkpt><trkpt lat="43.4310517" lon="11.6362233"><ele>374.0</ele><time>2026-03-31T13:54:41.796Z</time></trkpt><trkpt lat="43.4309783" lon="11.636245"><ele>374.0</ele><time>2026-03-31T13:54:42.797Z</time></trkpt><trkpt lat="43.4308983" lon="11.6362483"><ele>375.0</ele><time>2026-03-31T13:54:43.795Z</time></trkpt><trkpt lat="43.4308083" lon="11.6362417"><ele>376.0</ele><time>2026-03-31T13:54:44.798Z</time></trkpt><trkpt lat="43.4307183" lon="11.6362383"><ele>377.0</ele><time>2026-03-31T13:54:45.796Z</time></trkpt><trkpt lat="43.430635" lon="11.6362367"><ele>378.0</ele><time>2026-03-31T13:54:46.796Z</time></trkpt><trkpt lat="43.4305633" lon="11.63624"><ele>379.0</ele><time>2026-03-31T13:54:47.797Z</time></trkpt><trkpt lat="43.4304467" lon="11.6362817"><ele>379.0</ele><time>2026-03-31T13:54:49.795Z</time></trkpt><trkpt lat="43.4303317" lon="11.6363717"><ele>379.0</ele><time>2026-03-31T13:54:51.796Z</time></trkpt><trkpt lat="43.4302817" lon="11.6364533"><ele>379.0</ele><time>2026-03-31T13:54:52.797Z</time></trkpt><trkpt lat="43.43024" lon="11.6365717"><ele>379.0</ele><time>2026-03-31T13:54:53.798Z</time></trkpt><trkpt lat="43.4302133" lon="11.63668"><ele>379.0</ele><time>2026-03-31T13:54:54.794Z</time></trkpt><trkpt lat="43.4301983" lon="11.6367933"><ele>379.0</ele><time>2026-03-31T13:54:55.8Z</time></trkpt><trkpt lat="43.4301883" lon="11.6369117"><ele>379.0</ele><time>2026-03-31T13:54:56.797Z</time></trkpt><trkpt lat="43.43019" lon="11.6370283"><ele>379.0</ele><time>2026-03-31T13:54:57.796Z</time></trkpt><trkpt lat="43.4301883" lon="11.6371283"><ele>379.0</ele><time>2026-03-31T13:54:58.797Z</time></trkpt><trkpt lat="43.430175" lon="11.6372183"><ele>379.0</ele><time>2026-03-31T13:54:59.796Z</time></trkpt><trkpt lat="43.4301517" lon="11.63737"><ele>379.0</ele><time>2026-03-31T13:55:01.797Z</time></trkpt><trkpt lat="43.4301533" lon="11.6375217"><ele>378.3333333333333</ele><time>2026-03-31T13:55:03.797Z</time></trkpt><trkpt lat="43.4301533" lon="11.6376567"><ele>377.66666666666663</ele><time>2026-03-31T13:55:05.797Z</time></trkpt><trkpt lat="43.4301417" lon="11.6377433"><ele>377.0</ele><time>2026-03-31T13:55:07.797Z</time></trkpt><trkpt lat="43.4300767" lon="11.6377867"><ele>376.3333333333333</ele><time>2026-03-31T13:55:09.798Z</time></trkpt><trkpt lat="43.4299783" lon="11.6378083"><ele>375.6666666666667</ele><time>2026-03-31T13:55:11.797Z</time></trkpt><trkpt lat="43.42987" lon="11.637775"><ele>375.0</ele><time>2026-03-31T13:55:13.796Z</time></trkpt><trkpt lat="43.4298083" lon="11.6377383"><ele>375.0</ele><time>2026-03-31T13:55:14.797Z</time></trkpt><trkpt lat="43.4297417" lon="11.6376967"><ele>375.0</ele><time>2026-03-31T13:55:15.795Z</time></trkpt><trkpt lat="43.42968" lon="11.6376517"><ele>375.0</ele><time>2026-03-31T13:55:16.795Z</time></trkpt><trkpt lat="43.42962" lon="11.637615"><ele>375.0</ele><time>2026-03-31T13:55:17.797Z</time></trkpt><trkpt lat="43.429515" lon="11.63755"><ele>375.0</ele><time>2026-03-31T13:55:19.795Z</time></trkpt><trkpt lat="43.4294117" lon="11.6375"><ele>375.0</ele><time>2026-03-31T13:55:21.789Z</time></trkpt><trkpt lat="43.4293217" lon="11.6374983"><ele>372.8</ele><time>2026-03-31T13:55:23.791Z</time></trkpt><trkpt lat="43.4292533" lon="11.6376717"><ele>370.6</ele><time>2026-03-31T13:55:25.795Z</time></trkpt><trkpt lat="43.4292167" lon="11.6377867"><ele>368.4</ele><time>2026-03-31T13:55:26.792Z</time></trkpt><trkpt lat="43.42918" lon="11.63791"><ele>366.2</ele><time>2026-03-31T13:55:27.796Z</time></trkpt><trkpt lat="43.4291417" lon="11.6380417"><ele>364.0</ele><time>2026-03-31T13:55:28.796Z</time></trkpt><trkpt lat="43.429105" lon="11.6381767"><ele>364.0</ele><time>2026-03-31T13:55:29.797Z</time></trkpt><trkpt lat="43.4290767" lon="11.6383033"><ele>364.0</ele><time>2026-03-31T13:55:30.796Z</time></trkpt><trkpt lat="43.4290633" lon="11.638435"><ele>364.0</ele><time>2026-03-31T13:55:31.796Z</time></trkpt><trkpt lat="43.4290567" lon="11.6385567"><ele>364.0</ele><time>2026-03-31T13:55:32.796Z</time></trkpt><trkpt lat="43.4290617" lon="11.6386633"><ele>364.0</ele><time>2026-03-31T13:55:33.796Z</time></trkpt><trkpt lat="43.4290733" lon="11.6387583"><ele>364.0</ele><time>2026-03-31T13:55:34.797Z</time></trkpt><trkpt lat="43.429095" lon="11.6388533"><ele>364.0</ele><time>2026-03-31T13:55:35.798Z</time></trkpt><trkpt lat="43.4291183" lon="11.6389583"><ele>364.0</ele><time>2026-03-31T13:55:36.796Z</time></trkpt><trkpt lat="43.4291383" lon="11.6390783"><ele>364.0</ele><time>2026-03-31T13:55:37.797Z</time></trkpt><trkpt lat="43.42916" lon="11.639205"><ele>364.0</ele><time>2026-03-31T13:55:38.797Z</time></trkpt><trkpt lat="43.4291733" lon="11.639325"><ele>364.0</ele><time>2026-03-31T13:55:39.798Z</time></trkpt><trkpt lat="43.42919" lon="11.6394433"><ele>364.0</ele><time>2026-03-31T13:55:40.795Z</time></trkpt><trkpt lat="43.4292" lon="11.6395533"><ele>363.8333333333333</ele><time>2026-03-31T13:55:41.797Z</time></trkpt><trkpt lat="43.4292083" lon="11.6396517"><ele>363.66666666666663</ele><time>2026-03-31T13:55:42.796Z</time></trkpt><trkpt lat="43.42919" lon="11.63982"><ele>363.5</ele><time>2026-03-31T13:55:44.799Z</time></trkpt><trkpt lat="43.4291917" lon="11.639915"><ele>363.3333333333333</ele><time>2026-03-31T13:55:45.798Z</time></trkpt><trkpt lat="43.4291567" lon="11.6399933"><ele>363.1666666666667</ele><time>2026-03-31T13:55:46.795Z</time></trkpt><trkpt lat="43.4291117" lon="11.640065"><ele>363.0</ele><time>2026-03-31T13:55:47.796Z</time></trkpt><trkpt lat="43.429035" lon="11.6401283"><ele>363.0</ele><time>2026-03-31T13:55:48.796Z</time></trkpt><trkpt lat="43.428975" lon="11.6401733"><ele>363.0</ele><time>2026-03-31T13:55:49.801Z</time></trkpt><trkpt lat="43.42888" lon="11.6402433"><ele>363.0</ele><time>2026-03-31T13:55:51.796Z</time></trkpt><trkpt lat="43.4289583" lon="11.6403017"><ele>363.0</ele><time>2026-03-31T13:55:57.797Z</time></trkpt><trkpt lat="43.429055" lon="11.6402717"><ele>363.0</ele><time>2026-03-31T13:55:59.799Z</time></trkpt><trkpt lat="43.429135" lon="11.6402317"><ele>363.0</ele><time>2026-03-31T13:56:01.796Z</time></trkpt><trkpt lat="43.42922" lon="11.6401683"><ele>363.0</ele><time>2026-03-31T13:56:04.796Z</time></trkpt><trkpt lat="43.4292983" lon="11.640175"><ele>363.0</ele><time>2026-03-31T13:56:06.794Z</time></trkpt><trkpt lat="43.42937" lon="11.6402283"><ele>363.0</ele><time>2026-03-31T13:56:08.797Z</time></trkpt><trkpt lat="43.429435" lon="11.6403233"><ele>363.0</ele><time>2026-03-31T13:56:10.796Z</time></trkpt><trkpt lat="43.4295067" lon="11.6404067"><ele>363.0</ele><time>2026-03-31T13:56:12.797Z</time></trkpt><trkpt lat="43.4295517" lon="11.6405067"><ele>363.0</ele><time>2026-03-31T13:56:14.798Z</time></trkpt><trkpt lat="43.4295533" lon="11.6406133"><ele>361.3333333333333</ele><time>2026-03-31T13:56:16.796Z</time></trkpt><trkpt lat="43.4295817" lon="11.6407233"><ele>359.6666666666667</ele><time>2026-03-31T13:56:19.798Z</time></trkpt><trkpt lat="43.4296633" lon="11.640735"><ele>358.0</ele><time>2026-03-31T13:56:21.795Z</time></trkpt><trkpt lat="43.42975" lon="11.6407167"><ele>356.33333333333337</ele><time>2026-03-31T13:56:23.797Z</time></trkpt><trkpt lat="43.4298483" lon="11.6407267"><ele>354.6666666666667</ele><time>2026-03-31T13:56:25.798Z</time></trkpt><trkpt lat="43.4299367" lon="11.640745"><ele>353.0</ele><time>2026-03-31T13:56:27.789Z</time></trkpt><trkpt lat="43.4300083" lon="11.6407183"><ele>351.2857142857143</ele><time>2026-03-31T13:56:29.796Z</time></trkpt><trkpt lat="43.4300717" lon="11.6406933"><ele>349.5714285714286</ele><time>2026-03-31T13:56:31.797Z</time></trkpt><trkpt lat="43.43015" lon="11.6407083"><ele>347.8571428571429</ele><time>2026-03-31T13:56:33.792Z</time></trkpt><trkpt lat="43.4302217" lon="11.6407617"><ele>346.1428571428571</ele><time>2026-03-31T13:56:35.799Z</time></trkpt><trkpt lat="43.4302717" lon="11.64082"><ele>344.42857142857144</ele><time>2026-03-31T13:56:37.797Z</time></trkpt><trkpt lat="43.4303033" lon="11.6409067"><ele>342.7142857142857</ele><time>2026-03-31T13:56:39.796Z</time></trkpt><trkpt lat="43.4303567" lon="11.6409817"><ele>341.0</ele><time>2026-03-31T13:56:41.797Z</time></trkpt><trkpt lat="43.4304317" lon="11.6410083"><ele>339.0</ele><time>2026-03-31T13:56:43.797Z</time></trkpt><trkpt lat="43.43052" lon="11.6410433"><ele>337.0</ele><time>2026-03-31T13:56:45.797Z</time></trkpt><trkpt lat="43.4305683" lon="11.6411017"><ele>335.0</ele><time>2026-03-31T13:56:47.796Z</time></trkpt><trkpt lat="43.4305967" lon="11.6411933"><ele>333.0</ele><time>2026-03-31T13:56:49.797Z</time></trkpt><trkpt lat="43.4306117" lon="11.6413017"><ele>331.0</ele><time>2026-03-31T13:56:51.796Z</time></trkpt><trkpt lat="43.4306017" lon="11.6413967"><ele>329.0</ele><time>2026-03-31T13:56:53.797Z</time></trkpt><trkpt lat="43.4305667" lon="11.64149"><ele>326.83333333333337</ele><time>2026-03-31T13:56:55.798Z</time></trkpt><trkpt lat="43.4305583" lon="11.6416"><ele>324.6666666666667</ele><time>2026-03-31T13:56:57.796Z</time></trkpt><trkpt lat="43.4305583" lon="11.64169"><ele>322.5</ele><time>2026-03-31T13:56:59.797Z</time></trkpt><trkpt lat="43.4305933" lon="11.6417883"><ele>320.3333333333333</ele><time>2026-03-31T13:57:01.797Z</time></trkpt><trkpt lat="43.4306467" lon="11.64188"><ele>318.16666666666663</ele><time>2026-03-31T13:57:03.798Z</time></trkpt><trkpt lat="43.4307133" lon="11.6419483"><ele>316.0</ele><time>2026-03-31T13:57:05.798Z</time></trkpt><trkpt lat="43.4307467" lon="11.6420317"><ele>314.16666666666663</ele><time>2026-03-31T13:57:07.799Z</time></trkpt><trkpt lat="43.430765" lon="11.6421383"><ele>312.3333333333333</ele><time>2026-03-31T13:57:09.798Z</time></trkpt><trkpt lat="43.4307867" lon="11.6422367"><ele>310.5</ele><time>2026-03-31T13:57:11.799Z</time></trkpt><trkpt lat="43.4308517" lon="11.6423083"><ele>308.6666666666667</ele><time>2026-03-31T13:57:14.797Z</time></trkpt><trkpt lat="43.430915" lon="11.6423"><ele>306.83333333333337</ele><time>2026-03-31T13:57:17.798Z</time></trkpt><trkpt lat="43.4309883" lon="11.6423483"><ele>305.0</ele><time>2026-03-31T13:57:21.797Z</time></trkpt><trkpt lat="43.4310133" lon="11.6424767"><ele>305.0</ele><time>2026-03-31T13:57:23.795Z</time></trkpt><trkpt lat="43.4310417" lon="11.6426183"><ele>305.0</ele><time>2026-03-31T13:57:25.797Z</time></trkpt><trkpt lat="43.4310717" lon="11.642735"><ele>305.0</ele><time>2026-03-31T13:57:27.797Z</time></trkpt><trkpt lat="43.4310983" lon="11.6428433"><ele>305.0</ele><time>2026-03-31T13:57:29.796Z</time></trkpt><trkpt lat="43.431085" lon="11.642945"><ele>305.0</ele><time>2026-03-31T13:57:32.798Z</time></trkpt><trkpt lat="43.4311233" lon="11.6430917"><ele>303.7142857142857</ele><time>2026-03-31T13:57:47.792Z</time></trkpt><trkpt lat="43.4310817" lon="11.64319"><ele>302.4285714285714</ele><time>2026-03-31T13:57:50.8Z</time></trkpt><trkpt lat="43.4310617" lon="11.6432767"><ele>301.1428571428571</ele><time>2026-03-31T13:57:52.796Z</time></trkpt><trkpt lat="43.431075" lon="11.64337"><ele>299.8571428571429</ele><time>2026-03-31T13:57:55.797Z</time></trkpt><trkpt lat="43.4310817" lon="11.643505"><ele>298.57142857142856</ele><time>2026-03-31T14:03:48.798Z</time></trkpt><trkpt lat="43.43111" lon="11.643585"><ele>297.2857142857143</ele><time>2026-03-31T14:03:57.797Z</time></trkpt><trkpt lat="43.4311467" lon="11.6436633"><ele>296.0</ele><time>2026-03-31T14:04:04.798Z</time></trkpt><trkpt lat="43.4311465" lon="11.6437613"><ele>295.1666666666667</ele><time>2026-03-31T14:04:11.761Z</time></trkpt><trkpt lat="43.4311658" lon="11.6438609"><ele>294.33333333333337</ele><time>2026-03-31T14:04:17.852Z</time></trkpt><trkpt lat="43.4311824" lon="11.6439459"><ele>293.5</ele><time>2026-03-31T14:04:22.807Z</time></trkpt><trkpt lat="43.4311895" lon="11.6440337"><ele>292.6666666666667</ele><time>2026-03-31T14:04:27.809Z</time></trkpt><trkpt lat="43.431245" lon="11.6440761"><ele>291.8333333333333</ele><time>2026-03-31T14:04:33.78Z</time></trkpt><trkpt lat="43.431352" lon="11.6441356"><ele>291.0</ele><time>2026-03-31T14:11:28.819Z</time></trkpt><trkpt lat="43.4314429" lon="11.6441322"><ele>290.5</ele><time>2026-03-31T14:11:29.797Z</time></trkpt><trkpt lat="43.4315237" lon="11.644122"><ele>290.0</ele><time>2026-03-31T14:11:30.797Z</time></trkpt><trkpt lat="43.431601" lon="11.6441164"><ele>289.5</ele><time>2026-03-31T14:11:31.797Z</time></trkpt><trkpt lat="43.4316917" lon="11.644085"><ele>289.0</ele><time>2026-03-31T14:11:32.791Z</time></trkpt><trkpt lat="43.4317717" lon="11.6440383"><ele>288.5</ele><time>2026-03-31T14:11:33.795Z</time></trkpt><trkpt lat="43.4318467" lon="11.6439983"><ele>288.0</ele><time>2026-03-31T14:11:34.796Z</time></trkpt><trkpt lat="43.4319217" lon="11.643975"><ele>288.0</ele><time>2026-03-31T14:11:35.795Z</time></trkpt><trkpt lat="43.4319967" lon="11.6439483"><ele>288.0</ele><time>2026-03-31T14:11:36.796Z</time></trkpt><trkpt lat="43.4320667" lon="11.6439133"><ele>288.0</ele><time>2026-03-31T14:11:37.796Z</time></trkpt><trkpt lat="43.4321433" lon="11.6438767"><ele>288.0</ele><time>2026-03-31T14:11:38.792Z</time></trkpt><trkpt lat="43.4322317" lon="11.6438433"><ele>288.0</ele><time>2026-03-31T14:11:39.797Z</time></trkpt><trkpt lat="43.4323183" lon="11.6438217"><ele>288.0</ele><time>2026-03-31T14:11:40.795Z</time></trkpt><trkpt lat="43.4324017" lon="11.6438033"><ele>287.8571428571429</ele><time>2026-03-31T14:11:41.797Z</time></trkpt><trkpt lat="43.4324767" lon="11.6437817"><ele>287.7142857142857</ele><time>2026-03-31T14:11:42.796Z</time></trkpt><trkpt lat="43.432555" lon="11.6437667"><ele>287.57142857142856</ele><time>2026-03-31T14:11:43.797Z</time></trkpt><trkpt lat="43.43262" lon="11.6437483"><ele>287.42857142857144</ele><time>2026-03-31T14:11:44.798Z</time></trkpt><trkpt lat="43.4326817" lon="11.6437283"><ele>287.2857142857143</ele><time>2026-03-31T14:11:45.795Z</time></trkpt><trkpt lat="43.4327483" lon="11.6437233"><ele>287.14285714285717</ele><time>2026-03-31T14:11:46.795Z</time></trkpt><trkpt lat="43.4328183" lon="11.6437267"><ele>287.0</ele><time>2026-03-31T14:11:47.796Z</time></trkpt><trkpt lat="43.4328867" lon="11.64373"><ele>287.0</ele><time>2026-03-31T14:11:48.793Z</time></trkpt><trkpt lat="43.43296" lon="11.6437133"><ele>287.0</ele><time>2026-03-31T14:11:49.8Z</time></trkpt><trkpt lat="43.4330333" lon="11.6436683"><ele>287.0</ele><time>2026-03-31T14:11:50.796Z</time></trkpt><trkpt lat="43.4331017" lon="11.643585"><ele>287.0</ele><time>2026-03-31T14:11:51.795Z</time></trkpt><trkpt lat="43.4331767" lon="11.6435383"><ele>287.0</ele><time>2026-03-31T14:11:52.794Z</time></trkpt><trkpt lat="43.433255" lon="11.6435017"><ele>287.0</ele><time>2026-03-31T14:11:53.796Z</time></trkpt><trkpt lat="43.4333433" lon="11.6434883"><ele>284.2</ele><time>2026-03-31T14:11:54.797Z</time></trkpt><trkpt lat="43.433445" lon="11.6435033"><ele>281.4</ele><time>2026-03-31T14:11:55.797Z</time></trkpt><trkpt lat="43.4335417" lon="11.64352"><ele>278.6</ele><time>2026-03-31T14:11:56.805Z</time></trkpt><trkpt lat="43.4336383" lon="11.6435317"><ele>275.8</ele><time>2026-03-31T14:11:57.795Z</time></trkpt><trkpt lat="43.433735" lon="11.6435417"><ele>273.0</ele><time>2026-03-31T14:11:58.795Z</time></trkpt><trkpt lat="43.4338317" lon="11.64355"><ele>272.0</ele><time>2026-03-31T14:11:59.795Z</time></trkpt><trkpt lat="43.4339183" lon="11.6435617"><ele>271.0</ele><time>2026-03-31T14:12:00.797Z</time></trkpt><trkpt lat="43.4340033" lon="11.64357"><ele>270.0</ele><time>2026-03-31T14:12:01.795Z</time></trkpt><trkpt lat="43.4341" lon="11.6435783"><ele>269.0</ele><time>2026-03-31T14:12:02.796Z</time></trkpt><trkpt lat="43.4341933" lon="11.64359"><ele>268.0</ele><time>2026-03-31T14:12:03.796Z</time></trkpt><trkpt lat="43.4342867" lon="11.643605"><ele>268.0</ele><time>2026-03-31T14:12:04.796Z</time></trkpt><trkpt lat="43.4343767" lon="11.6436167"><ele>268.0</ele><time>2026-03-31T14:12:05.795Z</time></trkpt><trkpt lat="43.434465" lon="11.6436317"><ele>268.0</ele><time>2026-03-31T14:12:06.797Z</time></trkpt><trkpt lat="43.4345533" lon="11.6436567"><ele>268.0</ele><time>2026-03-31T14:12:07.797Z</time></trkpt><trkpt lat="43.43464" lon="11.643685"><ele>268.0</ele><time>2026-03-31T14:12:08.797Z</time></trkpt><trkpt lat="43.4347233" lon="11.6437267"><ele>268.0</ele><time>2026-03-31T14:12:09.796Z</time></trkpt><trkpt lat="43.434805" lon="11.643775"><ele>268.0</ele><time>2026-03-31T14:12:10.799Z</time></trkpt><trkpt lat="43.434885" lon="11.6438183"><ele>268.0</ele><time>2026-03-31T14:12:11.797Z</time></trkpt><trkpt lat="43.4349717" lon="11.6438633"><ele>268.0</ele><time>2026-03-31T14:12:12.797Z</time></trkpt><trkpt lat="43.435065" lon="11.6439017"><ele>268.0</ele><time>2026-03-31T14:12:13.792Z</time></trkpt><trkpt lat="43.4351583" lon="11.6439433"><ele>268.0</ele><time>2026-03-31T14:12:14.796Z</time></trkpt><trkpt lat="43.4352467" lon="11.6439983"><ele>268.0</ele><time>2026-03-31T14:12:15.796Z</time></trkpt><trkpt lat="43.4353233" lon="11.6440767"><ele>268.0</ele><time>2026-03-31T14:12:16.796Z</time></trkpt><trkpt lat="43.4353867" lon="11.6441717"><ele>268.0</ele><time>2026-03-31T14:12:17.796Z</time></trkpt><trkpt lat="43.4354417" lon="11.6442783"><ele>268.0</ele><time>2026-03-31T14:12:18.796Z</time></trkpt><trkpt lat="43.4354833" lon="11.6443933"><ele>268.0</ele><time>2026-03-31T14:12:19.791Z</time></trkpt><trkpt lat="43.4355167" lon="11.6445033"><ele>268.0</ele><time>2026-03-31T14:12:20.797Z</time></trkpt><trkpt lat="43.4355533" lon="11.6445833"><ele>268.0</ele><time>2026-03-31T14:12:21.793Z</time></trkpt><trkpt lat="43.435635" lon="11.6446917"><ele>268.0</ele><time>2026-03-31T14:12:23.797Z</time></trkpt><trkpt lat="43.4356967" lon="11.6447217"><ele>268.0</ele><time>2026-03-31T14:12:24.798Z</time></trkpt><trkpt lat="43.4357767" lon="11.6447467"><ele>268.0</ele><time>2026-03-31T14:12:25.797Z</time></trkpt><trkpt lat="43.4358717" lon="11.6447617"><ele>268.0</ele><time>2026-03-31T14:12:26.797Z</time></trkpt><trkpt lat="43.4359633" lon="11.644775"><ele>268.0</ele><time>2026-03-31T14:12:27.796Z</time></trkpt><trkpt lat="43.43606" lon="11.6447967"><ele>268.0</ele><time>2026-03-31T14:12:28.796Z</time></trkpt><trkpt lat="43.4361483" lon="11.6448233"><ele>268.0</ele><time>2026-03-31T14:12:29.796Z</time></trkpt><trkpt lat="43.43622" lon="11.6448567"><ele>268.0</ele><time>2026-03-31T14:12:30.797Z</time></trkpt><trkpt lat="43.4363067" lon="11.6449367"><ele>268.0</ele><time>2026-03-31T14:12:32.797Z</time></trkpt><trkpt lat="43.4363267" lon="11.6450417"><ele>268.0</ele><time>2026-03-31T14:12:34.794Z</time></trkpt><trkpt lat="43.436295" lon="11.6452"><ele>268.2</ele><time>2026-03-31T14:12:36.794Z</time></trkpt><trkpt lat="43.436255" lon="11.6453167"><ele>268.4</ele><time>2026-03-31T14:12:37.796Z</time></trkpt><trkpt lat="43.436225" lon="11.6454417"><ele>268.59999999999997</ele><time>2026-03-31T14:12:38.796Z</time></trkpt><trkpt lat="43.4361467" lon="11.6455933"><ele>268.8</ele><time>2026-03-31T14:12:39.797Z</time></trkpt><trkpt lat="43.43609" lon="11.645745"><ele>269.0</ele><time>2026-03-31T14:12:40.796Z</time></trkpt><trkpt lat="43.436035" lon="11.6458917"><ele>269.0</ele><time>2026-03-31T14:12:41.797Z</time></trkpt><trkpt lat="43.435995" lon="11.6460217"><ele>269.0</ele><time>2026-03-31T14:12:42.796Z</time></trkpt><trkpt lat="43.4359533" lon="11.6461517"><ele>269.0</ele><time>2026-03-31T14:12:43.794Z</time></trkpt><trkpt lat="43.4359217" lon="11.64628"><ele>269.0</ele><time>2026-03-31T14:12:44.796Z</time></trkpt><trkpt lat="43.435915" lon="11.6464033"><ele>269.0</ele><time>2026-03-31T14:12:45.797Z</time></trkpt><trkpt lat="43.435905" lon="11.6465167"><ele>268.8</ele><time>2026-03-31T14:12:46.797Z</time></trkpt><trkpt lat="43.43589" lon="11.6466283"><ele>268.59999999999997</ele><time>2026-03-31T14:12:47.797Z</time></trkpt><trkpt lat="43.4358733" lon="11.646755"><ele>268.4</ele><time>2026-03-31T14:12:48.797Z</time></trkpt><trkpt lat="43.435855" lon="11.646885"><ele>268.2</ele><time>2026-03-31T14:12:49.795Z</time></trkpt><trkpt lat="43.4358383" lon="11.6470233"><ele>268.0</ele><time>2026-03-31T14:12:50.797Z</time></trkpt><trkpt lat="43.435825" lon="11.6471717"><ele>268.0</ele><time>2026-03-31T14:12:51.797Z</time></trkpt><trkpt lat="43.43581" lon="11.6473267"><ele>268.0</ele><time>2026-03-31T14:12:52.797Z</time></trkpt><trkpt lat="43.4358" lon="11.6474967"><ele>268.0</ele><time>2026-03-31T14:12:53.796Z</time></trkpt><trkpt lat="43.4358117" lon="11.6476817"><ele>268.0</ele><time>2026-03-31T14:12:54.796Z</time></trkpt><trkpt lat="43.4358183" lon="11.6478717"><ele>268.0</ele><time>2026-03-31T14:12:55.797Z</time></trkpt><trkpt lat="43.4358217" lon="11.6480517"><ele>268.0</ele><time>2026-03-31T14:12:56.795Z</time></trkpt><trkpt lat="43.4358283" lon="11.6482217"><ele>268.0</ele><time>2026-03-31T14:12:57.796Z</time></trkpt><trkpt lat="43.43582" lon="11.648395"><ele>268.0</ele><time>2026-03-31T14:12:58.796Z</time></trkpt><trkpt lat="43.4358133" lon="11.6485817"><ele>268.25</ele><time>2026-03-31T14:12:59.795Z</time></trkpt><trkpt lat="43.435805" lon="11.6487667"><ele>268.5</ele><time>2026-03-31T14:13:00.797Z</time></trkpt><trkpt lat="43.435805" lon="11.64895"><ele>268.75</ele><time>2026-03-31T14:13:01.797Z</time></trkpt><trkpt lat="43.4358083" lon="11.6491317"><ele>269.0</ele><time>2026-03-31T14:13:02.798Z</time></trkpt><trkpt lat="43.4358133" lon="11.6493"><ele>269.5</ele><time>2026-03-31T14:13:03.796Z</time></trkpt><trkpt lat="43.4358167" lon="11.6494667"><ele>270.0</ele><time>2026-03-31T14:13:04.796Z</time></trkpt><trkpt lat="43.4358217" lon="11.6496367"><ele>270.5</ele><time>2026-03-31T14:13:05.797Z</time></trkpt><trkpt lat="43.4358267" lon="11.6498067"><ele>271.0</ele><time>2026-03-31T14:13:06.797Z</time></trkpt><trkpt lat="43.4358283" lon="11.6499767"><ele>271.0</ele><time>2026-03-31T14:13:07.797Z</time></trkpt><trkpt lat="43.4358367" lon="11.6501533"><ele>271.0</ele><time>2026-03-31T14:13:08.798Z</time></trkpt><trkpt lat="43.4358517" lon="11.65033"><ele>271.0</ele><time>2026-03-31T14:13:09.798Z</time></trkpt><trkpt lat="43.4358633" lon="11.6505083"><ele>271.0</ele><time>2026-03-31T14:13:10.796Z</time></trkpt><trkpt lat="43.4358733" lon="11.65068"><ele>271.75</ele><time>2026-03-31T14:13:11.797Z</time></trkpt><trkpt lat="43.4358867" lon="11.65084"><ele>272.5</ele><time>2026-03-31T14:13:12.795Z</time></trkpt><trkpt lat="43.4358983" lon="11.6509983"><ele>273.25</ele><time>2026-03-31T14:13:13.794Z</time></trkpt><trkpt lat="43.4359067" lon="11.65116"><ele>274.0</ele><time>2026-03-31T14:13:14.796Z</time></trkpt><trkpt lat="43.4359183" lon="11.6513167"><ele>274.0</ele><time>2026-03-31T14:13:15.795Z</time></trkpt><trkpt lat="43.4359267" lon="11.651455"><ele>274.0</ele><time>2026-03-31T14:13:16.795Z</time></trkpt><trkpt lat="43.43594" lon="11.651575"><ele>274.0</ele><time>2026-03-31T14:13:17.795Z</time></trkpt><trkpt lat="43.4359517" lon="11.6516733"><ele>274.0</ele><time>2026-03-31T14:13:18.796Z</time></trkpt><trkpt lat="43.435965" lon="11.6518267"><ele>274.0</ele><time>2026-03-31T14:13:20.796Z</time></trkpt><trkpt lat="43.4359667" lon="11.6519667"><ele>273.4</ele><time>2026-03-31T14:13:22.795Z</time></trkpt><trkpt lat="43.4360267" lon="11.6520683"><ele>272.79999999999995</ele><time>2026-03-31T14:13:24.796Z</time></trkpt><trkpt lat="43.4360867" lon="11.6520983"><ele>272.20000000000005</ele><time>2026-03-31T14:13:25.795Z</time></trkpt><trkpt lat="43.4361733" lon="11.65213"><ele>271.6</ele><time>2026-03-31T14:13:26.797Z</time></trkpt><trkpt lat="43.4362933" lon="11.65216"><ele>271.0</ele><time>2026-03-31T14:13:27.795Z</time></trkpt><trkpt lat="43.4364167" lon="11.65219"><ele>270.40000000000003</ele><time>2026-03-31T14:13:28.796Z</time></trkpt><trkpt lat="43.4365267" lon="11.6522217"><ele>269.8</ele><time>2026-03-31T14:13:29.796Z</time></trkpt><trkpt lat="43.4366233" lon="11.65225"><ele>269.20000000000005</ele><time>2026-03-31T14:13:30.795Z</time></trkpt><trkpt lat="43.4367117" lon="11.65228"><ele>268.6</ele><time>2026-03-31T14:13:31.797Z</time></trkpt><trkpt lat="43.4367983" lon="11.65231"><ele>268.0</ele><time>2026-03-31T14:13:32.798Z</time></trkpt><trkpt lat="43.43688" lon="11.652335"><ele>268.0</ele><time>2026-03-31T14:13:33.798Z</time></trkpt><trkpt lat="43.4369683" lon="11.65236"><ele>268.0</ele><time>2026-03-31T14:13:34.795Z</time></trkpt><trkpt lat="43.437055" lon="11.6523817"><ele>268.0</ele><time>2026-03-31T14:13:35.796Z</time></trkpt><trkpt lat="43.4371483" lon="11.6524067"><ele>268.0</ele><time>2026-03-31T14:13:36.796Z</time></trkpt><trkpt lat="43.437245" lon="11.6524367"><ele>268.0</ele><time>2026-03-31T14:13:37.798Z</time></trkpt><trkpt lat="43.437355" lon="11.6524633"><ele>265.25</ele><time>2026-03-31T14:13:38.798Z</time></trkpt><trkpt lat="43.43748" lon="11.6524967"><ele>262.5</ele><time>2026-03-31T14:13:39.796Z</time></trkpt><trkpt lat="43.4376033" lon="11.6525333"><ele>259.75</ele><time>2026-03-31T14:13:40.797Z</time></trkpt><trkpt lat="43.4377233" lon="11.6525617"><ele>257.0</ele><time>2026-03-31T14:13:41.798Z</time></trkpt><trkpt lat="43.437845" lon="11.652595"><ele>257.0</ele><time>2026-03-31T14:13:42.797Z</time></trkpt><trkpt lat="43.4379517" lon="11.6526317"><ele>257.0</ele><time>2026-03-31T14:13:43.796Z</time></trkpt><trkpt lat="43.4380383" lon="11.6526733"><ele>257.0</ele><time>2026-03-31T14:13:44.796Z</time></trkpt><trkpt lat="43.4381033" lon="11.6526967"><ele>257.0</ele><time>2026-03-31T14:13:45.796Z</time></trkpt><trkpt lat="43.43819" lon="11.652745"><ele>257.0</ele><time>2026-03-31T14:13:47.795Z</time></trkpt><trkpt lat="43.4382417" lon="11.652805"><ele>257.0</ele><time>2026-03-31T14:13:49.796Z</time></trkpt><trkpt lat="43.4382533" lon="11.65296"><ele>255.2</ele><time>2026-03-31T14:13:52.796Z</time></trkpt><trkpt lat="43.43826" lon="11.6531217"><ele>253.39999999999998</ele><time>2026-03-31T14:13:54.796Z</time></trkpt><trkpt lat="43.4382367" lon="11.6532633"><ele>251.60000000000002</ele><time>2026-03-31T14:13:56.797Z</time></trkpt><trkpt lat="43.4382333" lon="11.6533867"><ele>249.8</ele><time>2026-03-31T14:13:58.796Z</time></trkpt><trkpt lat="43.43821" lon="11.653525"><ele>248.0</ele><time>2026-03-31T14:14:00.797Z</time></trkpt><trkpt lat="43.4381833" lon="11.65368"><ele>247.75</ele><time>2026-03-31T14:14:02.799Z</time></trkpt><trkpt lat="43.4382367" lon="11.6538183"><ele>247.5</ele><time>2026-03-31T14:14:04.797Z</time></trkpt><trkpt lat="43.4383183" lon="11.6539017"><ele>247.25</ele><time>2026-03-31T14:14:05.798Z</time></trkpt><trkpt lat="43.438425" lon="11.6540033"><ele>247.0</ele><time>2026-03-31T14:14:06.797Z</time></trkpt><trkpt lat="43.4385567" lon="11.654125"><ele>247.0</ele><time>2026-03-31T14:14:07.797Z</time></trkpt><trkpt lat="43.4386833" lon="11.65425"><ele>247.0</ele><time>2026-03-31T14:14:08.797Z</time></trkpt><trkpt lat="43.4388133" lon="11.654375"><ele>247.0</ele><time>2026-03-31T14:14:09.797Z</time></trkpt><trkpt lat="43.4389317" lon="11.65449"><ele>247.75</ele><time>2026-03-31T14:14:10.797Z</time></trkpt><trkpt lat="43.4390433" lon="11.6546"><ele>248.5</ele><time>2026-03-31T14:14:11.798Z</time></trkpt><trkpt lat="43.4391533" lon="11.6547117"><ele>249.25</ele><time>2026-03-31T14:14:12.797Z</time></trkpt><trkpt lat="43.4392667" lon="11.6548217"><ele>250.0</ele><time>2026-03-31T14:14:13.796Z</time></trkpt><trkpt lat="43.4393733" lon="11.6549283"><ele>250.0</ele><time>2026-03-31T14:14:14.799Z</time></trkpt><trkpt lat="43.4394733" lon="11.6550183"><ele>250.0</ele><time>2026-03-31T14:14:15.796Z</time></trkpt><trkpt lat="43.4395733" lon="11.65511"><ele>250.0</ele><time>2026-03-31T14:14:16.795Z</time></trkpt><trkpt lat="43.4396733" lon="11.6552033"><ele>250.0</ele><time>2026-03-31T14:14:17.796Z</time></trkpt><trkpt lat="43.4397817" lon="11.655305"><ele>250.75</ele><time>2026-03-31T14:14:18.797Z</time></trkpt><trkpt lat="43.43989" lon="11.65541"><ele>251.5</ele><time>2026-03-31T14:14:19.795Z</time></trkpt><trkpt lat="43.44" lon="11.6555117"><ele>252.25</ele><time>2026-03-31T14:14:20.795Z</time></trkpt><trkpt lat="43.440115" lon="11.655615"><ele>253.0</ele><time>2026-03-31T14:14:21.795Z</time></trkpt><trkpt lat="43.4402317" lon="11.6557217"><ele>253.0</ele><time>2026-03-31T14:14:22.795Z</time></trkpt><trkpt lat="43.440345" lon="11.6558283"><ele>253.0</ele><time>2026-03-31T14:14:23.796Z</time></trkpt><trkpt lat="43.44045" lon="11.6559333"><ele>253.0</ele><time>2026-03-31T14:14:24.796Z</time></trkpt><trkpt lat="43.44055" lon="11.656035"><ele>253.0</ele><time>2026-03-31T14:14:25.799Z</time></trkpt><trkpt lat="43.4406517" lon="11.656135"><ele>254.4</ele><time>2026-03-31T14:14:26.797Z</time></trkpt><trkpt lat="43.440745" lon="11.6562233"><ele>255.8</ele><time>2026-03-31T14:14:27.796Z</time></trkpt><trkpt lat="43.4408283" lon="11.6562967"><ele>257.2</ele><time>2026-03-31T14:14:28.796Z</time></trkpt><trkpt lat="43.440895" lon="11.6563567"><ele>258.6</ele><time>2026-03-31T14:14:29.796Z</time></trkpt><trkpt lat="43.4409767" lon="11.6564533"><ele>260.0</ele><time>2026-03-31T14:14:31.797Z</time></trkpt><trkpt lat="43.4410067" lon="11.6565683"><ele>260.0</ele><time>2026-03-31T14:14:33.797Z</time></trkpt><trkpt lat="43.4409917" lon="11.65672"><ele>260.0</ele><time>2026-03-31T14:14:35.797Z</time></trkpt><trkpt lat="43.4409683" lon="11.65683"><ele>260.0</ele><time>2026-03-31T14:14:36.797Z</time></trkpt><trkpt lat="43.44092" lon="11.6569533"><ele>260.0</ele><time>2026-03-31T14:14:37.796Z</time></trkpt><trkpt lat="43.4408783" lon="11.657065"><ele>260.0</ele><time>2026-03-31T14:14:38.798Z</time></trkpt><trkpt lat="43.4408383" lon="11.6571733"><ele>260.33333333333337</ele><time>2026-03-31T14:14:39.797Z</time></trkpt><trkpt lat="43.4408067" lon="11.6572783"><ele>260.6666666666667</ele><time>2026-03-31T14:14:40.795Z</time></trkpt><trkpt lat="43.44078" lon="11.65738"><ele>261.0</ele><time>2026-03-31T14:14:41.796Z</time></trkpt><trkpt lat="43.4407533" lon="11.6574717"><ele>261.3333333333333</ele><time>2026-03-31T14:14:42.796Z</time></trkpt><trkpt lat="43.4407167" lon="11.6576133"><ele>261.66666666666663</ele><time>2026-03-31T14:14:44.798Z</time></trkpt><trkpt lat="43.44069" lon="11.6577233"><ele>262.0</ele><time>2026-03-31T14:14:46.794Z</time></trkpt><trkpt lat="43.44066" lon="11.6578217"><ele>262.0</ele><time>2026-03-31T14:14:48.796Z</time></trkpt><trkpt lat="43.4406267" lon="11.657915"><ele>262.0</ele><time>2026-03-31T14:14:50.796Z</time></trkpt><trkpt lat="43.4405883" lon="11.658005"><ele>262.0</ele><time>2026-03-31T14:14:53.796Z</time></trkpt><trkpt lat="43.440545" lon="11.658125"><ele>262.0</ele><time>2026-03-31T14:14:56.799Z</time></trkpt><trkpt lat="43.4405017" lon="11.658275"><ele>262.0</ele><time>2026-03-31T14:14:58.796Z</time></trkpt><trkpt lat="43.4404767" lon="11.65837"><ele>262.0</ele><time>2026-03-31T14:14:59.796Z</time></trkpt><trkpt lat="43.440445" lon="11.6584717"><ele>262.0</ele><time>2026-03-31T14:15:00.796Z</time></trkpt><trkpt lat="43.4404133" lon="11.6585817"><ele>262.0</ele><time>2026-03-31T14:15:01.798Z</time></trkpt><trkpt lat="43.4403833" lon="11.658695"><ele>262.0</ele><time>2026-03-31T14:15:02.798Z</time></trkpt><trkpt lat="43.44035" lon="11.65881"><ele>262.0</ele><time>2026-03-31T14:15:03.796Z</time></trkpt><trkpt lat="43.4403117" lon="11.6589333"><ele>262.0</ele><time>2026-03-31T14:15:04.795Z</time></trkpt><trkpt lat="43.4402717" lon="11.6590633"><ele>262.6</ele><time>2026-03-31T14:15:05.797Z</time></trkpt><trkpt lat="43.440235" lon="11.6591917"><ele>263.2</ele><time>2026-03-31T14:15:06.797Z</time></trkpt><trkpt lat="43.4402" lon="11.6593067"><ele>263.8</ele><time>2026-03-31T14:15:07.796Z</time></trkpt><trkpt lat="43.4401667" lon="11.6594183"><ele>264.4</ele><time>2026-03-31T14:15:08.798Z</time></trkpt><trkpt lat="43.4401333" lon="11.6595317"><ele>265.0</ele><time>2026-03-31T14:15:09.797Z</time></trkpt><trkpt lat="43.4401033" lon="11.65964"><ele>265.6</ele><time>2026-03-31T14:15:10.795Z</time></trkpt><trkpt lat="43.4400783" lon="11.6597383"><ele>266.2</ele><time>2026-03-31T14:15:11.797Z</time></trkpt><trkpt lat="43.4400633" lon="11.65986"><ele>266.8</ele><time>2026-03-31T14:15:13.795Z</time></trkpt><trkpt lat="43.44011" lon="11.6599467"><ele>267.4</ele><time>2026-03-31T14:15:15.795Z</time></trkpt><trkpt lat="43.4401883" lon="11.6601017"><ele>268.0</ele><time>2026-03-31T14:15:17.796Z</time></trkpt><trkpt lat="43.4402483" lon="11.6602217"><ele>268.4</ele><time>2026-03-31T14:15:18.797Z</time></trkpt><trkpt lat="43.4403167" lon="11.66035"><ele>268.8</ele><time>2026-03-31T14:15:19.797Z</time></trkpt><trkpt lat="43.440385" lon="11.6604633"><ele>269.2</ele><time>2026-03-31T14:15:20.796Z</time></trkpt><trkpt lat="43.440455" lon="11.6605667"><ele>269.6</ele><time>2026-03-31T14:15:21.797Z</time></trkpt><trkpt lat="43.4405117" lon="11.6606417"><ele>270.0</ele><time>2026-03-31T14:15:22.795Z</time></trkpt><trkpt lat="43.4405783" lon="11.6607667"><ele>270.0</ele><time>2026-03-31T14:15:24.798Z</time></trkpt><trkpt lat="43.4406517" lon="11.6609367"><ele>270.0</ele><time>2026-03-31T14:15:26.798Z</time></trkpt><trkpt lat="43.4407067" lon="11.661045"><ele>270.0</ele><time>2026-03-31T14:15:27.797Z</time></trkpt><trkpt lat="43.4407667" lon="11.6611517"><ele>270.0</ele><time>2026-03-31T14:15:28.796Z</time></trkpt><trkpt lat="43.4408317" lon="11.6612617"><ele>270.0</ele><time>2026-03-31T14:15:29.798Z</time></trkpt><trkpt lat="43.4409" lon="11.6613733"><ele>270.6</ele><time>2026-03-31T14:15:30.797Z</time></trkpt><trkpt lat="43.440965" lon="11.6614817"><ele>271.2</ele><time>2026-03-31T14:15:31.797Z</time></trkpt><trkpt lat="43.4410317" lon="11.6615883"><ele>271.8</ele><time>2026-03-31T14:15:32.798Z</time></trkpt><trkpt lat="43.4411" lon="11.6616967"><ele>272.4</ele><time>2026-03-31T14:15:33.798Z</time></trkpt><trkpt lat="43.4411667" lon="11.6618067"><ele>273.0</ele><time>2026-03-31T14:15:34.796Z</time></trkpt><trkpt lat="43.4412317" lon="11.6619183"><ele>273.5</ele><time>2026-03-31T14:15:35.797Z</time></trkpt><trkpt lat="43.441305" lon="11.6620417"><ele>274.0</ele><time>2026-03-31T14:15:36.797Z</time></trkpt><trkpt lat="43.4413867" lon="11.6621733"><ele>274.5</ele><time>2026-03-31T14:15:37.797Z</time></trkpt><trkpt lat="43.441465" lon="11.6623067"><ele>275.0</ele><time>2026-03-31T14:15:38.798Z</time></trkpt><trkpt lat="43.44155" lon="11.6624433"><ele>275.0</ele><time>2026-03-31T14:15:39.797Z</time></trkpt><trkpt lat="43.4416367" lon="11.6625817"><ele>275.0</ele><time>2026-03-31T14:15:40.796Z</time></trkpt><trkpt lat="43.44172" lon="11.66272"><ele>275.0</ele><time>2026-03-31T14:15:41.797Z</time></trkpt><trkpt lat="43.4418067" lon="11.6628617"><ele>275.0</ele><time>2026-03-31T14:15:42.798Z</time></trkpt><trkpt lat="43.4418917" lon="11.6630067"><ele>275.5</ele><time>2026-03-31T14:15:43.797Z</time></trkpt><trkpt lat="43.4419783" lon="11.6631483"><ele>276.0</ele><time>2026-03-31T14:15:44.798Z</time></trkpt><trkpt lat="43.44206" lon="11.663285"><ele>276.5</ele><time>2026-03-31T14:15:45.796Z</time></trkpt><trkpt lat="43.44214" lon="11.6634183"><ele>277.0</ele><time>2026-03-31T14:15:46.796Z</time></trkpt><trkpt lat="43.4422217" lon="11.6635517"><ele>278.0</ele><time>2026-03-31T14:15:47.796Z</time></trkpt><trkpt lat="43.442305" lon="11.6636883"><ele>279.0</ele><time>2026-03-31T14:15:48.797Z</time></trkpt><trkpt lat="43.44239" lon="11.663825"><ele>280.0</ele><time>2026-03-31T14:15:49.796Z</time></trkpt><trkpt lat="43.442475" lon="11.6639617"><ele>281.0</ele><time>2026-03-31T14:15:50.797Z</time></trkpt><trkpt lat="43.4425517" lon="11.6640933"><ele>281.0</ele><time>2026-03-31T14:15:51.798Z</time></trkpt><trkpt lat="43.4426183" lon="11.6642067"><ele>281.0</ele><time>2026-03-31T14:15:52.796Z</time></trkpt><trkpt lat="43.4426683" lon="11.6642933"><ele>281.0</ele><time>2026-03-31T14:15:53.798Z</time></trkpt><trkpt lat="43.4427133" lon="11.6643717"><ele>281.0</ele><time>2026-03-31T14:15:54.798Z</time></trkpt><trkpt lat="43.4427567" lon="11.6644433"><ele>281.0</ele><time>2026-03-31T14:15:55.797Z</time></trkpt><trkpt lat="43.4428167" lon="11.66457"><ele>281.0</ele><time>2026-03-31T14:15:57.797Z</time></trkpt><trkpt lat="43.4428583" lon="11.6647317"><ele>280.5</ele><time>2026-03-31T14:15:59.797Z</time></trkpt><trkpt lat="43.4429" lon="11.66485"><ele>280.0</ele><time>2026-03-31T14:16:00.796Z</time></trkpt><trkpt lat="43.4429717" lon="11.6649833"><ele>279.5</ele><time>2026-03-31T14:16:01.796Z</time></trkpt><trkpt lat="43.4430517" lon="11.6651267"><ele>279.0</ele><time>2026-03-31T14:16:02.796Z</time></trkpt><trkpt lat="43.4431283" lon="11.6652517"><ele>279.8</ele><time>2026-03-31T14:16:03.796Z</time></trkpt><trkpt lat="43.44319" lon="11.66535"><ele>280.59999999999997</ele><time>2026-03-31T14:16:04.795Z</time></trkpt><trkpt lat="43.443245" lon="11.6654317"><ele>281.4</ele><time>2026-03-31T14:16:05.797Z</time></trkpt><trkpt lat="43.4432917" lon="11.665525"><ele>282.2</ele><time>2026-03-31T14:16:07.797Z</time></trkpt><trkpt lat="43.4432133" lon="11.6656117"><ele>283.0</ele><time>2026-03-31T14:16:10.797Z</time></trkpt><trkpt lat="43.4431017" lon="11.66569"><ele>283.0</ele><time>2026-03-31T14:16:12.798Z</time></trkpt><trkpt lat="43.4430483" lon="11.6657417"><ele>283.0</ele><time>2026-03-31T14:16:13.795Z</time></trkpt><trkpt lat="43.44298" lon="11.6658633"><ele>283.0</ele><time>2026-03-31T14:16:15.797Z</time></trkpt><trkpt lat="43.4429583" lon="11.6660417"><ele>283.0</ele><time>2026-03-31T14:16:17.797Z</time></trkpt><trkpt lat="43.4429483" lon="11.6661483"><ele>283.0</ele><time>2026-03-31T14:16:18.796Z</time></trkpt><trkpt lat="43.4429467" lon="11.6662383"><ele>286.3333333333333</ele><time>2026-03-31T14:16:19.797Z</time></trkpt><trkpt lat="43.4428967" lon="11.66639"><ele>289.66666666666663</ele><time>2026-03-31T14:16:21.796Z</time></trkpt><trkpt lat="43.4428517" lon="11.6664633"><ele>293.0</ele><time>2026-03-31T14:16:22.796Z</time></trkpt><trkpt lat="43.4427983" lon="11.6665333"><ele>296.3333333333333</ele><time>2026-03-31T14:16:23.794Z</time></trkpt><trkpt lat="43.4427433" lon="11.6666017"><ele>299.6666666666667</ele><time>2026-03-31T14:16:24.796Z</time></trkpt><trkpt lat="43.4426867" lon="11.6666583"><ele>303.0</ele><time>2026-03-31T14:16:25.797Z</time></trkpt><trkpt lat="43.4426267" lon="11.6667"><ele>303.0</ele><time>2026-03-31T14:16:26.796Z</time></trkpt><trkpt lat="43.442555" lon="11.66671"><ele>303.0</ele><time>2026-03-31T14:16:27.797Z</time></trkpt><trkpt lat="43.442435" lon="11.6667"><ele>303.0</ele><time>2026-03-31T14:16:29.796Z</time></trkpt><trkpt lat="43.4423383" lon="11.66673"><ele>303.0</ele><time>2026-03-31T14:16:31.796Z</time></trkpt><trkpt lat="43.4422333" lon="11.6667733"><ele>303.0</ele><time>2026-03-31T14:16:33.797Z</time></trkpt><trkpt lat="43.442125" lon="11.6668233"><ele>306.5</ele><time>2026-03-31T14:16:35.796Z</time></trkpt><trkpt lat="43.4420017" lon="11.6668083"><ele>310.0</ele><time>2026-03-31T14:16:37.796Z</time></trkpt><trkpt lat="43.4419433" lon="11.6667483"><ele>313.5</ele><time>2026-03-31T14:16:38.797Z</time></trkpt><trkpt lat="43.4418867" lon="11.6667083"><ele>317.0</ele><time>2026-03-31T14:16:39.795Z</time></trkpt><trkpt lat="43.4418217" lon="11.6666883"><ele>320.5</ele><time>2026-03-31T14:16:40.797Z</time></trkpt><trkpt lat="43.4417283" lon="11.6667233"><ele>324.0</ele><time>2026-03-31T14:16:42.796Z</time></trkpt><trkpt lat="43.441655" lon="11.6668083"><ele>324.0</ele><time>2026-03-31T14:16:44.798Z</time></trkpt><trkpt lat="43.4415683" lon="11.666865"><ele>324.0</ele><time>2026-03-31T14:16:46.795Z</time></trkpt><trkpt lat="43.4415" lon="11.66697"><ele>324.0</ele><time>2026-03-31T14:16:48.797Z</time></trkpt><trkpt lat="43.4414567" lon="11.667105"><ele>324.0</ele><time>2026-03-31T14:16:50.796Z</time></trkpt><trkpt lat="43.4414167" lon="11.66725"><ele>324.0</ele><time>2026-03-31T14:16:52.795Z</time></trkpt><trkpt lat="43.441385" lon="11.6673333"><ele>324.57142857142856</ele><time>2026-03-31T14:16:53.797Z</time></trkpt><trkpt lat="43.4413433" lon="11.6674233"><ele>325.1428571428571</ele><time>2026-03-31T14:16:54.797Z</time></trkpt><trkpt lat="43.4413067" lon="11.667505"><ele>325.71428571428567</ele><time>2026-03-31T14:16:55.796Z</time></trkpt><trkpt lat="43.441255" lon="11.6675767"><ele>326.2857142857143</ele><time>2026-03-31T14:16:56.797Z</time></trkpt><trkpt lat="43.4411983" lon="11.6676417"><ele>326.85714285714283</ele><time>2026-03-31T14:16:57.796Z</time></trkpt><trkpt lat="43.4411283" lon="11.6676917"><ele>327.4285714285714</ele><time>2026-03-31T14:16:58.795Z</time></trkpt><trkpt lat="43.441055" lon="11.667715"><ele>328.0</ele><time>2026-03-31T14:16:59.797Z</time></trkpt><trkpt lat="43.4409833" lon="11.6677183"><ele>330.99999999999994</ele><time>2026-03-31T14:17:00.796Z</time></trkpt><trkpt lat="43.4409117" lon="11.6677183"><ele>334.0</ele><time>2026-03-31T14:17:01.797Z</time></trkpt><trkpt lat="43.44084" lon="11.6677233"><ele>337.0</ele><time>2026-03-31T14:17:02.798Z</time></trkpt><trkpt lat="43.4407617" lon="11.6677383"><ele>340.0</ele><time>2026-03-31T14:17:03.798Z</time></trkpt><trkpt lat="43.4406917" lon="11.6677683"><ele>343.0</ele><time>2026-03-31T14:17:04.796Z</time></trkpt><trkpt lat="43.4406233" lon="11.6678117"><ele>345.99999999999994</ele><time>2026-03-31T14:17:05.798Z</time></trkpt><trkpt lat="43.440555" lon="11.66786"><ele>349.0</ele><time>2026-03-31T14:17:06.799Z</time></trkpt><trkpt lat="43.4405017" lon="11.6679367"><ele>350.8333333333333</ele><time>2026-03-31T14:17:07.795Z</time></trkpt><trkpt lat="43.4404633" lon="11.668035"><ele>352.66666666666663</ele><time>2026-03-31T14:17:08.797Z</time></trkpt><trkpt lat="43.4404217" lon="11.6681333"><ele>354.5</ele><time>2026-03-31T14:17:09.796Z</time></trkpt><trkpt lat="43.4403917" lon="11.668225"><ele>356.3333333333333</ele><time>2026-03-31T14:17:10.796Z</time></trkpt><trkpt lat="43.440375" lon="11.66832"><ele>358.1666666666667</ele><time>2026-03-31T14:17:11.796Z</time></trkpt><trkpt lat="43.4403517" lon="11.6684267"><ele>360.0</ele><time>2026-03-31T14:17:12.797Z</time></trkpt><trkpt lat="43.4403217" lon="11.6685533"><ele>360.8</ele><time>2026-03-31T14:17:13.795Z</time></trkpt><trkpt lat="43.4402683" lon="11.6687"><ele>361.6</ele><time>2026-03-31T14:17:14.798Z</time></trkpt><trkpt lat="43.4402067" lon="11.6688383"><ele>362.4</ele><time>2026-03-31T14:17:15.797Z</time></trkpt><trkpt lat="43.4401433" lon="11.6689517"><ele>363.2</ele><time>2026-03-31T14:17:16.799Z</time></trkpt><trkpt lat="43.4400767" lon="11.6690383"><ele>364.0</ele><time>2026-03-31T14:17:17.797Z</time></trkpt><trkpt lat="43.4400083" lon="11.6691033"><ele>364.0</ele><time>2026-03-31T14:17:18.796Z</time></trkpt><trkpt lat="43.43994" lon="11.6691533"><ele>364.0</ele><time>2026-03-31T14:17:19.797Z</time></trkpt><trkpt lat="43.4398783" lon="11.6692067"><ele>364.0</ele><time>2026-03-31T14:17:20.798Z</time></trkpt><trkpt lat="43.439835" lon="11.6692917"><ele>364.0</ele><time>2026-03-31T14:17:21.797Z</time></trkpt><trkpt lat="43.4397933" lon="11.6694033"><ele>364.0</ele><time>2026-03-31T14:17:22.796Z</time></trkpt><trkpt lat="43.439785" lon="11.6695417"><ele>364.0</ele><time>2026-03-31T14:17:23.797Z</time></trkpt><trkpt lat="43.4397733" lon="11.6696783"><ele>365.0</ele><time>2026-03-31T14:17:24.795Z</time></trkpt><trkpt lat="43.4397683" lon="11.6698117"><ele>366.0</ele><time>2026-03-31T14:17:25.797Z</time></trkpt><trkpt lat="43.439765" lon="11.669935"><ele>367.0</ele><time>2026-03-31T14:17:26.796Z</time></trkpt><trkpt lat="43.4397717" lon="11.6700683"><ele>368.0</ele><time>2026-03-31T14:17:27.796Z</time></trkpt><trkpt lat="43.4397633" lon="11.670205"><ele>369.0</ele><time>2026-03-31T14:17:28.796Z</time></trkpt><trkpt lat="43.4397683" lon="11.6703317"><ele>370.5</ele><time>2026-03-31T14:17:29.797Z</time></trkpt><trkpt lat="43.4397833" lon="11.6704517"><ele>372.0</ele><time>2026-03-31T14:17:30.796Z</time></trkpt><trkpt lat="43.4397917" lon="11.6705717"><ele>373.5</ele><time>2026-03-31T14:17:31.797Z</time></trkpt><trkpt lat="43.4397933" lon="11.6706833"><ele>375.0</ele><time>2026-03-31T14:17:32.796Z</time></trkpt><trkpt lat="43.439795" lon="11.6707983"><ele>376.5</ele><time>2026-03-31T14:17:33.797Z</time></trkpt><trkpt lat="43.4397833" lon="11.6709283"><ele>378.0</ele><time>2026-03-31T14:17:34.795Z</time></trkpt><trkpt lat="43.4397617" lon="11.67107"><ele>378.59999999999997</ele><time>2026-03-31T14:17:35.797Z</time></trkpt><trkpt lat="43.4397383" lon="11.6712267"><ele>379.2</ele><time>2026-03-31T14:17:36.796Z</time></trkpt><trkpt lat="43.439725" lon="11.671365"><ele>379.8</ele><time>2026-03-31T14:17:37.797Z</time></trkpt><trkpt lat="43.4397417" lon="11.671485"><ele>380.4</ele><time>2026-03-31T14:17:38.798Z</time></trkpt><trkpt lat="43.4397683" lon="11.6716067"><ele>381.0</ele><time>2026-03-31T14:17:39.796Z</time></trkpt><trkpt lat="43.4398017" lon="11.6717233"><ele>381.0</ele><time>2026-03-31T14:17:40.795Z</time></trkpt><trkpt lat="43.43984" lon="11.671835"><ele>381.0</ele><time>2026-03-31T14:17:41.797Z</time></trkpt><trkpt lat="43.43988" lon="11.6719583"><ele>381.0</ele><time>2026-03-31T14:17:42.796Z</time></trkpt><trkpt lat="43.439925" lon="11.672095"><ele>381.0</ele><time>2026-03-31T14:17:43.796Z</time></trkpt><trkpt lat="43.439965" lon="11.6722233"><ele>381.0</ele><time>2026-03-31T14:17:44.798Z</time></trkpt><trkpt lat="43.4400117" lon="11.6723283"><ele>383.0</ele><time>2026-03-31T14:17:45.796Z</time></trkpt><trkpt lat="43.4400617" lon="11.672415"><ele>385.0</ele><time>2026-03-31T14:17:46.795Z</time></trkpt><trkpt lat="43.44012" lon="11.67249"><ele>387.0</ele><time>2026-03-31T14:17:47.796Z</time></trkpt><trkpt lat="43.4401817" lon="11.6725583"><ele>389.0</ele><time>2026-03-31T14:17:48.797Z</time></trkpt><trkpt lat="43.4402417" lon="11.6726417"><ele>391.0</ele><time>2026-03-31T14:17:49.797Z</time></trkpt><trkpt lat="43.4403" lon="11.6727233"><ele>393.0</ele><time>2026-03-31T14:17:50.797Z</time></trkpt><trkpt lat="43.440355" lon="11.6728"><ele>393.3333333333333</ele><time>2026-03-31T14:17:51.797Z</time></trkpt><trkpt lat="43.4404133" lon="11.6728633"><ele>393.66666666666663</ele><time>2026-03-31T14:17:52.796Z</time></trkpt><trkpt lat="43.440475" lon="11.67292"><ele>394.0</ele><time>2026-03-31T14:17:53.795Z</time></trkpt><trkpt lat="43.4405417" lon="11.6729717"><ele>394.3333333333333</ele><time>2026-03-31T14:17:54.797Z</time></trkpt><trkpt lat="43.4406183" lon="11.6730167"><ele>394.66666666666663</ele><time>2026-03-31T14:17:55.795Z</time></trkpt><trkpt lat="43.4406867" lon="11.673055"><ele>395.0</ele><time>2026-03-31T14:17:56.797Z</time></trkpt><trkpt lat="43.4407517" lon="11.673095"><ele>394.99999999999994</ele><time>2026-03-31T14:17:57.796Z</time></trkpt><trkpt lat="43.4408133" lon="11.67312"><ele>395.0</ele><time>2026-03-31T14:17:58.795Z</time></trkpt><trkpt lat="43.4409317" lon="11.6731383"><ele>395.0</ele><time>2026-03-31T14:18:00.797Z</time></trkpt><trkpt lat="43.440995" lon="11.673125"><ele>395.0</ele><time>2026-03-31T14:18:01.796Z</time></trkpt><trkpt lat="43.44108" lon="11.6730883"><ele>394.99999999999994</ele><time>2026-03-31T14:18:02.798Z</time></trkpt><trkpt lat="43.4411667" lon="11.6730567"><ele>395.0</ele><time>2026-03-31T14:18:03.797Z</time></trkpt><trkpt lat="43.4412517" lon="11.673035"><ele>393.8333333333333</ele><time>2026-03-31T14:18:04.796Z</time></trkpt><trkpt lat="43.4413333" lon="11.6730133"><ele>392.66666666666663</ele><time>2026-03-31T14:18:05.797Z</time></trkpt><trkpt lat="43.4414117" lon="11.6729967"><ele>391.5</ele><time>2026-03-31T14:18:06.797Z</time></trkpt><trkpt lat="43.4414933" lon="11.6729833"><ele>390.33333333333337</ele><time>2026-03-31T14:18:07.796Z</time></trkpt><trkpt lat="43.4415733" lon="11.6729783"><ele>389.1666666666667</ele><time>2026-03-31T14:18:08.797Z</time></trkpt><trkpt lat="43.441645" lon="11.6729883"><ele>388.0</ele><time>2026-03-31T14:18:09.796Z</time></trkpt><trkpt lat="43.4417233" lon="11.67301"><ele>388.00000000000006</ele><time>2026-03-31T14:18:10.796Z</time></trkpt><trkpt lat="43.4418017" lon="11.6730467"><ele>388.0</ele><time>2026-03-31T14:18:11.795Z</time></trkpt><trkpt lat="43.4418867" lon="11.673105"><ele>388.0</ele><time>2026-03-31T14:18:12.797Z</time></trkpt><trkpt lat="43.4419733" lon="11.673165"><ele>388.0</ele><time>2026-03-31T14:18:13.793Z</time></trkpt><trkpt lat="43.4420467" lon="11.67322"><ele>388.00000000000006</ele><time>2026-03-31T14:18:14.798Z</time></trkpt><trkpt lat="43.4420983" lon="11.67327"><ele>388.0</ele><time>2026-03-31T14:18:15.797Z</time></trkpt><trkpt lat="43.4421533" lon="11.6733917"><ele>388.79999999999995</ele><time>2026-03-31T14:18:17.798Z</time></trkpt><trkpt lat="43.4421417" lon="11.6735067"><ele>389.6</ele><time>2026-03-31T14:18:19.79Z</time></trkpt><trkpt lat="43.4421083" lon="11.6736283"><ele>390.4</ele><time>2026-03-31T14:18:21.797Z</time></trkpt><trkpt lat="43.4420417" lon="11.6736983"><ele>391.20000000000005</ele><time>2026-03-31T14:18:23.796Z</time></trkpt><trkpt lat="43.441955" lon="11.6737183"><ele>392.0</ele><time>2026-03-31T14:18:25.796Z</time></trkpt><trkpt lat="43.4418483" lon="11.6737783"><ele>392.0</ele><time>2026-03-31T14:18:27.797Z</time></trkpt><trkpt lat="43.4417883" lon="11.6738133"><ele>392.0</ele><time>2026-03-31T14:18:28.797Z</time></trkpt><trkpt lat="43.44173" lon="11.6738467"><ele>392.0</ele><time>2026-03-31T14:18:29.796Z</time></trkpt><trkpt lat="43.44167" lon="11.673885"><ele>392.0</ele><time>2026-03-31T14:18:30.796Z</time></trkpt><trkpt lat="43.44161" lon="11.6739483"><ele>392.0</ele><time>2026-03-31T14:18:31.795Z</time></trkpt><trkpt lat="43.4415417" lon="11.6740217"><ele>392.0</ele><time>2026-03-31T14:18:32.798Z</time></trkpt><trkpt lat="43.4414633" lon="11.674085"><ele>392.0</ele><time>2026-03-31T14:18:33.795Z</time></trkpt><trkpt lat="43.441385" lon="11.6741317"><ele>391.99999999999994</ele><time>2026-03-31T14:18:34.795Z</time></trkpt><trkpt lat="43.4413083" lon="11.67416"><ele>392.0</ele><time>2026-03-31T14:18:35.796Z</time></trkpt><trkpt lat="43.4412283" lon="11.674185"><ele>392.0</ele><time>2026-03-31T14:18:36.797Z</time></trkpt><trkpt lat="43.441155" lon="11.6742233"><ele>392.0</ele><time>2026-03-31T14:18:37.796Z</time></trkpt><trkpt lat="43.4410833" lon="11.6742633"><ele>391.99999999999994</ele><time>2026-03-31T14:18:38.797Z</time></trkpt><trkpt lat="43.4410283" lon="11.6743083"><ele>392.0</ele><time>2026-03-31T14:18:39.796Z</time></trkpt><trkpt lat="43.4409633" lon="11.674355"><ele>393.2857142857143</ele><time>2026-03-31T14:18:40.796Z</time></trkpt><trkpt lat="43.440895" lon="11.674395"><ele>394.57142857142856</ele><time>2026-03-31T14:18:41.797Z</time></trkpt><trkpt lat="43.440835" lon="11.674435"><ele>395.8571428571429</ele><time>2026-03-31T14:18:42.796Z</time></trkpt><trkpt lat="43.4407683" lon="11.6744717"><ele>397.1428571428571</ele><time>2026-03-31T14:18:43.796Z</time></trkpt><trkpt lat="43.4406967" lon="11.674505"><ele>398.42857142857144</ele><time>2026-03-31T14:18:44.798Z</time></trkpt><trkpt lat="43.4406217" lon="11.6745283"><ele>399.7142857142857</ele><time>2026-03-31T14:18:45.795Z</time></trkpt><trkpt lat="43.4405467" lon="11.6745433"><ele>401.0</ele><time>2026-03-31T14:18:46.794Z</time></trkpt><trkpt lat="43.4404783" lon="11.6745667"><ele>405.66666666666663</ele><time>2026-03-31T14:18:47.795Z</time></trkpt><trkpt lat="43.44041" lon="11.6746067"><ele>410.3333333333333</ele><time>2026-03-31T14:18:48.797Z</time></trkpt><trkpt lat="43.4403417" lon="11.6746683"><ele>415.0</ele><time>2026-03-31T14:18:49.796Z</time></trkpt><trkpt lat="43.4402683" lon="11.6747267"><ele>419.66666666666663</ele><time>2026-03-31T14:18:50.796Z</time></trkpt><trkpt lat="43.44021" lon="11.6747867"><ele>424.3333333333333</ele><time>2026-03-31T14:18:51.796Z</time></trkpt><trkpt lat="43.4401567" lon="11.6748567"><ele>429.0</ele><time>2026-03-31T14:18:52.796Z</time></trkpt><trkpt lat="43.440115" lon="11.674925"><ele>429.0</ele><time>2026-03-31T14:18:53.795Z</time></trkpt><trkpt lat="43.4400467" lon="11.6750233"><ele>429.0</ele><time>2026-03-31T14:18:55.795Z</time></trkpt><trkpt lat="43.43993" lon="11.67505"><ele>429.0</ele><time>2026-03-31T14:18:57.797Z</time></trkpt><trkpt lat="43.4398667" lon="11.6750233"><ele>429.0</ele><time>2026-03-31T14:18:58.796Z</time></trkpt><trkpt lat="43.4398" lon="11.675"><ele>429.0</ele><time>2026-03-31T14:18:59.795Z</time></trkpt><trkpt lat="43.4397333" lon="11.6749817"><ele>429.0</ele><time>2026-03-31T14:19:00.797Z</time></trkpt><trkpt lat="43.4396217" lon="11.6750083"><ele>431.8333333333333</ele><time>2026-03-31T14:19:02.796Z</time></trkpt><trkpt lat="43.4395567" lon="11.6750467"><ele>434.66666666666663</ele><time>2026-03-31T14:19:03.796Z</time></trkpt><trkpt lat="43.4394717" lon="11.67508"><ele>437.5</ele><time>2026-03-31T14:19:04.796Z</time></trkpt><trkpt lat="43.4393883" lon="11.6751067"><ele>440.3333333333333</ele><time>2026-03-31T14:19:05.796Z</time></trkpt><trkpt lat="43.439315" lon="11.6751283"><ele>443.16666666666663</ele><time>2026-03-31T14:19:06.798Z</time></trkpt><trkpt lat="43.439245" lon="11.6751617"><ele>446.0</ele><time>2026-03-31T14:19:07.797Z</time></trkpt><trkpt lat="43.4391917" lon="11.675215"><ele>445.99999999999994</ele><time>2026-03-31T14:19:08.797Z</time></trkpt><trkpt lat="43.4391317" lon="11.6752883"><ele>446.0</ele><time>2026-03-31T14:19:09.797Z</time></trkpt><trkpt lat="43.4390733" lon="11.675365"><ele>446.0</ele><time>2026-03-31T14:19:10.795Z</time></trkpt><trkpt lat="43.43902" lon="11.675455"><ele>446.0</ele><time>2026-03-31T14:19:11.796Z</time></trkpt><trkpt lat="43.43897" lon="11.6755433"><ele>445.99999999999994</ele><time>2026-03-31T14:19:12.796Z</time></trkpt><trkpt lat="43.4389183" lon="11.6756167"><ele>446.0</ele><time>2026-03-31T14:19:13.796Z</time></trkpt><trkpt lat="43.4387967" lon="11.6756583"><ele>451.20000000000005</ele><time>2026-03-31T14:19:15.795Z</time></trkpt><trkpt lat="43.4387283" lon="11.6756733"><ele>456.40000000000003</ele><time>2026-03-31T14:19:16.795Z</time></trkpt><trkpt lat="43.43861" lon="11.675605"><ele>461.6</ele><time>2026-03-31T14:19:18.795Z</time></trkpt><trkpt lat="43.4385333" lon="11.6755233"><ele>466.8</ele><time>2026-03-31T14:19:19.795Z</time></trkpt><trkpt lat="43.4384667" lon="11.6754267"><ele>472.0</ele><time>2026-03-31T14:19:20.795Z</time></trkpt><trkpt lat="43.4384" lon="11.67536"><ele>472.0</ele><time>2026-03-31T14:19:21.795Z</time></trkpt><trkpt lat="43.43833" lon="11.67531"><ele>472.00000000000006</ele><time>2026-03-31T14:19:22.796Z</time></trkpt><trkpt lat="43.4382667" lon="11.675275"><ele>472.00000000000006</ele><time>2026-03-31T14:19:23.794Z</time></trkpt><trkpt lat="43.4381683" lon="11.6752717"><ele>472.0</ele><time>2026-03-31T14:19:25.796Z</time></trkpt><trkpt lat="43.4380867" lon="11.6753667"><ele>472.0</ele><time>2026-03-31T14:19:27.797Z</time></trkpt><trkpt lat="43.4380217" lon="11.6754817"><ele>472.6666666666667</ele><time>2026-03-31T14:19:29.796Z</time></trkpt><trkpt lat="43.4379283" lon="11.6755533"><ele>473.33333333333337</ele><time>2026-03-31T14:19:31.797Z</time></trkpt><trkpt lat="43.4378633" lon="11.6756583"><ele>474.0</ele><time>2026-03-31T14:19:33.797Z</time></trkpt><trkpt lat="43.437865" lon="11.6758033"><ele>474.66666666666663</ele><time>2026-03-31T14:19:35.796Z</time></trkpt><trkpt lat="43.4378883" lon="11.6758867"><ele>475.3333333333333</ele><time>2026-03-31T14:19:36.797Z</time></trkpt><trkpt lat="43.437915" lon="11.6759683"><ele>476.0</ele><time>2026-03-31T14:19:37.797Z</time></trkpt><trkpt lat="43.4379567" lon="11.67611"><ele>480.20000000000005</ele><time>2026-03-31T14:19:39.796Z</time></trkpt><trkpt lat="43.4379367" lon="11.676245"><ele>484.40000000000003</ele><time>2026-03-31T14:19:41.797Z</time></trkpt><trkpt lat="43.4378817" lon="11.67632"><ele>488.6</ele><time>2026-03-31T14:19:43.797Z</time></trkpt><trkpt lat="43.437805" lon="11.6763083"><ele>492.8</ele><time>2026-03-31T14:19:45.796Z</time></trkpt><trkpt lat="43.4377017" lon="11.6763033"><ele>497.0</ele><time>2026-03-31T14:19:47.797Z</time></trkpt><trkpt lat="43.4376017" lon="11.67636"><ele>497.0</ele><time>2026-03-31T14:19:49.795Z</time></trkpt><trkpt lat="43.4375467" lon="11.6764717"><ele>497.00000000000006</ele><time>2026-03-31T14:19:51.796Z</time></trkpt><trkpt lat="43.43752" lon="11.6766183"><ele>497.00000000000006</ele><time>2026-03-31T14:19:53.794Z</time></trkpt><trkpt lat="43.4374467" lon="11.67676"><ele>497.0</ele><time>2026-03-31T14:19:55.795Z</time></trkpt><trkpt lat="43.4373767" lon="11.67688"><ele>497.0</ele><time>2026-03-31T14:19:57.796Z</time></trkpt><trkpt lat="43.4373417" lon="11.6770267"><ele>498.8333333333333</ele><time>2026-03-31T14:19:59.795Z</time></trkpt><trkpt lat="43.4373267" lon="11.67712"><ele>500.66666666666663</ele><time>2026-03-31T14:20:00.795Z</time></trkpt><trkpt lat="43.4373" lon="11.6772117"><ele>502.5</ele><time>2026-03-31T14:20:01.796Z</time></trkpt><trkpt lat="43.4372567" lon="11.677305"><ele>504.33333333333337</ele><time>2026-03-31T14:20:02.797Z</time></trkpt><trkpt lat="43.4372083" lon="11.67739"><ele>506.1666666666667</ele><time>2026-03-31T14:20:03.796Z</time></trkpt><trkpt lat="43.4371567" lon="11.6774817"><ele>508.0</ele><time>2026-03-31T14:20:04.796Z</time></trkpt><trkpt lat="43.4370983" lon="11.6775683"><ele>508.1666666666667</ele><time>2026-03-31T14:20:05.796Z</time></trkpt><trkpt lat="43.437045" lon="11.6776383"><ele>508.33333333333337</ele><time>2026-03-31T14:20:06.796Z</time></trkpt><trkpt lat="43.4369933" lon="11.6777167"><ele>508.5</ele><time>2026-03-31T14:20:07.796Z</time></trkpt><trkpt lat="43.4369483" lon="11.6778017"><ele>508.66666666666663</ele><time>2026-03-31T14:20:08.796Z</time></trkpt><trkpt lat="43.4369017" lon="11.677895"><ele>508.8333333333333</ele><time>2026-03-31T14:20:09.796Z</time></trkpt><trkpt lat="43.436855" lon="11.6779983"><ele>509.0</ele><time>2026-03-31T14:20:10.796Z</time></trkpt><trkpt lat="43.43682" lon="11.678105"><ele>509.8333333333333</ele><time>2026-03-31T14:20:11.796Z</time></trkpt><trkpt lat="43.4367883" lon="11.678205"><ele>510.66666666666663</ele><time>2026-03-31T14:20:12.797Z</time></trkpt><trkpt lat="43.43676" lon="11.6783"><ele>511.5</ele><time>2026-03-31T14:20:13.798Z</time></trkpt><trkpt lat="43.4367467" lon="11.6783867"><ele>512.3333333333334</ele><time>2026-03-31T14:20:14.797Z</time></trkpt><trkpt lat="43.4367083" lon="11.6785233"><ele>513.1666666666667</ele><time>2026-03-31T14:20:16.796Z</time></trkpt><trkpt lat="43.43664" lon="11.6786617"><ele>514.0</ele><time>2026-03-31T14:20:18.797Z</time></trkpt><trkpt lat="43.4365983" lon="11.6787383"><ele>514.0</ele><time>2026-03-31T14:20:19.796Z</time></trkpt><trkpt lat="43.4365367" lon="11.678805"><ele>514.0</ele><time>2026-03-31T14:20:20.797Z</time></trkpt><trkpt lat="43.436475" lon="11.67887"><ele>514.0</ele><time>2026-03-31T14:20:21.797Z</time></trkpt><trkpt lat="43.436385" lon="11.6789283"><ele>514.0</ele><time>2026-03-31T14:20:22.8Z</time></trkpt><trkpt lat="43.436295" lon="11.678985"><ele>514.0</ele><time>2026-03-31T14:20:23.796Z</time></trkpt><trkpt lat="43.4362133" lon="11.679045"><ele>514.0</ele><time>2026-03-31T14:20:24.795Z</time></trkpt><trkpt lat="43.4361433" lon="11.6791083"><ele>513.3333333333334</ele><time>2026-03-31T14:20:25.796Z</time></trkpt><trkpt lat="43.43608" lon="11.6791733"><ele>512.6666666666667</ele><time>2026-03-31T14:20:26.796Z</time></trkpt><trkpt lat="43.436" lon="11.6792767"><ele>512.0</ele><time>2026-03-31T14:20:28.796Z</time></trkpt><trkpt lat="43.4359367" lon="11.6793417"><ele>511.33333333333337</ele><time>2026-03-31T14:20:30.797Z</time></trkpt><trkpt lat="43.4358567" lon="11.6793283"><ele>510.6666666666667</ele><time>2026-03-31T14:20:32.796Z</time></trkpt><trkpt lat="43.4357967" lon="11.679275"><ele>510.0</ele><time>2026-03-31T14:20:33.796Z</time></trkpt><trkpt lat="43.435725" lon="11.6792033"><ele>510.0</ele><time>2026-03-31T14:20:34.795Z</time></trkpt><trkpt lat="43.4356583" lon="11.6791467"><ele>510.0</ele><time>2026-03-31T14:20:35.795Z</time></trkpt><trkpt lat="43.4355917" lon="11.679105"><ele>510.0</ele><time>2026-03-31T14:20:36.797Z</time></trkpt><trkpt lat="43.43552" lon="11.6790867"><ele>510.0</ele><time>2026-03-31T14:20:37.796Z</time></trkpt><trkpt lat="43.4354567" lon="11.67909"><ele>510.0</ele><time>2026-03-31T14:20:38.797Z</time></trkpt><trkpt lat="43.4353483" lon="11.679155"><ele>510.0</ele><time>2026-03-31T14:20:40.795Z</time></trkpt><trkpt lat="43.4352883" lon="11.6792633"><ele>510.0</ele><time>2026-03-31T14:20:42.798Z</time></trkpt><trkpt lat="43.435225" lon="11.67942"><ele>510.0</ele><time>2026-03-31T14:21:39.796Z</time></trkpt><trkpt lat="43.4351717" lon="11.67954"><ele>510.0</ele><time>2026-03-31T14:21:41.795Z</time></trkpt><trkpt lat="43.4351183" lon="11.679645"><ele>510.0</ele><time>2026-03-31T14:21:43.795Z</time></trkpt><trkpt lat="43.4350483" lon="11.67971"><ele>510.0</ele><time>2026-03-31T14:21:45.796Z</time></trkpt><trkpt lat="43.4349633" lon="11.6797383"><ele>510.0</ele><time>2026-03-31T14:21:47.796Z</time></trkpt><trkpt lat="43.4348833" lon="11.679765"><ele>510.00000000000006</ele><time>2026-03-31T14:21:49.795Z</time></trkpt><trkpt lat="43.4348233" lon="11.6798167"><ele>510.0</ele><time>2026-03-31T14:21:53.795Z</time></trkpt><trkpt lat="43.4348033" lon="11.6799067"><ele>510.0</ele><time>2026-03-31T14:21:59.795Z</time></trkpt><trkpt lat="43.434795" lon="11.68001"><ele>510.00000000000006</ele><time>2026-03-31T14:22:04.796Z</time></trkpt><trkpt lat="43.4347717" lon="11.6801017"><ele>510.0</ele><time>2026-03-31T14:22:10.795Z</time></trkpt><trkpt lat="43.43474" lon="11.68018"><ele>510.0</ele><time>2026-03-31T14:22:14.796Z</time></trkpt><trkpt lat="43.43468" lon="11.68022"><ele>507.0</ele><time>2026-03-31T14:22:17.796Z</time></trkpt><trkpt lat="43.4346217" lon="11.6802733"><ele>504.00000000000006</ele><time>2026-03-31T14:22:20.796Z</time></trkpt><trkpt lat="43.4345867" lon="11.680355"><ele>501.0</ele><time>2026-03-31T14:22:23.796Z</time></trkpt><trkpt lat="43.4345667" lon="11.6804717"><ele>498.0</ele><time>2026-03-31T14:23:15.796Z</time></trkpt><trkpt lat="43.4345517" lon="11.6805733"><ele>495.00000000000006</ele><time>2026-03-31T14:23:18.796Z</time></trkpt><trkpt lat="43.4345083" lon="11.68064"><ele>492.0</ele><time>2026-03-31T14:23:21.796Z</time></trkpt><trkpt lat="43.43445" lon="11.680685"><ele>489.0</ele><time>2026-03-31T14:23:24.796Z</time></trkpt><trkpt lat="43.434385" lon="11.6807317"><ele>489.0</ele><time>2026-03-31T14:23:27.796Z</time></trkpt><trkpt lat="43.434305" lon="11.68077"><ele>489.0</ele><time>2026-03-31T14:23:30.795Z</time></trkpt><trkpt lat="43.4342267" lon="11.68081"><ele>489.0</ele><time>2026-03-31T14:23:33.793Z</time></trkpt><trkpt lat="43.434155" lon="11.6808367"><ele>489.0</ele><time>2026-03-31T14:23:36.796Z</time></trkpt><trkpt lat="43.43409" lon="11.680795"><ele>489.0</ele><time>2026-03-31T14:23:39.796Z</time></trkpt><trkpt lat="43.4340217" lon="11.6807617"><ele>489.0</ele><time>2026-03-31T14:23:42.794Z</time></trkpt><trkpt lat="43.4339267" lon="11.680795"><ele>489.0</ele><time>2026-03-31T14:23:45.796Z</time></trkpt><trkpt lat="43.4338533" lon="11.68089"><ele>489.0</ele><time>2026-03-31T14:23:47.798Z</time></trkpt><trkpt lat="43.4337683" lon="11.6810033"><ele>489.0</ele><time>2026-03-31T14:23:49.796Z</time></trkpt><trkpt lat="43.4336867" lon="11.6811033"><ele>489.0</ele><time>2026-03-31T14:23:51.796Z</time></trkpt><trkpt lat="43.4336083" lon="11.6811683"><ele>489.0</ele><time>2026-03-31T14:23:53.796Z</time></trkpt><trkpt lat="43.4335367" lon="11.68118"><ele>485.5</ele><time>2026-03-31T14:23:55.795Z</time></trkpt><trkpt lat="43.4334583" lon="11.681155"><ele>482.0</ele><time>2026-03-31T14:23:58.794Z</time></trkpt><trkpt lat="43.433395" lon="11.6811333"><ele>478.5</ele><time>2026-03-31T14:24:00.794Z</time></trkpt><trkpt lat="43.4333183" lon="11.6811183"><ele>475.0</ele><time>2026-03-31T14:24:02.796Z</time></trkpt><trkpt lat="43.4332417" lon="11.6811267"><ele>471.5</ele><time>2026-03-31T14:24:04.794Z</time></trkpt><trkpt lat="43.4331617" lon="11.6811417"><ele>468.0</ele><time>2026-03-31T14:24:06.795Z</time></trkpt><trkpt lat="43.4330833" lon="11.6811517"><ele>468.0</ele><time>2026-03-31T14:24:08.796Z</time></trkpt><trkpt lat="43.433005" lon="11.6811683"><ele>467.99999999999994</ele><time>2026-03-31T14:24:10.796Z</time></trkpt><trkpt lat="43.4329217" lon="11.681195"><ele>467.99999999999994</ele><time>2026-03-31T14:24:12.796Z</time></trkpt><trkpt lat="43.4328317" lon="11.6812"><ele>468.0</ele><time>2026-03-31T14:24:14.796Z</time></trkpt><trkpt lat="43.4327333" lon="11.68115"><ele>468.0</ele><time>2026-03-31T14:24:16.796Z</time></trkpt><trkpt lat="43.4326533" lon="11.681075"><ele>464.7142857142857</ele><time>2026-03-31T14:24:18.796Z</time></trkpt><trkpt lat="43.4325867" lon="11.6810117"><ele>461.42857142857144</ele><time>2026-03-31T14:24:20.798Z</time></trkpt><trkpt lat="43.432535" lon="11.6809617"><ele>458.14285714285717</ele><time>2026-03-31T14:24:22.797Z</time></trkpt><trkpt lat="43.432465" lon="11.6809567"><ele>454.8571428571429</ele><time>2026-03-31T14:24:25.795Z</time></trkpt><trkpt lat="43.432405" lon="11.6809233"><ele>451.57142857142856</ele><time>2026-03-31T14:24:28.794Z</time></trkpt><trkpt lat="43.4323383" lon="11.6808683"><ele>448.28571428571433</ele><time>2026-03-31T14:24:31.795Z</time></trkpt><trkpt lat="43.4322733" lon="11.6808633"><ele>445.0</ele><time>2026-03-31T14:24:33.795Z</time></trkpt><trkpt lat="43.43221" lon="11.6808583"><ele>442.50000000000006</ele><time>2026-03-31T14:24:35.795Z</time></trkpt><trkpt lat="43.4321183" lon="11.6808317"><ele>440.0</ele><time>2026-03-31T14:24:38.797Z</time></trkpt><trkpt lat="43.4320483" lon="11.6808083"><ele>437.5</ele><time>2026-03-31T14:24:40.796Z</time></trkpt><trkpt lat="43.4319733" lon="11.680785"><ele>435.0</ele><time>2026-03-31T14:24:42.796Z</time></trkpt><trkpt lat="43.431885" lon="11.6807567"><ele>432.50000000000006</ele><time>2026-03-31T14:24:44.797Z</time></trkpt><trkpt lat="43.43179" lon="11.680715"><ele>430.0</ele><time>2026-03-31T14:24:46.794Z</time></trkpt><trkpt lat="43.43169" lon="11.6806617"><ele>430.00000000000006</ele><time>2026-03-31T14:24:48.795Z</time></trkpt><trkpt lat="43.4315967" lon="11.680605"><ele>430.0</ele><time>2026-03-31T14:24:50.797Z</time></trkpt><trkpt lat="43.4315117" lon="11.6805833"><ele>430.0</ele><time>2026-03-31T14:24:52.795Z</time></trkpt><trkpt lat="43.4314283" lon="11.68058"><ele>430.0</ele><time>2026-03-31T14:24:54.794Z</time></trkpt><trkpt lat="43.431365" lon="11.68058"><ele>430.00000000000006</ele><time>2026-03-31T14:24:56.796Z</time></trkpt><trkpt lat="43.4312767" lon="11.680605"><ele>430.0</ele><time>2026-03-31T14:25:00.794Z</time></trkpt><trkpt lat="43.4311867" lon="11.6806467"><ele>426.6666666666667</ele><time>2026-03-31T14:25:03.796Z</time></trkpt><trkpt lat="43.4311217" lon="11.68064"><ele>423.33333333333337</ele><time>2026-03-31T14:25:05.795Z</time></trkpt><trkpt lat="43.4310517" lon="11.6806083"><ele>420.0</ele><time>2026-03-31T14:25:07.795Z</time></trkpt><trkpt lat="43.4309867" lon="11.680575"><ele>416.66666666666663</ele><time>2026-03-31T14:25:09.795Z</time></trkpt><trkpt lat="43.4309017" lon="11.6805617"><ele>413.3333333333333</ele><time>2026-03-31T14:25:12.796Z</time></trkpt><trkpt lat="43.4308183" lon="11.6805583"><ele>410.0</ele><time>2026-03-31T14:25:16.794Z</time></trkpt><trkpt lat="43.4307433" lon="11.6805633"><ele>409.99999999999994</ele><time>2026-03-31T14:25:19.796Z</time></trkpt><trkpt lat="43.4306517" lon="11.680555"><ele>410.0</ele><time>2026-03-31T14:25:22.796Z</time></trkpt><trkpt lat="43.430575" lon="11.6805517"><ele>410.0</ele><time>2026-03-31T14:25:24.794Z</time></trkpt><trkpt lat="43.4304983" lon="11.68058"><ele>410.0</ele><time>2026-03-31T14:25:26.796Z</time></trkpt><trkpt lat="43.430425" lon="11.680615"><ele>409.99999999999994</ele><time>2026-03-31T14:25:28.794Z</time></trkpt><trkpt lat="43.430365" lon="11.68066"><ele>410.0</ele><time>2026-03-31T14:25:31.794Z</time></trkpt><trkpt lat="43.4302917" lon="11.6807233"><ele>405.99999999999994</ele><time>2026-03-31T14:25:34.795Z</time></trkpt><trkpt lat="43.430205" lon="11.6807633"><ele>402.0</ele><time>2026-03-31T14:25:37.797Z</time></trkpt><trkpt lat="43.430135" lon="11.6807667"><ele>398.0</ele><time>2026-03-31T14:25:39.795Z</time></trkpt><trkpt lat="43.4300533" lon="11.68076"><ele>394.0</ele><time>2026-03-31T14:25:41.797Z</time></trkpt><trkpt lat="43.4299533" lon="11.680755"><ele>389.99999999999994</ele><time>2026-03-31T14:25:43.794Z</time></trkpt><trkpt lat="43.4298617" lon="11.6807383"><ele>386.0</ele><time>2026-03-31T14:25:45.795Z</time></trkpt><trkpt lat="43.4297867" lon="11.6807117"><ele>386.00000000000006</ele><time>2026-03-31T14:25:47.794Z</time></trkpt><trkpt lat="43.4297217" lon="11.68069"><ele>386.0</ele><time>2026-03-31T14:25:49.795Z</time></trkpt><trkpt lat="43.4296667" lon="11.6806367"><ele>386.0</ele><time>2026-03-31T14:25:53.796Z</time></trkpt><trkpt lat="43.4296" lon="11.6806017"><ele>386.0</ele><time>2026-03-31T14:26:00.795Z</time></trkpt><trkpt lat="43.4295267" lon="11.6806167"><ele>386.0</ele><time>2026-03-31T14:26:03.795Z</time></trkpt><trkpt lat="43.42945" lon="11.68062"><ele>386.00000000000006</ele><time>2026-03-31T14:26:06.795Z</time></trkpt><trkpt lat="43.4293717" lon="11.6805833"><ele>386.0</ele><time>2026-03-31T14:26:09.795Z</time></trkpt><trkpt lat="43.4293217" lon="11.68053"><ele>383.16666666666663</ele><time>2026-03-31T14:26:11.795Z</time></trkpt><trkpt lat="43.42925" lon="11.6804733"><ele>380.3333333333333</ele><time>2026-03-31T14:26:14.796Z</time></trkpt><trkpt lat="43.429165" lon="11.6804533"><ele>377.5</ele><time>2026-03-31T14:26:17.795Z</time></trkpt><trkpt lat="43.42908" lon="11.68046"><ele>374.66666666666663</ele><time>2026-03-31T14:26:20.797Z</time></trkpt><trkpt lat="43.42901" lon="11.680485"><ele>371.8333333333333</ele><time>2026-03-31T14:26:23.796Z</time></trkpt><trkpt lat="43.4289417" lon="11.68053"><ele>369.0</ele><time>2026-03-31T14:26:26.796Z</time></trkpt><trkpt lat="43.428885" lon="11.680595"><ele>369.0</ele><time>2026-03-31T14:26:30.797Z</time></trkpt><trkpt lat="43.4288117" lon="11.6806217"><ele>369.0</ele><time>2026-03-31T14:26:33.795Z</time></trkpt><trkpt lat="43.4287383" lon="11.68064"><ele>369.0</ele><time>2026-03-31T14:26:36.795Z</time></trkpt><trkpt lat="43.42865" lon="11.6806567"><ele>369.0</ele><time>2026-03-31T14:27:05.797Z</time></trkpt><trkpt lat="43.428585" lon="11.6806667"><ele>369.0</ele><time>2026-03-31T14:27:06.796Z</time></trkpt><trkpt lat="43.4285" lon="11.6806717"><ele>369.0</ele><time>2026-03-31T14:27:07.794Z</time></trkpt><trkpt lat="43.4284" lon="11.6806733"><ele>367.0</ele><time>2026-03-31T14:27:08.794Z</time></trkpt><trkpt lat="43.42826" lon="11.6806633"><ele>365.0</ele><time>2026-03-31T14:27:09.794Z</time></trkpt><trkpt lat="43.4281267" lon="11.6806667"><ele>363.0</ele><time>2026-03-31T14:27:10.795Z</time></trkpt><trkpt lat="43.4280033" lon="11.6806717"><ele>361.0</ele><time>2026-03-31T14:27:11.797Z</time></trkpt><trkpt lat="43.4279" lon="11.6806767"><ele>360.16666666666663</ele><time>2026-03-31T14:27:12.796Z</time></trkpt><trkpt lat="43.4278117" lon="11.6806917"><ele>359.3333333333333</ele><time>2026-03-31T14:27:13.796Z</time></trkpt><trkpt lat="43.4277317" lon="11.680725"><ele>358.5</ele><time>2026-03-31T14:27:14.796Z</time></trkpt><trkpt lat="43.4276633" lon="11.6807717"><ele>357.6666666666667</ele><time>2026-03-31T14:27:15.795Z</time></trkpt><trkpt lat="43.427595" lon="11.6808183"><ele>356.83333333333337</ele><time>2026-03-31T14:27:16.797Z</time></trkpt><trkpt lat="43.4275183" lon="11.6808533"><ele>356.0</ele><time>2026-03-31T14:27:17.796Z</time></trkpt><trkpt lat="43.4274317" lon="11.680875"><ele>356.0</ele><time>2026-03-31T14:27:18.795Z</time></trkpt><trkpt lat="43.4273483" lon="11.6808967"><ele>356.0</ele><time>2026-03-31T14:27:19.797Z</time></trkpt><trkpt lat="43.4272583" lon="11.6809183"><ele>356.0</ele><time>2026-03-31T14:27:20.796Z</time></trkpt><trkpt lat="43.4271667" lon="11.68095"><ele>356.0</ele><time>2026-03-31T14:27:21.796Z</time></trkpt><trkpt lat="43.42707" lon="11.68098"><ele>356.0</ele><time>2026-03-31T14:27:22.795Z</time></trkpt><trkpt lat="43.4269833" lon="11.6810183"><ele>354.2857142857143</ele><time>2026-03-31T14:27:23.799Z</time></trkpt><trkpt lat="43.4269067" lon="11.6810583"><ele>352.57142857142856</ele><time>2026-03-31T14:27:24.796Z</time></trkpt><trkpt lat="43.4268383" lon="11.6810917"><ele>350.8571428571429</ele><time>2026-03-31T14:27:25.796Z</time></trkpt><trkpt lat="43.4267633" lon="11.6811017"><ele>349.1428571428571</ele><time>2026-03-31T14:27:26.796Z</time></trkpt><trkpt lat="43.4266967" lon="11.6811117"><ele>347.42857142857144</ele><time>2026-03-31T14:27:27.795Z</time></trkpt><trkpt lat="43.4266233" lon="11.6811217"><ele>345.7142857142857</ele><time>2026-03-31T14:27:28.794Z</time></trkpt><trkpt lat="43.42655" lon="11.681135"><ele>344.0</ele><time>2026-03-31T14:27:29.796Z</time></trkpt><trkpt lat="43.4264767" lon="11.6811583"><ele>343.33333333333337</ele><time>2026-03-31T14:27:30.795Z</time></trkpt><trkpt lat="43.426395" lon="11.68118"><ele>342.6666666666667</ele><time>2026-03-31T14:27:31.796Z</time></trkpt><trkpt lat="43.4263133" lon="11.6812"><ele>342.0</ele><time>2026-03-31T14:27:32.795Z</time></trkpt><trkpt lat="43.42624" lon="11.6812217"><ele>341.3333333333333</ele><time>2026-03-31T14:27:33.795Z</time></trkpt><trkpt lat="43.42616" lon="11.681235"><ele>340.66666666666663</ele><time>2026-03-31T14:27:34.796Z</time></trkpt><trkpt lat="43.426075" lon="11.6812517"><ele>340.0</ele><time>2026-03-31T14:27:35.795Z</time></trkpt><trkpt lat="43.4259817" lon="11.681275"><ele>338.5</ele><time>2026-03-31T14:27:36.796Z</time></trkpt><trkpt lat="43.4259017" lon="11.6813217"><ele>337.0</ele><time>2026-03-31T14:27:37.795Z</time></trkpt><trkpt lat="43.4258367" lon="11.6813767"><ele>335.5</ele><time>2026-03-31T14:27:38.797Z</time></trkpt><trkpt lat="43.42578" lon="11.6814367"><ele>334.0</ele><time>2026-03-31T14:27:39.796Z</time></trkpt><trkpt lat="43.42573" lon="11.681495"><ele>332.5</ele><time>2026-03-31T14:27:40.794Z</time></trkpt><trkpt lat="43.4256267" lon="11.6815767"><ele>331.0</ele><time>2026-03-31T14:27:42.796Z</time></trkpt><trkpt lat="43.42556" lon="11.6815883"><ele>331.0</ele><time>2026-03-31T14:27:43.796Z</time></trkpt><trkpt lat="43.425485" lon="11.6815833"><ele>331.0</ele><time>2026-03-31T14:27:44.797Z</time></trkpt><trkpt lat="43.4254117" lon="11.6815817"><ele>331.0</ele><time>2026-03-31T14:27:45.797Z</time></trkpt><trkpt lat="43.4253333" lon="11.6815833"><ele>331.0</ele><time>2026-03-31T14:27:46.795Z</time></trkpt><trkpt lat="43.4252583" lon="11.6815867"><ele>331.0</ele><time>2026-03-31T14:27:47.796Z</time></trkpt><trkpt lat="43.4251867" lon="11.681595"><ele>331.0</ele><time>2026-03-31T14:27:48.795Z</time></trkpt><trkpt lat="43.4251217" lon="11.6816183"><ele>331.0</ele><time>2026-03-31T14:27:49.796Z</time></trkpt><trkpt lat="43.42501" lon="11.681655"><ele>328.0</ele><time>2026-03-31T14:27:51.796Z</time></trkpt><trkpt lat="43.4248933" lon="11.681595"><ele>325.0</ele><time>2026-03-31T14:27:53.796Z</time></trkpt><trkpt lat="43.424835" lon="11.6815"><ele>322.0</ele><time>2026-03-31T14:27:54.796Z</time></trkpt><trkpt lat="43.4247817" lon="11.6813467"><ele>319.0</ele><time>2026-03-31T14:27:55.797Z</time></trkpt><trkpt lat="43.4247417" lon="11.6812033"><ele>318.59999999999997</ele><time>2026-03-31T14:27:56.798Z</time></trkpt><trkpt lat="43.4247133" lon="11.6810967"><ele>318.2</ele><time>2026-03-31T14:27:57.796Z</time></trkpt><trkpt lat="43.4246817" lon="11.6810167"><ele>317.79999999999995</ele><time>2026-03-31T14:27:58.795Z</time></trkpt><trkpt lat="43.424565" lon="11.68094"><ele>317.4</ele><time>2026-03-31T14:28:00.795Z</time></trkpt><trkpt lat="43.4244767" lon="11.6809383"><ele>317.0</ele><time>2026-03-31T14:28:01.795Z</time></trkpt><trkpt lat="43.4243667" lon="11.68094"><ele>315.0</ele><time>2026-03-31T14:28:02.796Z</time></trkpt><trkpt lat="43.4242483" lon="11.68094"><ele>313.0</ele><time>2026-03-31T14:28:03.795Z</time></trkpt><trkpt lat="43.4241333" lon="11.6809283"><ele>311.0</ele><time>2026-03-31T14:28:04.795Z</time></trkpt><trkpt lat="43.4240233" lon="11.6809117"><ele>309.0</ele><time>2026-03-31T14:28:05.796Z</time></trkpt><trkpt lat="43.4239133" lon="11.680905"><ele>307.2</ele><time>2026-03-31T14:28:06.795Z</time></trkpt><trkpt lat="43.423805" lon="11.680905"><ele>305.4</ele><time>2026-03-31T14:28:07.795Z</time></trkpt><trkpt lat="43.4236967" lon="11.6809017"><ele>303.6</ele><time>2026-03-31T14:28:08.796Z</time></trkpt><trkpt lat="43.42359" lon="11.6808933"><ele>301.8</ele><time>2026-03-31T14:28:09.795Z</time></trkpt><trkpt lat="43.4234833" lon="11.6808717"><ele>300.0</ele><time>2026-03-31T14:28:10.796Z</time></trkpt><trkpt lat="43.423375" lon="11.680845"><ele>300.0</ele><time>2026-03-31T14:28:11.796Z</time></trkpt><trkpt lat="43.4232683" lon="11.680815"><ele>300.0</ele><time>2026-03-31T14:28:12.796Z</time></trkpt><trkpt lat="43.4231717" lon="11.68079"><ele>300.0</ele><time>2026-03-31T14:28:13.795Z</time></trkpt><trkpt lat="43.42308" lon="11.6807617"><ele>300.0</ele><time>2026-03-31T14:28:14.796Z</time></trkpt><trkpt lat="43.4229883" lon="11.6807317"><ele>300.0</ele><time>2026-03-31T14:28:15.795Z</time></trkpt><trkpt lat="43.4229" lon="11.6806917"><ele>298.8</ele><time>2026-03-31T14:28:16.796Z</time></trkpt><trkpt lat="43.422815" lon="11.6806367"><ele>297.6</ele><time>2026-03-31T14:28:17.796Z</time></trkpt><trkpt lat="43.42273" lon="11.6805517"><ele>296.4</ele><time>2026-03-31T14:28:18.796Z</time></trkpt><trkpt lat="43.42265" lon="11.6804483"><ele>295.2</ele><time>2026-03-31T14:28:19.796Z</time></trkpt><trkpt lat="43.4225733" lon="11.68034"><ele>294.0</ele><time>2026-03-31T14:28:20.797Z</time></trkpt><trkpt lat="43.4225033" lon="11.68024"><ele>294.0</ele><time>2026-03-31T14:28:21.796Z</time></trkpt><trkpt lat="43.4224433" lon="11.6801433"><ele>294.0</ele><time>2026-03-31T14:28:22.795Z</time></trkpt><trkpt lat="43.42239" lon="11.6800683"><ele>294.0</ele><time>2026-03-31T14:28:23.796Z</time></trkpt><trkpt lat="43.4222983" lon="11.6800017"><ele>294.0</ele><time>2026-03-31T14:28:25.795Z</time></trkpt><trkpt lat="43.422235" lon="11.680035"><ele>294.0</ele><time>2026-03-31T14:28:27.795Z</time></trkpt><trkpt lat="43.4221783" lon="11.68008"><ele>294.0</ele><time>2026-03-31T14:28:47.795Z</time></trkpt><trkpt lat="43.4220967" lon="11.679935"><ele>292.5</ele><time>2026-03-31T14:28:49.795Z</time></trkpt><trkpt lat="43.4220533" lon="11.6798"><ele>291.0</ele><time>2026-03-31T14:28:50.796Z</time></trkpt><trkpt lat="43.4220133" lon="11.6796317"><ele>289.5</ele><time>2026-03-31T14:28:51.796Z</time></trkpt><trkpt lat="43.421985" lon="11.6794317"><ele>288.0</ele><time>2026-03-31T14:28:52.796Z</time></trkpt><trkpt lat="43.4219633" lon="11.6792067"><ele>288.0</ele><time>2026-03-31T14:28:53.797Z</time></trkpt><trkpt lat="43.4219483" lon="11.6789567"><ele>288.0</ele><time>2026-03-31T14:28:54.798Z</time></trkpt><trkpt lat="43.4219383" lon="11.678705"><ele>288.0</ele><time>2026-03-31T14:28:55.796Z</time></trkpt><trkpt lat="43.4219267" lon="11.67847"><ele>287.75</ele><time>2026-03-31T14:28:56.796Z</time></trkpt><trkpt lat="43.4219183" lon="11.6782567"><ele>287.5</ele><time>2026-03-31T14:28:57.796Z</time></trkpt><trkpt lat="43.42191" lon="11.6780567"><ele>287.25</ele><time>2026-03-31T14:28:58.795Z</time></trkpt><trkpt lat="43.4219" lon="11.6778733"><ele>287.0</ele><time>2026-03-31T14:28:59.796Z</time></trkpt><trkpt lat="43.4218883" lon="11.6777"><ele>286.6</ele><time>2026-03-31T14:29:00.796Z</time></trkpt><trkpt lat="43.4218733" lon="11.6775383"><ele>286.2</ele><time>2026-03-31T14:29:01.795Z</time></trkpt><trkpt lat="43.4218517" lon="11.677385"><ele>285.8</ele><time>2026-03-31T14:29:02.797Z</time></trkpt><trkpt lat="43.4218383" lon="11.6772467"><ele>285.4</ele><time>2026-03-31T14:29:03.795Z</time></trkpt><trkpt lat="43.42182" lon="11.677125"><ele>285.0</ele><time>2026-03-31T14:29:04.796Z</time></trkpt><trkpt lat="43.4218067" lon="11.6770283"><ele>285.0</ele><time>2026-03-31T14:29:05.796Z</time></trkpt><trkpt lat="43.4217567" lon="11.6769183"><ele>285.0</ele><time>2026-03-31T14:29:07.795Z</time></trkpt><trkpt lat="43.4216417" lon="11.6769283"><ele>285.0</ele><time>2026-03-31T14:29:09.796Z</time></trkpt><trkpt lat="43.42152" lon="11.6769717"><ele>285.0</ele><time>2026-03-31T14:29:10.796Z</time></trkpt><trkpt lat="43.4213867" lon="11.6770017"><ele>285.0</ele><time>2026-03-31T14:29:11.796Z</time></trkpt><trkpt lat="43.42124" lon="11.6770217"><ele>285.0</ele><time>2026-03-31T14:29:12.795Z</time></trkpt><trkpt lat="43.4210867" lon="11.67704"><ele>285.0</ele><time>2026-03-31T14:29:13.798Z</time></trkpt><trkpt lat="43.4209417" lon="11.6770533"><ele>285.0</ele><time>2026-03-31T14:29:14.797Z</time></trkpt><trkpt lat="43.420815" lon="11.6770733"><ele>285.0</ele><time>2026-03-31T14:29:15.795Z</time></trkpt><trkpt lat="43.420705" lon="11.677115"><ele>285.0</ele><time>2026-03-31T14:29:16.796Z</time></trkpt><trkpt lat="43.4205967" lon="11.6771817"><ele>285.0</ele><time>2026-03-31T14:29:17.796Z</time></trkpt><trkpt lat="43.4204983" lon="11.6772467"><ele>285.0</ele><time>2026-03-31T14:29:18.795Z</time></trkpt><trkpt lat="43.4203917" lon="11.6772967"><ele>287.0</ele><time>2026-03-31T14:29:19.797Z</time></trkpt><trkpt lat="43.4202667" lon="11.6773417"><ele>289.0</ele><time>2026-03-31T14:29:20.798Z</time></trkpt><trkpt lat="43.4201433" lon="11.6773983"><ele>291.0</ele><time>2026-03-31T14:29:21.796Z</time></trkpt><trkpt lat="43.420025" lon="11.677465"><ele>293.0</ele><time>2026-03-31T14:29:22.798Z</time></trkpt><trkpt lat="43.4199083" lon="11.67753"><ele>293.0</ele><time>2026-03-31T14:29:23.796Z</time></trkpt><trkpt lat="43.4197967" lon="11.6775817"><ele>293.0</ele><time>2026-03-31T14:29:24.798Z</time></trkpt><trkpt lat="43.4196833" lon="11.67762"><ele>293.0</ele><time>2026-03-31T14:29:25.797Z</time></trkpt><trkpt lat="43.419565" lon="11.6776417"><ele>293.0</ele><time>2026-03-31T14:29:26.797Z</time></trkpt><trkpt lat="43.4194517" lon="11.6776483"><ele>295.25</ele><time>2026-03-31T14:29:27.797Z</time></trkpt><trkpt lat="43.4193367" lon="11.6776667"><ele>297.5</ele><time>2026-03-31T14:29:28.796Z</time></trkpt><trkpt lat="43.4192167" lon="11.6777017"><ele>299.75</ele><time>2026-03-31T14:29:29.797Z</time></trkpt><trkpt lat="43.4191" lon="11.67775"><ele>302.0</ele><time>2026-03-31T14:29:30.798Z</time></trkpt><trkpt lat="43.4190033" lon="11.6777967"><ele>302.2</ele><time>2026-03-31T14:29:31.797Z</time></trkpt><trkpt lat="43.4189217" lon="11.67784"><ele>302.4</ele><time>2026-03-31T14:29:32.798Z</time></trkpt><trkpt lat="43.4188333" lon="11.6778733"><ele>302.6</ele><time>2026-03-31T14:29:33.797Z</time></trkpt><trkpt lat="43.4187367" lon="11.6778867"><ele>302.8</ele><time>2026-03-31T14:29:34.796Z</time></trkpt><trkpt lat="43.4186267" lon="11.6778833"><ele>303.0</ele><time>2026-03-31T14:29:35.797Z</time></trkpt><trkpt lat="43.4185217" lon="11.6778633"><ele>305.0</ele><time>2026-03-31T14:29:36.796Z</time></trkpt><trkpt lat="43.418405" lon="11.67783"><ele>307.0</ele><time>2026-03-31T14:29:37.798Z</time></trkpt><trkpt lat="43.4182817" lon="11.6778017"><ele>309.0</ele><time>2026-03-31T14:29:38.8Z</time></trkpt><trkpt lat="43.4181483" lon="11.67779"><ele>311.0</ele><time>2026-03-31T14:29:39.796Z</time></trkpt><trkpt lat="43.418005" lon="11.67779"><ele>313.75</ele><time>2026-03-31T14:29:40.797Z</time></trkpt><trkpt lat="43.4178583" lon="11.6777917"><ele>316.5</ele><time>2026-03-31T14:29:41.797Z</time></trkpt><trkpt lat="43.4177133" lon="11.6777983"><ele>319.25</ele><time>2026-03-31T14:29:42.797Z</time></trkpt><trkpt lat="43.4175833" lon="11.6778067"><ele>322.0</ele><time>2026-03-31T14:29:43.797Z</time></trkpt><trkpt lat="43.4174767" lon="11.6778133"><ele>322.0</ele><time>2026-03-31T14:29:44.798Z</time></trkpt><trkpt lat="43.4173883" lon="11.6778133"><ele>322.0</ele><time>2026-03-31T14:29:45.796Z</time></trkpt><trkpt lat="43.417315" lon="11.677795"><ele>322.0</ele><time>2026-03-31T14:29:46.797Z</time></trkpt><trkpt lat="43.4172483" lon="11.6777433"><ele>322.0</ele><time>2026-03-31T14:29:47.796Z</time></trkpt><trkpt lat="43.4171917" lon="11.6776583"><ele>322.0</ele><time>2026-03-31T14:29:48.801Z</time></trkpt><trkpt lat="43.41715" lon="11.6775533"><ele>322.0</ele><time>2026-03-31T14:29:49.797Z</time></trkpt><trkpt lat="43.417115" lon="11.6774283"><ele>326.3333333333333</ele><time>2026-03-31T14:29:50.798Z</time></trkpt><trkpt lat="43.417095" lon="11.67732"><ele>330.66666666666663</ele><time>2026-03-31T14:29:51.796Z</time></trkpt><trkpt lat="43.4170683" lon="11.6772317"><ele>335.0</ele><time>2026-03-31T14:29:52.797Z</time></trkpt><trkpt lat="43.4169783" lon="11.677105"><ele>339.3333333333333</ele><time>2026-03-31T14:29:54.795Z</time></trkpt><trkpt lat="43.4169067" lon="11.6770767"><ele>343.6666666666667</ele><time>2026-03-31T14:29:55.796Z</time></trkpt><trkpt lat="43.416825" lon="11.6770633"><ele>348.0</ele><time>2026-03-31T14:29:56.798Z</time></trkpt><trkpt lat="43.4167467" lon="11.6770883"><ele>348.0</ele><time>2026-03-31T14:29:57.796Z</time></trkpt><trkpt lat="43.416675" lon="11.6771417"><ele>348.0</ele><time>2026-03-31T14:29:58.797Z</time></trkpt><trkpt lat="43.4166117" lon="11.67722"><ele>348.0</ele><time>2026-03-31T14:29:59.796Z</time></trkpt><trkpt lat="43.416545" lon="11.6773117"><ele>348.0</ele><time>2026-03-31T14:30:00.798Z</time></trkpt><trkpt lat="43.4164733" lon="11.677435"><ele>348.0</ele><time>2026-03-31T14:30:01.796Z</time></trkpt><trkpt lat="43.4164033" lon="11.6775667"><ele>348.0</ele><time>2026-03-31T14:30:02.796Z</time></trkpt><trkpt lat="43.4163483" lon="11.6776817"><ele>348.0</ele><time>2026-03-31T14:30:03.799Z</time></trkpt><trkpt lat="43.4162967" lon="11.6777633"><ele>348.0</ele><time>2026-03-31T14:30:04.797Z</time></trkpt><trkpt lat="43.416235" lon="11.6778267"><ele>348.0</ele><time>2026-03-31T14:30:05.799Z</time></trkpt><trkpt lat="43.4161667" lon="11.6778433"><ele>348.0</ele><time>2026-03-31T14:30:06.797Z</time></trkpt><trkpt lat="43.416095" lon="11.6778217"><ele>348.0</ele><time>2026-03-31T14:30:07.796Z</time></trkpt><trkpt lat="43.41603" lon="11.6777633"><ele>351.6666666666667</ele><time>2026-03-31T14:30:08.799Z</time></trkpt><trkpt lat="43.41598" lon="11.6776717"><ele>355.3333333333333</ele><time>2026-03-31T14:30:09.798Z</time></trkpt><trkpt lat="43.4159317" lon="11.6775717"><ele>359.0</ele><time>2026-03-31T14:30:10.796Z</time></trkpt><trkpt lat="43.4158817" lon="11.677475"><ele>362.66666666666663</ele><time>2026-03-31T14:30:11.795Z</time></trkpt><trkpt lat="43.41583" lon="11.6773917"><ele>366.3333333333333</ele><time>2026-03-31T14:30:12.795Z</time></trkpt><trkpt lat="43.4157833" lon="11.6773267"><ele>370.0</ele><time>2026-03-31T14:30:13.796Z</time></trkpt><trkpt lat="43.4157083" lon="11.6773"><ele>370.0</ele><time>2026-03-31T14:30:15.796Z</time></trkpt><trkpt lat="43.4156217" lon="11.6773667"><ele>370.0</ele><time>2026-03-31T14:30:17.797Z</time></trkpt><trkpt lat="43.4155017" lon="11.6773867"><ele>370.0</ele><time>2026-03-31T14:30:19.797Z</time></trkpt><trkpt lat="43.4154367" lon="11.6773767"><ele>370.0</ele><time>2026-03-31T14:30:20.797Z</time></trkpt><trkpt lat="43.41537" lon="11.6773917"><ele>370.0</ele><time>2026-03-31T14:30:21.796Z</time></trkpt><trkpt lat="43.4153017" lon="11.6774283"><ele>370.0</ele><time>2026-03-31T14:30:22.797Z</time></trkpt><trkpt lat="43.4152267" lon="11.677505"><ele>373.16666666666663</ele><time>2026-03-31T14:30:23.796Z</time></trkpt><trkpt lat="43.4151583" lon="11.67757"><ele>376.3333333333333</ele><time>2026-03-31T14:30:24.797Z</time></trkpt><trkpt lat="43.41509" lon="11.6776167"><ele>379.5</ele><time>2026-03-31T14:30:25.797Z</time></trkpt><trkpt lat="43.4150283" lon="11.6776433"><ele>382.66666666666663</ele><time>2026-03-31T14:30:26.798Z</time></trkpt><trkpt lat="43.4149483" lon="11.6775933"><ele>385.8333333333333</ele><time>2026-03-31T14:30:28.794Z</time></trkpt><trkpt lat="43.414945" lon="11.6774733"><ele>389.0</ele><time>2026-03-31T14:30:30.797Z</time></trkpt><trkpt lat="43.4148983" lon="11.677365"><ele>388.99999999999994</ele><time>2026-03-31T14:30:32.797Z</time></trkpt><trkpt lat="43.4148167" lon="11.6772633"><ele>389.0</ele><time>2026-03-31T14:30:34.796Z</time></trkpt><trkpt lat="43.41478" lon="11.6771833"><ele>389.0</ele><time>2026-03-31T14:30:35.798Z</time></trkpt><trkpt lat="43.4147483" lon="11.67709"><ele>389.0</ele><time>2026-03-31T14:30:36.797Z</time></trkpt><trkpt lat="43.4146817" lon="11.676955"><ele>388.99999999999994</ele><time>2026-03-31T14:30:38.803Z</time></trkpt><trkpt lat="43.41462" lon="11.67691"><ele>389.0</ele><time>2026-03-31T14:30:39.798Z</time></trkpt><trkpt lat="43.4145367" lon="11.676885"><ele>392.16666666666663</ele><time>2026-03-31T14:30:40.798Z</time></trkpt><trkpt lat="43.4144633" lon="11.6768517"><ele>395.3333333333333</ele><time>2026-03-31T14:30:41.797Z</time></trkpt><trkpt lat="43.41439" lon="11.6768"><ele>398.5</ele><time>2026-03-31T14:30:42.797Z</time></trkpt><trkpt lat="43.414315" lon="11.6767267"><ele>401.66666666666663</ele><time>2026-03-31T14:30:43.796Z</time></trkpt><trkpt lat="43.4142517" lon="11.676645"><ele>404.8333333333333</ele><time>2026-03-31T14:30:44.797Z</time></trkpt><trkpt lat="43.4141967" lon="11.676545"><ele>408.0</ele><time>2026-03-31T14:30:45.796Z</time></trkpt><trkpt lat="43.4141617" lon="11.6764167"><ele>408.0</ele><time>2026-03-31T14:30:46.796Z</time></trkpt><trkpt lat="43.414135" lon="11.6762783"><ele>408.0</ele><time>2026-03-31T14:30:47.797Z</time></trkpt><trkpt lat="43.414115" lon="11.676155"><ele>408.0</ele><time>2026-03-31T14:30:48.797Z</time></trkpt><trkpt lat="43.414105" lon="11.6760483"><ele>408.0</ele><time>2026-03-31T14:30:49.798Z</time></trkpt><trkpt lat="43.4140917" lon="11.675955"><ele>408.0</ele><time>2026-03-31T14:30:50.797Z</time></trkpt><trkpt lat="43.414065" lon="11.67587"><ele>408.0</ele><time>2026-03-31T14:30:51.796Z</time></trkpt><trkpt lat="43.4140233" lon="11.6758017"><ele>408.2</ele><time>2026-03-31T14:30:52.797Z</time></trkpt><trkpt lat="43.41398" lon="11.67566"><ele>408.4</ele><time>2026-03-31T14:30:54.796Z</time></trkpt><trkpt lat="43.4139783" lon="11.675535"><ele>408.59999999999997</ele><time>2026-03-31T14:30:56.798Z</time></trkpt><trkpt lat="43.4138967" lon="11.675615"><ele>408.79999999999995</ele><time>2026-03-31T14:31:02.799Z</time></trkpt><trkpt lat="43.413815" lon="11.6757583"><ele>409.0</ele><time>2026-03-31T14:31:04.796Z</time></trkpt><trkpt lat="43.4137617" lon="11.675845"><ele>413.83333333333337</ele><time>2026-03-31T14:31:05.793Z</time></trkpt><trkpt lat="43.41371" lon="11.6759483"><ele>418.6666666666667</ele><time>2026-03-31T14:31:06.797Z</time></trkpt><trkpt lat="43.4136683" lon="11.6760567"><ele>423.5</ele><time>2026-03-31T14:31:07.797Z</time></trkpt><trkpt lat="43.4136333" lon="11.6761567"><ele>428.33333333333337</ele><time>2026-03-31T14:31:08.795Z</time></trkpt><trkpt lat="43.41359" lon="11.6762567"><ele>433.1666666666667</ele><time>2026-03-31T14:31:09.799Z</time></trkpt><trkpt lat="43.4135667" lon="11.6763433"><ele>438.0</ele><time>2026-03-31T14:31:10.797Z</time></trkpt><trkpt lat="43.4135583" lon="11.6765233"><ele>438.0</ele><time>2026-03-31T14:31:12.798Z</time></trkpt><trkpt lat="43.4135617" lon="11.6766217"><ele>438.0</ele><time>2026-03-31T14:31:13.796Z</time></trkpt><trkpt lat="43.4135583" lon="11.6767233"><ele>438.0</ele><time>2026-03-31T14:31:14.797Z</time></trkpt><trkpt lat="43.4135467" lon="11.6768267"><ele>438.0</ele><time>2026-03-31T14:31:15.796Z</time></trkpt><trkpt lat="43.4135067" lon="11.6769317"><ele>438.0</ele><time>2026-03-31T14:31:16.796Z</time></trkpt><trkpt lat="43.4134617" lon="11.6770217"><ele>438.0</ele><time>2026-03-31T14:31:17.798Z</time></trkpt><trkpt lat="43.4134167" lon="11.677115"><ele>437.14285714285717</ele><time>2026-03-31T14:31:18.799Z</time></trkpt><trkpt lat="43.41334" lon="11.6771567"><ele>436.2857142857143</ele><time>2026-03-31T14:31:19.799Z</time></trkpt><trkpt lat="43.413275" lon="11.677185"><ele>435.42857142857144</ele><time>2026-03-31T14:31:20.8Z</time></trkpt><trkpt lat="43.4132017" lon="11.6772183"><ele>434.57142857142856</ele><time>2026-03-31T14:31:21.797Z</time></trkpt><trkpt lat="43.41314" lon="11.6772683"><ele>433.71428571428567</ele><time>2026-03-31T14:31:22.795Z</time></trkpt><trkpt lat="43.413085" lon="11.6773333"><ele>432.85714285714283</ele><time>2026-03-31T14:31:23.797Z</time></trkpt><trkpt lat="43.4130383" lon="11.6773983"><ele>432.0</ele><time>2026-03-31T14:31:24.797Z</time></trkpt><trkpt lat="43.41301" lon="11.6774983"><ele>433.5</ele><time>2026-03-31T14:31:25.798Z</time></trkpt><trkpt lat="43.41298" lon="11.6776033"><ele>435.0</ele><time>2026-03-31T14:31:26.796Z</time></trkpt><trkpt lat="43.4129583" lon="11.6776967"><ele>436.5</ele><time>2026-03-31T14:31:27.797Z</time></trkpt><trkpt lat="43.4129283" lon="11.6778417"><ele>438.0</ele><time>2026-03-31T14:31:29.797Z</time></trkpt><trkpt lat="43.4129317" lon="11.67793"><ele>439.5</ele><time>2026-03-31T14:31:31.797Z</time></trkpt><trkpt lat="43.41287" lon="11.6779833"><ele>441.0</ele><time>2026-03-31T14:31:35.798Z</time></trkpt><trkpt lat="43.4127983" lon="11.6779233"><ele>442.0</ele><time>2026-03-31T14:31:37.797Z</time></trkpt><trkpt lat="43.4127217" lon="11.6778983"><ele>443.0</ele><time>2026-03-31T14:31:39.797Z</time></trkpt><trkpt lat="43.412645" lon="11.6779633"><ele>444.0</ele><time>2026-03-31T14:31:41.796Z</time></trkpt><trkpt lat="43.41257" lon="11.678065"><ele>445.0</ele><time>2026-03-31T14:31:43.797Z</time></trkpt><trkpt lat="43.4125217" lon="11.6781217"><ele>446.0</ele><time>2026-03-31T14:31:44.796Z</time></trkpt><trkpt lat="43.4124617" lon="11.6781917"><ele>447.0</ele><time>2026-03-31T14:31:45.797Z</time></trkpt><trkpt lat="43.41239" lon="11.6782683"><ele>447.0</ele><time>2026-03-31T14:31:46.796Z</time></trkpt><trkpt lat="43.4123167" lon="11.6783467"><ele>447.0</ele><time>2026-03-31T14:31:47.797Z</time></trkpt><trkpt lat="43.4122583" lon="11.67841"><ele>447.0</ele><time>2026-03-31T14:31:48.796Z</time></trkpt><trkpt lat="43.4121983" lon="11.6784467"><ele>447.0</ele><time>2026-03-31T14:31:49.796Z</time></trkpt><trkpt lat="43.4121267" lon="11.67846"><ele>447.0</ele><time>2026-03-31T14:31:50.797Z</time></trkpt><trkpt lat="43.4120517" lon="11.6784683"><ele>447.0</ele><time>2026-03-31T14:31:51.796Z</time></trkpt><trkpt lat="43.4119767" lon="11.6784833"><ele>445.8333333333333</ele><time>2026-03-31T14:31:52.796Z</time></trkpt><trkpt lat="43.4118967" lon="11.6785183"><ele>444.66666666666663</ele><time>2026-03-31T14:31:53.796Z</time></trkpt><trkpt lat="43.4118183" lon="11.6785667"><ele>443.5</ele><time>2026-03-31T14:31:54.795Z</time></trkpt><trkpt lat="43.4117383" lon="11.6786067"><ele>442.3333333333333</ele><time>2026-03-31T14:31:55.797Z</time></trkpt><trkpt lat="43.41166" lon="11.6786417"><ele>441.16666666666663</ele><time>2026-03-31T14:31:56.796Z</time></trkpt><trkpt lat="43.411585" lon="11.678675"><ele>440.0</ele><time>2026-03-31T14:31:57.796Z</time></trkpt><trkpt lat="43.4115217" lon="11.6787183"><ele>443.16666666666663</ele><time>2026-03-31T14:31:58.797Z</time></trkpt><trkpt lat="43.4114617" lon="11.6787833"><ele>446.3333333333333</ele><time>2026-03-31T14:31:59.795Z</time></trkpt><trkpt lat="43.411405" lon="11.6788583"><ele>449.5</ele><time>2026-03-31T14:32:00.798Z</time></trkpt><trkpt lat="43.4113417" lon="11.678935"><ele>452.66666666666663</ele><time>2026-03-31T14:32:01.798Z</time></trkpt><trkpt lat="43.4112817" lon="11.6789933"><ele>455.8333333333333</ele><time>2026-03-31T14:32:02.796Z</time></trkpt><trkpt lat="43.4112083" lon="11.6790233"><ele>459.0</ele><time>2026-03-31T14:32:03.793Z</time></trkpt><trkpt lat="43.4111283" lon="11.67904"><ele>459.6666666666667</ele><time>2026-03-31T14:32:04.799Z</time></trkpt><trkpt lat="43.4110467" lon="11.6790433"><ele>460.33333333333337</ele><time>2026-03-31T14:32:05.798Z</time></trkpt><trkpt lat="43.4109683" lon="11.6790267"><ele>461.0</ele><time>2026-03-31T14:32:06.798Z</time></trkpt><trkpt lat="43.410885" lon="11.6790033"><ele>461.6666666666667</ele><time>2026-03-31T14:32:07.798Z</time></trkpt><trkpt lat="43.4108067" lon="11.67898"><ele>462.33333333333337</ele><time>2026-03-31T14:32:08.8Z</time></trkpt><trkpt lat="43.4107267" lon="11.6789617"><ele>463.0</ele><time>2026-03-31T14:32:09.794Z</time></trkpt><trkpt lat="43.4106483" lon="11.6789433"><ele>463.00000000000006</ele><time>2026-03-31T14:32:10.797Z</time></trkpt><trkpt lat="43.4105767" lon="11.67893"><ele>463.0</ele><time>2026-03-31T14:32:11.799Z</time></trkpt><trkpt lat="43.4104717" lon="11.678905"><ele>463.0</ele><time>2026-03-31T14:32:13.8Z</time></trkpt><trkpt lat="43.4104183" lon="11.678845"><ele>463.0</ele><time>2026-03-31T14:32:15.797Z</time></trkpt><trkpt lat="43.4103917" lon="11.6787633"><ele>463.00000000000006</ele><time>2026-03-31T14:32:17.797Z</time></trkpt><trkpt lat="43.4103483" lon="11.6786133"><ele>463.0</ele><time>2026-03-31T14:32:19.799Z</time></trkpt><trkpt lat="43.4103267" lon="11.6785167"><ele>465.00000000000006</ele><time>2026-03-31T14:32:20.798Z</time></trkpt><trkpt lat="43.410305" lon="11.6784233"><ele>467.0</ele><time>2026-03-31T14:32:21.799Z</time></trkpt><trkpt lat="43.41026" lon="11.678255"><ele>469.0</ele><time>2026-03-31T14:32:23.798Z</time></trkpt><trkpt lat="43.4102317" lon="11.6781683"><ele>471.0</ele><time>2026-03-31T14:32:24.798Z</time></trkpt><trkpt lat="43.4101967" lon="11.6780767"><ele>473.00000000000006</ele><time>2026-03-31T14:32:25.799Z</time></trkpt><trkpt lat="43.4101717" lon="11.6779733"><ele>475.0</ele><time>2026-03-31T14:32:26.799Z</time></trkpt><trkpt lat="43.410155" lon="11.6778533"><ele>473.50000000000006</ele><time>2026-03-31T14:32:27.799Z</time></trkpt><trkpt lat="43.4101417" lon="11.67774"><ele>472.0</ele><time>2026-03-31T14:32:28.796Z</time></trkpt><trkpt lat="43.41012" lon="11.6776383"><ele>470.5</ele><time>2026-03-31T14:32:29.798Z</time></trkpt><trkpt lat="43.4100817" lon="11.67755"><ele>469.0</ele><time>2026-03-31T14:32:30.798Z</time></trkpt><trkpt lat="43.4100267" lon="11.6774717"><ele>467.50000000000006</ele><time>2026-03-31T14:32:31.799Z</time></trkpt><trkpt lat="43.4099667" lon="11.6773917"><ele>466.0</ele><time>2026-03-31T14:32:32.799Z</time></trkpt><trkpt lat="43.4098967" lon="11.6773033"><ele>466.00000000000006</ele><time>2026-03-31T14:32:33.799Z</time></trkpt><trkpt lat="43.40983" lon="11.6772167"><ele>466.0</ele><time>2026-03-31T14:32:34.797Z</time></trkpt><trkpt lat="43.4097833" lon="11.677125"><ele>466.0</ele><time>2026-03-31T14:32:35.799Z</time></trkpt><trkpt lat="43.4097383" lon="11.6770233"><ele>466.0</ele><time>2026-03-31T14:32:36.799Z</time></trkpt><trkpt lat="43.4097033" lon="11.6769117"><ele>466.00000000000006</ele><time>2026-03-31T14:32:37.798Z</time></trkpt><trkpt lat="43.4096783" lon="11.6767867"><ele>466.0</ele><time>2026-03-31T14:32:38.797Z</time></trkpt><trkpt lat="43.40966" lon="11.6766533"><ele>466.1666666666667</ele><time>2026-03-31T14:32:39.799Z</time></trkpt><trkpt lat="43.4096217" lon="11.6765333"><ele>466.33333333333337</ele><time>2026-03-31T14:32:40.798Z</time></trkpt><trkpt lat="43.4095733" lon="11.6764217"><ele>466.5</ele><time>2026-03-31T14:32:41.798Z</time></trkpt><trkpt lat="43.4095167" lon="11.6763233"><ele>466.66666666666663</ele><time>2026-03-31T14:32:42.798Z</time></trkpt><trkpt lat="43.4094633" lon="11.6762367"><ele>466.8333333333333</ele><time>2026-03-31T14:32:43.798Z</time></trkpt><trkpt lat="43.40942" lon="11.67617"><ele>467.0</ele><time>2026-03-31T14:32:44.8Z</time></trkpt><trkpt lat="43.4093483" lon="11.67619"><ele>467.0</ele><time>2026-03-31T14:32:46.798Z</time></trkpt><trkpt lat="43.40928" lon="11.6763333"><ele>467.00000000000006</ele><time>2026-03-31T14:32:48.796Z</time></trkpt><trkpt lat="43.4092533" lon="11.6764483"><ele>467.00000000000006</ele><time>2026-03-31T14:32:50.794Z</time></trkpt><trkpt lat="43.4092217" lon="11.6765283"><ele>467.0</ele><time>2026-03-31T14:32:52.795Z</time></trkpt><trkpt lat="43.4091867" lon="11.6766183"><ele>467.0</ele><time>2026-03-31T14:32:54.796Z</time></trkpt><trkpt lat="43.4091717" lon="11.6767567"><ele>467.0</ele><time>2026-03-31T14:32:56.795Z</time></trkpt><trkpt lat="43.4091683" lon="11.6769117"><ele>467.00000000000006</ele><time>2026-03-31T14:32:58.796Z</time></trkpt><trkpt lat="43.40915" lon="11.6770667"><ele>467.00000000000006</ele><time>2026-03-31T14:33:00.796Z</time></trkpt><trkpt lat="43.4091517" lon="11.6772417"><ele>467.0</ele><time>2026-03-31T14:33:02.796Z</time></trkpt><trkpt lat="43.4091567" lon="11.6773283"><ele>467.0</ele><time>2026-03-31T14:33:03.798Z</time></trkpt><trkpt lat="43.4091483" lon="11.6774817"><ele>468.16666666666663</ele><time>2026-03-31T14:33:05.797Z</time></trkpt><trkpt lat="43.409085" lon="11.6776017"><ele>469.3333333333333</ele><time>2026-03-31T14:33:07.798Z</time></trkpt><trkpt lat="43.4090083" lon="11.67764"><ele>470.5</ele><time>2026-03-31T14:33:08.798Z</time></trkpt><trkpt lat="43.4089233" lon="11.67767"><ele>471.66666666666663</ele><time>2026-03-31T14:33:09.798Z</time></trkpt><trkpt lat="43.4088483" lon="11.6776883"><ele>472.8333333333333</ele><time>2026-03-31T14:33:10.798Z</time></trkpt><trkpt lat="43.40878" lon="11.6777067"><ele>474.0</ele><time>2026-03-31T14:33:11.798Z</time></trkpt><trkpt lat="43.4086717" lon="11.677775"><ele>478.0</ele><time>2026-03-31T14:33:13.804Z</time></trkpt><trkpt lat="43.4086217" lon="11.677835"><ele>482.0</ele><time>2026-03-31T14:33:14.8Z</time></trkpt><trkpt lat="43.40858" lon="11.6779033"><ele>486.0</ele><time>2026-03-31T14:33:15.798Z</time></trkpt><trkpt lat="43.4085367" lon="11.67797"><ele>490.0</ele><time>2026-03-31T14:33:16.799Z</time></trkpt><trkpt lat="43.4084583" lon="11.6780617"><ele>494.0</ele><time>2026-03-31T14:33:18.798Z</time></trkpt><trkpt lat="43.4083467" lon="11.678135"><ele>498.0</ele><time>2026-03-31T14:33:20.8Z</time></trkpt><trkpt lat="43.408285" lon="11.678155"><ele>498.0</ele><time>2026-03-31T14:33:21.799Z</time></trkpt><trkpt lat="43.4082117" lon="11.6781717"><ele>498.0</ele><time>2026-03-31T14:33:22.799Z</time></trkpt><trkpt lat="43.40814" lon="11.6781817"><ele>498.0</ele><time>2026-03-31T14:33:23.797Z</time></trkpt><trkpt lat="43.4080717" lon="11.6781983"><ele>498.0</ele><time>2026-03-31T14:33:24.798Z</time></trkpt><trkpt lat="43.4080017" lon="11.6782333"><ele>498.0</ele><time>2026-03-31T14:33:25.799Z</time></trkpt><trkpt lat="43.4079217" lon="11.6782817"><ele>498.0</ele><time>2026-03-31T14:33:26.796Z</time></trkpt><trkpt lat="43.4078383" lon="11.67835"><ele>496.6666666666667</ele><time>2026-03-31T14:33:27.796Z</time></trkpt><trkpt lat="43.4077583" lon="11.67842"><ele>495.33333333333337</ele><time>2026-03-31T14:33:28.796Z</time></trkpt><trkpt lat="43.4076817" lon="11.6784833"><ele>494.0</ele><time>2026-03-31T14:33:29.796Z</time></trkpt><trkpt lat="43.4076167" lon="11.6785367"><ele>492.6666666666667</ele><time>2026-03-31T14:33:30.797Z</time></trkpt><trkpt lat="43.4075467" lon="11.6786317"><ele>491.33333333333337</ele><time>2026-03-31T14:33:32.797Z</time></trkpt><trkpt lat="43.4074833" lon="11.6787133"><ele>490.0</ele><time>2026-03-31T14:33:34.797Z</time></trkpt><trkpt lat="43.407425" lon="11.678765"><ele>495.6</ele><time>2026-03-31T14:33:36.797Z</time></trkpt><trkpt lat="43.4073383" lon="11.678785"><ele>501.2</ele><time>2026-03-31T14:33:39.797Z</time></trkpt><trkpt lat="43.4072517" lon="11.6788383"><ele>506.79999999999995</ele><time>2026-03-31T14:33:42.796Z</time></trkpt><trkpt lat="43.40714" lon="11.6789233"><ele>512.4</ele><time>2026-03-31T14:33:44.798Z</time></trkpt><trkpt lat="43.4070683" lon="11.67895"><ele>518.0</ele><time>2026-03-31T14:33:45.796Z</time></trkpt><trkpt lat="43.407" lon="11.6789667"><ele>517.8333333333333</ele><time>2026-03-31T14:33:46.795Z</time></trkpt><trkpt lat="43.4068933" lon="11.6789933"><ele>517.6666666666666</ele><time>2026-03-31T14:33:48.796Z</time></trkpt><trkpt lat="43.4067967" lon="11.6789983"><ele>517.5</ele><time>2026-03-31T14:33:50.798Z</time></trkpt><trkpt lat="43.4067817" lon="11.67891"><ele>517.3333333333334</ele><time>2026-03-31T14:37:32.796Z</time></trkpt><trkpt lat="43.4068183" lon="11.678775"><ele>517.1666666666667</ele><time>2026-03-31T14:37:34.796Z</time></trkpt><trkpt lat="43.406835" lon="11.6786883"><ele>517.0</ele><time>2026-03-31T14:37:35.796Z</time></trkpt><trkpt lat="43.4068467" lon="11.6785317"><ele>517.0</ele><time>2026-03-31T14:37:37.797Z</time></trkpt><trkpt lat="43.40685" lon="11.678435"><ele>517.0</ele><time>2026-03-31T14:37:38.798Z</time></trkpt><trkpt lat="43.4068417" lon="11.6783417"><ele>517.0</ele><time>2026-03-31T14:37:39.796Z</time></trkpt><trkpt lat="43.406835" lon="11.6781683"><ele>517.0</ele><time>2026-03-31T14:37:41.795Z</time></trkpt><trkpt lat="43.4068367" lon="11.678075"><ele>517.0</ele><time>2026-03-31T14:37:42.796Z</time></trkpt><trkpt lat="43.4068317" lon="11.6779817"><ele>517.0</ele><time>2026-03-31T14:37:43.796Z</time></trkpt><trkpt lat="43.40681" lon="11.67785"><ele>515.6666666666667</ele><time>2026-03-31T14:37:45.795Z</time></trkpt><trkpt lat="43.406755" lon="11.67775"><ele>514.3333333333334</ele><time>2026-03-31T14:37:47.795Z</time></trkpt><trkpt lat="43.4066767" lon="11.6776333"><ele>513.0</ele><time>2026-03-31T14:37:49.795Z</time></trkpt><trkpt lat="43.40663" lon="11.6775733"><ele>511.66666666666663</ele><time>2026-03-31T14:37:50.796Z</time></trkpt><trkpt lat="43.4065867" lon="11.6775083"><ele>510.3333333333333</ele><time>2026-03-31T14:37:51.795Z</time></trkpt><trkpt lat="43.4065517" lon="11.6774283"><ele>509.0</ele><time>2026-03-31T14:37:52.795Z</time></trkpt><trkpt lat="43.4065217" lon="11.6773517"><ele>508.99999999999994</ele><time>2026-03-31T14:37:53.795Z</time></trkpt><trkpt lat="43.4064817" lon="11.6772783"><ele>509.0</ele><time>2026-03-31T14:37:54.794Z</time></trkpt><trkpt lat="43.4064333" lon="11.67721"><ele>509.0</ele><time>2026-03-31T14:37:55.796Z</time></trkpt><trkpt lat="43.40637" lon="11.67715"><ele>509.0</ele><time>2026-03-31T14:37:56.797Z</time></trkpt><trkpt lat="43.406305" lon="11.6770917"><ele>508.99999999999994</ele><time>2026-03-31T14:37:57.795Z</time></trkpt><trkpt lat="43.4062367" lon="11.6770317"><ele>509.0</ele><time>2026-03-31T14:37:58.796Z</time></trkpt><trkpt lat="43.4061717" lon="11.6769617"><ele>513.6</ele><time>2026-03-31T14:37:59.796Z</time></trkpt><trkpt lat="43.4061017" lon="11.6768817"><ele>518.2</ele><time>2026-03-31T14:38:00.795Z</time></trkpt><trkpt lat="43.40604" lon="11.6767883"><ele>522.8000000000001</ele><time>2026-03-31T14:38:01.795Z</time></trkpt><trkpt lat="43.4059767" lon="11.676685"><ele>527.4</ele><time>2026-03-31T14:38:02.797Z</time></trkpt><trkpt lat="43.4059067" lon="11.6765933"><ele>532.0</ele><time>2026-03-31T14:38:03.795Z</time></trkpt><trkpt lat="43.4058483" lon="11.6765033"><ele>532.0</ele><time>2026-03-31T14:38:04.796Z</time></trkpt><trkpt lat="43.4058017" lon="11.67643"><ele>532.0</ele><time>2026-03-31T14:38:05.795Z</time></trkpt><trkpt lat="43.4057033" lon="11.6763867"><ele>532.0</ele><time>2026-03-31T14:38:07.797Z</time></trkpt><trkpt lat="43.4056033" lon="11.6763583"><ele>532.0</ele><time>2026-03-31T14:38:09.795Z</time></trkpt><trkpt lat="43.4055467" lon="11.6762883"><ele>532.0</ele><time>2026-03-31T14:38:11.796Z</time></trkpt><trkpt lat="43.4055967" lon="11.6761333"><ele>531.3333333333334</ele><time>2026-03-31T14:38:13.798Z</time></trkpt><trkpt lat="43.4056383" lon="11.6759733"><ele>530.6666666666667</ele><time>2026-03-31T14:38:15.795Z</time></trkpt><trkpt lat="43.405665" lon="11.6758883"><ele>530.0</ele><time>2026-03-31T14:38:16.794Z</time></trkpt><trkpt lat="43.4057017" lon="11.6757783"><ele>529.3333333333334</ele><time>2026-03-31T14:38:17.795Z</time></trkpt><trkpt lat="43.405725" lon="11.6756733"><ele>528.6666666666666</ele><time>2026-03-31T14:38:18.796Z</time></trkpt><trkpt lat="43.405745" lon="11.6755633"><ele>528.0</ele><time>2026-03-31T14:38:19.796Z</time></trkpt><trkpt lat="43.40574" lon="11.6754733"><ele>528.0</ele><time>2026-03-31T14:38:20.798Z</time></trkpt><trkpt lat="43.4057167" lon="11.6753917"><ele>528.0</ele><time>2026-03-31T14:38:21.796Z</time></trkpt><trkpt lat="43.4056883" lon="11.6753"><ele>528.0</ele><time>2026-03-31T14:38:22.795Z</time></trkpt><trkpt lat="43.40566" lon="11.6751983"><ele>528.0</ele><time>2026-03-31T14:38:23.796Z</time></trkpt><trkpt lat="43.405625" lon="11.6750867"><ele>528.0</ele><time>2026-03-31T14:38:24.796Z</time></trkpt><trkpt lat="43.4055867" lon="11.674975"><ele>528.0</ele><time>2026-03-31T14:38:25.796Z</time></trkpt><trkpt lat="43.40555" lon="11.674875"><ele>528.6666666666666</ele><time>2026-03-31T14:38:26.797Z</time></trkpt><trkpt lat="43.4055217" lon="11.6747867"><ele>529.3333333333334</ele><time>2026-03-31T14:38:27.796Z</time></trkpt><trkpt lat="43.4054967" lon="11.6747"><ele>530.0</ele><time>2026-03-31T14:38:28.796Z</time></trkpt><trkpt lat="43.4054717" lon="11.6746133"><ele>530.6666666666667</ele><time>2026-03-31T14:38:29.797Z</time></trkpt><trkpt lat="43.40544" lon="11.674535"><ele>531.3333333333334</ele><time>2026-03-31T14:38:30.798Z</time></trkpt><trkpt lat="43.4054" lon="11.6743767"><ele>532.0</ele><time>2026-03-31T14:38:32.798Z</time></trkpt><trkpt lat="43.4053817" lon="11.67429"><ele>532.0</ele><time>2026-03-31T14:38:33.797Z</time></trkpt><trkpt lat="43.405365" lon="11.67418"><ele>532.0</ele><time>2026-03-31T14:38:34.796Z</time></trkpt><trkpt lat="43.4053533" lon="11.6740633"><ele>532.0</ele><time>2026-03-31T14:38:35.796Z</time></trkpt><trkpt lat="43.4053467" lon="11.6739467"><ele>532.0</ele><time>2026-03-31T14:38:36.797Z</time></trkpt><trkpt lat="43.40535" lon="11.673835"><ele>532.0</ele><time>2026-03-31T14:38:37.797Z</time></trkpt><trkpt lat="43.40536" lon="11.6737333"><ele>532.0</ele><time>2026-03-31T14:38:38.797Z</time></trkpt><trkpt lat="43.405385" lon="11.6736367"><ele>530.6</ele><time>2026-03-31T14:38:39.796Z</time></trkpt><trkpt lat="43.4054" lon="11.6734933"><ele>529.2</ele><time>2026-03-31T14:38:41.795Z</time></trkpt><trkpt lat="43.4053383" lon="11.673385"><ele>527.8</ele><time>2026-03-31T14:38:43.795Z</time></trkpt><trkpt lat="43.405285" lon="11.6733317"><ele>526.4</ele><time>2026-03-31T14:38:44.796Z</time></trkpt><trkpt lat="43.4051867" lon="11.6732567"><ele>525.0</ele><time>2026-03-31T14:38:46.796Z</time></trkpt><trkpt lat="43.4051133" lon="11.6732067"><ele>525.0</ele><time>2026-03-31T14:38:48.794Z</time></trkpt><trkpt lat="43.4050617" lon="11.67315"><ele>525.0</ele><time>2026-03-31T14:39:31.794Z</time></trkpt><trkpt lat="43.4050467" lon="11.6730167"><ele>525.0</ele><time>2026-03-31T14:39:33.795Z</time></trkpt><trkpt lat="43.4050167" lon="11.6728583"><ele>525.0</ele><time>2026-03-31T14:39:35.797Z</time></trkpt><trkpt lat="43.40498" lon="11.6727717"><ele>525.0</ele><time>2026-03-31T14:39:36.794Z</time></trkpt><trkpt lat="43.4049133" lon="11.672675"><ele>524.0</ele><time>2026-03-31T14:39:37.796Z</time></trkpt><trkpt lat="43.4048383" lon="11.6725683"><ele>523.0</ele><time>2026-03-31T14:39:38.795Z</time></trkpt><trkpt lat="43.4047667" lon="11.6724717"><ele>522.0</ele><time>2026-03-31T14:39:39.796Z</time></trkpt><trkpt lat="43.4047017" lon="11.672375"><ele>521.0</ele><time>2026-03-31T14:39:40.795Z</time></trkpt><trkpt lat="43.404645" lon="11.67229"><ele>520.0</ele><time>2026-03-31T14:39:41.796Z</time></trkpt><trkpt lat="43.4045983" lon="11.6722083"><ele>517.6</ele><time>2026-03-31T14:39:42.794Z</time></trkpt><trkpt lat="43.4045567" lon="11.6721217"><ele>515.2</ele><time>2026-03-31T14:39:43.795Z</time></trkpt><trkpt lat="43.4045183" lon="11.6720267"><ele>512.8</ele><time>2026-03-31T14:39:44.797Z</time></trkpt><trkpt lat="43.4044833" lon="11.6718933"><ele>510.4</ele><time>2026-03-31T14:39:45.796Z</time></trkpt><trkpt lat="43.4044417" lon="11.6717317"><ele>508.0</ele><time>2026-03-31T14:39:46.795Z</time></trkpt><trkpt lat="43.404395" lon="11.6715767"><ele>505.75</ele><time>2026-03-31T14:39:47.796Z</time></trkpt><trkpt lat="43.404345" lon="11.67143"><ele>503.5</ele><time>2026-03-31T14:39:48.797Z</time></trkpt><trkpt lat="43.4042883" lon="11.67128"><ele>501.25</ele><time>2026-03-31T14:39:49.797Z</time></trkpt><trkpt lat="43.40423" lon="11.6711167"><ele>499.0</ele><time>2026-03-31T14:39:50.797Z</time></trkpt><trkpt lat="43.40417" lon="11.6709517"><ele>498.0</ele><time>2026-03-31T14:39:51.795Z</time></trkpt><trkpt lat="43.4041117" lon="11.6707867"><ele>497.0</ele><time>2026-03-31T14:39:52.797Z</time></trkpt><trkpt lat="43.4040683" lon="11.6706067"><ele>496.0</ele><time>2026-03-31T14:39:53.797Z</time></trkpt><trkpt lat="43.4040417" lon="11.670415"><ele>495.0</ele><time>2026-03-31T14:39:54.797Z</time></trkpt><trkpt lat="43.4040217" lon="11.6702117"><ele>494.0</ele><time>2026-03-31T14:39:55.799Z</time></trkpt><trkpt lat="43.404015" lon="11.6699967"><ele>493.0</ele><time>2026-03-31T14:39:56.798Z</time></trkpt><trkpt lat="43.4040117" lon="11.6697667"><ele>492.0</ele><time>2026-03-31T14:39:57.798Z</time></trkpt><trkpt lat="43.404005" lon="11.6695467"><ele>492.75</ele><time>2026-03-31T14:39:58.798Z</time></trkpt><trkpt lat="43.4039983" lon="11.669345"><ele>493.5</ele><time>2026-03-31T14:39:59.798Z</time></trkpt><trkpt lat="43.4039967" lon="11.6691567"><ele>494.25</ele><time>2026-03-31T14:40:00.799Z</time></trkpt><trkpt lat="43.4039933" lon="11.6689867"><ele>495.0</ele><time>2026-03-31T14:40:01.796Z</time></trkpt><trkpt lat="43.403995" lon="11.66882"><ele>495.0</ele><time>2026-03-31T14:40:02.797Z</time></trkpt><trkpt lat="43.4040083" lon="11.668655"><ele>495.0</ele><time>2026-03-31T14:40:03.796Z</time></trkpt><trkpt lat="43.40401" lon="11.6684833"><ele>495.0</ele><time>2026-03-31T14:40:04.796Z</time></trkpt><trkpt lat="43.40399" lon="11.6683"><ele>495.0</ele><time>2026-03-31T14:40:05.795Z</time></trkpt><trkpt lat="43.4039617" lon="11.668125"><ele>495.0</ele><time>2026-03-31T14:40:06.799Z</time></trkpt><trkpt lat="43.4039317" lon="11.6679667"><ele>495.0</ele><time>2026-03-31T14:40:07.797Z</time></trkpt><trkpt lat="43.4038933" lon="11.6678267"><ele>495.0</ele><time>2026-03-31T14:40:08.798Z</time></trkpt><trkpt lat="43.40384" lon="11.6677083"><ele>495.0</ele><time>2026-03-31T14:40:09.796Z</time></trkpt><trkpt lat="43.4037683" lon="11.667605"><ele>495.0</ele><time>2026-03-31T14:40:10.796Z</time></trkpt><trkpt lat="43.4036917" lon="11.6675283"><ele>495.8</ele><time>2026-03-31T14:40:11.797Z</time></trkpt><trkpt lat="43.40361" lon="11.66745"><ele>496.6</ele><time>2026-03-31T14:40:12.796Z</time></trkpt><trkpt lat="43.40353" lon="11.6673583"><ele>497.4</ele><time>2026-03-31T14:40:13.797Z</time></trkpt><trkpt lat="43.4034583" lon="11.66726"><ele>498.2</ele><time>2026-03-31T14:40:14.797Z</time></trkpt><trkpt lat="43.40341" lon="11.6671383"><ele>499.0</ele><time>2026-03-31T14:40:15.796Z</time></trkpt><trkpt lat="43.40338" lon="11.6670033"><ele>496.0</ele><time>2026-03-31T14:40:16.795Z</time></trkpt><trkpt lat="43.4033733" lon="11.6668583"><ele>493.0</ele><time>2026-03-31T14:40:17.798Z</time></trkpt><trkpt lat="43.4033767" lon="11.6667217"><ele>490.0</ele><time>2026-03-31T14:40:18.797Z</time></trkpt><trkpt lat="43.40337" lon="11.6665867"><ele>487.0</ele><time>2026-03-31T14:40:19.795Z</time></trkpt><trkpt lat="43.4033517" lon="11.6664483"><ele>484.0</ele><time>2026-03-31T14:40:20.796Z</time></trkpt><trkpt lat="43.4033233" lon="11.6663133"><ele>484.0</ele><time>2026-03-31T14:40:21.797Z</time></trkpt><trkpt lat="43.403285" lon="11.6661817"><ele>484.0</ele><time>2026-03-31T14:40:22.795Z</time></trkpt><trkpt lat="43.4032267" lon="11.6660533"><ele>484.0</ele><time>2026-03-31T14:40:23.796Z</time></trkpt><trkpt lat="43.4031517" lon="11.665925"><ele>484.0</ele><time>2026-03-31T14:40:24.799Z</time></trkpt><trkpt lat="43.4030667" lon="11.6657883"><ele>483.5</ele><time>2026-03-31T14:40:25.796Z</time></trkpt><trkpt lat="43.40298" lon="11.6656467"><ele>483.0</ele><time>2026-03-31T14:40:26.798Z</time></trkpt><trkpt lat="43.402895" lon="11.6655117"><ele>482.5</ele><time>2026-03-31T14:40:27.798Z</time></trkpt><trkpt lat="43.4028133" lon="11.6653833"><ele>482.0</ele><time>2026-03-31T14:40:28.797Z</time></trkpt><trkpt lat="43.4027367" lon="11.66526"><ele>480.25</ele><time>2026-03-31T14:40:29.797Z</time></trkpt><trkpt lat="43.40267" lon="11.665135"><ele>478.5</ele><time>2026-03-31T14:40:30.796Z</time></trkpt><trkpt lat="43.402615" lon="11.6649883"><ele>476.75</ele><time>2026-03-31T14:40:31.796Z</time></trkpt><trkpt lat="43.4025717" lon="11.6648217"><ele>475.0</ele><time>2026-03-31T14:40:32.797Z</time></trkpt><trkpt lat="43.4025233" lon="11.6646383"><ele>475.0</ele><time>2026-03-31T14:40:33.796Z</time></trkpt><trkpt lat="43.40247" lon="11.6644483"><ele>475.0</ele><time>2026-03-31T14:40:34.796Z</time></trkpt><trkpt lat="43.4024133" lon="11.6642483"><ele>475.0</ele><time>2026-03-31T14:40:35.795Z</time></trkpt><trkpt lat="43.4023583" lon="11.66405"><ele>474.5</ele><time>2026-03-31T14:40:36.797Z</time></trkpt><trkpt lat="43.4023083" lon="11.6638733"><ele>474.0</ele><time>2026-03-31T14:40:37.797Z</time></trkpt><trkpt lat="43.4022683" lon="11.663715"><ele>473.5</ele><time>2026-03-31T14:40:38.797Z</time></trkpt><trkpt lat="43.4022367" lon="11.6635583"><ele>473.0</ele><time>2026-03-31T14:40:39.796Z</time></trkpt><trkpt lat="43.4022233" lon="11.6634017"><ele>473.0</ele><time>2026-03-31T14:40:40.795Z</time></trkpt><trkpt lat="43.4022267" lon="11.6632433"><ele>473.0</ele><time>2026-03-31T14:40:41.794Z</time></trkpt><trkpt lat="43.4022317" lon="11.6630783"><ele>473.0</ele><time>2026-03-31T14:40:42.796Z</time></trkpt><trkpt lat="43.40224" lon="11.6628967"><ele>473.0</ele><time>2026-03-31T14:40:43.796Z</time></trkpt><trkpt lat="43.402255" lon="11.66272"><ele>473.5</ele><time>2026-03-31T14:40:44.797Z</time></trkpt><trkpt lat="43.402275" lon="11.6625417"><ele>474.0</ele><time>2026-03-31T14:40:45.795Z</time></trkpt><trkpt lat="43.4022983" lon="11.6623733"><ele>474.5</ele><time>2026-03-31T14:40:46.795Z</time></trkpt><trkpt lat="43.4023283" lon="11.6622083"><ele>475.0</ele><time>2026-03-31T14:40:47.794Z</time></trkpt><trkpt lat="43.40237" lon="11.6620533"><ele>476.5</ele><time>2026-03-31T14:40:48.797Z</time></trkpt><trkpt lat="43.4024067" lon="11.661885"><ele>478.0</ele><time>2026-03-31T14:40:49.796Z</time></trkpt><trkpt lat="43.4024283" lon="11.6617067"><ele>479.5</ele><time>2026-03-31T14:40:50.798Z</time></trkpt><trkpt lat="43.4024433" lon="11.6615217"><ele>481.0</ele><time>2026-03-31T14:40:51.797Z</time></trkpt><trkpt lat="43.4024467" lon="11.6613433"><ele>481.0</ele><time>2026-03-31T14:40:52.795Z</time></trkpt><trkpt lat="43.40245" lon="11.6611833"><ele>481.0</ele><time>2026-03-31T14:40:53.798Z</time></trkpt><trkpt lat="43.4024467" lon="11.66105"><ele>481.0</ele><time>2026-03-31T14:40:54.799Z</time></trkpt><trkpt lat="43.40243" lon="11.6609383"><ele>481.0</ele><time>2026-03-31T14:40:55.798Z</time></trkpt><trkpt lat="43.40239" lon="11.6608417"><ele>481.0</ele><time>2026-03-31T14:40:56.8Z</time></trkpt><trkpt lat="43.40235" lon="11.6607467"><ele>481.83333333333337</ele><time>2026-03-31T14:40:57.798Z</time></trkpt><trkpt lat="43.4023233" lon="11.6606433"><ele>482.6666666666667</ele><time>2026-03-31T14:40:58.798Z</time></trkpt><trkpt lat="43.4023033" lon="11.6605517"><ele>483.5</ele><time>2026-03-31T14:40:59.795Z</time></trkpt><trkpt lat="43.4023933" lon="11.66045"><ele>484.33333333333337</ele><time>2026-03-31T14:41:01.796Z</time></trkpt><trkpt lat="43.402465" lon="11.6604283"><ele>485.1666666666667</ele><time>2026-03-31T14:41:02.797Z</time></trkpt><trkpt lat="43.4025667" lon="11.6604233"><ele>486.0</ele><time>2026-03-31T14:41:03.796Z</time></trkpt><trkpt lat="43.40268" lon="11.6604183"><ele>486.0</ele><time>2026-03-31T14:41:04.796Z</time></trkpt><trkpt lat="43.4028067" lon="11.6603933"><ele>486.0</ele><time>2026-03-31T14:41:05.796Z</time></trkpt><trkpt lat="43.4029583" lon="11.66035"><ele>486.0</ele><time>2026-03-31T14:41:06.795Z</time></trkpt><trkpt lat="43.4031067" lon="11.6602983"><ele>486.0</ele><time>2026-03-31T14:41:07.795Z</time></trkpt><trkpt lat="43.4032517" lon="11.6602417"><ele>485.20000000000005</ele><time>2026-03-31T14:41:08.797Z</time></trkpt><trkpt lat="43.4033683" lon="11.660195"><ele>484.40000000000003</ele><time>2026-03-31T14:41:09.795Z</time></trkpt><trkpt lat="43.4034667" lon="11.66015"><ele>483.6</ele><time>2026-03-31T14:41:10.794Z</time></trkpt><trkpt lat="43.4035483" lon="11.660105"><ele>482.8</ele><time>2026-03-31T14:41:11.794Z</time></trkpt><trkpt lat="43.4036283" lon="11.66004"><ele>482.0</ele><time>2026-03-31T14:41:12.796Z</time></trkpt><trkpt lat="43.4036983" lon="11.6599483"><ele>482.0</ele><time>2026-03-31T14:41:13.795Z</time></trkpt><trkpt lat="43.4037567" lon="11.659855"><ele>482.00000000000006</ele><time>2026-03-31T14:41:14.796Z</time></trkpt><trkpt lat="43.4038133" lon="11.6597633"><ele>482.00000000000006</ele><time>2026-03-31T14:41:15.795Z</time></trkpt><trkpt lat="43.4038733" lon="11.6596633"><ele>482.0</ele><time>2026-03-31T14:41:16.796Z</time></trkpt><trkpt lat="43.40394" lon="11.6595583"><ele>482.0</ele><time>2026-03-31T14:41:17.796Z</time></trkpt><trkpt lat="43.40402" lon="11.6594467"><ele>480.75</ele><time>2026-03-31T14:41:18.797Z</time></trkpt><trkpt lat="43.404115" lon="11.659325"><ele>479.5</ele><time>2026-03-31T14:41:19.796Z</time></trkpt><trkpt lat="43.4042167" lon="11.65921"><ele>478.25</ele><time>2026-03-31T14:41:20.797Z</time></trkpt><trkpt lat="43.404325" lon="11.6591133"><ele>477.0</ele><time>2026-03-31T14:41:21.797Z</time></trkpt><trkpt lat="43.404435" lon="11.6590333"><ele>477.0</ele><time>2026-03-31T14:41:22.795Z</time></trkpt><trkpt lat="43.4045433" lon="11.65896"><ele>477.0</ele><time>2026-03-31T14:41:23.797Z</time></trkpt><trkpt lat="43.4046583" lon="11.6588967"><ele>477.0</ele><time>2026-03-31T14:41:24.797Z</time></trkpt><trkpt lat="43.404785" lon="11.6588483"><ele>477.0</ele><time>2026-03-31T14:41:25.796Z</time></trkpt><trkpt lat="43.4049233" lon="11.6587983"><ele>474.66666666666663</ele><time>2026-03-31T14:41:26.797Z</time></trkpt><trkpt lat="43.40507" lon="11.6587383"><ele>472.3333333333333</ele><time>2026-03-31T14:41:27.797Z</time></trkpt><trkpt lat="43.4052217" lon="11.6586683"><ele>470.0</ele><time>2026-03-31T14:41:28.808Z</time></trkpt><trkpt lat="43.4053733" lon="11.6585917"><ele>471.5</ele><time>2026-03-31T14:41:29.795Z</time></trkpt><trkpt lat="43.405515" lon="11.6585167"><ele>473.0</ele><time>2026-03-31T14:41:30.797Z</time></trkpt><trkpt lat="43.4056467" lon="11.6584467"><ele>474.5</ele><time>2026-03-31T14:41:31.795Z</time></trkpt><trkpt lat="43.40576" lon="11.6583917"><ele>476.0</ele><time>2026-03-31T14:41:32.795Z</time></trkpt><trkpt lat="43.405865" lon="11.6583483"><ele>476.0</ele><time>2026-03-31T14:41:33.795Z</time></trkpt><trkpt lat="43.4059733" lon="11.6583083"><ele>476.0</ele><time>2026-03-31T14:41:34.795Z</time></trkpt><trkpt lat="43.406085" lon="11.65827"><ele>476.0</ele><time>2026-03-31T14:41:35.797Z</time></trkpt><trkpt lat="43.4061983" lon="11.6582317"><ele>476.0</ele><time>2026-03-31T14:41:36.795Z</time></trkpt><trkpt lat="43.4063117" lon="11.6581967"><ele>477.8</ele><time>2026-03-31T14:41:37.796Z</time></trkpt><trkpt lat="43.4064217" lon="11.658175"><ele>479.6</ele><time>2026-03-31T14:41:38.796Z</time></trkpt><trkpt lat="43.406535" lon="11.6581733"><ele>481.4</ele><time>2026-03-31T14:41:39.795Z</time></trkpt><trkpt lat="43.4066467" lon="11.6581783"><ele>483.2</ele><time>2026-03-31T14:41:40.796Z</time></trkpt><trkpt lat="43.40675" lon="11.6581917"><ele>485.0</ele><time>2026-03-31T14:41:41.796Z</time></trkpt><trkpt lat="43.406845" lon="11.6581867"><ele>485.0</ele><time>2026-03-31T14:41:42.796Z</time></trkpt><trkpt lat="43.4069367" lon="11.6581667"><ele>485.0</ele><time>2026-03-31T14:41:43.796Z</time></trkpt><trkpt lat="43.4070083" lon="11.658125"><ele>485.0</ele><time>2026-03-31T14:41:44.797Z</time></trkpt><trkpt lat="43.4070933" lon="11.65799"><ele>485.0</ele><time>2026-03-31T14:41:46.795Z</time></trkpt><trkpt lat="43.4071267" lon="11.6578783"><ele>485.0</ele><time>2026-03-31T14:41:47.797Z</time></trkpt><trkpt lat="43.4071617" lon="11.6577433"><ele>485.0</ele><time>2026-03-31T14:41:48.796Z</time></trkpt><trkpt lat="43.407215" lon="11.6575983"><ele>485.0</ele><time>2026-03-31T14:41:49.795Z</time></trkpt><trkpt lat="43.4072883" lon="11.6574367"><ele>485.0</ele><time>2026-03-31T14:41:50.796Z</time></trkpt><trkpt lat="43.4073767" lon="11.65728"><ele>485.0</ele><time>2026-03-31T14:41:51.796Z</time></trkpt><trkpt lat="43.4074783" lon="11.657125"><ele>485.0</ele><time>2026-03-31T14:41:52.795Z</time></trkpt><trkpt lat="43.407595" lon="11.6569767"><ele>485.0</ele><time>2026-03-31T14:41:53.797Z</time></trkpt><trkpt lat="43.4077183" lon="11.65684"><ele>485.0</ele><time>2026-03-31T14:41:54.796Z</time></trkpt><trkpt lat="43.4078533" lon="11.6567083"><ele>486.5</ele><time>2026-03-31T14:41:55.795Z</time></trkpt><trkpt lat="43.4079817" lon="11.6565933"><ele>488.0</ele><time>2026-03-31T14:41:56.796Z</time></trkpt><trkpt lat="43.4081017" lon="11.6564983"><ele>489.5</ele><time>2026-03-31T14:41:57.79Z</time></trkpt><trkpt lat="43.4082183" lon="11.656415"><ele>491.0</ele><time>2026-03-31T14:41:58.797Z</time></trkpt><trkpt lat="43.408325" lon="11.6563383"><ele>492.0</ele><time>2026-03-31T14:41:59.796Z</time></trkpt><trkpt lat="43.408425" lon="11.6562533"><ele>493.0</ele><time>2026-03-31T14:42:00.797Z</time></trkpt><trkpt lat="43.4085133" lon="11.6561683"><ele>494.0</ele><time>2026-03-31T14:42:01.797Z</time></trkpt><trkpt lat="43.4085767" lon="11.6560917"><ele>495.0</ele><time>2026-03-31T14:42:02.797Z</time></trkpt><trkpt lat="43.4086167" lon="11.65602"><ele>496.0</ele><time>2026-03-31T14:42:03.797Z</time></trkpt><trkpt lat="43.408625" lon="11.6558417"><ele>497.0</ele><time>2026-03-31T14:42:05.798Z</time></trkpt><trkpt lat="43.4086083" lon="11.655725"><ele>498.0</ele><time>2026-03-31T14:42:06.795Z</time></trkpt><trkpt lat="43.4085783" lon="11.6555883"><ele>499.0</ele><time>2026-03-31T14:42:07.798Z</time></trkpt><trkpt lat="43.4085533" lon="11.6554267"><ele>500.0</ele><time>2026-03-31T14:42:08.797Z</time></trkpt><trkpt lat="43.408525" lon="11.6552667"><ele>501.0</ele><time>2026-03-31T14:42:09.796Z</time></trkpt><trkpt lat="43.408495" lon="11.6550967"><ele>502.0</ele><time>2026-03-31T14:42:10.797Z</time></trkpt><trkpt lat="43.4084633" lon="11.654955"><ele>503.0</ele><time>2026-03-31T14:42:11.797Z</time></trkpt><trkpt lat="43.408435" lon="11.6548483"><ele>504.0</ele><time>2026-03-31T14:42:12.797Z</time></trkpt><trkpt lat="43.4084017" lon="11.65477"><ele>505.0</ele><time>2026-03-31T14:42:13.798Z</time></trkpt><trkpt lat="43.4083233" lon="11.6546783"><ele>506.0</ele><time>2026-03-31T14:42:15.797Z</time></trkpt><trkpt lat="43.4082567" lon="11.6546433"><ele>507.0</ele><time>2026-03-31T14:42:17.796Z</time></trkpt><trkpt lat="43.40812" lon="11.6546267"><ele>506.6</ele><time>2026-03-31T14:42:42.796Z</time></trkpt><trkpt lat="43.40799" lon="11.6545483"><ele>506.20000000000005</ele><time>2026-03-31T14:42:44.796Z</time></trkpt><trkpt lat="43.4078983" lon="11.654495"><ele>505.8</ele><time>2026-03-31T14:42:45.795Z</time></trkpt><trkpt lat="43.4078067" lon="11.6544467"><ele>505.4</ele><time>2026-03-31T14:42:46.796Z</time></trkpt><trkpt lat="43.4077183" lon="11.6544017"><ele>505.0</ele><time>2026-03-31T14:42:47.795Z</time></trkpt><trkpt lat="43.40763" lon="11.6543583"><ele>506.4</ele><time>2026-03-31T14:42:48.796Z</time></trkpt><trkpt lat="43.4075417" lon="11.6543217"><ele>507.8</ele><time>2026-03-31T14:42:49.796Z</time></trkpt><trkpt lat="43.4074583" lon="11.6542767"><ele>509.20000000000005</ele><time>2026-03-31T14:42:50.798Z</time></trkpt><trkpt lat="43.4073667" lon="11.654235"><ele>510.6</ele><time>2026-03-31T14:42:51.796Z</time></trkpt><trkpt lat="43.4072783" lon="11.6541883"><ele>512.0</ele><time>2026-03-31T14:42:52.796Z</time></trkpt><trkpt lat="43.40719" lon="11.6541467"><ele>511.20000000000005</ele><time>2026-03-31T14:42:53.795Z</time></trkpt><trkpt lat="43.4071" lon="11.6541083"><ele>510.40000000000003</ele><time>2026-03-31T14:42:54.797Z</time></trkpt><trkpt lat="43.4070117" lon="11.6540617"><ele>509.59999999999997</ele><time>2026-03-31T14:42:55.796Z</time></trkpt><trkpt lat="43.4069267" lon="11.6540033"><ele>508.79999999999995</ele><time>2026-03-31T14:42:56.797Z</time></trkpt><trkpt lat="43.4068417" lon="11.6539383"><ele>508.0</ele><time>2026-03-31T14:42:57.795Z</time></trkpt><trkpt lat="43.4067567" lon="11.65386"><ele>508.0</ele><time>2026-03-31T14:42:58.795Z</time></trkpt><trkpt lat="43.4066767" lon="11.6537883"><ele>507.99999999999994</ele><time>2026-03-31T14:42:59.795Z</time></trkpt><trkpt lat="43.406605" lon="11.6537117"><ele>507.99999999999994</ele><time>2026-03-31T14:43:00.796Z</time></trkpt><trkpt lat="43.4065333" lon="11.6536283"><ele>508.0</ele><time>2026-03-31T14:43:01.796Z</time></trkpt><trkpt lat="43.406465" lon="11.653535"><ele>508.0</ele><time>2026-03-31T14:43:02.796Z</time></trkpt><trkpt lat="43.4064" lon="11.6534417"><ele>507.83333333333337</ele><time>2026-03-31T14:43:03.795Z</time></trkpt><trkpt lat="43.40634" lon="11.653355"><ele>507.6666666666667</ele><time>2026-03-31T14:43:04.795Z</time></trkpt><trkpt lat="43.406285" lon="11.653265"><ele>507.5</ele><time>2026-03-31T14:43:05.797Z</time></trkpt><trkpt lat="43.40624" lon="11.6531917"><ele>507.33333333333337</ele><time>2026-03-31T14:43:06.796Z</time></trkpt><trkpt lat="43.4061767" lon="11.6530483"><ele>507.1666666666667</ele><time>2026-03-31T14:43:08.797Z</time></trkpt><trkpt lat="43.40617" lon="11.6529483"><ele>507.0</ele><time>2026-03-31T14:43:09.797Z</time></trkpt><trkpt lat="43.4061867" lon="11.6528517"><ele>506.1666666666667</ele><time>2026-03-31T14:43:10.803Z</time></trkpt><trkpt lat="43.4062133" lon="11.6527667"><ele>505.33333333333337</ele><time>2026-03-31T14:43:11.796Z</time></trkpt><trkpt lat="43.4062217" lon="11.65268"><ele>504.5</ele><time>2026-03-31T14:43:12.796Z</time></trkpt><trkpt lat="43.4061967" lon="11.652555"><ele>503.6666666666667</ele><time>2026-03-31T14:43:14.797Z</time></trkpt><trkpt lat="43.4061233" lon="11.6524367"><ele>502.83333333333337</ele><time>2026-03-31T14:43:16.795Z</time></trkpt><trkpt lat="43.4060517" lon="11.65241"><ele>502.0</ele><time>2026-03-31T14:43:17.794Z</time></trkpt><trkpt lat="43.40597" lon="11.6524083"><ele>502.0</ele><time>2026-03-31T14:43:18.797Z</time></trkpt><trkpt lat="43.4058967" lon="11.6524267"><ele>502.0</ele><time>2026-03-31T14:43:19.797Z</time></trkpt><trkpt lat="43.405785" lon="11.65251"><ele>502.0</ele><time>2026-03-31T14:43:20.797Z</time></trkpt><trkpt lat="43.4056983" lon="11.6526033"><ele>502.0</ele><time>2026-03-31T14:43:21.796Z</time></trkpt><trkpt lat="43.4055567" lon="11.652725"><ele>499.25</ele><time>2026-03-31T14:43:22.796Z</time></trkpt><trkpt lat="43.405425" lon="11.6528483"><ele>496.5</ele><time>2026-03-31T14:43:23.796Z</time></trkpt><trkpt lat="43.4053133" lon="11.6529267"><ele>493.75</ele><time>2026-03-31T14:43:24.797Z</time></trkpt><trkpt lat="43.4052067" lon="11.652995"><ele>491.0</ele><time>2026-03-31T14:43:25.797Z</time></trkpt><trkpt lat="43.4051033" lon="11.6530567"><ele>491.0</ele><time>2026-03-31T14:43:26.798Z</time></trkpt><trkpt lat="43.405005" lon="11.6530933"><ele>491.0</ele><time>2026-03-31T14:43:27.797Z</time></trkpt><trkpt lat="43.4049183" lon="11.6530867"><ele>491.0</ele><time>2026-03-31T14:43:28.796Z</time></trkpt><trkpt lat="43.4048367" lon="11.6530533"><ele>491.0</ele><time>2026-03-31T14:43:29.797Z</time></trkpt><trkpt lat="43.4047583" lon="11.652995"><ele>491.0</ele><time>2026-03-31T14:43:30.798Z</time></trkpt><trkpt lat="43.404675" lon="11.6529083"><ele>488.0</ele><time>2026-03-31T14:43:31.797Z</time></trkpt><trkpt lat="43.4045833" lon="11.6528033"><ele>485.0</ele><time>2026-03-31T14:43:32.797Z</time></trkpt><trkpt lat="43.4044933" lon="11.652675"><ele>482.0</ele><time>2026-03-31T14:43:33.796Z</time></trkpt><trkpt lat="43.4044117" lon="11.6525317"><ele>479.0</ele><time>2026-03-31T14:43:34.797Z</time></trkpt><trkpt lat="43.4043333" lon="11.6524"><ele>479.0</ele><time>2026-03-31T14:43:35.797Z</time></trkpt><trkpt lat="43.4042567" lon="11.6523067"><ele>479.0</ele><time>2026-03-31T14:43:36.796Z</time></trkpt><trkpt lat="43.404165" lon="11.6522333"><ele>479.0</ele><time>2026-03-31T14:43:37.796Z</time></trkpt><trkpt lat="43.40405" lon="11.65218"><ele>479.0</ele><time>2026-03-31T14:43:38.798Z</time></trkpt><trkpt lat="43.4039117" lon="11.6521467"><ele>476.75</ele><time>2026-03-31T14:43:39.797Z</time></trkpt><trkpt lat="43.4037617" lon="11.652115"><ele>474.5</ele><time>2026-03-31T14:43:40.795Z</time></trkpt><trkpt lat="43.40362" lon="11.6520833"><ele>472.25</ele><time>2026-03-31T14:43:41.795Z</time></trkpt><trkpt lat="43.4034867" lon="11.6520567"><ele>470.0</ele><time>2026-03-31T14:43:42.793Z</time></trkpt><trkpt lat="43.4033617" lon="11.6520383"><ele>470.0</ele><time>2026-03-31T14:43:43.795Z</time></trkpt><trkpt lat="43.4032483" lon="11.65204"><ele>470.0</ele><time>2026-03-31T14:43:44.797Z</time></trkpt><trkpt lat="43.4031417" lon="11.6520567"><ele>470.0</ele><time>2026-03-31T14:43:45.797Z</time></trkpt><trkpt lat="43.403055" lon="11.6520833"><ele>470.0</ele><time>2026-03-31T14:43:46.796Z</time></trkpt><trkpt lat="43.40298" lon="11.6521017"><ele>470.0</ele><time>2026-03-31T14:43:47.793Z</time></trkpt><trkpt lat="43.4028883" lon="11.652125"><ele>469.6</ele><time>2026-03-31T14:43:49.798Z</time></trkpt><trkpt lat="43.40279" lon="11.6520733"><ele>469.2</ele><time>2026-03-31T14:43:52.798Z</time></trkpt><trkpt lat="43.4027267" lon="11.65205"><ele>468.79999999999995</ele><time>2026-03-31T14:43:53.798Z</time></trkpt><trkpt lat="43.40265" lon="11.6520067"><ele>468.4</ele><time>2026-03-31T14:43:54.798Z</time></trkpt><trkpt lat="43.4025667" lon="11.6519383"><ele>468.0</ele><time>2026-03-31T14:43:55.799Z</time></trkpt><trkpt lat="43.4024667" lon="11.6518067"><ele>468.0</ele><time>2026-03-31T14:43:56.798Z</time></trkpt><trkpt lat="43.402365" lon="11.6516617"><ele>468.0</ele><time>2026-03-31T14:43:57.798Z</time></trkpt><trkpt lat="43.4022533" lon="11.6515"><ele>468.0</ele><time>2026-03-31T14:43:58.798Z</time></trkpt><trkpt lat="43.4021467" lon="11.65134"><ele>468.0</ele><time>2026-03-31T14:43:59.798Z</time></trkpt><trkpt lat="43.40206" lon="11.6511783"><ele>468.0</ele><time>2026-03-31T14:44:00.796Z</time></trkpt><trkpt lat="43.401995" lon="11.6509983"><ele>468.0</ele><time>2026-03-31T14:44:01.795Z</time></trkpt><trkpt lat="43.401955" lon="11.6508033"><ele>468.0</ele><time>2026-03-31T14:44:02.796Z</time></trkpt><trkpt lat="43.4019333" lon="11.6505917"><ele>468.0</ele><time>2026-03-31T14:44:03.795Z</time></trkpt><trkpt lat="43.4019233" lon="11.65037"><ele>468.0</ele><time>2026-03-31T14:44:04.796Z</time></trkpt><trkpt lat="43.40192" lon="11.650145"><ele>468.0</ele><time>2026-03-31T14:44:05.795Z</time></trkpt><trkpt lat="43.4019317" lon="11.6499233"><ele>468.75</ele><time>2026-03-31T14:44:06.796Z</time></trkpt><trkpt lat="43.401955" lon="11.6497167"><ele>469.5</ele><time>2026-03-31T14:44:07.796Z</time></trkpt><trkpt lat="43.4019867" lon="11.6495317"><ele>470.25</ele><time>2026-03-31T14:44:08.797Z</time></trkpt><trkpt lat="43.4020133" lon="11.6493567"><ele>471.0</ele><time>2026-03-31T14:44:09.796Z</time></trkpt><trkpt lat="43.4020367" lon="11.6491967"><ele>471.0</ele><time>2026-03-31T14:44:10.796Z</time></trkpt><trkpt lat="43.4020633" lon="11.6490367"><ele>471.0</ele><time>2026-03-31T14:44:11.795Z</time></trkpt><trkpt lat="43.40211" lon="11.64888"><ele>471.0</ele><time>2026-03-31T14:44:12.796Z</time></trkpt><trkpt lat="43.4021667" lon="11.6487267"><ele>471.0</ele><time>2026-03-31T14:44:13.796Z</time></trkpt><trkpt lat="43.4022083" lon="11.6485617"><ele>471.0</ele><time>2026-03-31T14:44:14.796Z</time></trkpt><trkpt lat="43.402235" lon="11.6483783"><ele>471.0</ele><time>2026-03-31T14:44:15.796Z</time></trkpt><trkpt lat="43.4022567" lon="11.6481883"><ele>471.0</ele><time>2026-03-31T14:44:16.796Z</time></trkpt><trkpt lat="43.4022933" lon="11.6480083"><ele>471.0</ele><time>2026-03-31T14:44:17.796Z</time></trkpt><trkpt lat="43.402355" lon="11.6478417"><ele>471.0</ele><time>2026-03-31T14:44:18.797Z</time></trkpt><trkpt lat="43.4024333" lon="11.6476833"><ele>471.0</ele><time>2026-03-31T14:44:19.797Z</time></trkpt><trkpt lat="43.402515" lon="11.6475333"><ele>471.0</ele><time>2026-03-31T14:44:20.799Z</time></trkpt><trkpt lat="43.4025867" lon="11.6473883"><ele>471.0</ele><time>2026-03-31T14:44:21.796Z</time></trkpt><trkpt lat="43.4026383" lon="11.6472333"><ele>471.0</ele><time>2026-03-31T14:44:22.795Z</time></trkpt><trkpt lat="43.40266" lon="11.6470567"><ele>471.0</ele><time>2026-03-31T14:44:23.796Z</time></trkpt><trkpt lat="43.4026567" lon="11.64686"><ele>471.0</ele><time>2026-03-31T14:44:24.796Z</time></trkpt><trkpt lat="43.4026317" lon="11.646655"><ele>471.0</ele><time>2026-03-31T14:44:25.796Z</time></trkpt><trkpt lat="43.402595" lon="11.6464683"><ele>471.0</ele><time>2026-03-31T14:44:26.796Z</time></trkpt><trkpt lat="43.4025633" lon="11.6462917"><ele>471.0</ele><time>2026-03-31T14:44:27.797Z</time></trkpt><trkpt lat="43.4025433" lon="11.646105"><ele>471.0</ele><time>2026-03-31T14:44:28.797Z</time></trkpt><trkpt lat="43.4025317" lon="11.6459083"><ele>471.0</ele><time>2026-03-31T14:44:29.795Z</time></trkpt><trkpt lat="43.4025267" lon="11.64572"><ele>471.75</ele><time>2026-03-31T14:44:30.796Z</time></trkpt><trkpt lat="43.4025233" lon="11.6455467"><ele>472.5</ele><time>2026-03-31T14:44:31.796Z</time></trkpt><trkpt lat="43.4025217" lon="11.645385"><ele>473.25</ele><time>2026-03-31T14:44:32.798Z</time></trkpt><trkpt lat="43.4025117" lon="11.645235"><ele>474.0</ele><time>2026-03-31T14:44:33.796Z</time></trkpt><trkpt lat="43.4025017" lon="11.64508"><ele>474.25</ele><time>2026-03-31T14:44:34.795Z</time></trkpt><trkpt lat="43.4024933" lon="11.64492"><ele>474.5</ele><time>2026-03-31T14:44:35.796Z</time></trkpt><trkpt lat="43.402495" lon="11.6447583"><ele>474.75</ele><time>2026-03-31T14:44:36.795Z</time></trkpt><trkpt lat="43.4025067" lon="11.6445967"><ele>475.0</ele><time>2026-03-31T14:44:37.796Z</time></trkpt><trkpt lat="43.40253" lon="11.6444317"><ele>475.0</ele><time>2026-03-31T14:44:38.797Z</time></trkpt><trkpt lat="43.402565" lon="11.6442617"><ele>475.0</ele><time>2026-03-31T14:44:39.796Z</time></trkpt><trkpt lat="43.402605" lon="11.6440833"><ele>475.0</ele><time>2026-03-31T14:44:40.797Z</time></trkpt><trkpt lat="43.402645" lon="11.6439083"><ele>475.0</ele><time>2026-03-31T14:44:41.798Z</time></trkpt><trkpt lat="43.4026817" lon="11.643745"><ele>475.0</ele><time>2026-03-31T14:44:42.794Z</time></trkpt><trkpt lat="43.4027033" lon="11.6435917"><ele>475.0</ele><time>2026-03-31T14:44:43.792Z</time></trkpt><trkpt lat="43.4027" lon="11.64344"><ele>475.0</ele><time>2026-03-31T14:44:44.797Z</time></trkpt><trkpt lat="43.4026733" lon="11.643285"><ele>475.0</ele><time>2026-03-31T14:44:45.796Z</time></trkpt><trkpt lat="43.4026283" lon="11.6431183"><ele>475.0</ele><time>2026-03-31T14:44:46.796Z</time></trkpt><trkpt lat="43.402575" lon="11.6429433"><ele>475.0</ele><time>2026-03-31T14:44:47.794Z</time></trkpt><trkpt lat="43.40252" lon="11.64276"><ele>475.0</ele><time>2026-03-31T14:44:48.796Z</time></trkpt><trkpt lat="43.40246" lon="11.6425767"><ele>475.0</ele><time>2026-03-31T14:44:49.796Z</time></trkpt><trkpt lat="43.402405" lon="11.6424"><ele>476.0</ele><time>2026-03-31T14:44:50.797Z</time></trkpt><trkpt lat="43.402355" lon="11.6422333"><ele>477.0</ele><time>2026-03-31T14:44:51.796Z</time></trkpt><trkpt lat="43.4023033" lon="11.6420817"><ele>478.0</ele><time>2026-03-31T14:44:52.796Z</time></trkpt><trkpt lat="43.40225" lon="11.6419583"><ele>479.0</ele><time>2026-03-31T14:44:53.797Z</time></trkpt><trkpt lat="43.402205" lon="11.6418583"><ele>480.0</ele><time>2026-03-31T14:44:54.796Z</time></trkpt><trkpt lat="43.4021733" lon="11.641775"><ele>481.2</ele><time>2026-03-31T14:44:55.797Z</time></trkpt><trkpt lat="43.4021417" lon="11.6416183"><ele>482.4</ele><time>2026-03-31T14:44:57.796Z</time></trkpt><trkpt lat="43.4021933" lon="11.6414517"><ele>483.6</ele><time>2026-03-31T14:44:59.796Z</time></trkpt><trkpt lat="43.40224" lon="11.6413483"><ele>484.8</ele><time>2026-03-31T14:45:00.796Z</time></trkpt><trkpt lat="43.40229" lon="11.6412283"><ele>486.0</ele><time>2026-03-31T14:45:01.795Z</time></trkpt><trkpt lat="43.4023467" lon="11.6410917"><ele>487.8</ele><time>2026-03-31T14:45:02.797Z</time></trkpt><trkpt lat="43.4024067" lon="11.6409467"><ele>489.6</ele><time>2026-03-31T14:45:03.797Z</time></trkpt><trkpt lat="43.4024583" lon="11.6408017"><ele>491.4</ele><time>2026-03-31T14:45:04.795Z</time></trkpt><trkpt lat="43.4024983" lon="11.64066"><ele>493.2</ele><time>2026-03-31T14:45:05.795Z</time></trkpt><trkpt lat="43.4025267" lon="11.6405333"><ele>495.0</ele><time>2026-03-31T14:45:06.795Z</time></trkpt><trkpt lat="43.4025417" lon="11.6404133"><ele>496.0</ele><time>2026-03-31T14:45:07.795Z</time></trkpt><trkpt lat="43.4025417" lon="11.6402867"><ele>497.0</ele><time>2026-03-31T14:45:08.797Z</time></trkpt><trkpt lat="43.402525" lon="11.640155"><ele>498.0</ele><time>2026-03-31T14:45:09.796Z</time></trkpt><trkpt lat="43.402495" lon="11.6400217"><ele>499.0</ele><time>2026-03-31T14:45:10.796Z</time></trkpt><trkpt lat="43.4024567" lon="11.6398767"><ele>500.0</ele><time>2026-03-31T14:45:11.797Z</time></trkpt><trkpt lat="43.4024133" lon="11.6397183"><ele>500.0</ele><time>2026-03-31T14:45:12.797Z</time></trkpt><trkpt lat="43.4023683" lon="11.6395467"><ele>500.0</ele><time>2026-03-31T14:45:13.796Z</time></trkpt><trkpt lat="43.4023233" lon="11.6393783"><ele>500.0</ele><time>2026-03-31T14:45:14.797Z</time></trkpt><trkpt lat="43.40229" lon="11.6392217"><ele>500.0</ele><time>2026-03-31T14:45:15.796Z</time></trkpt><trkpt lat="43.4022783" lon="11.6390633"><ele>500.4</ele><time>2026-03-31T14:45:16.796Z</time></trkpt><trkpt lat="43.402285" lon="11.638895"><ele>500.8</ele><time>2026-03-31T14:45:17.797Z</time></trkpt><trkpt lat="43.4023" lon="11.6387217"><ele>501.20000000000005</ele><time>2026-03-31T14:45:18.795Z</time></trkpt><trkpt lat="43.4023133" lon="11.6385783"><ele>501.6</ele><time>2026-03-31T14:45:19.795Z</time></trkpt><trkpt lat="43.402325" lon="11.6384667"><ele>502.0</ele><time>2026-03-31T14:45:20.797Z</time></trkpt><trkpt lat="43.40233" lon="11.638375"><ele>502.20000000000005</ele><time>2026-03-31T14:45:21.795Z</time></trkpt><trkpt lat="43.4023133" lon="11.6382067"><ele>502.40000000000003</ele><time>2026-03-31T14:45:23.795Z</time></trkpt><trkpt lat="43.4022767" lon="11.6381183"><ele>502.59999999999997</ele><time>2026-03-31T14:45:24.796Z</time></trkpt><trkpt lat="43.402205" lon="11.63803"><ele>502.79999999999995</ele><time>2026-03-31T14:45:25.796Z</time></trkpt><trkpt lat="43.4021" lon="11.63794"><ele>503.0</ele><time>2026-03-31T14:45:26.797Z</time></trkpt><trkpt lat="43.4019983" lon="11.637845"><ele>504.0</ele><time>2026-03-31T14:45:27.797Z</time></trkpt><trkpt lat="43.4019033" lon="11.6377567"><ele>504.99999999999994</ele><time>2026-03-31T14:45:28.796Z</time></trkpt><trkpt lat="43.4018217" lon="11.6376733"><ele>505.99999999999994</ele><time>2026-03-31T14:45:29.799Z</time></trkpt><trkpt lat="43.40176" lon="11.6376033"><ele>507.0</ele><time>2026-03-31T14:45:30.796Z</time></trkpt><trkpt lat="43.4017117" lon="11.6375417"><ele>508.0</ele><time>2026-03-31T14:45:31.797Z</time></trkpt><trkpt lat="43.4015967" lon="11.6374983"><ele>508.00000000000006</ele><time>2026-03-31T14:45:33.798Z</time></trkpt><trkpt lat="43.4015317" lon="11.6375"><ele>508.0</ele><time>2026-03-31T14:45:34.797Z</time></trkpt><trkpt lat="43.4014667" lon="11.637505"><ele>508.0</ele><time>2026-03-31T14:45:35.8Z</time></trkpt><trkpt lat="43.4013983" lon="11.6375333"><ele>508.0</ele><time>2026-03-31T14:45:36.799Z</time></trkpt><trkpt lat="43.4013233" lon="11.637585"><ele>508.00000000000006</ele><time>2026-03-31T14:45:37.799Z</time></trkpt><trkpt lat="43.401245" lon="11.6376567"><ele>508.0</ele><time>2026-03-31T14:45:38.797Z</time></trkpt><trkpt lat="43.401155" lon="11.6377433"><ele>508.0</ele><time>2026-03-31T14:45:39.796Z</time></trkpt><trkpt lat="43.40106" lon="11.6378317"><ele>507.99999999999994</ele><time>2026-03-31T14:45:40.796Z</time></trkpt><trkpt lat="43.4009567" lon="11.63791"><ele>507.99999999999994</ele><time>2026-03-31T14:45:41.797Z</time></trkpt><trkpt lat="43.4008617" lon="11.6379833"><ele>508.0</ele><time>2026-03-31T14:45:42.796Z</time></trkpt><trkpt lat="43.4007783" lon="11.6380467"><ele>508.0</ele><time>2026-03-31T14:45:43.797Z</time></trkpt><trkpt lat="43.40071" lon="11.6380967"><ele>508.00000000000006</ele><time>2026-03-31T14:45:44.797Z</time></trkpt><trkpt lat="43.40065" lon="11.6381317"><ele>508.0</ele><time>2026-03-31T14:45:45.796Z</time></trkpt><trkpt lat="43.4005867" lon="11.638155"><ele>508.0</ele><time>2026-03-31T14:45:46.795Z</time></trkpt><trkpt lat="43.400515" lon="11.6381833"><ele>508.0</ele><time>2026-03-31T14:45:47.797Z</time></trkpt><trkpt lat="43.400435" lon="11.6382233"><ele>508.00000000000006</ele><time>2026-03-31T14:45:48.797Z</time></trkpt><trkpt lat="43.400345" lon="11.638275"><ele>508.0</ele><time>2026-03-31T14:45:49.799Z</time></trkpt><trkpt lat="43.400265" lon="11.63832"><ele>509.59999999999997</ele><time>2026-03-31T14:45:50.799Z</time></trkpt><trkpt lat="43.4001983" lon="11.6383517"><ele>511.19999999999993</ele><time>2026-03-31T14:45:51.799Z</time></trkpt><trkpt lat="43.400095" lon="11.6382917"><ele>512.8</ele><time>2026-03-31T14:45:53.798Z</time></trkpt><trkpt lat="43.4000217" lon="11.6381517"><ele>514.4</ele><time>2026-03-31T14:45:55.797Z</time></trkpt><trkpt lat="43.399965" lon="11.6379967"><ele>516.0</ele><time>2026-03-31T14:45:57.796Z</time></trkpt><trkpt lat="43.3999383" lon="11.6379133"><ele>516.0</ele><time>2026-03-31T14:45:58.796Z</time></trkpt><trkpt lat="43.399905" lon="11.6378233"><ele>516.0</ele><time>2026-03-31T14:45:59.798Z</time></trkpt><trkpt lat="43.399875" lon="11.6377183"><ele>516.0</ele><time>2026-03-31T14:46:00.797Z</time></trkpt><trkpt lat="43.3998433" lon="11.6376233"><ele>516.0</ele><time>2026-03-31T14:46:01.797Z</time></trkpt><trkpt lat="43.3997983" lon="11.6375417"><ele>516.0</ele><time>2026-03-31T14:46:02.8Z</time></trkpt><trkpt lat="43.399755" lon="11.6374483"><ele>516.0</ele><time>2026-03-31T14:46:03.797Z</time></trkpt><trkpt lat="43.39972" lon="11.63734"><ele>516.0</ele><time>2026-03-31T14:46:04.796Z</time></trkpt><trkpt lat="43.39969" lon="11.6372217"><ele>516.0</ele><time>2026-03-31T14:46:05.796Z</time></trkpt><trkpt lat="43.399655" lon="11.6371"><ele>516.0</ele><time>2026-03-31T14:46:06.798Z</time></trkpt><trkpt lat="43.3995883" lon="11.6369467"><ele>516.0</ele><time>2026-03-31T14:46:07.797Z</time></trkpt><trkpt lat="43.399515" lon="11.63679"><ele>516.1666666666666</ele><time>2026-03-31T14:46:08.797Z</time></trkpt><trkpt lat="43.3994467" lon="11.6366617"><ele>516.3333333333334</ele><time>2026-03-31T14:46:09.797Z</time></trkpt><trkpt lat="43.3993883" lon="11.6365817"><ele>516.5</ele><time>2026-03-31T14:46:10.794Z</time></trkpt><trkpt lat="43.3993267" lon="11.6365267"><ele>516.6666666666667</ele><time>2026-03-31T14:46:11.797Z</time></trkpt><trkpt lat="43.3992633" lon="11.6364767"><ele>516.8333333333334</ele><time>2026-03-31T14:46:12.796Z</time></trkpt><trkpt lat="43.399205" lon="11.6364167"><ele>517.0</ele><time>2026-03-31T14:46:13.796Z</time></trkpt><trkpt lat="43.3991517" lon="11.63635"><ele>517.0</ele><time>2026-03-31T14:46:14.797Z</time></trkpt><trkpt lat="43.399115" lon="11.6362783"><ele>517.0</ele><time>2026-03-31T14:46:15.797Z</time></trkpt><trkpt lat="43.3990883" lon="11.636195"><ele>517.0</ele><time>2026-03-31T14:46:16.796Z</time></trkpt><trkpt lat="43.3990767" lon="11.636095"><ele>517.0</ele><time>2026-03-31T14:46:17.795Z</time></trkpt><trkpt lat="43.3990667" lon="11.6359967"><ele>517.0</ele><time>2026-03-31T14:46:18.798Z</time></trkpt><trkpt lat="43.399055" lon="11.63591"><ele>517.0</ele><time>2026-03-31T14:46:19.797Z</time></trkpt><trkpt lat="43.3990233" lon="11.6357833"><ele>517.0</ele><time>2026-03-31T14:46:21.798Z</time></trkpt><trkpt lat="43.39896" lon="11.6356783"><ele>516.2</ele><time>2026-03-31T14:46:23.795Z</time></trkpt><trkpt lat="43.39888" lon="11.6355867"><ele>515.4000000000001</ele><time>2026-03-31T14:46:25.796Z</time></trkpt><trkpt lat="43.3988233" lon="11.635525"><ele>514.5999999999999</ele><time>2026-03-31T14:46:27.796Z</time></trkpt><trkpt lat="43.3987583" lon="11.6354967"><ele>513.8</ele><time>2026-03-31T14:46:52.799Z</time></trkpt><trkpt lat="43.3986783" lon="11.635575"><ele>513.0</ele><time>2026-03-31T14:46:54.797Z</time></trkpt><trkpt lat="43.398595" lon="11.635685"><ele>510.79999999999995</ele><time>2026-03-31T14:46:56.798Z</time></trkpt><trkpt lat="43.3985033" lon="11.635775"><ele>508.59999999999997</ele><time>2026-03-31T14:46:58.796Z</time></trkpt><trkpt lat="43.3984467" lon="11.6358283"><ele>506.40000000000003</ele><time>2026-03-31T14:46:59.795Z</time></trkpt><trkpt lat="43.398365" lon="11.6359367"><ele>504.20000000000005</ele><time>2026-03-31T14:47:01.797Z</time></trkpt><trkpt lat="43.398305" lon="11.6360433"><ele>502.0</ele><time>2026-03-31T14:47:03.797Z</time></trkpt><trkpt lat="43.39823" lon="11.636165"><ele>502.0</ele><time>2026-03-31T14:47:05.798Z</time></trkpt><trkpt lat="43.3981517" lon="11.6362833"><ele>502.00000000000006</ele><time>2026-03-31T14:47:07.796Z</time></trkpt><trkpt lat="43.3981067" lon="11.636345"><ele>502.00000000000006</ele><time>2026-03-31T14:47:08.798Z</time></trkpt><trkpt lat="43.3980533" lon="11.6364083"><ele>502.0</ele><time>2026-03-31T14:47:09.797Z</time></trkpt><trkpt lat="43.39796" lon="11.6365083"><ele>502.0</ele><time>2026-03-31T14:47:11.796Z</time></trkpt><trkpt lat="43.3978733" lon="11.6366483"><ele>499.50000000000006</ele><time>2026-03-31T14:47:13.796Z</time></trkpt><trkpt lat="43.39782" lon="11.636735"><ele>497.0</ele><time>2026-03-31T14:47:14.798Z</time></trkpt><trkpt lat="43.397765" lon="11.6368117"><ele>494.5</ele><time>2026-03-31T14:47:15.796Z</time></trkpt><trkpt lat="43.3976917" lon="11.63687"><ele>492.0</ele><time>2026-03-31T14:47:16.795Z</time></trkpt><trkpt lat="43.3976217" lon="11.6369117"><ele>489.50000000000006</ele><time>2026-03-31T14:47:17.796Z</time></trkpt><trkpt lat="43.39756" lon="11.6369383"><ele>487.0</ele><time>2026-03-31T14:47:18.795Z</time></trkpt><trkpt lat="43.3974933" lon="11.6369317"><ele>487.00000000000006</ele><time>2026-03-31T14:47:19.797Z</time></trkpt><trkpt lat="43.3974233" lon="11.6369117"><ele>487.0</ele><time>2026-03-31T14:47:20.797Z</time></trkpt><trkpt lat="43.3973533" lon="11.6368817"><ele>487.0</ele><time>2026-03-31T14:47:21.798Z</time></trkpt><trkpt lat="43.3972867" lon="11.6368483"><ele>487.0</ele><time>2026-03-31T14:47:22.795Z</time></trkpt><trkpt lat="43.3971783" lon="11.6367483"><ele>487.00000000000006</ele><time>2026-03-31T14:47:24.796Z</time></trkpt><trkpt lat="43.3971267" lon="11.6366817"><ele>487.0</ele><time>2026-03-31T14:47:25.796Z</time></trkpt><trkpt lat="43.3970767" lon="11.6366217"><ele>484.8</ele><time>2026-03-31T14:47:26.797Z</time></trkpt><trkpt lat="43.3970017" lon="11.6365333"><ele>482.6</ele><time>2026-03-31T14:47:28.796Z</time></trkpt><trkpt lat="43.3969167" lon="11.6365133"><ele>480.40000000000003</ele><time>2026-03-31T14:47:30.796Z</time></trkpt><trkpt lat="43.3968533" lon="11.6364133"><ele>478.20000000000005</ele><time>2026-03-31T14:47:32.799Z</time></trkpt><trkpt lat="43.396835" lon="11.6362617"><ele>476.0</ele><time>2026-03-31T14:47:34.796Z</time></trkpt><trkpt lat="43.3967933" lon="11.6361483"><ele>474.8333333333333</ele><time>2026-03-31T14:47:36.797Z</time></trkpt><trkpt lat="43.3967067" lon="11.63603"><ele>473.66666666666663</ele><time>2026-03-31T14:47:38.797Z</time></trkpt><trkpt lat="43.3966417" lon="11.63594"><ele>472.5</ele><time>2026-03-31T14:47:40.796Z</time></trkpt><trkpt lat="43.396555" lon="11.6359167"><ele>471.33333333333337</ele><time>2026-03-31T14:47:42.796Z</time></trkpt><trkpt lat="43.3964917" lon="11.6359317"><ele>470.1666666666667</ele><time>2026-03-31T14:47:43.796Z</time></trkpt><trkpt lat="43.3964283" lon="11.6359517"><ele>469.0</ele><time>2026-03-31T14:47:44.797Z</time></trkpt><trkpt lat="43.39632" lon="11.63597"><ele>467.1666666666667</ele><time>2026-03-31T14:47:46.795Z</time></trkpt><trkpt lat="43.3962533" lon="11.635965"><ele>465.33333333333337</ele><time>2026-03-31T14:47:48.796Z</time></trkpt><trkpt lat="43.39625" lon="11.6358467"><ele>463.5</ele><time>2026-03-31T14:47:51.797Z</time></trkpt><trkpt lat="43.3962617" lon="11.6357233"><ele>461.66666666666663</ele><time>2026-03-31T14:47:53.797Z</time></trkpt><trkpt lat="43.39623" lon="11.6356383"><ele>459.8333333333333</ele><time>2026-03-31T14:47:55.796Z</time></trkpt><trkpt lat="43.396185" lon="11.635575"><ele>458.0</ele><time>2026-03-31T14:47:57.796Z</time></trkpt><trkpt lat="43.39614" lon="11.635495"><ele>458.0</ele><time>2026-03-31T14:48:00.796Z</time></trkpt><trkpt lat="43.39609" lon="11.6354417"><ele>458.0</ele><time>2026-03-31T14:48:02.797Z</time></trkpt><trkpt lat="43.396025" lon="11.6353567"><ele>458.0</ele><time>2026-03-31T14:48:05.796Z</time></trkpt><trkpt lat="43.3959867" lon="11.635285"><ele>458.0</ele><time>2026-03-31T14:48:08.797Z</time></trkpt><trkpt lat="43.3959533" lon="11.6352083"><ele>458.0</ele><time>2026-03-31T14:48:12.797Z</time></trkpt><trkpt lat="43.3958917" lon="11.6351617"><ele>458.0</ele><time>2026-03-31T14:48:45.796Z</time></trkpt><trkpt lat="43.3958017" lon="11.6351917"><ele>458.0</ele><time>2026-03-31T14:48:48.798Z</time></trkpt><trkpt lat="43.3957183" lon="11.6352717"><ele>458.0</ele><time>2026-03-31T14:48:50.797Z</time></trkpt><trkpt lat="43.3956383" lon="11.635375"><ele>457.99999999999994</ele><time>2026-03-31T14:48:52.798Z</time></trkpt><trkpt lat="43.3955567" lon="11.6354883"><ele>457.99999999999994</ele><time>2026-03-31T14:48:54.795Z</time></trkpt><trkpt lat="43.395465" lon="11.6355967"><ele>458.0</ele><time>2026-03-31T14:48:56.797Z</time></trkpt><trkpt lat="43.3954133" lon="11.6356583"><ele>458.0</ele><time>2026-03-31T14:48:57.796Z</time></trkpt><trkpt lat="43.3953583" lon="11.6357117"><ele>455.4</ele><time>2026-03-31T14:48:58.796Z</time></trkpt><trkpt lat="43.3952333" lon="11.6357683"><ele>452.79999999999995</ele><time>2026-03-31T14:49:00.796Z</time></trkpt><trkpt lat="43.3951633" lon="11.6357783"><ele>450.2</ele><time>2026-03-31T14:49:01.797Z</time></trkpt><trkpt lat="43.395095" lon="11.6357883"><ele>447.6</ele><time>2026-03-31T14:49:02.798Z</time></trkpt><trkpt lat="43.39497" lon="11.6357833"><ele>445.0</ele><time>2026-03-31T14:49:04.796Z</time></trkpt><trkpt lat="43.3948717" lon="11.6357433"><ele>445.00000000000006</ele><time>2026-03-31T14:49:06.796Z</time></trkpt><trkpt lat="43.39481" lon="11.6356617"><ele>445.0</ele><time>2026-03-31T14:49:08.797Z</time></trkpt><trkpt lat="43.3947517" lon="11.6355633"><ele>445.0</ele><time>2026-03-31T14:49:10.796Z</time></trkpt><trkpt lat="43.39472" lon="11.6354633"><ele>445.0</ele><time>2026-03-31T14:49:12.795Z</time></trkpt><trkpt lat="43.394675" lon="11.635365"><ele>445.00000000000006</ele><time>2026-03-31T14:49:14.796Z</time></trkpt><trkpt lat="43.3945933" lon="11.635315"><ele>445.0</ele><time>2026-03-31T14:49:16.796Z</time></trkpt><trkpt lat="43.3945167" lon="11.635315"><ele>443.2</ele><time>2026-03-31T14:49:18.797Z</time></trkpt><trkpt lat="43.3944283" lon="11.63538"><ele>441.4</ele><time>2026-03-31T14:49:20.797Z</time></trkpt><trkpt lat="43.39435" lon="11.63548"><ele>439.6</ele><time>2026-03-31T14:49:22.795Z</time></trkpt><trkpt lat="43.3942767" lon="11.6356483"><ele>437.8</ele><time>2026-03-31T14:49:24.794Z</time></trkpt><trkpt lat="43.39424" lon="11.635745"><ele>436.0</ele><time>2026-03-31T14:49:25.795Z</time></trkpt><trkpt lat="43.3942017" lon="11.6358317"><ele>436.00000000000006</ele><time>2026-03-31T14:49:26.796Z</time></trkpt><trkpt lat="43.3941517" lon="11.6359"><ele>436.0</ele><time>2026-03-31T14:49:27.797Z</time></trkpt><trkpt lat="43.39409" lon="11.6359383"><ele>436.0</ele><time>2026-03-31T14:49:28.797Z</time></trkpt><trkpt lat="43.394005" lon="11.63592"><ele>436.0</ele><time>2026-03-31T14:49:29.795Z</time></trkpt><trkpt lat="43.393915" lon="11.6358817"><ele>436.00000000000006</ele><time>2026-03-31T14:49:30.797Z</time></trkpt><trkpt lat="43.3938183" lon="11.6358483"><ele>436.0</ele><time>2026-03-31T14:49:31.796Z</time></trkpt><trkpt lat="43.3937133" lon="11.635825"><ele>434.83333333333337</ele><time>2026-03-31T14:49:32.796Z</time></trkpt><trkpt lat="43.393615" lon="11.6358067"><ele>433.6666666666667</ele><time>2026-03-31T14:49:33.797Z</time></trkpt><trkpt lat="43.3935233" lon="11.635785"><ele>432.5</ele><time>2026-03-31T14:49:34.795Z</time></trkpt><trkpt lat="43.3934417" lon="11.6357667"><ele>431.33333333333337</ele><time>2026-03-31T14:49:35.796Z</time></trkpt><trkpt lat="43.393375" lon="11.6357517"><ele>430.1666666666667</ele><time>2026-03-31T14:49:36.797Z</time></trkpt><trkpt lat="43.3933083" lon="11.6357367"><ele>429.0</ele><time>2026-03-31T14:49:37.796Z</time></trkpt><trkpt lat="43.3932383" lon="11.6357133"><ele>429.0</ele><time>2026-03-31T14:49:38.798Z</time></trkpt><trkpt lat="43.3931717" lon="11.6356733"><ele>429.0</ele><time>2026-03-31T14:49:39.797Z</time></trkpt><trkpt lat="43.3931067" lon="11.6356333"><ele>429.0</ele><time>2026-03-31T14:49:40.795Z</time></trkpt><trkpt lat="43.3930433" lon="11.6355917"><ele>429.0</ele><time>2026-03-31T14:49:41.796Z</time></trkpt><trkpt lat="43.3929417" lon="11.635505"><ele>429.0</ele><time>2026-03-31T14:49:43.796Z</time></trkpt><trkpt lat="43.3928367" lon="11.635385"><ele>427.4</ele><time>2026-03-31T14:49:45.797Z</time></trkpt><trkpt lat="43.39277" lon="11.6353083"><ele>425.79999999999995</ele><time>2026-03-31T14:49:46.797Z</time></trkpt><trkpt lat="43.3926917" lon="11.6352133"><ele>424.20000000000005</ele><time>2026-03-31T14:49:47.797Z</time></trkpt><trkpt lat="43.3926083" lon="11.63512"><ele>422.6</ele><time>2026-03-31T14:49:48.795Z</time></trkpt><trkpt lat="43.392525" lon="11.6350317"><ele>421.0</ele><time>2026-03-31T14:49:49.795Z</time></trkpt><trkpt lat="43.3924417" lon="11.63495"><ele>421.0</ele><time>2026-03-31T14:49:50.795Z</time></trkpt><trkpt lat="43.392355" lon="11.634875"><ele>421.0</ele><time>2026-03-31T14:49:51.796Z</time></trkpt><trkpt lat="43.3922767" lon="11.6348167"><ele>421.0</ele><time>2026-03-31T14:49:52.796Z</time></trkpt><trkpt lat="43.3921967" lon="11.6347833"><ele>421.0</ele><time>2026-03-31T14:49:53.796Z</time></trkpt><trkpt lat="43.39211" lon="11.6347583"><ele>421.0</ele><time>2026-03-31T14:49:54.796Z</time></trkpt><trkpt lat="43.39202" lon="11.6347283"><ele>420.33333333333337</ele><time>2026-03-31T14:49:55.796Z</time></trkpt><trkpt lat="43.3919383" lon="11.6346933"><ele>419.6666666666667</ele><time>2026-03-31T14:49:56.796Z</time></trkpt><trkpt lat="43.3918717" lon="11.6346583"><ele>419.0</ele><time>2026-03-31T14:49:57.797Z</time></trkpt><trkpt lat="43.39181" lon="11.6346183"><ele>418.33333333333337</ele><time>2026-03-31T14:49:58.795Z</time></trkpt><trkpt lat="43.3917383" lon="11.6345767"><ele>417.6666666666667</ele><time>2026-03-31T14:49:59.794Z</time></trkpt><trkpt lat="43.3916567" lon="11.6345317"><ele>417.0</ele><time>2026-03-31T14:50:00.796Z</time></trkpt><trkpt lat="43.391575" lon="11.634495"><ele>417.0</ele><time>2026-03-31T14:50:01.795Z</time></trkpt><trkpt lat="43.3914967" lon="11.634485"><ele>417.0</ele><time>2026-03-31T14:50:02.797Z</time></trkpt><trkpt lat="43.3914117" lon="11.6345067"><ele>417.0</ele><time>2026-03-31T14:50:03.796Z</time></trkpt><trkpt lat="43.39132" lon="11.6345517"><ele>417.0</ele><time>2026-03-31T14:50:04.795Z</time></trkpt><trkpt lat="43.3912233" lon="11.63459"><ele>417.0</ele><time>2026-03-31T14:50:05.795Z</time></trkpt><trkpt lat="43.3911167" lon="11.6346133"><ele>416.8</ele><time>2026-03-31T14:50:06.796Z</time></trkpt><trkpt lat="43.3910167" lon="11.6346267"><ele>416.6</ele><time>2026-03-31T14:50:07.796Z</time></trkpt><trkpt lat="43.3909183" lon="11.634645"><ele>416.40000000000003</ele><time>2026-03-31T14:50:08.797Z</time></trkpt><trkpt lat="43.3908233" lon="11.6346733"><ele>416.20000000000005</ele><time>2026-03-31T14:50:09.796Z</time></trkpt><trkpt lat="43.3907317" lon="11.6347133"><ele>416.0</ele><time>2026-03-31T14:50:10.796Z</time></trkpt><trkpt lat="43.390645" lon="11.6347633"><ele>416.0</ele><time>2026-03-31T14:50:11.796Z</time></trkpt><trkpt lat="43.3905533" lon="11.634805"><ele>416.0</ele><time>2026-03-31T14:50:12.796Z</time></trkpt><trkpt lat="43.390465" lon="11.6348467"><ele>416.0</ele><time>2026-03-31T14:50:13.796Z</time></trkpt><trkpt lat="43.3903767" lon="11.6348883"><ele>416.0</ele><time>2026-03-31T14:50:14.797Z</time></trkpt><trkpt lat="43.3902833" lon="11.6349283"><ele>416.0</ele><time>2026-03-31T14:50:15.797Z</time></trkpt><trkpt lat="43.390195" lon="11.6349733"><ele>415.8333333333333</ele><time>2026-03-31T14:50:16.796Z</time></trkpt><trkpt lat="43.3901167" lon="11.63502"><ele>415.66666666666663</ele><time>2026-03-31T14:50:17.796Z</time></trkpt><trkpt lat="43.390045" lon="11.635065"><ele>415.5</ele><time>2026-03-31T14:50:18.791Z</time></trkpt><trkpt lat="43.3899833" lon="11.6351017"><ele>415.33333333333337</ele><time>2026-03-31T14:50:19.795Z</time></trkpt><trkpt lat="43.3899033" lon="11.6350783"><ele>415.1666666666667</ele><time>2026-03-31T14:50:21.794Z</time></trkpt><trkpt lat="43.3898767" lon="11.6349983"><ele>415.0</ele><time>2026-03-31T14:50:22.797Z</time></trkpt><trkpt lat="43.38986" lon="11.6348683"><ele>415.0</ele><time>2026-03-31T14:50:23.796Z</time></trkpt><trkpt lat="43.3898517" lon="11.634725"><ele>415.0</ele><time>2026-03-31T14:50:24.795Z</time></trkpt><trkpt lat="43.38985" lon="11.63457"><ele>415.0</ele><time>2026-03-31T14:50:25.795Z</time></trkpt><trkpt lat="43.3898417" lon="11.6344267"><ele>415.0</ele><time>2026-03-31T14:50:26.796Z</time></trkpt><trkpt lat="43.38983" lon="11.6342967"><ele>415.0</ele><time>2026-03-31T14:50:27.795Z</time></trkpt><trkpt lat="43.389825" lon="11.63418"><ele>415.2</ele><time>2026-03-31T14:50:28.796Z</time></trkpt><trkpt lat="43.3898217" lon="11.6340633"><ele>415.4</ele><time>2026-03-31T14:50:29.796Z</time></trkpt><trkpt lat="43.3898133" lon="11.6339367"><ele>415.6</ele><time>2026-03-31T14:50:30.796Z</time></trkpt><trkpt lat="43.3897967" lon="11.6337983"><ele>415.8</ele><time>2026-03-31T14:50:31.796Z</time></trkpt><trkpt lat="43.38978" lon="11.63365"><ele>416.0</ele><time>2026-03-31T14:50:32.797Z</time></trkpt><trkpt lat="43.3897567" lon="11.6335"><ele>416.0</ele><time>2026-03-31T14:50:33.796Z</time></trkpt><trkpt lat="43.3897367" lon="11.6333583"><ele>416.0</ele><time>2026-03-31T14:50:34.797Z</time></trkpt><trkpt lat="43.3897333" lon="11.633225"><ele>416.0</ele><time>2026-03-31T14:50:35.796Z</time></trkpt><trkpt lat="43.3897483" lon="11.633115"><ele>416.0</ele><time>2026-03-31T14:50:36.795Z</time></trkpt><trkpt lat="43.3897833" lon="11.633005"><ele>416.0</ele><time>2026-03-31T14:50:37.791Z</time></trkpt><trkpt lat="43.3898433" lon="11.6328967"><ele>415.20000000000005</ele><time>2026-03-31T14:50:38.798Z</time></trkpt><trkpt lat="43.389905" lon="11.6327767"><ele>414.40000000000003</ele><time>2026-03-31T14:50:39.795Z</time></trkpt><trkpt lat="43.3899667" lon="11.6326433"><ele>413.6</ele><time>2026-03-31T14:50:40.796Z</time></trkpt><trkpt lat="43.3900217" lon="11.6325017"><ele>412.8</ele><time>2026-03-31T14:50:41.796Z</time></trkpt><trkpt lat="43.3900683" lon="11.6323733"><ele>412.0</ele><time>2026-03-31T14:50:42.796Z</time></trkpt><trkpt lat="43.390095" lon="11.6322683"><ele>412.00000000000006</ele><time>2026-03-31T14:50:43.795Z</time></trkpt><trkpt lat="43.3901067" lon="11.6321233"><ele>412.0</ele><time>2026-03-31T14:50:45.796Z</time></trkpt><trkpt lat="43.3900717" lon="11.63203"><ele>412.0</ele><time>2026-03-31T14:50:47.797Z</time></trkpt><trkpt lat="43.3900383" lon="11.63193"><ele>412.0</ele><time>2026-03-31T14:50:49.789Z</time></trkpt><trkpt lat="43.38999" lon="11.6317983"><ele>412.00000000000006</ele><time>2026-03-31T14:50:51.796Z</time></trkpt><trkpt lat="43.3899517" lon="11.6317117"><ele>412.0</ele><time>2026-03-31T14:50:53.796Z</time></trkpt><trkpt lat="43.3900333" lon="11.6316367"><ele>411.6666666666667</ele><time>2026-03-31T14:50:56.798Z</time></trkpt><trkpt lat="43.3901417" lon="11.63164"><ele>411.33333333333337</ele><time>2026-03-31T14:50:58.796Z</time></trkpt><trkpt lat="43.3902217" lon="11.63167"><ele>411.0</ele><time>2026-03-31T14:50:59.796Z</time></trkpt><trkpt lat="43.3902983" lon="11.6317167"><ele>410.66666666666663</ele><time>2026-03-31T14:51:00.796Z</time></trkpt><trkpt lat="43.39037" lon="11.631765"><ele>410.3333333333333</ele><time>2026-03-31T14:51:01.795Z</time></trkpt><trkpt lat="43.3904467" lon="11.6317967"><ele>410.0</ele><time>2026-03-31T14:51:02.797Z</time></trkpt><trkpt lat="43.3905317" lon="11.6318233"><ele>410.3333333333333</ele><time>2026-03-31T14:51:03.796Z</time></trkpt><trkpt lat="43.390615" lon="11.631835"><ele>410.66666666666663</ele><time>2026-03-31T14:51:04.796Z</time></trkpt><trkpt lat="43.3906983" lon="11.6318517"><ele>411.0</ele><time>2026-03-31T14:51:05.797Z</time></trkpt><trkpt lat="43.39077" lon="11.6318783"><ele>411.33333333333337</ele><time>2026-03-31T14:51:06.799Z</time></trkpt><trkpt lat="43.3908733" lon="11.631925"><ele>411.6666666666667</ele><time>2026-03-31T14:51:08.799Z</time></trkpt><trkpt lat="43.3909533" lon="11.6319317"><ele>412.0</ele><time>2026-03-31T14:51:10.797Z</time></trkpt><trkpt lat="43.3910317" lon="11.6319783"><ele>412.0</ele><time>2026-03-31T14:51:12.797Z</time></trkpt><trkpt lat="43.3911083" lon="11.6320833"><ele>412.0</ele><time>2026-03-31T14:51:14.798Z</time></trkpt><trkpt lat="43.3912267" lon="11.6321483"><ele>412.0</ele><time>2026-03-31T14:51:16.796Z</time></trkpt><trkpt lat="43.3913" lon="11.6321583"><ele>412.0</ele><time>2026-03-31T14:51:17.795Z</time></trkpt><trkpt lat="43.3913717" lon="11.632155"><ele>412.0</ele><time>2026-03-31T14:51:18.796Z</time></trkpt><trkpt lat="43.3914417" lon="11.632135"><ele>410.50000000000006</ele><time>2026-03-31T14:51:19.796Z</time></trkpt><trkpt lat="43.3915133" lon="11.63212"><ele>409.0</ele><time>2026-03-31T14:51:20.796Z</time></trkpt><trkpt lat="43.39158" lon="11.6321267"><ele>407.5</ele><time>2026-03-31T14:51:21.798Z</time></trkpt><trkpt lat="43.3916483" lon="11.63213"><ele>406.0</ele><time>2026-03-31T14:51:22.797Z</time></trkpt><trkpt lat="43.3917233" lon="11.6321167"><ele>404.50000000000006</ele><time>2026-03-31T14:51:23.797Z</time></trkpt><trkpt lat="43.39179" lon="11.6320883"><ele>403.0</ele><time>2026-03-31T14:51:24.796Z</time></trkpt><trkpt lat="43.3918733" lon="11.6320067"><ele>399.4</ele><time>2026-03-31T14:51:26.797Z</time></trkpt><trkpt lat="43.39196" lon="11.6319483"><ele>395.79999999999995</ele><time>2026-03-31T14:51:28.796Z</time></trkpt><trkpt lat="43.3920417" lon="11.6319367"><ele>392.2</ele><time>2026-03-31T14:51:30.796Z</time></trkpt><trkpt lat="43.39214" lon="11.6319333"><ele>388.6</ele><time>2026-03-31T14:51:32.796Z</time></trkpt><trkpt lat="43.3922383" lon="11.631915"><ele>385.0</ele><time>2026-03-31T14:51:34.796Z</time></trkpt><trkpt lat="43.3923417" lon="11.631885"><ele>383.0</ele><time>2026-03-31T14:51:36.796Z</time></trkpt><trkpt lat="43.3924333" lon="11.6318583"><ele>381.0</ele><time>2026-03-31T14:51:38.797Z</time></trkpt><trkpt lat="43.3924883" lon="11.6317583"><ele>379.0</ele><time>2026-03-31T14:51:41.795Z</time></trkpt><trkpt lat="43.3924433" lon="11.631625"><ele>377.0</ele><time>2026-03-31T14:51:43.798Z</time></trkpt><trkpt lat="43.392365" lon="11.631515"><ele>375.0</ele><time>2026-03-31T14:51:45.796Z</time></trkpt><trkpt lat="43.3923233" lon="11.63143"><ele>375.0</ele><time>2026-03-31T14:51:47.796Z</time></trkpt><trkpt lat="43.3923617" lon="11.6313517"><ele>375.0</ele><time>2026-03-31T14:51:49.798Z</time></trkpt><trkpt lat="43.3924217" lon="11.63129"><ele>375.0</ele><time>2026-03-31T14:51:51.797Z</time></trkpt><trkpt lat="43.3924433" lon="11.63116"><ele>375.0</ele><time>2026-03-31T14:51:53.797Z</time></trkpt><trkpt lat="43.3924633" lon="11.63101"><ele>375.0</ele><time>2026-03-31T14:51:55.797Z</time></trkpt><trkpt lat="43.3925133" lon="11.6308583"><ele>372.4</ele><time>2026-03-31T14:51:57.796Z</time></trkpt><trkpt lat="43.39256" lon="11.6307"><ele>369.8</ele><time>2026-03-31T14:51:59.798Z</time></trkpt><trkpt lat="43.3925933" lon="11.63059"><ele>367.20000000000005</ele><time>2026-03-31T14:52:01.795Z</time></trkpt><trkpt lat="43.3926267" lon="11.630485"><ele>364.6</ele><time>2026-03-31T14:52:03.797Z</time></trkpt><trkpt lat="43.3926683" lon="11.6303583"><ele>362.0</ele><time>2026-03-31T14:52:05.796Z</time></trkpt><trkpt lat="43.3927017" lon="11.63027"><ele>359.20000000000005</ele><time>2026-03-31T14:52:06.796Z</time></trkpt><trkpt lat="43.3927417" lon="11.6301783"><ele>356.4</ele><time>2026-03-31T14:52:07.795Z</time></trkpt><trkpt lat="43.3927783" lon="11.6300983"><ele>353.6</ele><time>2026-03-31T14:52:08.796Z</time></trkpt><trkpt lat="43.3928383" lon="11.629965"><ele>350.79999999999995</ele><time>2026-03-31T14:52:10.796Z</time></trkpt><trkpt lat="43.392865" lon="11.62982"><ele>348.0</ele><time>2026-03-31T14:52:12.794Z</time></trkpt><trkpt lat="43.3928883" lon="11.6296783"><ele>348.0</ele><time>2026-03-31T14:52:14.796Z</time></trkpt><trkpt lat="43.3929067" lon="11.6295483"><ele>348.0</ele><time>2026-03-31T14:52:16.795Z</time></trkpt><trkpt lat="43.3928883" lon="11.629445"><ele>348.0</ele><time>2026-03-31T14:52:18.797Z</time></trkpt><trkpt lat="43.39284" lon="11.6293317"><ele>348.0</ele><time>2026-03-31T14:52:20.798Z</time></trkpt><trkpt lat="43.3927783" lon="11.6292367"><ele>348.0</ele><time>2026-03-31T14:52:22.796Z</time></trkpt><trkpt lat="43.3927117" lon="11.6292133"><ele>348.0</ele><time>2026-03-31T14:52:24.798Z</time></trkpt><trkpt lat="43.39264" lon="11.62926"><ele>346.0</ele><time>2026-03-31T14:52:26.8Z</time></trkpt><trkpt lat="43.3925883" lon="11.62931"><ele>344.0</ele><time>2026-03-31T14:52:27.796Z</time></trkpt><trkpt lat="43.3925" lon="11.6294017"><ele>342.0</ele><time>2026-03-31T14:52:29.796Z</time></trkpt><trkpt lat="43.3924433" lon="11.6294417"><ele>340.0</ele><time>2026-03-31T14:52:31.797Z</time></trkpt><trkpt lat="43.3923983" lon="11.6293583"><ele>338.0</ele><time>2026-03-31T14:52:34.795Z</time></trkpt><trkpt lat="43.3924333" lon="11.62922"><ele>336.0</ele><time>2026-03-31T14:52:36.795Z</time></trkpt><trkpt lat="43.3924583" lon="11.62912"><ele>336.0</ele><time>2026-03-31T14:52:37.796Z</time></trkpt><trkpt lat="43.3924817" lon="11.6290233"><ele>336.0</ele><time>2026-03-31T14:52:38.796Z</time></trkpt><trkpt lat="43.392515" lon="11.6289233"><ele>336.0</ele><time>2026-03-31T14:52:39.796Z</time></trkpt><trkpt lat="43.3925467" lon="11.6288333"><ele>336.0</ele><time>2026-03-31T14:52:40.795Z</time></trkpt><trkpt lat="43.3926067" lon="11.628695"><ele>336.0</ele><time>2026-03-31T14:52:42.795Z</time></trkpt><trkpt lat="43.3926467" lon="11.62855"><ele>333.8333333333333</ele><time>2026-03-31T14:52:44.796Z</time></trkpt><trkpt lat="43.392655" lon="11.6283783"><ele>331.6666666666667</ele><time>2026-03-31T14:52:46.795Z</time></trkpt><trkpt lat="43.39263" lon="11.6282217"><ele>329.5</ele><time>2026-03-31T14:52:48.796Z</time></trkpt><trkpt lat="43.3925983" lon="11.6281467"><ele>327.33333333333337</ele><time>2026-03-31T14:52:49.796Z</time></trkpt><trkpt lat="43.392555" lon="11.6280667"><ele>325.1666666666667</ele><time>2026-03-31T14:52:50.797Z</time></trkpt><trkpt lat="43.3925167" lon="11.6279883"><ele>323.0</ele><time>2026-03-31T14:52:51.797Z</time></trkpt><trkpt lat="43.3924833" lon="11.627905"><ele>323.00000000000006</ele><time>2026-03-31T14:52:52.797Z</time></trkpt><trkpt lat="43.3924583" lon="11.6278167"><ele>323.0</ele><time>2026-03-31T14:52:53.797Z</time></trkpt><trkpt lat="43.39244" lon="11.6277283"><ele>323.0</ele><time>2026-03-31T14:52:54.796Z</time></trkpt><trkpt lat="43.39243" lon="11.627635"><ele>323.0</ele><time>2026-03-31T14:52:55.796Z</time></trkpt><trkpt lat="43.39242" lon="11.62754"><ele>323.0</ele><time>2026-03-31T14:52:56.797Z</time></trkpt><trkpt lat="43.39241" lon="11.6274483"><ele>323.00000000000006</ele><time>2026-03-31T14:52:57.797Z</time></trkpt><trkpt lat="43.3923967" lon="11.627355"><ele>323.0</ele><time>2026-03-31T14:52:58.796Z</time></trkpt><trkpt lat="43.3923883" lon="11.6272633"><ele>321.5</ele><time>2026-03-31T14:52:59.795Z</time></trkpt><trkpt lat="43.39239" lon="11.6271067"><ele>320.0</ele><time>2026-03-31T14:53:01.795Z</time></trkpt><trkpt lat="43.3924083" lon="11.6269767"><ele>318.5</ele><time>2026-03-31T14:53:03.797Z</time></trkpt><trkpt lat="43.3924" lon="11.6268533"><ele>317.0</ele><time>2026-03-31T14:53:05.795Z</time></trkpt><trkpt lat="43.3923917" lon="11.6267583"><ele>315.5</ele><time>2026-03-31T14:53:06.796Z</time></trkpt><trkpt lat="43.3923733" lon="11.6266717"><ele>314.0</ele><time>2026-03-31T14:53:07.797Z</time></trkpt><trkpt lat="43.39234" lon="11.6265717"><ele>313.6666666666667</ele><time>2026-03-31T14:53:08.796Z</time></trkpt><trkpt lat="43.3923033" lon="11.626475"><ele>313.33333333333337</ele><time>2026-03-31T14:53:09.796Z</time></trkpt><trkpt lat="43.3922583" lon="11.6263717"><ele>313.0</ele><time>2026-03-31T14:53:10.797Z</time></trkpt><trkpt lat="43.3922167" lon="11.6262817"><ele>312.6666666666667</ele><time>2026-03-31T14:53:11.795Z</time></trkpt><trkpt lat="43.3921883" lon="11.6262017"><ele>312.3333333333333</ele><time>2026-03-31T14:53:12.796Z</time></trkpt><trkpt lat="43.3921283" lon="11.626075"><ele>312.0</ele><time>2026-03-31T14:53:14.797Z</time></trkpt><trkpt lat="43.3920417" lon="11.6259883"><ele>311.0</ele><time>2026-03-31T14:53:16.795Z</time></trkpt><trkpt lat="43.3919517" lon="11.6259117"><ele>310.0</ele><time>2026-03-31T14:53:18.794Z</time></trkpt><trkpt lat="43.391895" lon="11.6258517"><ele>309.0</ele><time>2026-03-31T14:53:19.796Z</time></trkpt><trkpt lat="43.3918317" lon="11.6257867"><ele>308.0</ele><time>2026-03-31T14:53:20.795Z</time></trkpt><trkpt lat="43.3917683" lon="11.6257183"><ele>307.0</ele><time>2026-03-31T14:53:21.797Z</time></trkpt><trkpt lat="43.391715" lon="11.6256383"><ele>306.0</ele><time>2026-03-31T14:53:22.795Z</time></trkpt><trkpt lat="43.391675" lon="11.6255333"><ele>306.0</ele><time>2026-03-31T14:53:23.796Z</time></trkpt><trkpt lat="43.39165" lon="11.6254133"><ele>306.0</ele><time>2026-03-31T14:53:24.795Z</time></trkpt><trkpt lat="43.3916267" lon="11.625305"><ele>306.0</ele><time>2026-03-31T14:53:25.796Z</time></trkpt><trkpt lat="43.3915983" lon="11.625195"><ele>306.0</ele><time>2026-03-31T14:53:26.796Z</time></trkpt><trkpt lat="43.3915533" lon="11.62508"><ele>306.0</ele><time>2026-03-31T14:53:27.796Z</time></trkpt><trkpt lat="43.391505" lon="11.62496"><ele>305.6</ele><time>2026-03-31T14:53:28.795Z</time></trkpt><trkpt lat="43.3914667" lon="11.624825"><ele>305.20000000000005</ele><time>2026-03-31T14:53:29.796Z</time></trkpt><trkpt lat="43.3914367" lon="11.6246767"><ele>304.79999999999995</ele><time>2026-03-31T14:53:30.798Z</time></trkpt><trkpt lat="43.391415" lon="11.6245383"><ele>304.4</ele><time>2026-03-31T14:53:31.794Z</time></trkpt><trkpt lat="43.3913917" lon="11.6244167"><ele>304.0</ele><time>2026-03-31T14:53:32.797Z</time></trkpt><trkpt lat="43.3913633" lon="11.6243167"><ele>302.8333333333333</ele><time>2026-03-31T14:53:33.794Z</time></trkpt><trkpt lat="43.3913117" lon="11.6242267"><ele>301.66666666666663</ele><time>2026-03-31T14:53:34.795Z</time></trkpt><trkpt lat="43.3912567" lon="11.6241367"><ele>300.5</ele><time>2026-03-31T14:53:35.798Z</time></trkpt><trkpt lat="43.39121" lon="11.624035"><ele>299.3333333333333</ele><time>2026-03-31T14:53:36.795Z</time></trkpt><trkpt lat="43.39119" lon="11.6239183"><ele>298.1666666666667</ele><time>2026-03-31T14:53:37.796Z</time></trkpt><trkpt lat="43.3911783" lon="11.6238067"><ele>297.0</ele><time>2026-03-31T14:53:38.796Z</time></trkpt><trkpt lat="43.391165" lon="11.62371"><ele>296.7142857142857</ele><time>2026-03-31T14:53:39.796Z</time></trkpt><trkpt lat="43.3911417" lon="11.6236283"><ele>296.42857142857144</ele><time>2026-03-31T14:53:40.796Z</time></trkpt><trkpt lat="43.3911033" lon="11.62355"><ele>296.14285714285717</ele><time>2026-03-31T14:53:41.795Z</time></trkpt><trkpt lat="43.391045" lon="11.6234867"><ele>295.8571428571429</ele><time>2026-03-31T14:53:42.796Z</time></trkpt><trkpt lat="43.3909817" lon="11.623435"><ele>295.57142857142856</ele><time>2026-03-31T14:53:43.797Z</time></trkpt><trkpt lat="43.39092" lon="11.62337"><ele>295.28571428571433</ele><time>2026-03-31T14:53:44.797Z</time></trkpt><trkpt lat="43.3908667" lon="11.6232733"><ele>295.0</ele><time>2026-03-31T14:53:45.796Z</time></trkpt><trkpt lat="43.3908217" lon="11.6231783"><ele>295.0</ele><time>2026-03-31T14:53:46.794Z</time></trkpt><trkpt lat="43.3907933" lon="11.6230817"><ele>295.0</ele><time>2026-03-31T14:53:47.796Z</time></trkpt><trkpt lat="43.3907833" lon="11.6229833"><ele>295.0</ele><time>2026-03-31T14:53:48.797Z</time></trkpt><trkpt lat="43.3907917" lon="11.6228633"><ele>295.0</ele><time>2026-03-31T14:53:49.796Z</time></trkpt><trkpt lat="43.390815" lon="11.6227383"><ele>295.0</ele><time>2026-03-31T14:53:50.797Z</time></trkpt><trkpt lat="43.3908367" lon="11.62263"><ele>295.0</ele><time>2026-03-31T14:53:51.797Z</time></trkpt><trkpt lat="43.3908567" lon="11.6225383"><ele>294.8333333333333</ele><time>2026-03-31T14:53:52.794Z</time></trkpt><trkpt lat="43.3908667" lon="11.6224367"><ele>294.66666666666663</ele><time>2026-03-31T14:53:54.798Z</time></trkpt><trkpt lat="43.3908467" lon="11.622345"><ele>294.5</ele><time>2026-03-31T14:53:56.797Z</time></trkpt><trkpt lat="43.39081" lon="11.6222717"><ele>294.3333333333333</ele><time>2026-03-31T14:53:57.795Z</time></trkpt><trkpt lat="43.390765" lon="11.62218"><ele>294.1666666666667</ele><time>2026-03-31T14:53:58.796Z</time></trkpt><trkpt lat="43.39072" lon="11.6220667"><ele>294.0</ele><time>2026-03-31T14:53:59.796Z</time></trkpt><trkpt lat="43.39068" lon="11.621955"><ele>293.8333333333333</ele><time>2026-03-31T14:54:00.796Z</time></trkpt><trkpt lat="43.39064" lon="11.621845"><ele>293.6666666666667</ele><time>2026-03-31T14:54:01.796Z</time></trkpt><trkpt lat="43.3906067" lon="11.6217283"><ele>293.5</ele><time>2026-03-31T14:54:02.797Z</time></trkpt><trkpt lat="43.3905733" lon="11.621615"><ele>293.33333333333337</ele><time>2026-03-31T14:54:03.797Z</time></trkpt><trkpt lat="43.3905433" lon="11.621505"><ele>293.1666666666667</ele><time>2026-03-31T14:54:04.796Z</time></trkpt><trkpt lat="43.3905233" lon="11.621405"><ele>293.0</ele><time>2026-03-31T14:54:05.796Z</time></trkpt><trkpt lat="43.3905083" lon="11.6213133"><ele>292.4</ele><time>2026-03-31T14:54:06.796Z</time></trkpt><trkpt lat="43.39049" lon="11.62121"><ele>291.8</ele><time>2026-03-31T14:54:07.797Z</time></trkpt><trkpt lat="43.3904633" lon="11.62109"><ele>291.2</ele><time>2026-03-31T14:54:08.797Z</time></trkpt><trkpt lat="43.3904333" lon="11.6209617"><ele>290.6</ele><time>2026-03-31T14:54:09.796Z</time></trkpt><trkpt lat="43.3904083" lon="11.6208333"><ele>290.0</ele><time>2026-03-31T14:54:10.796Z</time></trkpt><trkpt lat="43.3903933" lon="11.620705"><ele>289.6666666666667</ele><time>2026-03-31T14:54:11.796Z</time></trkpt><trkpt lat="43.390385" lon="11.6205833"><ele>289.33333333333337</ele><time>2026-03-31T14:54:12.796Z</time></trkpt><trkpt lat="43.3903833" lon="11.620485"><ele>289.0</ele><time>2026-03-31T14:54:13.796Z</time></trkpt><trkpt lat="43.3903983" lon="11.6203817"><ele>288.6666666666667</ele><time>2026-03-31T14:54:14.796Z</time></trkpt><trkpt lat="43.39044" lon="11.62027"><ele>288.3333333333333</ele><time>2026-03-31T14:54:15.796Z</time></trkpt><trkpt lat="43.39048" lon="11.6201617"><ele>288.0</ele><time>2026-03-31T14:54:16.795Z</time></trkpt><trkpt lat="43.3905083" lon="11.6200517"><ele>287.4</ele><time>2026-03-31T14:54:17.795Z</time></trkpt><trkpt lat="43.3905283" lon="11.6199167"><ele>286.8</ele><time>2026-03-31T14:54:18.795Z</time></trkpt><trkpt lat="43.3905483" lon="11.6197683"><ele>286.2</ele><time>2026-03-31T14:54:19.796Z</time></trkpt><trkpt lat="43.39057" lon="11.6196367"><ele>285.6</ele><time>2026-03-31T14:54:20.797Z</time></trkpt><trkpt lat="43.39059" lon="11.6195233"><ele>285.0</ele><time>2026-03-31T14:54:21.796Z</time></trkpt><trkpt lat="43.39061" lon="11.61941"><ele>285.0</ele><time>2026-03-31T14:54:22.795Z</time></trkpt><trkpt lat="43.39062" lon="11.6193067"><ele>285.0</ele><time>2026-03-31T14:54:23.795Z</time></trkpt><trkpt lat="43.39063" lon="11.619195"><ele>285.0</ele><time>2026-03-31T14:54:24.796Z</time></trkpt><trkpt lat="43.3906433" lon="11.6190883"><ele>285.0</ele><time>2026-03-31T14:54:25.795Z</time></trkpt><trkpt lat="43.3906683" lon="11.6189683"><ele>285.0</ele><time>2026-03-31T14:54:26.797Z</time></trkpt><trkpt lat="43.3906983" lon="11.6188217"><ele>285.0</ele><time>2026-03-31T14:54:27.796Z</time></trkpt><trkpt lat="43.3907183" lon="11.61869"><ele>284.1666666666667</ele><time>2026-03-31T14:54:28.796Z</time></trkpt><trkpt lat="43.3907233" lon="11.6185783"><ele>283.3333333333333</ele><time>2026-03-31T14:54:29.796Z</time></trkpt><trkpt lat="43.390715" lon="11.6184817"><ele>282.5</ele><time>2026-03-31T14:54:30.796Z</time></trkpt><trkpt lat="43.390705" lon="11.618395"><ele>281.66666666666663</ele><time>2026-03-31T14:54:31.797Z</time></trkpt><trkpt lat="43.390745" lon="11.6182517"><ele>280.8333333333333</ele><time>2026-03-31T14:54:33.797Z</time></trkpt><trkpt lat="43.390825" lon="11.6181417"><ele>280.0</ele><time>2026-03-31T14:54:35.797Z</time></trkpt><trkpt lat="43.3908483" lon="11.6179733"><ele>280.0</ele><time>2026-03-31T14:54:37.797Z</time></trkpt><trkpt lat="43.390855" lon="11.617865"><ele>280.0</ele><time>2026-03-31T14:54:38.796Z</time></trkpt><trkpt lat="43.3908767" lon="11.617735"><ele>280.0</ele><time>2026-03-31T14:54:39.797Z</time></trkpt><trkpt lat="43.3909083" lon="11.617595"><ele>280.0</ele><time>2026-03-31T14:54:40.797Z</time></trkpt><trkpt lat="43.39094" lon="11.6174517"><ele>280.0</ele><time>2026-03-31T14:54:41.797Z</time></trkpt><trkpt lat="43.39097" lon="11.6173067"><ele>279.5</ele><time>2026-03-31T14:54:42.796Z</time></trkpt><trkpt lat="43.3910033" lon="11.617155"><ele>279.0</ele><time>2026-03-31T14:54:43.797Z</time></trkpt><trkpt lat="43.3910383" lon="11.6169983"><ele>278.5</ele><time>2026-03-31T14:54:44.797Z</time></trkpt><trkpt lat="43.3910733" lon="11.616845"><ele>278.0</ele><time>2026-03-31T14:54:45.797Z</time></trkpt><trkpt lat="43.3910967" lon="11.6167033"><ele>277.33333333333337</ele><time>2026-03-31T14:54:46.796Z</time></trkpt><trkpt lat="43.3911167" lon="11.61658"><ele>276.6666666666667</ele><time>2026-03-31T14:54:47.797Z</time></trkpt><trkpt lat="43.39113" lon="11.616475"><ele>276.0</ele><time>2026-03-31T14:54:48.797Z</time></trkpt><trkpt lat="43.3911233" lon="11.6163367"><ele>275.3333333333333</ele><time>2026-03-31T14:54:50.797Z</time></trkpt><trkpt lat="43.3910667" lon="11.6162517"><ele>274.66666666666663</ele><time>2026-03-31T14:54:53.795Z</time></trkpt><trkpt lat="43.3910167" lon="11.6161533"><ele>274.0</ele><time>2026-03-31T14:54:55.796Z</time></trkpt><trkpt lat="43.391" lon="11.616005"><ele>273.5</ele><time>2026-03-31T14:54:57.797Z</time></trkpt><trkpt lat="43.3910083" lon="11.61584"><ele>273.0</ele><time>2026-03-31T14:54:59.797Z</time></trkpt><trkpt lat="43.39103" lon="11.6157533"><ele>272.5</ele><time>2026-03-31T14:55:00.799Z</time></trkpt><trkpt lat="43.39106" lon="11.61566"><ele>272.0</ele><time>2026-03-31T14:55:01.796Z</time></trkpt><trkpt lat="43.3910983" lon="11.6155533"><ele>271.5</ele><time>2026-03-31T14:55:02.798Z</time></trkpt><trkpt lat="43.39114" lon="11.6154533"><ele>271.0</ele><time>2026-03-31T14:55:03.796Z</time></trkpt><trkpt lat="43.391185" lon="11.6153583"><ele>271.0</ele><time>2026-03-31T14:55:04.795Z</time></trkpt><trkpt lat="43.3912283" lon="11.61527"><ele>271.0</ele><time>2026-03-31T14:55:05.796Z</time></trkpt><trkpt lat="43.391275" lon="11.615185"><ele>271.0</ele><time>2026-03-31T14:55:06.797Z</time></trkpt><trkpt lat="43.3913267" lon="11.61511"><ele>271.0</ele><time>2026-03-31T14:55:07.796Z</time></trkpt><trkpt lat="43.3913867" lon="11.6150383"><ele>271.0</ele><time>2026-03-31T14:55:08.798Z</time></trkpt><trkpt lat="43.3914633" lon="11.614965"><ele>271.0</ele><time>2026-03-31T14:55:09.795Z</time></trkpt><trkpt lat="43.3915533" lon="11.6148783"><ele>271.0</ele><time>2026-03-31T14:55:10.795Z</time></trkpt><trkpt lat="43.3916417" lon="11.61476"><ele>271.0</ele><time>2026-03-31T14:55:11.795Z</time></trkpt><trkpt lat="43.39173" lon="11.6146067"><ele>271.0</ele><time>2026-03-31T14:55:12.796Z</time></trkpt><trkpt lat="43.3918033" lon="11.614425"><ele>271.0</ele><time>2026-03-31T14:55:13.796Z</time></trkpt><trkpt lat="43.3918783" lon="11.6142283"><ele>270.0</ele><time>2026-03-31T14:55:14.796Z</time></trkpt><trkpt lat="43.3919583" lon="11.6140183"><ele>269.0</ele><time>2026-03-31T14:55:15.795Z</time></trkpt><trkpt lat="43.3920467" lon="11.6137967"><ele>268.0</ele><time>2026-03-31T14:55:16.796Z</time></trkpt><trkpt lat="43.3921317" lon="11.6135717"><ele>268.66666666666663</ele><time>2026-03-31T14:55:17.794Z</time></trkpt><trkpt lat="43.3922117" lon="11.6133583"><ele>269.3333333333333</ele><time>2026-03-31T14:55:18.796Z</time></trkpt><trkpt lat="43.39228" lon="11.613165"><ele>270.0</ele><time>2026-03-31T14:55:19.796Z</time></trkpt><trkpt lat="43.3923367" lon="11.613"><ele>270.0</ele><time>2026-03-31T14:55:20.797Z</time></trkpt><trkpt lat="43.3923933" lon="11.612835"><ele>270.0</ele><time>2026-03-31T14:55:21.797Z</time></trkpt><trkpt lat="43.3924467" lon="11.61268"><ele>270.0</ele><time>2026-03-31T14:55:22.795Z</time></trkpt><trkpt lat="43.3924933" lon="11.61254"><ele>270.0</ele><time>2026-03-31T14:55:23.795Z</time></trkpt><trkpt lat="43.392545" lon="11.6124"><ele>269.0</ele><time>2026-03-31T14:55:24.796Z</time></trkpt><trkpt lat="43.3925983" lon="11.612255"><ele>268.0</ele><time>2026-03-31T14:55:25.795Z</time></trkpt><trkpt lat="43.39265" lon="11.6121083"><ele>267.0</ele><time>2026-03-31T14:55:26.796Z</time></trkpt><trkpt lat="43.3926933" lon="11.611975"><ele>266.0</ele><time>2026-03-31T14:55:27.796Z</time></trkpt><trkpt lat="43.3927317" lon="11.611855"><ele>265.0</ele><time>2026-03-31T14:55:28.796Z</time></trkpt><trkpt lat="43.3927667" lon="11.6117533"><ele>265.0</ele><time>2026-03-31T14:55:29.796Z</time></trkpt><trkpt lat="43.3927917" lon="11.611665"><ele>265.0</ele><time>2026-03-31T14:55:30.796Z</time></trkpt><trkpt lat="43.3927733" lon="11.61154"><ele>265.0</ele><time>2026-03-31T14:55:32.797Z</time></trkpt><trkpt lat="43.3926483" lon="11.61142"><ele>265.0</ele><time>2026-03-31T14:55:34.795Z</time></trkpt><trkpt lat="43.3925683" lon="11.6113567"><ele>265.0</ele><time>2026-03-31T14:55:35.795Z</time></trkpt><trkpt lat="43.3924967" lon="11.6112983"><ele>265.0</ele><time>2026-03-31T14:55:36.795Z</time></trkpt><trkpt lat="43.3924283" lon="11.611245"><ele>265.0</ele><time>2026-03-31T14:55:37.794Z</time></trkpt><trkpt lat="43.3923617" lon="11.6112017"><ele>265.0</ele><time>2026-03-31T14:55:38.796Z</time></trkpt><trkpt lat="43.39229" lon="11.6111733"><ele>265.0</ele><time>2026-03-31T14:55:39.794Z</time></trkpt><trkpt lat="43.3922033" lon="11.611165"><ele>265.0</ele><time>2026-03-31T14:55:40.796Z</time></trkpt><trkpt lat="43.3921" lon="11.6111833"><ele>265.0</ele><time>2026-03-31T14:55:41.797Z</time></trkpt><trkpt lat="43.3919867" lon="11.6112117"><ele>265.5</ele><time>2026-03-31T14:55:42.794Z</time></trkpt><trkpt lat="43.3918883" lon="11.6112433"><ele>266.0</ele><time>2026-03-31T14:55:43.796Z</time></trkpt><trkpt lat="43.3918083" lon="11.6112733"><ele>266.5</ele><time>2026-03-31T14:55:44.797Z</time></trkpt><trkpt lat="43.3917467" lon="11.6112967"><ele>267.0</ele><time>2026-03-31T14:55:45.795Z</time></trkpt><trkpt lat="43.3916733" lon="11.6113167"><ele>267.5</ele><time>2026-03-31T14:55:47.795Z</time></trkpt><trkpt lat="43.3916617" lon="11.6112233"><ele>268.0</ele><time>2026-03-31T14:55:51.796Z</time></trkpt><trkpt lat="43.3917567" lon="11.6111433"><ele>270.3333333333333</ele><time>2026-03-31T14:55:53.796Z</time></trkpt><trkpt lat="43.3918217" lon="11.6110867"><ele>272.66666666666663</ele><time>2026-03-31T14:55:54.795Z</time></trkpt><trkpt lat="43.3918917" lon="11.6110233"><ele>275.0</ele><time>2026-03-31T14:55:55.793Z</time></trkpt><trkpt lat="43.3919633" lon="11.6109483"><ele>277.3333333333333</ele><time>2026-03-31T14:55:56.796Z</time></trkpt><trkpt lat="43.39203" lon="11.6108733"><ele>279.6666666666667</ele><time>2026-03-31T14:55:57.796Z</time></trkpt><trkpt lat="43.392075" lon="11.61081"><ele>282.0</ele><time>2026-03-31T14:55:58.796Z</time></trkpt><trkpt lat="43.392085" lon="11.6107117"><ele>282.0</ele><time>2026-03-31T14:56:00.796Z</time></trkpt><trkpt lat="43.3920483" lon="11.6105533"><ele>282.0</ele><time>2026-03-31T14:56:02.795Z</time></trkpt><trkpt lat="43.3920367" lon="11.6104517"><ele>282.0</ele><time>2026-03-31T14:56:03.795Z</time></trkpt><trkpt lat="43.392025" lon="11.6103533"><ele>282.0</ele><time>2026-03-31T14:56:04.796Z</time></trkpt><trkpt lat="43.3920217" lon="11.610255"><ele>282.0</ele><time>2026-03-31T14:56:05.795Z</time></trkpt><trkpt lat="43.39201" lon="11.6101517"><ele>282.0</ele><time>2026-03-31T14:56:06.797Z</time></trkpt><trkpt lat="43.3919967" lon="11.6100267"><ele>284.8</ele><time>2026-03-31T14:56:07.795Z</time></trkpt><trkpt lat="43.39196" lon="11.6098983"><ele>287.6</ele><time>2026-03-31T14:56:08.797Z</time></trkpt><trkpt lat="43.3919217" lon="11.609775"><ele>290.40000000000003</ele><time>2026-03-31T14:56:09.796Z</time></trkpt><trkpt lat="43.3918933" lon="11.60966"><ele>293.2</ele><time>2026-03-31T14:56:10.792Z</time></trkpt><trkpt lat="43.39188" lon="11.6095383"><ele>296.0</ele><time>2026-03-31T14:56:11.795Z</time></trkpt><trkpt lat="43.3918867" lon="11.6094167"><ele>295.2</ele><time>2026-03-31T14:56:12.796Z</time></trkpt><trkpt lat="43.3919083" lon="11.60929"><ele>294.40000000000003</ele><time>2026-03-31T14:56:13.795Z</time></trkpt><trkpt lat="43.3919467" lon="11.6091817"><ele>293.6</ele><time>2026-03-31T14:56:14.796Z</time></trkpt><trkpt lat="43.3919933" lon="11.60911"><ele>292.8</ele><time>2026-03-31T14:56:15.795Z</time></trkpt><trkpt lat="43.3921117" lon="11.60902"><ele>292.0</ele><time>2026-03-31T14:56:17.795Z</time></trkpt><trkpt lat="43.392185" lon="11.6089733"><ele>292.0</ele><time>2026-03-31T14:56:18.796Z</time></trkpt><trkpt lat="43.3922517" lon="11.6089233"><ele>292.0</ele><time>2026-03-31T14:56:19.796Z</time></trkpt><trkpt lat="43.3923117" lon="11.6088617"><ele>292.0</ele><time>2026-03-31T14:56:20.798Z</time></trkpt><trkpt lat="43.39235" lon="11.6087733"><ele>292.0</ele><time>2026-03-31T14:56:21.796Z</time></trkpt><trkpt lat="43.3923783" lon="11.6086633"><ele>292.0</ele><time>2026-03-31T14:56:22.796Z</time></trkpt><trkpt lat="43.3923967" lon="11.608535"><ele>292.0</ele><time>2026-03-31T14:56:23.796Z</time></trkpt><trkpt lat="43.3923983" lon="11.60839"><ele>295.5</ele><time>2026-03-31T14:56:24.795Z</time></trkpt><trkpt lat="43.3923867" lon="11.60825"><ele>299.0</ele><time>2026-03-31T14:56:25.795Z</time></trkpt><trkpt lat="43.39236" lon="11.6080983"><ele>302.5</ele><time>2026-03-31T14:56:26.796Z</time></trkpt><trkpt lat="43.3923317" lon="11.6079333"><ele>306.0</ele><time>2026-03-31T14:56:27.795Z</time></trkpt><trkpt lat="43.3923033" lon="11.6077683"><ele>307.2</ele><time>2026-03-31T14:56:28.797Z</time></trkpt><trkpt lat="43.3922767" lon="11.6075983"><ele>308.40000000000003</ele><time>2026-03-31T14:56:29.796Z</time></trkpt><trkpt lat="43.3922533" lon="11.607455"><ele>309.6</ele><time>2026-03-31T14:56:30.797Z</time></trkpt><trkpt lat="43.3922217" lon="11.60732"><ele>310.8</ele><time>2026-03-31T14:56:31.796Z</time></trkpt><trkpt lat="43.3921767" lon="11.6071917"><ele>312.0</ele><time>2026-03-31T14:56:32.797Z</time></trkpt><trkpt lat="43.39213" lon="11.607055"><ele>315.6</ele><time>2026-03-31T14:56:33.796Z</time></trkpt><trkpt lat="43.3920833" lon="11.6069067"><ele>319.2</ele><time>2026-03-31T14:56:34.795Z</time></trkpt><trkpt lat="43.392045" lon="11.606745"><ele>322.8</ele><time>2026-03-31T14:56:35.796Z</time></trkpt><trkpt lat="43.3920033" lon="11.6066083"><ele>326.4</ele><time>2026-03-31T14:56:36.797Z</time></trkpt><trkpt lat="43.39198" lon="11.6064883"><ele>330.0</ele><time>2026-03-31T14:56:37.796Z</time></trkpt><trkpt lat="43.391955" lon="11.6063833"><ele>330.0</ele><time>2026-03-31T14:56:38.797Z</time></trkpt><trkpt lat="43.3919283" lon="11.606295"><ele>330.0</ele><time>2026-03-31T14:56:39.795Z</time></trkpt><trkpt lat="43.3919017" lon="11.6062133"><ele>330.0</ele><time>2026-03-31T14:56:40.797Z</time></trkpt><trkpt lat="43.39185" lon="11.606055"><ele>330.0</ele><time>2026-03-31T14:56:42.797Z</time></trkpt><trkpt lat="43.3918367" lon="11.605945"><ele>330.0</ele><time>2026-03-31T14:56:43.797Z</time></trkpt><trkpt lat="43.391835" lon="11.6058183"><ele>330.0</ele><time>2026-03-31T14:56:44.797Z</time></trkpt><trkpt lat="43.3918417" lon="11.6056933"><ele>328.5</ele><time>2026-03-31T14:56:45.797Z</time></trkpt><trkpt lat="43.39186" lon="11.6055783"><ele>327.0</ele><time>2026-03-31T14:56:46.796Z</time></trkpt><trkpt lat="43.391905" lon="11.6054683"><ele>325.5</ele><time>2026-03-31T14:56:47.796Z</time></trkpt><trkpt lat="43.3919583" lon="11.6053683"><ele>324.0</ele><time>2026-03-31T14:56:48.798Z</time></trkpt><trkpt lat="43.3920083" lon="11.60528"><ele>322.5</ele><time>2026-03-31T14:56:49.797Z</time></trkpt><trkpt lat="43.39205" lon="11.6052083"><ele>321.0</ele><time>2026-03-31T14:56:50.797Z</time></trkpt><trkpt lat="43.3921217" lon="11.6050933"><ele>319.2</ele><time>2026-03-31T14:56:52.795Z</time></trkpt><trkpt lat="43.39221" lon="11.6050417"><ele>317.40000000000003</ele><time>2026-03-31T14:57:11.797Z</time></trkpt><trkpt lat="43.3922783" lon="11.60493"><ele>315.6</ele><time>2026-03-31T14:57:13.796Z</time></trkpt><trkpt lat="43.3923483" lon="11.6048567"><ele>313.8</ele><time>2026-03-31T14:57:14.797Z</time></trkpt><trkpt lat="43.39245" lon="11.6047517"><ele>312.0</ele><time>2026-03-31T14:57:15.795Z</time></trkpt><trkpt lat="43.392545" lon="11.604665"><ele>312.0</ele><time>2026-03-31T14:57:16.795Z</time></trkpt><trkpt lat="43.392645" lon="11.60457"><ele>312.0</ele><time>2026-03-31T14:57:17.796Z</time></trkpt><trkpt lat="43.392745" lon="11.6044717"><ele>312.0</ele><time>2026-03-31T14:57:18.794Z</time></trkpt><trkpt lat="43.39283" lon="11.6043883"><ele>312.0</ele><time>2026-03-31T14:57:19.794Z</time></trkpt><trkpt lat="43.3929083" lon="11.604315"><ele>312.0</ele><time>2026-03-31T14:57:20.797Z</time></trkpt><trkpt lat="43.392975" lon="11.6042433"><ele>312.1666666666667</ele><time>2026-03-31T14:57:21.797Z</time></trkpt><trkpt lat="43.3930283" lon="11.6041683"><ele>312.3333333333333</ele><time>2026-03-31T14:57:22.796Z</time></trkpt><trkpt lat="43.39307" lon="11.6040833"><ele>312.5</ele><time>2026-03-31T14:57:23.796Z</time></trkpt><trkpt lat="43.3931067" lon="11.6040017"><ele>312.66666666666663</ele><time>2026-03-31T14:57:24.797Z</time></trkpt><trkpt lat="43.3931733" lon="11.6038567"><ele>312.8333333333333</ele><time>2026-03-31T14:57:26.799Z</time></trkpt><trkpt lat="43.3932217" lon="11.60378"><ele>313.0</ele><time>2026-03-31T14:57:27.796Z</time></trkpt><trkpt lat="43.3932817" lon="11.603705"><ele>311.4</ele><time>2026-03-31T14:57:28.797Z</time></trkpt><trkpt lat="43.39335" lon="11.6036283"><ele>309.8</ele><time>2026-03-31T14:57:29.796Z</time></trkpt><trkpt lat="43.39342" lon="11.6035367"><ele>308.2</ele><time>2026-03-31T14:57:30.795Z</time></trkpt><trkpt lat="43.393485" lon="11.6034283"><ele>306.6</ele><time>2026-03-31T14:57:31.796Z</time></trkpt><trkpt lat="43.3935517" lon="11.6032983"><ele>305.0</ele><time>2026-03-31T14:57:32.797Z</time></trkpt><trkpt lat="43.3936133" lon="11.60317"><ele>305.0</ele><time>2026-03-31T14:57:33.796Z</time></trkpt><trkpt lat="43.3936667" lon="11.603035"><ele>305.0</ele><time>2026-03-31T14:57:34.796Z</time></trkpt><trkpt lat="43.3937067" lon="11.602885"><ele>305.0</ele><time>2026-03-31T14:57:35.795Z</time></trkpt><trkpt lat="43.3937467" lon="11.6027167"><ele>305.0</ele><time>2026-03-31T14:57:36.796Z</time></trkpt><trkpt lat="43.3937833" lon="11.602545"><ele>303.8</ele><time>2026-03-31T14:57:37.796Z</time></trkpt><trkpt lat="43.39382" lon="11.6023867"><ele>302.6</ele><time>2026-03-31T14:57:38.797Z</time></trkpt><trkpt lat="43.393845" lon="11.6022583"><ele>301.4</ele><time>2026-03-31T14:57:39.795Z</time></trkpt><trkpt lat="43.3938667" lon="11.6021433"><ele>300.2</ele><time>2026-03-31T14:57:40.794Z</time></trkpt><trkpt lat="43.3938817" lon="11.6020367"><ele>299.0</ele><time>2026-03-31T14:57:41.796Z</time></trkpt><trkpt lat="43.393895" lon="11.601925"><ele>298.0</ele><time>2026-03-31T14:57:42.796Z</time></trkpt><trkpt lat="43.393895" lon="11.6018"><ele>297.0</ele><time>2026-03-31T14:57:43.792Z</time></trkpt><trkpt lat="43.393885" lon="11.60167"><ele>296.0</ele><time>2026-03-31T14:57:44.796Z</time></trkpt><trkpt lat="43.3938717" lon="11.60154"><ele>295.0</ele><time>2026-03-31T14:57:45.796Z</time></trkpt><trkpt lat="43.3938583" lon="11.60142"><ele>294.0</ele><time>2026-03-31T14:57:46.796Z</time></trkpt><trkpt lat="43.3938483" lon="11.6013117"><ele>293.0</ele><time>2026-03-31T14:57:47.796Z</time></trkpt><trkpt lat="43.39385" lon="11.601215"><ele>292.0</ele><time>2026-03-31T14:57:48.798Z</time></trkpt><trkpt lat="43.393865" lon="11.6011233"><ele>291.0</ele><time>2026-03-31T14:57:49.797Z</time></trkpt><trkpt lat="43.3939" lon="11.601035"><ele>290.0</ele><time>2026-03-31T14:57:50.798Z</time></trkpt><trkpt lat="43.3939517" lon="11.60096"><ele>289.0</ele><time>2026-03-31T14:57:51.794Z</time></trkpt><trkpt lat="43.3940183" lon="11.6008917"><ele>288.0</ele><time>2026-03-31T14:57:52.795Z</time></trkpt><trkpt lat="43.3940867" lon="11.6008267"><ele>287.0</ele><time>2026-03-31T14:57:53.797Z</time></trkpt><trkpt lat="43.39416" lon="11.60077"><ele>287.0</ele><time>2026-03-31T14:57:54.795Z</time></trkpt><trkpt lat="43.394235" lon="11.600725"><ele>287.0</ele><time>2026-03-31T14:57:55.796Z</time></trkpt><trkpt lat="43.394305" lon="11.600705"><ele>287.0</ele><time>2026-03-31T14:57:56.797Z</time></trkpt><trkpt lat="43.394375" lon="11.600725"><ele>287.0</ele><time>2026-03-31T14:57:57.797Z</time></trkpt><trkpt lat="43.39444" lon="11.6007767"><ele>287.0</ele><time>2026-03-31T14:57:58.797Z</time></trkpt><trkpt lat="43.394505" lon="11.600845"><ele>287.0</ele><time>2026-03-31T14:57:59.797Z</time></trkpt><trkpt lat="43.3945767" lon="11.60089"><ele>287.0</ele><time>2026-03-31T14:58:00.798Z</time></trkpt><trkpt lat="43.394655" lon="11.6009133"><ele>287.0</ele><time>2026-03-31T14:58:01.795Z</time></trkpt><trkpt lat="43.394735" lon="11.6009"><ele>287.0</ele><time>2026-03-31T14:58:02.797Z</time></trkpt><trkpt lat="43.3948267" lon="11.60084"><ele>287.0</ele><time>2026-03-31T14:58:03.796Z</time></trkpt><trkpt lat="43.39493" lon="11.60074"><ele>287.0</ele><time>2026-03-31T14:58:04.796Z</time></trkpt><trkpt lat="43.3950283" lon="11.6006417"><ele>286.2</ele><time>2026-03-31T14:58:05.797Z</time></trkpt><trkpt lat="43.3951233" lon="11.6005517"><ele>285.4</ele><time>2026-03-31T14:58:06.797Z</time></trkpt><trkpt lat="43.39521" lon="11.6004717"><ele>284.6</ele><time>2026-03-31T14:58:07.796Z</time></trkpt><trkpt lat="43.39528" lon="11.6003933"><ele>283.8</ele><time>2026-03-31T14:58:08.798Z</time></trkpt><trkpt lat="43.39534" lon="11.600335"><ele>283.0</ele><time>2026-03-31T14:58:09.796Z</time></trkpt><trkpt lat="43.3954133" lon="11.6002683"><ele>282.8</ele><time>2026-03-31T14:58:11.796Z</time></trkpt><trkpt lat="43.3954267" lon="11.60017"><ele>282.6</ele><time>2026-03-31T14:58:13.795Z</time></trkpt><trkpt lat="43.395465" lon="11.5999983"><ele>282.4</ele><time>2026-03-31T14:58:15.795Z</time></trkpt><trkpt lat="43.3955033" lon="11.59992"><ele>282.2</ele><time>2026-03-31T14:58:16.799Z</time></trkpt><trkpt lat="43.3955517" lon="11.5997967"><ele>282.0</ele><time>2026-03-31T14:58:18.798Z</time></trkpt><trkpt lat="43.3955333" lon="11.5996367"><ele>282.0</ele><time>2026-03-31T14:58:20.796Z</time></trkpt><trkpt lat="43.3954967" lon="11.599555"><ele>282.0</ele><time>2026-03-31T14:58:21.796Z</time></trkpt><trkpt lat="43.39546" lon="11.5994717"><ele>282.0</ele><time>2026-03-31T14:58:22.795Z</time></trkpt><trkpt lat="43.3954267" lon="11.599375"><ele>282.0</ele><time>2026-03-31T14:58:23.797Z</time></trkpt><trkpt lat="43.395405" lon="11.5992717"><ele>282.0</ele><time>2026-03-31T14:58:24.797Z</time></trkpt><trkpt lat="43.3953833" lon="11.5991583"><ele>282.0</ele><time>2026-03-31T14:58:25.796Z</time></trkpt><trkpt lat="43.3953733" lon="11.599045"><ele>281.6666666666667</ele><time>2026-03-31T14:58:26.797Z</time></trkpt><trkpt lat="43.395355" lon="11.598935"><ele>281.3333333333333</ele><time>2026-03-31T14:58:27.796Z</time></trkpt><trkpt lat="43.39533" lon="11.5988233"><ele>281.0</ele><time>2026-03-31T14:58:28.796Z</time></trkpt><trkpt lat="43.3952983" lon="11.5987133"><ele>280.66666666666663</ele><time>2026-03-31T14:58:29.796Z</time></trkpt><trkpt lat="43.3952733" lon="11.5985983"><ele>280.3333333333333</ele><time>2026-03-31T14:58:30.796Z</time></trkpt><trkpt lat="43.39525" lon="11.598495"><ele>280.0</ele><time>2026-03-31T14:58:31.796Z</time></trkpt><trkpt lat="43.3952267" lon="11.598395"><ele>279.16666666666663</ele><time>2026-03-31T14:58:32.796Z</time></trkpt><trkpt lat="43.3951983" lon="11.598295"><ele>278.3333333333333</ele><time>2026-03-31T14:58:33.796Z</time></trkpt><trkpt lat="43.39517" lon="11.5981883"><ele>277.5</ele><time>2026-03-31T14:58:34.795Z</time></trkpt><trkpt lat="43.39515" lon="11.5980767"><ele>276.6666666666667</ele><time>2026-03-31T14:58:35.796Z</time></trkpt><trkpt lat="43.3951433" lon="11.5979717"><ele>275.83333333333337</ele><time>2026-03-31T14:58:36.796Z</time></trkpt><trkpt lat="43.3951467" lon="11.5978683"><ele>275.0</ele><time>2026-03-31T14:58:37.795Z</time></trkpt><trkpt lat="43.3951567" lon="11.597765"><ele>273.83333333333337</ele><time>2026-03-31T14:58:38.796Z</time></trkpt><trkpt lat="43.39517" lon="11.5976717"><ele>272.6666666666667</ele><time>2026-03-31T14:58:39.796Z</time></trkpt><trkpt lat="43.3951833" lon="11.5975867"><ele>271.5</ele><time>2026-03-31T14:58:40.796Z</time></trkpt><trkpt lat="43.395175" lon="11.5974233"><ele>270.3333333333333</ele><time>2026-03-31T14:58:42.795Z</time></trkpt><trkpt lat="43.395145" lon="11.5973333"><ele>269.16666666666663</ele><time>2026-03-31T14:58:43.795Z</time></trkpt><trkpt lat="43.3951233" lon="11.59724"><ele>268.0</ele><time>2026-03-31T14:58:44.796Z</time></trkpt><trkpt lat="43.3951067" lon="11.5971517"><ele>266.2</ele><time>2026-03-31T14:58:45.796Z</time></trkpt><trkpt lat="43.3950917" lon="11.5969933"><ele>264.4</ele><time>2026-03-31T14:58:47.796Z</time></trkpt><trkpt lat="43.3951483" lon="11.5968483"><ele>262.59999999999997</ele><time>2026-03-31T14:58:49.796Z</time></trkpt><trkpt lat="43.3951817" lon="11.5967733"><ele>260.8</ele><time>2026-03-31T14:58:50.797Z</time></trkpt><trkpt lat="43.3952333" lon="11.596655"><ele>259.0</ele><time>2026-03-31T14:58:52.796Z</time></trkpt><trkpt lat="43.395295" lon="11.5966317"><ele>259.0</ele><time>2026-03-31T14:58:54.796Z</time></trkpt><trkpt lat="43.3953833" lon="11.5966667"><ele>259.0</ele><time>2026-03-31T14:58:57.795Z</time></trkpt><trkpt lat="43.395475" lon="11.5966817"><ele>259.0</ele><time>2026-03-31T14:58:59.795Z</time></trkpt><trkpt lat="43.3955817" lon="11.59667"><ele>259.0</ele><time>2026-03-31T14:59:01.797Z</time></trkpt><trkpt lat="43.395675" lon="11.5966917"><ele>259.0</ele><time>2026-03-31T14:59:03.794Z</time></trkpt><trkpt lat="43.395745" lon="11.5967467"><ele>259.0</ele><time>2026-03-31T14:59:05.796Z</time></trkpt><trkpt lat="43.3958217" lon="11.596835"><ele>259.0</ele><time>2026-03-31T14:59:07.795Z</time></trkpt><trkpt lat="43.395945" lon="11.5969617"><ele>259.0</ele><time>2026-03-31T14:59:09.795Z</time></trkpt><trkpt lat="43.396025" lon="11.597045"><ele>259.0</ele><time>2026-03-31T14:59:10.796Z</time></trkpt><trkpt lat="43.396105" lon="11.59712"><ele>259.3333333333333</ele><time>2026-03-31T14:59:11.797Z</time></trkpt><trkpt lat="43.39619" lon="11.5971783"><ele>259.66666666666663</ele><time>2026-03-31T14:59:12.797Z</time></trkpt><trkpt lat="43.3962817" lon="11.59722"><ele>260.0</ele><time>2026-03-31T14:59:13.799Z</time></trkpt><trkpt lat="43.396355" lon="11.5972417"><ele>260.3333333333333</ele><time>2026-03-31T14:59:14.8Z</time></trkpt><trkpt lat="43.3964217" lon="11.597225"><ele>260.6666666666667</ele><time>2026-03-31T14:59:15.798Z</time></trkpt><trkpt lat="43.39649" lon="11.5971867"><ele>261.0</ele><time>2026-03-31T14:59:16.796Z</time></trkpt><trkpt lat="43.39656" lon="11.5971567"><ele>261.0</ele><time>2026-03-31T14:59:17.799Z</time></trkpt><trkpt lat="43.3966317" lon="11.5970967"><ele>261.0</ele><time>2026-03-31T14:59:18.799Z</time></trkpt><trkpt lat="43.3967033" lon="11.5970533"><ele>261.0</ele><time>2026-03-31T14:59:19.797Z</time></trkpt><trkpt lat="43.396785" lon="11.5970417"><ele>261.0</ele><time>2026-03-31T14:59:20.8Z</time></trkpt><trkpt lat="43.3968683" lon="11.5970467"><ele>261.0</ele><time>2026-03-31T14:59:21.797Z</time></trkpt><trkpt lat="43.3969433" lon="11.5970383"><ele>261.0</ele><time>2026-03-31T14:59:22.798Z</time></trkpt><trkpt lat="43.3970183" lon="11.5970133"><ele>260.3333333333333</ele><time>2026-03-31T14:59:23.799Z</time></trkpt><trkpt lat="43.397075" lon="11.5969633"><ele>259.6666666666667</ele><time>2026-03-31T14:59:24.797Z</time></trkpt><trkpt lat="43.39717" lon="11.596905"><ele>259.0</ele><time>2026-03-31T14:59:26.799Z</time></trkpt><trkpt lat="43.3972" lon="11.59682"><ele>258.33333333333337</ele><time>2026-03-31T14:59:55.796Z</time></trkpt><trkpt lat="43.3972467" lon="11.59673"><ele>257.6666666666667</ele><time>2026-03-31T14:59:56.796Z</time></trkpt><trkpt lat="43.3973083" lon="11.596645"><ele>257.0</ele><time>2026-03-31T14:59:57.797Z</time></trkpt><trkpt lat="43.3973883" lon="11.5965583"><ele>256.0</ele><time>2026-03-31T14:59:58.797Z</time></trkpt><trkpt lat="43.3974917" lon="11.5964983"><ele>255.0</ele><time>2026-03-31T14:59:59.796Z</time></trkpt><trkpt lat="43.397595" lon="11.596455"><ele>254.0</ele><time>2026-03-31T15:00:00.795Z</time></trkpt><trkpt lat="43.3976917" lon="11.5964017"><ele>253.0</ele><time>2026-03-31T15:00:01.791Z</time></trkpt><trkpt lat="43.3977767" lon="11.5963283"><ele>252.0</ele><time>2026-03-31T15:00:02.804Z</time></trkpt><trkpt lat="43.3978467" lon="11.5962233"><ele>252.2</ele><time>2026-03-31T15:00:03.798Z</time></trkpt><trkpt lat="43.397875" lon="11.5960833"><ele>252.39999999999998</ele><time>2026-03-31T15:00:04.797Z</time></trkpt><trkpt lat="43.3978783" lon="11.595925"><ele>252.60000000000002</ele><time>2026-03-31T15:00:05.797Z</time></trkpt><trkpt lat="43.3978617" lon="11.5957717"><ele>252.8</ele><time>2026-03-31T15:00:06.797Z</time></trkpt><trkpt lat="43.397835" lon="11.595625"><ele>253.0</ele><time>2026-03-31T15:00:07.798Z</time></trkpt><trkpt lat="43.3978017" lon="11.59549"><ele>253.0</ele><time>2026-03-31T15:00:08.8Z</time></trkpt><trkpt lat="43.3977617" lon="11.5953633"><ele>253.0</ele><time>2026-03-31T15:00:09.798Z</time></trkpt><trkpt lat="43.3977133" lon="11.595245"><ele>253.0</ele><time>2026-03-31T15:00:10.797Z</time></trkpt><trkpt lat="43.3976533" lon="11.595125"><ele>253.0</ele><time>2026-03-31T15:00:11.797Z</time></trkpt><trkpt lat="43.397585" lon="11.5950067"><ele>253.0</ele><time>2026-03-31T15:00:12.799Z</time></trkpt><trkpt lat="43.39752" lon="11.5948867"><ele>252.99999999999997</ele><time>2026-03-31T15:00:13.798Z</time></trkpt><trkpt lat="43.3974617" lon="11.594775"><ele>253.0</ele><time>2026-03-31T15:00:14.798Z</time></trkpt><trkpt lat="43.3974067" lon="11.5946717"><ele>253.0</ele><time>2026-03-31T15:00:15.796Z</time></trkpt><trkpt lat="43.39736" lon="11.5945767"><ele>253.0</ele><time>2026-03-31T15:00:16.797Z</time></trkpt><trkpt lat="43.3973267" lon="11.59448"><ele>252.99999999999997</ele><time>2026-03-31T15:00:17.796Z</time></trkpt><trkpt lat="43.3973117" lon="11.5943767"><ele>253.0</ele><time>2026-03-31T15:00:18.797Z</time></trkpt><trkpt lat="43.3973033" lon="11.5942617"><ele>253.0</ele><time>2026-03-31T15:00:19.797Z</time></trkpt><trkpt lat="43.3972967" lon="11.594135"><ele>253.0</ele><time>2026-03-31T15:00:20.797Z</time></trkpt><trkpt lat="43.3972917" lon="11.593995"><ele>253.0</ele><time>2026-03-31T15:00:21.797Z</time></trkpt><trkpt lat="43.3972867" lon="11.59384"><ele>253.0</ele><time>2026-03-31T15:00:22.797Z</time></trkpt><trkpt lat="43.3972833" lon="11.593675"><ele>253.0</ele><time>2026-03-31T15:00:23.798Z</time></trkpt><trkpt lat="43.3972717" lon="11.5935117"><ele>253.60000000000002</ele><time>2026-03-31T15:00:24.797Z</time></trkpt><trkpt lat="43.3972533" lon="11.5933683"><ele>254.20000000000002</ele><time>2026-03-31T15:00:25.798Z</time></trkpt><trkpt lat="43.3972367" lon="11.593245"><ele>254.8</ele><time>2026-03-31T15:00:26.798Z</time></trkpt><trkpt lat="43.39722" lon="11.59312"><ele>255.4</ele><time>2026-03-31T15:00:27.799Z</time></trkpt><trkpt lat="43.397195" lon="11.592975"><ele>256.0</ele><time>2026-03-31T15:00:28.796Z</time></trkpt><trkpt lat="43.3971683" lon="11.5928367"><ele>256.66666666666663</ele><time>2026-03-31T15:00:29.797Z</time></trkpt><trkpt lat="43.397145" lon="11.59271"><ele>257.3333333333333</ele><time>2026-03-31T15:00:30.796Z</time></trkpt><trkpt lat="43.397125" lon="11.5925917"><ele>258.0</ele><time>2026-03-31T15:00:31.798Z</time></trkpt><trkpt lat="43.3971117" lon="11.5924833"><ele>258.6666666666667</ele><time>2026-03-31T15:00:32.798Z</time></trkpt><trkpt lat="43.3971033" lon="11.5923733"><ele>259.33333333333337</ele><time>2026-03-31T15:00:33.797Z</time></trkpt><trkpt lat="43.3970967" lon="11.592275"><ele>260.0</ele><time>2026-03-31T15:00:34.797Z</time></trkpt><trkpt lat="43.3970967" lon="11.592185"><ele>260.0</ele><time>2026-03-31T15:00:35.798Z</time></trkpt><trkpt lat="43.3971067" lon="11.5920483"><ele>260.0</ele><time>2026-03-31T15:00:37.796Z</time></trkpt><trkpt lat="43.3971233" lon="11.59195"><ele>260.0</ele><time>2026-03-31T15:00:41.795Z</time></trkpt><trkpt lat="43.3971233" lon="11.5918467"><ele>260.0</ele><time>2026-03-31T15:00:43.797Z</time></trkpt><trkpt lat="43.397105" lon="11.5917533"><ele>260.0</ele><time>2026-03-31T15:00:44.798Z</time></trkpt><trkpt lat="43.397085" lon="11.5916367"><ele>260.0</ele><time>2026-03-31T15:00:45.796Z</time></trkpt><trkpt lat="43.3970717" lon="11.5914917"><ele>260.5</ele><time>2026-03-31T15:00:46.796Z</time></trkpt><trkpt lat="43.397065" lon="11.5913067"><ele>261.0</ele><time>2026-03-31T15:00:47.797Z</time></trkpt><trkpt lat="43.39706" lon="11.591115"><ele>261.5</ele><time>2026-03-31T15:00:48.796Z</time></trkpt><trkpt lat="43.3970567" lon="11.5909217"><ele>262.0</ele><time>2026-03-31T15:00:49.796Z</time></trkpt><trkpt lat="43.397055" lon="11.59073"><ele>263.25</ele><time>2026-03-31T15:00:50.798Z</time></trkpt><trkpt lat="43.3970517" lon="11.590535"><ele>264.5</ele><time>2026-03-31T15:00:51.797Z</time></trkpt><trkpt lat="43.3970533" lon="11.5903433"><ele>265.75</ele><time>2026-03-31T15:00:52.797Z</time></trkpt><trkpt lat="43.3970517" lon="11.59015"><ele>267.0</ele><time>2026-03-31T15:00:53.796Z</time></trkpt><trkpt lat="43.39705" lon="11.5899567"><ele>267.0</ele><time>2026-03-31T15:00:54.796Z</time></trkpt><trkpt lat="43.3970483" lon="11.5897583"><ele>267.0</ele><time>2026-03-31T15:00:55.797Z</time></trkpt><trkpt lat="43.39704" lon="11.589565"><ele>267.0</ele><time>2026-03-31T15:00:56.798Z</time></trkpt><trkpt lat="43.3970283" lon="11.58937"><ele>267.0</ele><time>2026-03-31T15:00:57.798Z</time></trkpt><trkpt lat="43.3970133" lon="11.5891683"><ele>267.0</ele><time>2026-03-31T15:00:58.797Z</time></trkpt><trkpt lat="43.3969933" lon="11.5889617"><ele>267.0</ele><time>2026-03-31T15:00:59.797Z</time></trkpt><trkpt lat="43.3969717" lon="11.5887633"><ele>267.0</ele><time>2026-03-31T15:01:00.798Z</time></trkpt><trkpt lat="43.3969567" lon="11.5885667"><ele>267.0</ele><time>2026-03-31T15:01:01.797Z</time></trkpt><trkpt lat="43.3969367" lon="11.5883617"><ele>267.0</ele><time>2026-03-31T15:01:02.798Z</time></trkpt><trkpt lat="43.3969067" lon="11.5881533"><ele>267.0</ele><time>2026-03-31T15:01:03.8Z</time></trkpt><trkpt lat="43.3968683" lon="11.5879567"><ele>267.0</ele><time>2026-03-31T15:01:04.796Z</time></trkpt><trkpt lat="43.3968317" lon="11.5877733"><ele>267.0</ele><time>2026-03-31T15:01:05.797Z</time></trkpt><trkpt lat="43.3968017" lon="11.5875867"><ele>267.0</ele><time>2026-03-31T15:01:06.796Z</time></trkpt><trkpt lat="43.39679" lon="11.5873933"><ele>267.0</ele><time>2026-03-31T15:01:07.797Z</time></trkpt><trkpt lat="43.3967917" lon="11.5872"><ele>267.0</ele><time>2026-03-31T15:01:08.794Z</time></trkpt><trkpt lat="43.39679" lon="11.5870117"><ele>267.0</ele><time>2026-03-31T15:01:09.797Z</time></trkpt><trkpt lat="43.3967683" lon="11.5868167"><ele>267.3333333333333</ele><time>2026-03-31T15:01:10.798Z</time></trkpt><trkpt lat="43.3967317" lon="11.58661"><ele>267.66666666666663</ele><time>2026-03-31T15:01:11.797Z</time></trkpt><trkpt lat="43.3966983" lon="11.5864"><ele>268.0</ele><time>2026-03-31T15:01:12.796Z</time></trkpt><trkpt lat="43.3966833" lon="11.5861867"><ele>269.66666666666663</ele><time>2026-03-31T15:01:13.797Z</time></trkpt><trkpt lat="43.3966933" lon="11.58597"><ele>271.3333333333333</ele><time>2026-03-31T15:01:14.796Z</time></trkpt><trkpt lat="43.3967133" lon="11.5857567"><ele>273.0</ele><time>2026-03-31T15:01:15.796Z</time></trkpt><trkpt lat="43.39674" lon="11.5855667"><ele>273.0</ele><time>2026-03-31T15:01:16.797Z</time></trkpt><trkpt lat="43.3967767" lon="11.5854017"><ele>273.0</ele><time>2026-03-31T15:01:17.797Z</time></trkpt><trkpt lat="43.39682" lon="11.5852717"><ele>273.0</ele><time>2026-03-31T15:01:18.797Z</time></trkpt><trkpt lat="43.3968867" lon="11.5851733"><ele>273.0</ele><time>2026-03-31T15:01:19.796Z</time></trkpt><trkpt lat="43.396975" lon="11.5851217"><ele>273.0</ele><time>2026-03-31T15:01:20.797Z</time></trkpt><trkpt lat="43.39708" lon="11.5851133"><ele>274.8</ele><time>2026-03-31T15:01:21.795Z</time></trkpt><trkpt lat="43.39718" lon="11.5851133"><ele>276.6</ele><time>2026-03-31T15:01:22.796Z</time></trkpt><trkpt lat="43.39728" lon="11.5851117"><ele>278.4</ele><time>2026-03-31T15:01:23.797Z</time></trkpt><trkpt lat="43.3973917" lon="11.5851233"><ele>280.2</ele><time>2026-03-31T15:01:24.796Z</time></trkpt><trkpt lat="43.3975233" lon="11.5851517"><ele>282.0</ele><time>2026-03-31T15:01:25.797Z</time></trkpt><trkpt lat="43.3976683" lon="11.58519"><ele>282.0</ele><time>2026-03-31T15:01:26.797Z</time></trkpt><trkpt lat="43.397825" lon="11.5852317"><ele>282.0</ele><time>2026-03-31T15:01:27.797Z</time></trkpt><trkpt lat="43.3979917" lon="11.585275"><ele>282.0</ele><time>2026-03-31T15:01:28.796Z</time></trkpt><trkpt lat="43.3981733" lon="11.585315"><ele>279.0</ele><time>2026-03-31T15:01:29.796Z</time></trkpt><trkpt lat="43.3983533" lon="11.5853483"><ele>276.0</ele><time>2026-03-31T15:01:30.797Z</time></trkpt><trkpt lat="43.39852" lon="11.585375"><ele>273.0</ele><time>2026-03-31T15:01:31.796Z</time></trkpt><trkpt lat="43.3986767" lon="11.585405"><ele>273.0</ele><time>2026-03-31T15:01:32.798Z</time></trkpt><trkpt lat="43.3988183" lon="11.5854333"><ele>273.0</ele><time>2026-03-31T15:01:33.797Z</time></trkpt><trkpt lat="43.3989467" lon="11.5854633"><ele>273.0</ele><time>2026-03-31T15:01:34.796Z</time></trkpt><trkpt lat="43.3990683" lon="11.5855"><ele>273.0</ele><time>2026-03-31T15:01:35.797Z</time></trkpt><trkpt lat="43.3991933" lon="11.5855417"><ele>272.5</ele><time>2026-03-31T15:01:36.796Z</time></trkpt><trkpt lat="43.399315" lon="11.5855983"><ele>272.0</ele><time>2026-03-31T15:01:37.797Z</time></trkpt><trkpt lat="43.3994267" lon="11.5856667"><ele>271.5</ele><time>2026-03-31T15:01:38.796Z</time></trkpt><trkpt lat="43.399535" lon="11.585745"><ele>271.0</ele><time>2026-03-31T15:01:39.797Z</time></trkpt><trkpt lat="43.3996483" lon="11.58581"><ele>272.0</ele><time>2026-03-31T15:01:40.796Z</time></trkpt><trkpt lat="43.399765" lon="11.5858567"><ele>273.0</ele><time>2026-03-31T15:01:41.797Z</time></trkpt><trkpt lat="43.399885" lon="11.5858917"><ele>274.0</ele><time>2026-03-31T15:01:42.796Z</time></trkpt><trkpt lat="43.3999967" lon="11.5859233"><ele>275.0</ele><time>2026-03-31T15:01:43.798Z</time></trkpt><trkpt lat="43.400095" lon="11.58594"><ele>275.0</ele><time>2026-03-31T15:01:44.797Z</time></trkpt><trkpt lat="43.4001783" lon="11.5859583"><ele>275.0</ele><time>2026-03-31T15:01:45.798Z</time></trkpt><trkpt lat="43.400245" lon="11.5859767"><ele>275.0</ele><time>2026-03-31T15:01:46.798Z</time></trkpt><trkpt lat="43.4003267" lon="11.5859867"><ele>275.0</ele><time>2026-03-31T15:01:48.797Z</time></trkpt><trkpt lat="43.4003867" lon="11.58594"><ele>275.0</ele><time>2026-03-31T15:01:50.797Z</time></trkpt><trkpt lat="43.40041" lon="11.5858367"><ele>275.0</ele><time>2026-03-31T15:01:51.796Z</time></trkpt><trkpt lat="43.4004233" lon="11.5857317"><ele>275.0</ele><time>2026-03-31T15:01:52.796Z</time></trkpt><trkpt lat="43.4004233" lon="11.5855633"><ele>275.0</ele><time>2026-03-31T15:01:53.798Z</time></trkpt><trkpt lat="43.4004167" lon="11.5854067"><ele>275.0</ele><time>2026-03-31T15:01:54.795Z</time></trkpt><trkpt lat="43.4004" lon="11.5852683"><ele>275.0</ele><time>2026-03-31T15:01:55.797Z</time></trkpt><trkpt lat="43.400395" lon="11.5851367"><ele>275.0</ele><time>2026-03-31T15:01:56.797Z</time></trkpt><trkpt lat="43.40041" lon="11.5850183"><ele>276.6666666666667</ele><time>2026-03-31T15:01:57.796Z</time></trkpt><trkpt lat="43.4004433" lon="11.5849217"><ele>278.33333333333337</ele><time>2026-03-31T15:01:58.795Z</time></trkpt><trkpt lat="43.400475" lon="11.5848467"><ele>280.0</ele><time>2026-03-31T15:01:59.797Z</time></trkpt><trkpt lat="43.4004833" lon="11.5846717"><ele>281.6666666666667</ele><time>2026-03-31T15:02:01.797Z</time></trkpt><trkpt lat="43.4004517" lon="11.58457"><ele>283.3333333333333</ele><time>2026-03-31T15:02:02.797Z</time></trkpt><trkpt lat="43.4004167" lon="11.584455"><ele>285.0</ele><time>2026-03-31T15:02:03.796Z</time></trkpt><trkpt lat="43.4003917" lon="11.584335"><ele>286.6666666666667</ele><time>2026-03-31T15:02:04.797Z</time></trkpt><trkpt lat="43.4003833" lon="11.5842117"><ele>288.3333333333333</ele><time>2026-03-31T15:02:05.796Z</time></trkpt><trkpt lat="43.400405" lon="11.584095"><ele>290.0</ele><time>2026-03-31T15:02:06.797Z</time></trkpt><trkpt lat="43.4004567" lon="11.583995"><ele>291.66666666666663</ele><time>2026-03-31T15:02:07.796Z</time></trkpt><trkpt lat="43.4005133" lon="11.583905"><ele>293.3333333333333</ele><time>2026-03-31T15:02:08.798Z</time></trkpt><trkpt lat="43.4005583" lon="11.5838"><ele>295.0</ele><time>2026-03-31T15:02:09.797Z</time></trkpt><trkpt lat="43.4005933" lon="11.5836833"><ele>297.2</ele><time>2026-03-31T15:02:10.796Z</time></trkpt><trkpt lat="43.40063" lon="11.5835467"><ele>299.4</ele><time>2026-03-31T15:02:11.796Z</time></trkpt><trkpt lat="43.4006683" lon="11.5834267"><ele>301.6</ele><time>2026-03-31T15:02:12.797Z</time></trkpt><trkpt lat="43.4007333" lon="11.5833083"><ele>303.8</ele><time>2026-03-31T15:02:13.797Z</time></trkpt><trkpt lat="43.400805" lon="11.5831933"><ele>306.0</ele><time>2026-03-31T15:02:14.796Z</time></trkpt><trkpt lat="43.4008733" lon="11.58308"><ele>306.0</ele><time>2026-03-31T15:02:15.797Z</time></trkpt><trkpt lat="43.4009383" lon="11.5829833"><ele>306.0</ele><time>2026-03-31T15:02:16.796Z</time></trkpt><trkpt lat="43.400995" lon="11.5829"><ele>306.0</ele><time>2026-03-31T15:02:17.797Z</time></trkpt><trkpt lat="43.4010367" lon="11.5828133"><ele>306.0</ele><time>2026-03-31T15:02:18.796Z</time></trkpt><trkpt lat="43.40106" lon="11.582725"><ele>306.0</ele><time>2026-03-31T15:02:19.797Z</time></trkpt><trkpt lat="43.4010633" lon="11.5826283"><ele>306.0</ele><time>2026-03-31T15:02:20.797Z</time></trkpt><trkpt lat="43.40106" lon="11.582525"><ele>308.1666666666667</ele><time>2026-03-31T15:02:21.795Z</time></trkpt><trkpt lat="43.4010533" lon="11.5824133"><ele>310.3333333333333</ele><time>2026-03-31T15:02:22.795Z</time></trkpt><trkpt lat="43.401045" lon="11.5822883"><ele>312.5</ele><time>2026-03-31T15:02:23.795Z</time></trkpt><trkpt lat="43.401035" lon="11.5821583"><ele>314.66666666666663</ele><time>2026-03-31T15:02:24.796Z</time></trkpt><trkpt lat="43.4010183" lon="11.5820417"><ele>316.8333333333333</ele><time>2026-03-31T15:02:25.797Z</time></trkpt><trkpt lat="43.4009983" lon="11.581935"><ele>319.0</ele><time>2026-03-31T15:02:26.796Z</time></trkpt><trkpt lat="43.4009667" lon="11.5818317"><ele>320.66666666666663</ele><time>2026-03-31T15:02:27.796Z</time></trkpt><trkpt lat="43.40093" lon="11.581735"><ele>322.3333333333333</ele><time>2026-03-31T15:02:28.796Z</time></trkpt><trkpt lat="43.4008917" lon="11.5816367"><ele>324.0</ele><time>2026-03-31T15:02:29.796Z</time></trkpt><trkpt lat="43.4008567" lon="11.5815317"><ele>325.6666666666667</ele><time>2026-03-31T15:02:30.796Z</time></trkpt><trkpt lat="43.400825" lon="11.5814133"><ele>327.33333333333337</ele><time>2026-03-31T15:02:31.796Z</time></trkpt><trkpt lat="43.400785" lon="11.5812867"><ele>329.0</ele><time>2026-03-31T15:02:32.796Z</time></trkpt><trkpt lat="43.4007467" lon="11.5811633"><ele>330.33333333333337</ele><time>2026-03-31T15:02:33.797Z</time></trkpt><trkpt lat="43.4007167" lon="11.5810417"><ele>331.6666666666667</ele><time>2026-03-31T15:02:34.796Z</time></trkpt><trkpt lat="43.40068" lon="11.5809367"><ele>333.0</ele><time>2026-03-31T15:02:35.797Z</time></trkpt><trkpt lat="43.4006367" lon="11.5808433"><ele>334.3333333333333</ele><time>2026-03-31T15:02:36.799Z</time></trkpt><trkpt lat="43.4005783" lon="11.580755"><ele>335.66666666666663</ele><time>2026-03-31T15:02:37.797Z</time></trkpt><trkpt lat="43.4005083" lon="11.58066"><ele>337.0</ele><time>2026-03-31T15:02:38.796Z</time></trkpt><trkpt lat="43.4004417" lon="11.5805517"><ele>337.0</ele><time>2026-03-31T15:02:39.797Z</time></trkpt><trkpt lat="43.4003817" lon="11.5804483"><ele>337.0</ele><time>2026-03-31T15:02:40.797Z</time></trkpt><trkpt lat="43.4003217" lon="11.5803583"><ele>337.0</ele><time>2026-03-31T15:02:41.797Z</time></trkpt><trkpt lat="43.4002717" lon="11.5802767"><ele>337.0</ele><time>2026-03-31T15:02:42.794Z</time></trkpt><trkpt lat="43.40023" lon="11.5802083"><ele>337.0</ele><time>2026-03-31T15:02:43.796Z</time></trkpt><trkpt lat="43.4001767" lon="11.580105"><ele>337.0</ele><time>2026-03-31T15:02:45.795Z</time></trkpt><trkpt lat="43.4002117" lon="11.5799917"><ele>337.00000000000006</ele><time>2026-03-31T15:02:47.795Z</time></trkpt><trkpt lat="43.4002617" lon="11.5799083"><ele>337.0</ele><time>2026-03-31T15:02:48.798Z</time></trkpt><trkpt lat="43.400305" lon="11.5798283"><ele>337.0</ele><time>2026-03-31T15:02:49.797Z</time></trkpt><trkpt lat="43.40036" lon="11.57977"><ele>337.0</ele><time>2026-03-31T15:02:50.798Z</time></trkpt><trkpt lat="43.4004233" lon="11.5797267"><ele>337.0</ele><time>2026-03-31T15:02:51.797Z</time></trkpt><trkpt lat="43.4004933" lon="11.57971"><ele>337.00000000000006</ele><time>2026-03-31T15:02:52.795Z</time></trkpt><trkpt lat="43.4005667" lon="11.5797183"><ele>337.0</ele><time>2026-03-31T15:02:53.796Z</time></trkpt><trkpt lat="43.4006383" lon="11.5797383"><ele>338.6</ele><time>2026-03-31T15:02:54.796Z</time></trkpt><trkpt lat="43.4007517" lon="11.5797283"><ele>340.20000000000005</ele><time>2026-03-31T15:02:56.801Z</time></trkpt><trkpt lat="43.40084" lon="11.579685"><ele>341.8</ele><time>2026-03-31T15:02:58.799Z</time></trkpt><trkpt lat="43.4009133" lon="11.5797083"><ele>343.4</ele><time>2026-03-31T15:03:00.8Z</time></trkpt><trkpt lat="43.40099" lon="11.5797933"><ele>345.0</ele><time>2026-03-31T15:03:02.797Z</time></trkpt><trkpt lat="43.4010567" lon="11.579815"><ele>345.0</ele><time>2026-03-31T15:03:03.797Z</time></trkpt><trkpt lat="43.40114" lon="11.57982"><ele>345.0</ele><time>2026-03-31T15:03:04.795Z</time></trkpt><trkpt lat="43.4012317" lon="11.5798183"><ele>345.0</ele><time>2026-03-31T15:03:05.798Z</time></trkpt><trkpt lat="43.4013117" lon="11.5798283"><ele>345.0</ele><time>2026-03-31T15:03:06.797Z</time></trkpt><trkpt lat="43.40138" lon="11.5798583"><ele>345.0</ele><time>2026-03-31T15:03:07.799Z</time></trkpt><trkpt lat="43.401445" lon="11.5799083"><ele>345.0</ele><time>2026-03-31T15:03:08.799Z</time></trkpt><trkpt lat="43.40151" lon="11.5799783"><ele>346.8</ele><time>2026-03-31T15:03:09.798Z</time></trkpt><trkpt lat="43.40157" lon="11.58006"><ele>348.6</ele><time>2026-03-31T15:03:10.797Z</time></trkpt><trkpt lat="43.401625" lon="11.5801517"><ele>350.4</ele><time>2026-03-31T15:03:11.799Z</time></trkpt><trkpt lat="43.401685" lon="11.5802317"><ele>352.2</ele><time>2026-03-31T15:03:12.795Z</time></trkpt><trkpt lat="43.401745" lon="11.5802983"><ele>354.0</ele><time>2026-03-31T15:03:13.796Z</time></trkpt><trkpt lat="43.4018633" lon="11.5802867"><ele>354.0</ele><time>2026-03-31T15:03:15.796Z</time></trkpt><trkpt lat="43.4019417" lon="11.5802483"><ele>354.0</ele><time>2026-03-31T15:03:16.808Z</time></trkpt><trkpt lat="43.4020283" lon="11.5801983"><ele>354.0</ele><time>2026-03-31T15:03:17.795Z</time></trkpt><trkpt lat="43.4021117" lon="11.580135"><ele>354.0</ele><time>2026-03-31T15:03:18.797Z</time></trkpt><trkpt lat="43.4021933" lon="11.5800583"><ele>354.0</ele><time>2026-03-31T15:03:19.796Z</time></trkpt><trkpt lat="43.4022767" lon="11.5799633"><ele>356.79999999999995</ele><time>2026-03-31T15:03:20.796Z</time></trkpt><trkpt lat="43.4023467" lon="11.5798683"><ele>359.59999999999997</ele><time>2026-03-31T15:03:21.797Z</time></trkpt><trkpt lat="43.4024117" lon="11.5797833"><ele>362.4</ele><time>2026-03-31T15:03:22.796Z</time></trkpt><trkpt lat="43.4024833" lon="11.579715"><ele>365.2</ele><time>2026-03-31T15:03:23.799Z</time></trkpt><trkpt lat="43.4025617" lon="11.5796533"><ele>368.0</ele><time>2026-03-31T15:03:24.796Z</time></trkpt><trkpt lat="43.402645" lon="11.5795983"><ele>368.0</ele><time>2026-03-31T15:03:25.792Z</time></trkpt><trkpt lat="43.4027317" lon="11.5795517"><ele>368.0</ele><time>2026-03-31T15:03:26.796Z</time></trkpt><trkpt lat="43.402825" lon="11.5795183"><ele>368.0</ele><time>2026-03-31T15:03:27.796Z</time></trkpt><trkpt lat="43.40292" lon="11.5794983"><ele>368.0</ele><time>2026-03-31T15:03:28.796Z</time></trkpt><trkpt lat="43.4030117" lon="11.57948"><ele>368.0</ele><time>2026-03-31T15:03:29.797Z</time></trkpt><trkpt lat="43.403095" lon="11.57947"><ele>370.79999999999995</ele><time>2026-03-31T15:03:30.797Z</time></trkpt><trkpt lat="43.4031733" lon="11.579475"><ele>373.6</ele><time>2026-03-31T15:03:31.797Z</time></trkpt><trkpt lat="43.403235" lon="11.57951"><ele>376.4</ele><time>2026-03-31T15:03:32.797Z</time></trkpt><trkpt lat="43.40334" lon="11.5795533"><ele>379.20000000000005</ele><time>2026-03-31T15:03:34.798Z</time></trkpt><trkpt lat="43.4034667" lon="11.579495"><ele>382.0</ele><time>2026-03-31T15:03:36.796Z</time></trkpt><trkpt lat="43.4035417" lon="11.5794167"><ele>382.0</ele><time>2026-03-31T15:03:37.796Z</time></trkpt><trkpt lat="43.4036167" lon="11.5793433"><ele>382.0</ele><time>2026-03-31T15:03:38.796Z</time></trkpt><trkpt lat="43.40371" lon="11.579275"><ele>382.0</ele><time>2026-03-31T15:03:39.796Z</time></trkpt><trkpt lat="43.403815" lon="11.57923"><ele>382.0</ele><time>2026-03-31T15:03:40.795Z</time></trkpt><trkpt lat="43.4039233" lon="11.57919"><ele>382.0</ele><time>2026-03-31T15:03:41.796Z</time></trkpt><trkpt lat="43.4040317" lon="11.5791467"><ele>385.20000000000005</ele><time>2026-03-31T15:03:42.795Z</time></trkpt><trkpt lat="43.4041333" lon="11.5791117"><ele>388.4</ele><time>2026-03-31T15:03:43.796Z</time></trkpt><trkpt lat="43.40424" lon="11.5791"><ele>391.6</ele><time>2026-03-31T15:03:44.796Z</time></trkpt><trkpt lat="43.4043433" lon="11.5790783"><ele>394.79999999999995</ele><time>2026-03-31T15:03:45.796Z</time></trkpt><trkpt lat="43.4044433" lon="11.5790433"><ele>398.0</ele><time>2026-03-31T15:03:46.797Z</time></trkpt><trkpt lat="43.4045367" lon="11.5789983"><ele>397.99999999999994</ele><time>2026-03-31T15:03:47.796Z</time></trkpt><trkpt lat="43.4046183" lon="11.578945"><ele>398.0</ele><time>2026-03-31T15:03:48.796Z</time></trkpt><trkpt lat="43.4046917" lon="11.5788933"><ele>398.0</ele><time>2026-03-31T15:03:49.796Z</time></trkpt><trkpt lat="43.404765" lon="11.5788683"><ele>398.0</ele><time>2026-03-31T15:03:50.797Z</time></trkpt><trkpt lat="43.4048317" lon="11.57887"><ele>397.99999999999994</ele><time>2026-03-31T15:03:51.797Z</time></trkpt><trkpt lat="43.404905" lon="11.57889"><ele>398.0</ele><time>2026-03-31T15:03:52.796Z</time></trkpt><trkpt lat="43.4049817" lon="11.5789433"><ele>400.66666666666663</ele><time>2026-03-31T15:03:53.798Z</time></trkpt><trkpt lat="43.4050683" lon="11.57901"><ele>403.3333333333333</ele><time>2026-03-31T15:03:54.796Z</time></trkpt><trkpt lat="43.40514" lon="11.5790733"><ele>406.0</ele><time>2026-03-31T15:03:55.798Z</time></trkpt><trkpt lat="43.4052167" lon="11.5791283"><ele>408.66666666666663</ele><time>2026-03-31T15:03:56.797Z</time></trkpt><trkpt lat="43.4052917" lon="11.5791817"><ele>411.3333333333333</ele><time>2026-03-31T15:03:57.796Z</time></trkpt><trkpt lat="43.40536" lon="11.5792317"><ele>414.0</ele><time>2026-03-31T15:03:58.797Z</time></trkpt><trkpt lat="43.4054067" lon="11.5792983"><ele>414.0</ele><time>2026-03-31T15:03:59.798Z</time></trkpt><trkpt lat="43.4054467" lon="11.5793883"><ele>414.0</ele><time>2026-03-31T15:04:00.796Z</time></trkpt><trkpt lat="43.4054983" lon="11.579485"><ele>414.0</ele><time>2026-03-31T15:04:01.799Z</time></trkpt><trkpt lat="43.40556" lon="11.5795733"><ele>414.0</ele><time>2026-03-31T15:04:02.796Z</time></trkpt><trkpt lat="43.4056317" lon="11.5796367"><ele>414.0</ele><time>2026-03-31T15:04:03.795Z</time></trkpt><trkpt lat="43.4057017" lon="11.5796817"><ele>414.0</ele><time>2026-03-31T15:04:04.796Z</time></trkpt><trkpt lat="43.405765" lon="11.5796833"><ele>416.79999999999995</ele><time>2026-03-31T15:04:05.797Z</time></trkpt><trkpt lat="43.40586" lon="11.5795817"><ele>419.59999999999997</ele><time>2026-03-31T15:04:07.796Z</time></trkpt><trkpt lat="43.4058983" lon="11.57948"><ele>422.4</ele><time>2026-03-31T15:04:08.798Z</time></trkpt><trkpt lat="43.4059333" lon="11.5793867"><ele>425.2</ele><time>2026-03-31T15:04:09.797Z</time></trkpt><trkpt lat="43.4059867" lon="11.579305"><ele>428.0</ele><time>2026-03-31T15:04:10.797Z</time></trkpt><trkpt lat="43.4060617" lon="11.5792317"><ele>429.0</ele><time>2026-03-31T15:04:11.796Z</time></trkpt><trkpt lat="43.406155" lon="11.5791533"><ele>429.99999999999994</ele><time>2026-03-31T15:04:12.796Z</time></trkpt><trkpt lat="43.4062483" lon="11.5790683"><ele>430.99999999999994</ele><time>2026-03-31T15:04:13.796Z</time></trkpt><trkpt lat="43.4063317" lon="11.57898"><ele>432.0</ele><time>2026-03-31T15:04:14.797Z</time></trkpt><trkpt lat="43.4063967" lon="11.5788767"><ele>433.0</ele><time>2026-03-31T15:04:15.795Z</time></trkpt><trkpt lat="43.4064583" lon="11.5787533"><ele>435.59999999999997</ele><time>2026-03-31T15:04:16.797Z</time></trkpt><trkpt lat="43.4065167" lon="11.5786267"><ele>438.19999999999993</ele><time>2026-03-31T15:04:17.796Z</time></trkpt><trkpt lat="43.4065833" lon="11.5785083"><ele>440.8</ele><time>2026-03-31T15:04:18.796Z</time></trkpt><trkpt lat="43.406645" lon="11.578395"><ele>443.4</ele><time>2026-03-31T15:04:19.797Z</time></trkpt><trkpt lat="43.4067" lon="11.5782767"><ele>446.0</ele><time>2026-03-31T15:04:20.796Z</time></trkpt><trkpt lat="43.4067483" lon="11.5781483"><ele>446.0</ele><time>2026-03-31T15:04:21.797Z</time></trkpt><trkpt lat="43.4067917" lon="11.5780033"><ele>446.0</ele><time>2026-03-31T15:04:22.795Z</time></trkpt><trkpt lat="43.406825" lon="11.57784"><ele>446.0</ele><time>2026-03-31T15:04:23.797Z</time></trkpt><trkpt lat="43.4068467" lon="11.5776583"><ele>446.0</ele><time>2026-03-31T15:04:24.796Z</time></trkpt><trkpt lat="43.406855" lon="11.5774933"><ele>447.0</ele><time>2026-03-31T15:04:25.798Z</time></trkpt><trkpt lat="43.406855" lon="11.5773583"><ele>448.0</ele><time>2026-03-31T15:04:26.799Z</time></trkpt><trkpt lat="43.4068467" lon="11.5772317"><ele>449.0</ele><time>2026-03-31T15:04:27.795Z</time></trkpt><trkpt lat="43.40683" lon="11.5771033"><ele>450.0</ele><time>2026-03-31T15:04:28.797Z</time></trkpt><trkpt lat="43.40682" lon="11.5769667"><ele>451.0</ele><time>2026-03-31T15:04:29.798Z</time></trkpt><trkpt lat="43.4068167" lon="11.5768383"><ele>452.50000000000006</ele><time>2026-03-31T15:04:30.799Z</time></trkpt><trkpt lat="43.4068167" lon="11.5767183"><ele>454.0</ele><time>2026-03-31T15:04:31.796Z</time></trkpt><trkpt lat="43.4068067" lon="11.57661"><ele>455.5</ele><time>2026-03-31T15:04:32.797Z</time></trkpt><trkpt lat="43.4067767" lon="11.576515"><ele>457.0</ele><time>2026-03-31T15:04:33.797Z</time></trkpt><trkpt lat="43.40674" lon="11.57641"><ele>458.50000000000006</ele><time>2026-03-31T15:04:34.797Z</time></trkpt><trkpt lat="43.4067" lon="11.576285"><ele>460.0</ele><time>2026-03-31T15:04:35.797Z</time></trkpt><trkpt lat="43.4066667" lon="11.5761733"><ele>461.6666666666667</ele><time>2026-03-31T15:04:36.796Z</time></trkpt><trkpt lat="43.40664" lon="11.5760667"><ele>463.33333333333337</ele><time>2026-03-31T15:04:37.796Z</time></trkpt><trkpt lat="43.40661" lon="11.5759283"><ele>465.0</ele><time>2026-03-31T15:04:39.796Z</time></trkpt><trkpt lat="43.406635" lon="11.57601"><ele>466.66666666666663</ele><time>2026-03-31T15:04:50.799Z</time></trkpt><trkpt lat="43.4066117" lon="11.5760917"><ele>468.3333333333333</ele><time>2026-03-31T15:04:54.804Z</time></trkpt><trkpt lat="43.4065517" lon="11.57605"><ele>470.0</ele><time>2026-03-31T15:06:10.795Z</time></trkpt><trkpt lat="43.4064983" lon="11.5759683"><ele>470.0</ele><time>2026-03-31T15:06:11.795Z</time></trkpt><trkpt lat="43.4064483" lon="11.5758733"><ele>470.0</ele><time>2026-03-31T15:06:12.797Z</time></trkpt><trkpt lat="43.4064067" lon="11.5757583"><ele>470.0</ele><time>2026-03-31T15:06:13.797Z</time></trkpt><trkpt lat="43.4063717" lon="11.5756217"><ele>470.0</ele><time>2026-03-31T15:06:14.794Z</time></trkpt><trkpt lat="43.4063383" lon="11.575475"><ele>470.0</ele><time>2026-03-31T15:06:15.796Z</time></trkpt><trkpt lat="43.4063133" lon="11.5753217"><ele>471.8</ele><time>2026-03-31T15:06:16.795Z</time></trkpt><trkpt lat="43.406305" lon="11.5751717"><ele>473.6</ele><time>2026-03-31T15:06:17.797Z</time></trkpt><trkpt lat="43.4063083" lon="11.57502"><ele>475.4</ele><time>2026-03-31T15:06:18.796Z</time></trkpt><trkpt lat="43.40632" lon="11.5748683"><ele>477.2</ele><time>2026-03-31T15:06:19.796Z</time></trkpt><trkpt lat="43.4063383" lon="11.5747233"><ele>479.0</ele><time>2026-03-31T15:06:20.797Z</time></trkpt><trkpt lat="43.4063567" lon="11.5745917"><ele>480.79999999999995</ele><time>2026-03-31T15:06:21.795Z</time></trkpt><trkpt lat="43.406375" lon="11.5744567"><ele>482.59999999999997</ele><time>2026-03-31T15:06:22.796Z</time></trkpt><trkpt lat="43.406395" lon="11.57432"><ele>484.4</ele><time>2026-03-31T15:06:23.794Z</time></trkpt><trkpt lat="43.4064117" lon="11.5741933"><ele>486.2</ele><time>2026-03-31T15:06:24.795Z</time></trkpt><trkpt lat="43.40642" lon="11.5740833"><ele>488.0</ele><time>2026-03-31T15:06:25.796Z</time></trkpt><trkpt lat="43.4064183" lon="11.57398"><ele>488.0</ele><time>2026-03-31T15:06:26.796Z</time></trkpt><trkpt lat="43.4064017" lon="11.5738867"><ele>487.99999999999994</ele><time>2026-03-31T15:06:27.796Z</time></trkpt><trkpt lat="43.406365" lon="11.5738"><ele>487.99999999999994</ele><time>2026-03-31T15:06:28.796Z</time></trkpt><trkpt lat="43.4062833" lon="11.5737217"><ele>488.0</ele><time>2026-03-31T15:06:29.795Z</time></trkpt><trkpt lat="43.4061817" lon="11.5736367"><ele>488.0</ele><time>2026-03-31T15:06:30.797Z</time></trkpt><trkpt lat="43.4060817" lon="11.5735383"><ele>486.25</ele><time>2026-03-31T15:06:31.796Z</time></trkpt><trkpt lat="43.4059967" lon="11.5734317"><ele>484.5</ele><time>2026-03-31T15:06:32.797Z</time></trkpt><trkpt lat="43.4059233" lon="11.5733067"><ele>482.75</ele><time>2026-03-31T15:06:33.797Z</time></trkpt><trkpt lat="43.4058633" lon="11.5731717"><ele>481.0</ele><time>2026-03-31T15:06:34.796Z</time></trkpt><trkpt lat="43.405805" lon="11.57303"><ele>481.0</ele><time>2026-03-31T15:06:35.796Z</time></trkpt><trkpt lat="43.4057517" lon="11.57288"><ele>481.0</ele><time>2026-03-31T15:06:36.796Z</time></trkpt><trkpt lat="43.4057067" lon="11.5727417"><ele>481.0</ele><time>2026-03-31T15:06:37.796Z</time></trkpt><trkpt lat="43.4056767" lon="11.5725933"><ele>481.0</ele><time>2026-03-31T15:06:38.797Z</time></trkpt><trkpt lat="43.4056467" lon="11.5724367"><ele>479.20000000000005</ele><time>2026-03-31T15:06:39.796Z</time></trkpt><trkpt lat="43.4056033" lon="11.57229"><ele>477.40000000000003</ele><time>2026-03-31T15:06:40.796Z</time></trkpt><trkpt lat="43.405545" lon="11.57217"><ele>475.6</ele><time>2026-03-31T15:06:41.795Z</time></trkpt><trkpt lat="43.40547" lon="11.572065"><ele>473.8</ele><time>2026-03-31T15:06:42.795Z</time></trkpt><trkpt lat="43.405385" lon="11.5719533"><ele>472.0</ele><time>2026-03-31T15:06:43.796Z</time></trkpt><trkpt lat="43.4052983" lon="11.5718033"><ele>472.0</ele><time>2026-03-31T15:06:44.795Z</time></trkpt><trkpt lat="43.405215" lon="11.5716333"><ele>472.0</ele><time>2026-03-31T15:06:45.796Z</time></trkpt><trkpt lat="43.4051433" lon="11.571475"><ele>472.0</ele><time>2026-03-31T15:06:46.797Z</time></trkpt><trkpt lat="43.4050833" lon="11.5713383"><ele>472.0</ele><time>2026-03-31T15:06:47.796Z</time></trkpt><trkpt lat="43.4050333" lon="11.5712117"><ele>474.40000000000003</ele><time>2026-03-31T15:06:48.795Z</time></trkpt><trkpt lat="43.4049933" lon="11.5710717"><ele>476.80000000000007</ele><time>2026-03-31T15:06:49.795Z</time></trkpt><trkpt lat="43.4049633" lon="11.5709183"><ele>479.2</ele><time>2026-03-31T15:06:50.795Z</time></trkpt><trkpt lat="43.4049483" lon="11.570795"><ele>481.6</ele><time>2026-03-31T15:06:51.796Z</time></trkpt><trkpt lat="43.40491" lon="11.570665"><ele>484.0</ele><time>2026-03-31T15:06:53.796Z</time></trkpt><trkpt lat="43.4048067" lon="11.570575"><ele>484.00000000000006</ele><time>2026-03-31T15:06:55.795Z</time></trkpt><trkpt lat="43.404745" lon="11.5705"><ele>484.0</ele><time>2026-03-31T15:06:56.797Z</time></trkpt><trkpt lat="43.4046867" lon="11.570415"><ele>484.0</ele><time>2026-03-31T15:06:57.797Z</time></trkpt><trkpt lat="43.4046433" lon="11.5703083"><ele>484.0</ele><time>2026-03-31T15:06:58.796Z</time></trkpt><trkpt lat="43.4046067" lon="11.5701967"><ele>484.00000000000006</ele><time>2026-03-31T15:06:59.797Z</time></trkpt><trkpt lat="43.4045717" lon="11.5701017"><ele>484.0</ele><time>2026-03-31T15:07:00.795Z</time></trkpt><trkpt lat="43.4045283" lon="11.5700267"><ele>480.00000000000006</ele><time>2026-03-31T15:07:01.797Z</time></trkpt><trkpt lat="43.4044783" lon="11.5699633"><ele>476.0</ele><time>2026-03-31T15:07:02.797Z</time></trkpt><trkpt lat="43.4044283" lon="11.569905"><ele>472.0</ele><time>2026-03-31T15:07:03.798Z</time></trkpt><trkpt lat="43.40438" lon="11.569835"><ele>468.0</ele><time>2026-03-31T15:07:04.797Z</time></trkpt><trkpt lat="43.404335" lon="11.5697433"><ele>464.00000000000006</ele><time>2026-03-31T15:07:05.798Z</time></trkpt><trkpt lat="43.4043033" lon="11.5696317"><ele>460.0</ele><time>2026-03-31T15:07:06.796Z</time></trkpt><trkpt lat="43.40428" lon="11.56951"><ele>459.6666666666667</ele><time>2026-03-31T15:07:07.798Z</time></trkpt><trkpt lat="43.4042533" lon="11.5693983"><ele>459.33333333333337</ele><time>2026-03-31T15:07:08.799Z</time></trkpt><trkpt lat="43.404225" lon="11.569295"><ele>459.0</ele><time>2026-03-31T15:07:09.797Z</time></trkpt><trkpt lat="43.4041883" lon="11.5692017"><ele>458.66666666666663</ele><time>2026-03-31T15:07:10.796Z</time></trkpt><trkpt lat="43.4041367" lon="11.5691267"><ele>458.3333333333333</ele><time>2026-03-31T15:07:11.797Z</time></trkpt><trkpt lat="43.4040783" lon="11.569075"><ele>458.0</ele><time>2026-03-31T15:07:12.796Z</time></trkpt><trkpt lat="43.4040133" lon="11.569055"><ele>457.99999999999994</ele><time>2026-03-31T15:07:13.797Z</time></trkpt><trkpt lat="43.40395" lon="11.569045"><ele>458.0</ele><time>2026-03-31T15:07:14.798Z</time></trkpt><trkpt lat="43.4038867" lon="11.569025"><ele>458.0</ele><time>2026-03-31T15:07:15.796Z</time></trkpt><trkpt lat="43.4038267" lon="11.5689733"><ele>458.0</ele><time>2026-03-31T15:07:16.796Z</time></trkpt><trkpt lat="43.40377" lon="11.5688817"><ele>457.99999999999994</ele><time>2026-03-31T15:07:17.796Z</time></trkpt><trkpt lat="43.4037183" lon="11.56875"><ele>458.0</ele><time>2026-03-31T15:07:18.796Z</time></trkpt><trkpt lat="43.403665" lon="11.5686217"><ele>455.66666666666663</ele><time>2026-03-31T15:07:19.795Z</time></trkpt><trkpt lat="43.403625" lon="11.568505"><ele>453.3333333333333</ele><time>2026-03-31T15:07:20.796Z</time></trkpt><trkpt lat="43.4035933" lon="11.56839"><ele>451.0</ele><time>2026-03-31T15:07:21.797Z</time></trkpt><trkpt lat="43.4035767" lon="11.5682633"><ele>448.66666666666663</ele><time>2026-03-31T15:07:22.795Z</time></trkpt><trkpt lat="43.4035683" lon="11.5681533"><ele>446.3333333333333</ele><time>2026-03-31T15:07:23.795Z</time></trkpt><trkpt lat="43.40356" lon="11.56805"><ele>444.0</ele><time>2026-03-31T15:07:24.795Z</time></trkpt><trkpt lat="43.40354" lon="11.56795"><ele>443.3333333333333</ele><time>2026-03-31T15:07:25.796Z</time></trkpt><trkpt lat="43.4035" lon="11.567855"><ele>442.66666666666663</ele><time>2026-03-31T15:07:26.796Z</time></trkpt><trkpt lat="43.4034417" lon="11.5677783"><ele>442.0</ele><time>2026-03-31T15:07:27.795Z</time></trkpt><trkpt lat="43.4033767" lon="11.56771"><ele>441.3333333333333</ele><time>2026-03-31T15:07:28.796Z</time></trkpt><trkpt lat="43.4033167" lon="11.5676617"><ele>440.66666666666663</ele><time>2026-03-31T15:07:29.796Z</time></trkpt><trkpt lat="43.4032483" lon="11.5676483"><ele>440.0</ele><time>2026-03-31T15:07:31.797Z</time></trkpt><trkpt lat="43.40327" lon="11.5677567"><ele>440.8</ele><time>2026-03-31T15:08:34.796Z</time></trkpt><trkpt lat="43.4032383" lon="11.5679433"><ele>441.6</ele><time>2026-03-31T15:08:36.795Z</time></trkpt><trkpt lat="43.4032167" lon="11.5680583"><ele>442.4</ele><time>2026-03-31T15:08:37.796Z</time></trkpt><trkpt lat="43.403185" lon="11.568165"><ele>443.2</ele><time>2026-03-31T15:08:38.801Z</time></trkpt><trkpt lat="43.4031517" lon="11.568245"><ele>444.0</ele><time>2026-03-31T15:08:39.792Z</time></trkpt><trkpt lat="43.4030483" lon="11.5683517"><ele>444.0</ele><time>2026-03-31T15:08:41.79Z</time></trkpt><trkpt lat="43.4029983" lon="11.56841"><ele>444.0</ele><time>2026-03-31T15:08:42.794Z</time></trkpt><trkpt lat="43.402955" lon="11.5684783"><ele>444.0</ele><time>2026-03-31T15:08:43.795Z</time></trkpt><trkpt lat="43.4029167" lon="11.56856"><ele>444.0</ele><time>2026-03-31T15:08:44.795Z</time></trkpt><trkpt lat="43.402875" lon="11.568655"><ele>444.0</ele><time>2026-03-31T15:08:45.797Z</time></trkpt><trkpt lat="43.4028283" lon="11.568745"><ele>444.0</ele><time>2026-03-31T15:08:46.795Z</time></trkpt><trkpt lat="43.4027767" lon="11.5688217"><ele>444.0</ele><time>2026-03-31T15:08:47.795Z</time></trkpt><trkpt lat="43.4027283" lon="11.5688967"><ele>438.4</ele><time>2026-03-31T15:08:48.796Z</time></trkpt><trkpt lat="43.4026817" lon="11.5690383"><ele>432.79999999999995</ele><time>2026-03-31T15:08:50.798Z</time></trkpt><trkpt lat="43.4026383" lon="11.5691417"><ele>427.20000000000005</ele><time>2026-03-31T15:08:52.796Z</time></trkpt><trkpt lat="43.4025683" lon="11.569215"><ele>421.6</ele><time>2026-03-31T15:08:54.795Z</time></trkpt><trkpt lat="43.4024467" lon="11.569285"><ele>416.0</ele><time>2026-03-31T15:08:56.797Z</time></trkpt><trkpt lat="43.4023717" lon="11.569315"><ele>415.99999999999994</ele><time>2026-03-31T15:08:57.795Z</time></trkpt><trkpt lat="43.4022883" lon="11.5693367"><ele>416.0</ele><time>2026-03-31T15:08:58.796Z</time></trkpt><trkpt lat="43.4022233" lon="11.5693583"><ele>416.0</ele><time>2026-03-31T15:08:59.797Z</time></trkpt><trkpt lat="43.4021117" lon="11.5694333"><ele>416.0</ele><time>2026-03-31T15:09:01.8Z</time></trkpt><trkpt lat="43.4020567" lon="11.569505"><ele>415.99999999999994</ele><time>2026-03-31T15:09:02.8Z</time></trkpt><trkpt lat="43.401985" lon="11.5695867"><ele>416.0</ele><time>2026-03-31T15:09:03.798Z</time></trkpt><trkpt lat="43.4018917" lon="11.5696467"><ele>412.0</ele><time>2026-03-31T15:09:04.795Z</time></trkpt><trkpt lat="43.4017767" lon="11.5696867"><ele>408.0</ele><time>2026-03-31T15:09:05.798Z</time></trkpt><trkpt lat="43.4016617" lon="11.569715"><ele>404.0</ele><time>2026-03-31T15:09:06.796Z</time></trkpt><trkpt lat="43.401555" lon="11.5697183"><ele>400.0</ele><time>2026-03-31T15:09:07.796Z</time></trkpt><trkpt lat="43.4014633" lon="11.5696967"><ele>396.0</ele><time>2026-03-31T15:09:08.796Z</time></trkpt><trkpt lat="43.4013833" lon="11.5696517"><ele>395.0</ele><time>2026-03-31T15:09:09.796Z</time></trkpt><trkpt lat="43.401305" lon="11.5696067"><ele>394.0</ele><time>2026-03-31T15:09:10.797Z</time></trkpt><trkpt lat="43.40123" lon="11.5695767"><ele>393.0</ele><time>2026-03-31T15:09:11.798Z</time></trkpt><trkpt lat="43.40115" lon="11.56957"><ele>392.0</ele><time>2026-03-31T15:09:12.796Z</time></trkpt><trkpt lat="43.4010683" lon="11.5695717"><ele>391.0</ele><time>2026-03-31T15:09:13.794Z</time></trkpt><trkpt lat="43.400985" lon="11.5695733"><ele>390.0</ele><time>2026-03-31T15:09:14.798Z</time></trkpt><trkpt lat="43.400905" lon="11.5695783"><ele>390.0</ele><time>2026-03-31T15:09:15.798Z</time></trkpt><trkpt lat="43.4008317" lon="11.5696017"><ele>390.0</ele><time>2026-03-31T15:09:16.796Z</time></trkpt><trkpt lat="43.40076" lon="11.56965"><ele>390.0</ele><time>2026-03-31T15:09:17.796Z</time></trkpt><trkpt lat="43.4006933" lon="11.5696983"><ele>390.0</ele><time>2026-03-31T15:09:18.798Z</time></trkpt><trkpt lat="43.4006267" lon="11.5697167"><ele>390.0</ele><time>2026-03-31T15:09:19.798Z</time></trkpt><trkpt lat="43.4005033" lon="11.5697083"><ele>390.0</ele><time>2026-03-31T15:09:21.796Z</time></trkpt><trkpt lat="43.4004317" lon="11.5697217"><ele>387.3333333333333</ele><time>2026-03-31T15:09:22.796Z</time></trkpt><trkpt lat="43.4003683" lon="11.569765"><ele>384.6666666666667</ele><time>2026-03-31T15:09:23.796Z</time></trkpt><trkpt lat="43.400305" lon="11.56984"><ele>382.0</ele><time>2026-03-31T15:09:24.796Z</time></trkpt><trkpt lat="43.400255" lon="11.5699133"><ele>379.33333333333337</ele><time>2026-03-31T15:09:25.796Z</time></trkpt><trkpt lat="43.400215" lon="11.5700067"><ele>376.6666666666667</ele><time>2026-03-31T15:09:26.797Z</time></trkpt><trkpt lat="43.40018" lon="11.5701067"><ele>374.0</ele><time>2026-03-31T15:09:27.796Z</time></trkpt><trkpt lat="43.40014" lon="11.570215"><ele>374.0</ele><time>2026-03-31T15:09:28.796Z</time></trkpt><trkpt lat="43.4001" lon="11.570325"><ele>374.0</ele><time>2026-03-31T15:09:29.794Z</time></trkpt><trkpt lat="43.4000533" lon="11.5704283"><ele>374.0</ele><time>2026-03-31T15:09:30.796Z</time></trkpt><trkpt lat="43.400005" lon="11.5705317"><ele>374.0</ele><time>2026-03-31T15:09:31.796Z</time></trkpt><trkpt lat="43.3999433" lon="11.57063"><ele>374.0</ele><time>2026-03-31T15:09:32.797Z</time></trkpt><trkpt lat="43.39987" lon="11.5707167"><ele>372.79999999999995</ele><time>2026-03-31T15:09:33.798Z</time></trkpt><trkpt lat="43.3998017" lon="11.5707917"><ele>371.59999999999997</ele><time>2026-03-31T15:09:34.791Z</time></trkpt><trkpt lat="43.3997333" lon="11.570855"><ele>370.4</ele><time>2026-03-31T15:09:35.796Z</time></trkpt><trkpt lat="43.3996667" lon="11.5708983"><ele>369.2</ele><time>2026-03-31T15:09:36.796Z</time></trkpt><trkpt lat="43.3995667" lon="11.570965"><ele>368.0</ele><time>2026-03-31T15:09:38.796Z</time></trkpt><trkpt lat="43.399495" lon="11.5710733"><ele>365.0</ele><time>2026-03-31T15:09:40.796Z</time></trkpt><trkpt lat="43.3994817" lon="11.5711617"><ele>362.0</ele><time>2026-03-31T15:09:41.796Z</time></trkpt><trkpt lat="43.39946" lon="11.5712567"><ele>359.0</ele><time>2026-03-31T15:09:42.797Z</time></trkpt><trkpt lat="43.3994383" lon="11.5713517"><ele>356.0</ele><time>2026-03-31T15:09:43.797Z</time></trkpt><trkpt lat="43.3994067" lon="11.571435"><ele>353.0</ele><time>2026-03-31T15:09:44.797Z</time></trkpt><trkpt lat="43.3993283" lon="11.5715367"><ele>350.0</ele><time>2026-03-31T15:09:46.796Z</time></trkpt><trkpt lat="43.399245" lon="11.5715733"><ele>349.1666666666667</ele><time>2026-03-31T15:09:48.799Z</time></trkpt><trkpt lat="43.399165" lon="11.5716233"><ele>348.33333333333337</ele><time>2026-03-31T15:09:50.796Z</time></trkpt><trkpt lat="43.3991017" lon="11.571685"><ele>347.5</ele><time>2026-03-31T15:09:52.795Z</time></trkpt><trkpt lat="43.3990367" lon="11.5717183"><ele>346.6666666666667</ele><time>2026-03-31T15:09:54.795Z</time></trkpt><trkpt lat="43.398975" lon="11.57175"><ele>345.8333333333333</ele><time>2026-03-31T15:09:57.798Z</time></trkpt><trkpt lat="43.3989617" lon="11.5718733"><ele>345.0</ele><time>2026-03-31T15:10:01.796Z</time></trkpt><trkpt lat="43.3990317" lon="11.5719583"><ele>345.0</ele><time>2026-03-31T15:10:03.796Z</time></trkpt><trkpt lat="43.3990917" lon="11.572015"><ele>345.0</ele><time>2026-03-31T15:10:04.796Z</time></trkpt><trkpt lat="43.3991517" lon="11.572085"><ele>345.0</ele><time>2026-03-31T15:10:05.794Z</time></trkpt><trkpt lat="43.3992083" lon="11.5721667"><ele>345.0</ele><time>2026-03-31T15:10:06.797Z</time></trkpt><trkpt lat="43.3992667" lon="11.5722583"><ele>345.0</ele><time>2026-03-31T15:10:07.797Z</time></trkpt><trkpt lat="43.3993233" lon="11.572355"><ele>345.0</ele><time>2026-03-31T15:10:08.797Z</time></trkpt><trkpt lat="43.3993767" lon="11.5724483"><ele>344.3333333333333</ele><time>2026-03-31T15:10:09.795Z</time></trkpt><trkpt lat="43.3994367" lon="11.57254"><ele>343.6666666666667</ele><time>2026-03-31T15:10:10.796Z</time></trkpt><trkpt lat="43.39951" lon="11.5726183"><ele>343.0</ele><time>2026-03-31T15:10:11.797Z</time></trkpt><trkpt lat="43.3995917" lon="11.5726633"><ele>342.33333333333337</ele><time>2026-03-31T15:10:12.795Z</time></trkpt><trkpt lat="43.3996683" lon="11.5726917"><ele>341.6666666666667</ele><time>2026-03-31T15:10:13.797Z</time></trkpt><trkpt lat="43.3997367" lon="11.5727083"><ele>341.0</ele><time>2026-03-31T15:10:14.793Z</time></trkpt><trkpt lat="43.3998017" lon="11.5727233"><ele>341.0</ele><time>2026-03-31T15:10:16.796Z</time></trkpt><trkpt lat="43.3997117" lon="11.5727883"><ele>341.0</ele><time>2026-03-31T15:10:38.796Z</time></trkpt><trkpt lat="43.399645" lon="11.5728667"><ele>341.0</ele><time>2026-03-31T15:10:40.796Z</time></trkpt><trkpt lat="43.3995683" lon="11.572975"><ele>341.0</ele><time>2026-03-31T15:10:42.796Z</time></trkpt><trkpt lat="43.39952" lon="11.5730383"><ele>341.0</ele><time>2026-03-31T15:10:43.795Z</time></trkpt><trkpt lat="43.3994567" lon="11.57312"><ele>339.5</ele><time>2026-03-31T15:10:44.797Z</time></trkpt><trkpt lat="43.39937" lon="11.5732133"><ele>338.0</ele><time>2026-03-31T15:10:45.795Z</time></trkpt><trkpt lat="43.39928" lon="11.5733083"><ele>336.5</ele><time>2026-03-31T15:10:46.796Z</time></trkpt><trkpt lat="43.399185" lon="11.57341"><ele>335.0</ele><time>2026-03-31T15:10:47.797Z</time></trkpt><trkpt lat="43.3990917" lon="11.5735067"><ele>335.0</ele><time>2026-03-31T15:10:48.796Z</time></trkpt><trkpt lat="43.3989933" lon="11.5736017"><ele>335.0</ele><time>2026-03-31T15:10:49.796Z</time></trkpt><trkpt lat="43.3988967" lon="11.5736983"><ele>335.0</ele><time>2026-03-31T15:10:50.798Z</time></trkpt><trkpt lat="43.3988117" lon="11.573785"><ele>335.0</ele><time>2026-03-31T15:10:51.795Z</time></trkpt><trkpt lat="43.3987483" lon="11.5738517"><ele>335.0</ele><time>2026-03-31T15:10:52.796Z</time></trkpt><trkpt lat="43.3986933" lon="11.5738967"><ele>334.6</ele><time>2026-03-31T15:10:53.796Z</time></trkpt><trkpt lat="43.3987633" lon="11.57389"><ele>334.2</ele><time>2026-03-31T15:11:24.795Z</time></trkpt><trkpt lat="43.3988483" lon="11.5739067"><ele>333.79999999999995</ele><time>2026-03-31T15:11:25.795Z</time></trkpt><trkpt lat="43.3989533" lon="11.5739567"><ele>333.4</ele><time>2026-03-31T15:11:26.797Z</time></trkpt><trkpt lat="43.3990867" lon="11.5740317"><ele>333.0</ele><time>2026-03-31T15:11:27.796Z</time></trkpt><trkpt lat="43.3992" lon="11.57409"><ele>334.59999999999997</ele><time>2026-03-31T15:11:28.795Z</time></trkpt><trkpt lat="43.3992967" lon="11.5741367"><ele>336.2</ele><time>2026-03-31T15:11:29.795Z</time></trkpt><trkpt lat="43.3993867" lon="11.5741633"><ele>337.8</ele><time>2026-03-31T15:11:30.796Z</time></trkpt><trkpt lat="43.39946" lon="11.57412"><ele>339.4</ele><time>2026-03-31T15:11:32.796Z</time></trkpt><trkpt lat="43.3995267" lon="11.5740233"><ele>341.0</ele><time>2026-03-31T15:11:34.795Z</time></trkpt><trkpt lat="43.3996383" lon="11.5739367"><ele>343.1666666666667</ele><time>2026-03-31T15:11:36.795Z</time></trkpt><trkpt lat="43.399715" lon="11.5739167"><ele>345.33333333333337</ele><time>2026-03-31T15:11:37.795Z</time></trkpt><trkpt lat="43.3997983" lon="11.5739117"><ele>347.5</ele><time>2026-03-31T15:11:38.796Z</time></trkpt><trkpt lat="43.39989" lon="11.5739367"><ele>349.6666666666667</ele><time>2026-03-31T15:11:39.796Z</time></trkpt><trkpt lat="43.399975" lon="11.5739917"><ele>351.8333333333333</ele><time>2026-03-31T15:11:40.795Z</time></trkpt><trkpt lat="43.40005" lon="11.5740683"><ele>354.0</ele><time>2026-03-31T15:11:41.796Z</time></trkpt><trkpt lat="43.40011" lon="11.57415"><ele>354.0</ele><time>2026-03-31T15:11:42.794Z</time></trkpt><trkpt lat="43.4001617" lon="11.5742583"><ele>354.0</ele><time>2026-03-31T15:11:43.795Z</time></trkpt><trkpt lat="43.400225" lon="11.5743683"><ele>354.0</ele><time>2026-03-31T15:11:44.796Z</time></trkpt><trkpt lat="43.4002967" lon="11.5744567"><ele>354.0</ele><time>2026-03-31T15:11:45.794Z</time></trkpt><trkpt lat="43.4003667" lon="11.5745167"><ele>354.0</ele><time>2026-03-31T15:11:46.794Z</time></trkpt><trkpt lat="43.400445" lon="11.57456"><ele>356.6666666666667</ele><time>2026-03-31T15:11:47.796Z</time></trkpt><trkpt lat="43.400535" lon="11.5745833"><ele>359.3333333333333</ele><time>2026-03-31T15:11:48.796Z</time></trkpt><trkpt lat="43.4006217" lon="11.5745817"><ele>362.0</ele><time>2026-03-31T15:11:49.796Z</time></trkpt><trkpt lat="43.400695" lon="11.5745667"><ele>364.66666666666663</ele><time>2026-03-31T15:11:50.798Z</time></trkpt><trkpt lat="43.400755" lon="11.5745367"><ele>367.3333333333333</ele><time>2026-03-31T15:11:51.796Z</time></trkpt><trkpt lat="43.40083" lon="11.574415"><ele>370.0</ele><time>2026-03-31T15:11:53.794Z</time></trkpt><trkpt lat="43.4009467" lon="11.5743467"><ele>370.0</ele><time>2026-03-31T15:11:55.796Z</time></trkpt><trkpt lat="43.4010283" lon="11.57436"><ele>370.0</ele><time>2026-03-31T15:11:56.796Z</time></trkpt><trkpt lat="43.4011283" lon="11.574405"><ele>370.0</ele><time>2026-03-31T15:11:57.795Z</time></trkpt><trkpt lat="43.4012433" lon="11.574475"><ele>370.0</ele><time>2026-03-31T15:11:58.796Z</time></trkpt><trkpt lat="43.4013517" lon="11.57453"><ele>370.0</ele><time>2026-03-31T15:11:59.795Z</time></trkpt><trkpt lat="43.4014567" lon="11.5745867"><ele>373.4</ele><time>2026-03-31T15:12:00.795Z</time></trkpt><trkpt lat="43.4015533" lon="11.5746517"><ele>376.8</ele><time>2026-03-31T15:12:01.795Z</time></trkpt><trkpt lat="43.4016417" lon="11.57472"><ele>380.20000000000005</ele><time>2026-03-31T15:12:02.796Z</time></trkpt><trkpt lat="43.401715" lon="11.5747933"><ele>383.6</ele><time>2026-03-31T15:12:03.794Z</time></trkpt><trkpt lat="43.4017733" lon="11.5748783"><ele>387.0</ele><time>2026-03-31T15:12:04.795Z</time></trkpt><trkpt lat="43.40182" lon="11.574995"><ele>387.0</ele><time>2026-03-31T15:12:05.795Z</time></trkpt><trkpt lat="43.40185" lon="11.57511"><ele>387.0</ele><time>2026-03-31T15:12:06.795Z</time></trkpt><trkpt lat="43.4018833" lon="11.5752"><ele>387.0</ele><time>2026-03-31T15:12:07.796Z</time></trkpt><trkpt lat="43.4019933" lon="11.575285"><ele>387.0</ele><time>2026-03-31T15:12:09.796Z</time></trkpt><trkpt lat="43.4020783" lon="11.5752867"><ele>387.0</ele><time>2026-03-31T15:12:10.796Z</time></trkpt><trkpt lat="43.4021833" lon="11.5752933"><ele>389.8</ele><time>2026-03-31T15:12:11.796Z</time></trkpt><trkpt lat="43.4022917" lon="11.575305"><ele>392.6</ele><time>2026-03-31T15:12:12.795Z</time></trkpt><trkpt lat="43.4024033" lon="11.5753133"><ele>395.40000000000003</ele><time>2026-03-31T15:12:13.797Z</time></trkpt><trkpt lat="43.402515" lon="11.5753167"><ele>398.20000000000005</ele><time>2026-03-31T15:12:14.797Z</time></trkpt><trkpt lat="43.4026283" lon="11.5753283"><ele>401.0</ele><time>2026-03-31T15:12:15.796Z</time></trkpt><trkpt lat="43.4027533" lon="11.5753483"><ele>400.25</ele><time>2026-03-31T15:12:16.795Z</time></trkpt><trkpt lat="43.4028817" lon="11.575365"><ele>399.5</ele><time>2026-03-31T15:12:17.796Z</time></trkpt><trkpt lat="43.4030067" lon="11.5753883"><ele>398.75</ele><time>2026-03-31T15:12:18.797Z</time></trkpt><trkpt lat="43.4031317" lon="11.575435"><ele>398.0</ele><time>2026-03-31T15:12:19.795Z</time></trkpt><trkpt lat="43.403265" lon="11.5754833"><ele>400.0</ele><time>2026-03-31T15:12:20.798Z</time></trkpt><trkpt lat="43.4033983" lon="11.57552"><ele>402.0</ele><time>2026-03-31T15:12:21.796Z</time></trkpt><trkpt lat="43.4035267" lon="11.575545"><ele>404.0</ele><time>2026-03-31T15:12:22.793Z</time></trkpt><trkpt lat="43.403645" lon="11.5755483"><ele>406.0</ele><time>2026-03-31T15:12:23.796Z</time></trkpt><trkpt lat="43.4037467" lon="11.5755483"><ele>408.20000000000005</ele><time>2026-03-31T15:12:24.794Z</time></trkpt><trkpt lat="43.40384" lon="11.57557"><ele>410.40000000000003</ele><time>2026-03-31T15:12:25.796Z</time></trkpt><trkpt lat="43.40393" lon="11.575615"><ele>412.6</ele><time>2026-03-31T15:12:26.795Z</time></trkpt><trkpt lat="43.404015" lon="11.5756833"><ele>414.8</ele><time>2026-03-31T15:12:27.795Z</time></trkpt><trkpt lat="43.4040917" lon="11.5757583"><ele>417.0</ele><time>2026-03-31T15:12:28.795Z</time></trkpt><trkpt lat="43.4041683" lon="11.5758117"><ele>417.0</ele><time>2026-03-31T15:12:29.795Z</time></trkpt><trkpt lat="43.4042517" lon="11.5758367"><ele>417.0</ele><time>2026-03-31T15:12:30.795Z</time></trkpt><trkpt lat="43.40434" lon="11.5758167"><ele>417.0</ele><time>2026-03-31T15:12:31.796Z</time></trkpt><trkpt lat="43.4044183" lon="11.57579"><ele>417.0</ele><time>2026-03-31T15:12:32.796Z</time></trkpt><trkpt lat="43.4044883" lon="11.5757733"><ele>417.0</ele><time>2026-03-31T15:12:33.795Z</time></trkpt><trkpt lat="43.4045617" lon="11.5757733"><ele>417.0</ele><time>2026-03-31T15:12:34.795Z</time></trkpt><trkpt lat="43.404655" lon="11.575775"><ele>419.6</ele><time>2026-03-31T15:12:35.796Z</time></trkpt><trkpt lat="43.4047717" lon="11.5757833"><ele>422.20000000000005</ele><time>2026-03-31T15:12:36.796Z</time></trkpt><trkpt lat="43.404875" lon="11.5757833"><ele>424.8</ele><time>2026-03-31T15:12:37.796Z</time></trkpt><trkpt lat="43.4049783" lon="11.575775"><ele>427.4</ele><time>2026-03-31T15:12:38.791Z</time></trkpt><trkpt lat="43.40509" lon="11.5757683"><ele>430.0</ele><time>2026-03-31T15:12:39.796Z</time></trkpt><trkpt lat="43.4051933" lon="11.575775"><ele>430.0</ele><time>2026-03-31T15:12:40.793Z</time></trkpt><trkpt lat="43.4052933" lon="11.5758067"><ele>430.0</ele><time>2026-03-31T15:12:41.793Z</time></trkpt><trkpt lat="43.4053883" lon="11.5758333"><ele>430.0</ele><time>2026-03-31T15:12:42.795Z</time></trkpt><trkpt lat="43.4054883" lon="11.5758333"><ele>430.0</ele><time>2026-03-31T15:12:43.796Z</time></trkpt><trkpt lat="43.4055933" lon="11.5758333"><ele>430.0</ele><time>2026-03-31T15:12:44.797Z</time></trkpt><trkpt lat="43.4057067" lon="11.57585"><ele>433.1666666666667</ele><time>2026-03-31T15:12:45.796Z</time></trkpt><trkpt lat="43.4058233" lon="11.5758833"><ele>436.33333333333337</ele><time>2026-03-31T15:12:46.796Z</time></trkpt><trkpt lat="43.40591" lon="11.5759267"><ele>439.5</ele><time>2026-03-31T15:12:47.795Z</time></trkpt><trkpt lat="43.4059767" lon="11.5759567"><ele>442.66666666666663</ele><time>2026-03-31T15:12:48.795Z</time></trkpt><trkpt lat="43.4060483" lon="11.5759"><ele>445.8333333333333</ele><time>2026-03-31T15:12:51.796Z</time></trkpt><trkpt lat="43.4060433" lon="11.57581"><ele>449.0</ele><time>2026-03-31T15:12:52.797Z</time></trkpt><trkpt lat="43.406045" lon="11.5757117"><ele>449.0</ele><time>2026-03-31T15:12:53.797Z</time></trkpt><trkpt lat="43.4060817" lon="11.5755667"><ele>449.0</ele><time>2026-03-31T15:12:55.795Z</time></trkpt><trkpt lat="43.4062033" lon="11.5755333"><ele>449.0</ele><time>2026-03-31T15:12:57.798Z</time></trkpt><trkpt lat="43.4062833" lon="11.5755583"><ele>449.0</ele><time>2026-03-31T15:12:58.795Z</time></trkpt><trkpt lat="43.406345" lon="11.5755933"><ele>449.0</ele><time>2026-03-31T15:12:59.795Z</time></trkpt><trkpt lat="43.4064217" lon="11.5756567"><ele>452.49999999999994</ele><time>2026-03-31T15:13:01.795Z</time></trkpt><trkpt lat="43.406435" lon="11.575795"><ele>456.0</ele><time>2026-03-31T15:13:05.795Z</time></trkpt><trkpt lat="43.406475" lon="11.5758883"><ele>459.5</ele><time>2026-03-31T15:13:06.796Z</time></trkpt><trkpt lat="43.4065183" lon="11.5759767"><ele>463.0</ele><time>2026-03-31T15:13:07.795Z</time></trkpt><trkpt lat="43.4065783" lon="11.5760733"><ele>466.49999999999994</ele><time>2026-03-31T15:13:09.796Z</time></trkpt><trkpt lat="43.4066517" lon="11.5759933"><ele>470.0</ele><time>2026-03-31T15:13:12.794Z</time></trkpt><trkpt lat="43.406675" lon="11.5759083"><ele>470.0</ele><time>2026-03-31T15:13:13.795Z</time></trkpt><trkpt lat="43.4067083" lon="11.57578"><ele>470.0</ele><time>2026-03-31T15:13:14.796Z</time></trkpt><trkpt lat="43.4067483" lon="11.5756467"><ele>470.0</ele><time>2026-03-31T15:13:15.796Z</time></trkpt><trkpt lat="43.406795" lon="11.5755183"><ele>470.0</ele><time>2026-03-31T15:13:16.794Z</time></trkpt><trkpt lat="43.4068333" lon="11.5754117"><ele>470.0</ele><time>2026-03-31T15:13:17.795Z</time></trkpt><trkpt lat="43.4068683" lon="11.575295"><ele>471.49999999999994</ele><time>2026-03-31T15:13:18.796Z</time></trkpt><trkpt lat="43.4068983" lon="11.5751817"><ele>473.0</ele><time>2026-03-31T15:13:19.797Z</time></trkpt><trkpt lat="43.4069333" lon="11.575075"><ele>474.5</ele><time>2026-03-31T15:13:20.797Z</time></trkpt><trkpt lat="43.406985" lon="11.5749933"><ele>476.0</ele><time>2026-03-31T15:13:21.795Z</time></trkpt><trkpt lat="43.4070517" lon="11.5749367"><ele>477.49999999999994</ele><time>2026-03-31T15:13:22.796Z</time></trkpt><trkpt lat="43.4071517" lon="11.57485"><ele>479.0</ele><time>2026-03-31T15:13:24.798Z</time></trkpt><trkpt lat="43.4071917" lon="11.5746983"><ele>481.4</ele><time>2026-03-31T15:13:26.794Z</time></trkpt><trkpt lat="43.4072917" lon="11.57459"><ele>483.79999999999995</ele><time>2026-03-31T15:13:28.797Z</time></trkpt><trkpt lat="43.4073733" lon="11.57457"><ele>486.20000000000005</ele><time>2026-03-31T15:13:29.795Z</time></trkpt><trkpt lat="43.40746" lon="11.574545"><ele>488.6</ele><time>2026-03-31T15:13:30.795Z</time></trkpt><trkpt lat="43.4075783" lon="11.574525"><ele>491.0</ele><time>2026-03-31T15:13:31.794Z</time></trkpt><trkpt lat="43.4076883" lon="11.5744967"><ele>494.20000000000005</ele><time>2026-03-31T15:13:32.797Z</time></trkpt><trkpt lat="43.4077867" lon="11.5744517"><ele>497.40000000000003</ele><time>2026-03-31T15:13:33.796Z</time></trkpt><trkpt lat="43.4078667" lon="11.574385"><ele>500.6</ele><time>2026-03-31T15:13:34.794Z</time></trkpt><trkpt lat="43.4079417" lon="11.5743033"><ele>503.8</ele><time>2026-03-31T15:13:35.795Z</time></trkpt><trkpt lat="43.408025" lon="11.57422"><ele>507.0</ele><time>2026-03-31T15:13:36.795Z</time></trkpt><trkpt lat="43.40811" lon="11.574155"><ele>507.1666666666667</ele><time>2026-03-31T15:13:37.794Z</time></trkpt><trkpt lat="43.40819" lon="11.5740967"><ele>507.33333333333337</ele><time>2026-03-31T15:13:38.797Z</time></trkpt><trkpt lat="43.4082567" lon="11.574035"><ele>507.5</ele><time>2026-03-31T15:13:39.795Z</time></trkpt><trkpt lat="43.4083183" lon="11.573965"><ele>507.6666666666667</ele><time>2026-03-31T15:13:40.795Z</time></trkpt><trkpt lat="43.408375" lon="11.57387"><ele>507.83333333333337</ele><time>2026-03-31T15:13:41.797Z</time></trkpt><trkpt lat="43.4084317" lon="11.57376"><ele>508.0</ele><time>2026-03-31T15:13:42.797Z</time></trkpt><trkpt lat="43.4085033" lon="11.573665"><ele>511.4</ele><time>2026-03-31T15:13:43.797Z</time></trkpt><trkpt lat="43.408585" lon="11.573585"><ele>514.8</ele><time>2026-03-31T15:13:44.796Z</time></trkpt><trkpt lat="43.40867" lon="11.5735317"><ele>518.2</ele><time>2026-03-31T15:13:45.793Z</time></trkpt><trkpt lat="43.40877" lon="11.5734833"><ele>521.6</ele><time>2026-03-31T15:13:46.796Z</time></trkpt><trkpt lat="43.40888" lon="11.5734633"><ele>525.0</ele><time>2026-03-31T15:13:47.795Z</time></trkpt><trkpt lat="43.4090033" lon="11.5734267"><ele>525.0</ele><time>2026-03-31T15:13:48.796Z</time></trkpt><trkpt lat="43.4091117" lon="11.5733867"><ele>525.0</ele><time>2026-03-31T15:13:49.796Z</time></trkpt><trkpt lat="43.409215" lon="11.5733167"><ele>525.0</ele><time>2026-03-31T15:13:50.797Z</time></trkpt><trkpt lat="43.4092983" lon="11.5732333"><ele>525.0</ele><time>2026-03-31T15:13:51.796Z</time></trkpt><trkpt lat="43.409375" lon="11.5731167"><ele>525.0</ele><time>2026-03-31T15:13:52.797Z</time></trkpt><trkpt lat="43.409455" lon="11.57298"><ele>525.5</ele><time>2026-03-31T15:13:53.797Z</time></trkpt><trkpt lat="43.4095283" lon="11.5728433"><ele>526.0</ele><time>2026-03-31T15:13:54.796Z</time></trkpt><trkpt lat="43.4096083" lon="11.57272"><ele>526.5</ele><time>2026-03-31T15:13:55.795Z</time></trkpt><trkpt lat="43.409685" lon="11.572615"><ele>527.0</ele><time>2026-03-31T15:13:56.798Z</time></trkpt><trkpt lat="43.40976" lon="11.5725"><ele>527.0</ele><time>2026-03-31T15:13:57.795Z</time></trkpt><trkpt lat="43.4098267" lon="11.572355"><ele>527.0</ele><time>2026-03-31T15:13:58.796Z</time></trkpt><trkpt lat="43.4098983" lon="11.57219"><ele>527.0</ele><time>2026-03-31T15:13:59.797Z</time></trkpt><trkpt lat="43.4099783" lon="11.57202"><ele>527.0</ele><time>2026-03-31T15:14:00.795Z</time></trkpt><trkpt lat="43.4100583" lon="11.5718567"><ele>528.0</ele><time>2026-03-31T15:14:01.797Z</time></trkpt><trkpt lat="43.4101217" lon="11.5717183"><ele>529.0</ele><time>2026-03-31T15:14:02.794Z</time></trkpt><trkpt lat="43.4101767" lon="11.57161"><ele>530.0</ele><time>2026-03-31T15:14:03.797Z</time></trkpt><trkpt lat="43.410225" lon="11.5715267"><ele>531.0</ele><time>2026-03-31T15:14:04.795Z</time></trkpt><trkpt lat="43.4102733" lon="11.571465"><ele>532.0</ele><time>2026-03-31T15:14:05.796Z</time></trkpt><trkpt lat="43.410345" lon="11.571345"><ele>532.0</ele><time>2026-03-31T15:14:07.796Z</time></trkpt><trkpt lat="43.41036" lon="11.57126"><ele>532.0</ele><time>2026-03-31T15:14:08.795Z</time></trkpt><trkpt lat="43.4103667" lon="11.5711383"><ele>532.0</ele><time>2026-03-31T15:14:09.796Z</time></trkpt><trkpt lat="43.41038" lon="11.571015"><ele>532.0</ele><time>2026-03-31T15:14:10.796Z</time></trkpt><trkpt lat="43.410395" lon="11.5708833"><ele>532.0</ele><time>2026-03-31T15:14:11.795Z</time></trkpt><trkpt lat="43.410415" lon="11.5707633"><ele>532.0</ele><time>2026-03-31T15:14:12.795Z</time></trkpt><trkpt lat="43.4104283" lon="11.5706333"><ele>531.6</ele><time>2026-03-31T15:14:13.795Z</time></trkpt><trkpt lat="43.41043" lon="11.57049"><ele>531.2</ele><time>2026-03-31T15:14:14.796Z</time></trkpt><trkpt lat="43.4104217" lon="11.5703417"><ele>530.8</ele><time>2026-03-31T15:14:15.797Z</time></trkpt><trkpt lat="43.4104083" lon="11.5702"><ele>530.4</ele><time>2026-03-31T15:14:16.796Z</time></trkpt><trkpt lat="43.410395" lon="11.5700483"><ele>530.0</ele><time>2026-03-31T15:14:17.796Z</time></trkpt><trkpt lat="43.41038" lon="11.5698933"><ele>528.6</ele><time>2026-03-31T15:14:18.796Z</time></trkpt><trkpt lat="43.410365" lon="11.5697367"><ele>527.2</ele><time>2026-03-31T15:14:19.797Z</time></trkpt><trkpt lat="43.4103467" lon="11.56959"><ele>525.8</ele><time>2026-03-31T15:14:20.798Z</time></trkpt><trkpt lat="43.4103233" lon="11.569455"><ele>524.4</ele><time>2026-03-31T15:14:21.796Z</time></trkpt><trkpt lat="43.4103133" lon="11.5693117"><ele>523.0</ele><time>2026-03-31T15:14:22.797Z</time></trkpt><trkpt lat="43.4103133" lon="11.56916"><ele>520.4</ele><time>2026-03-31T15:14:23.796Z</time></trkpt><trkpt lat="43.410325" lon="11.568995"><ele>517.8</ele><time>2026-03-31T15:14:24.796Z</time></trkpt><trkpt lat="43.4103533" lon="11.5688417"><ele>515.2</ele><time>2026-03-31T15:14:25.791Z</time></trkpt><trkpt lat="43.4104" lon="11.5687033"><ele>512.6</ele><time>2026-03-31T15:14:26.798Z</time></trkpt><trkpt lat="43.410465" lon="11.5685933"><ele>510.0</ele><time>2026-03-31T15:14:27.796Z</time></trkpt><trkpt lat="43.4105517" lon="11.56851"><ele>509.4</ele><time>2026-03-31T15:14:28.794Z</time></trkpt><trkpt lat="43.410645" lon="11.5684367"><ele>508.8</ele><time>2026-03-31T15:14:29.796Z</time></trkpt><trkpt lat="43.4107333" lon="11.568355"><ele>508.20000000000005</ele><time>2026-03-31T15:14:30.796Z</time></trkpt><trkpt lat="43.41082" lon="11.56828"><ele>507.6</ele><time>2026-03-31T15:14:31.795Z</time></trkpt><trkpt lat="43.4109067" lon="11.5682117"><ele>507.0</ele><time>2026-03-31T15:14:32.796Z</time></trkpt><trkpt lat="43.41099" lon="11.568175"><ele>507.0</ele><time>2026-03-31T15:14:33.796Z</time></trkpt><trkpt lat="43.4110667" lon="11.5681533"><ele>507.0</ele><time>2026-03-31T15:14:34.796Z</time></trkpt><trkpt lat="43.4111433" lon="11.5681633"><ele>507.0</ele><time>2026-03-31T15:14:35.794Z</time></trkpt><trkpt lat="43.4112117" lon="11.5681767"><ele>507.0</ele><time>2026-03-31T15:14:36.795Z</time></trkpt><trkpt lat="43.4112817" lon="11.5681717"><ele>507.0</ele><time>2026-03-31T15:14:37.797Z</time></trkpt><trkpt lat="43.4113433" lon="11.568135"><ele>507.0</ele><time>2026-03-31T15:14:38.797Z</time></trkpt><trkpt lat="43.4114033" lon="11.568085"><ele>507.0</ele><time>2026-03-31T15:14:39.796Z</time></trkpt><trkpt lat="43.4114733" lon="11.5680367"><ele>507.6</ele><time>2026-03-31T15:14:40.795Z</time></trkpt><trkpt lat="43.4115633" lon="11.5680033"><ele>508.20000000000005</ele><time>2026-03-31T15:14:41.795Z</time></trkpt><trkpt lat="43.411655" lon="11.5679683"><ele>508.8</ele><time>2026-03-31T15:14:42.796Z</time></trkpt><trkpt lat="43.4117517" lon="11.5679067"><ele>509.4</ele><time>2026-03-31T15:14:43.796Z</time></trkpt><trkpt lat="43.41185" lon="11.567825"><ele>510.0</ele><time>2026-03-31T15:14:44.797Z</time></trkpt><trkpt lat="43.411945" lon="11.5677383"><ele>513.25</ele><time>2026-03-31T15:14:45.796Z</time></trkpt><trkpt lat="43.4120483" lon="11.56765"><ele>516.5</ele><time>2026-03-31T15:14:46.796Z</time></trkpt><trkpt lat="43.4121617" lon="11.56756"><ele>519.75</ele><time>2026-03-31T15:14:47.795Z</time></trkpt><trkpt lat="43.412285" lon="11.5674733"><ele>523.0</ele><time>2026-03-31T15:14:48.796Z</time></trkpt><trkpt lat="43.412405" lon="11.5673917"><ele>523.6666666666667</ele><time>2026-03-31T15:14:49.798Z</time></trkpt><trkpt lat="43.41251" lon="11.5673233"><ele>524.3333333333334</ele><time>2026-03-31T15:14:50.797Z</time></trkpt><trkpt lat="43.4125867" lon="11.5672617"><ele>525.0</ele><time>2026-03-31T15:14:51.793Z</time></trkpt><trkpt lat="43.4126467" lon="11.5671833"><ele>525.6666666666666</ele><time>2026-03-31T15:14:52.796Z</time></trkpt><trkpt lat="43.4126767" lon="11.5671033"><ele>526.3333333333333</ele><time>2026-03-31T15:14:53.797Z</time></trkpt><trkpt lat="43.41266" lon="11.5669917"><ele>527.0</ele><time>2026-03-31T15:14:55.795Z</time></trkpt><trkpt lat="43.41261" lon="11.566915"><ele>529.0</ele><time>2026-03-31T15:14:56.796Z</time></trkpt><trkpt lat="43.4125617" lon="11.566835"><ele>531.0</ele><time>2026-03-31T15:14:57.796Z</time></trkpt><trkpt lat="43.412485" lon="11.5667483"><ele>533.0</ele><time>2026-03-31T15:14:58.796Z</time></trkpt><trkpt lat="43.412405" lon="11.5666717"><ele>535.0</ele><time>2026-03-31T15:14:59.795Z</time></trkpt><trkpt lat="43.4123333" lon="11.56658"><ele>537.0</ele><time>2026-03-31T15:15:00.795Z</time></trkpt><trkpt lat="43.41228" lon="11.5664667"><ele>537.0</ele><time>2026-03-31T15:15:01.796Z</time></trkpt><trkpt lat="43.412255" lon="11.5663417"><ele>537.0</ele><time>2026-03-31T15:15:02.798Z</time></trkpt><trkpt lat="43.4122583" lon="11.5662167"><ele>537.0</ele><time>2026-03-31T15:15:03.797Z</time></trkpt><trkpt lat="43.4122817" lon="11.56609"><ele>537.0</ele><time>2026-03-31T15:15:04.797Z</time></trkpt><trkpt lat="43.4123067" lon="11.5659783"><ele>537.0</ele><time>2026-03-31T15:15:05.799Z</time></trkpt><trkpt lat="43.41233" lon="11.5658667"><ele>537.0</ele><time>2026-03-31T15:15:06.798Z</time></trkpt><trkpt lat="43.4123567" lon="11.5657567"><ele>539.0</ele><time>2026-03-31T15:15:07.799Z</time></trkpt><trkpt lat="43.4123933" lon="11.5656633"><ele>541.0</ele><time>2026-03-31T15:15:08.799Z</time></trkpt><trkpt lat="43.41243" lon="11.5655783"><ele>543.0</ele><time>2026-03-31T15:15:09.797Z</time></trkpt><trkpt lat="43.4124617" lon="11.5655033"><ele>545.0</ele><time>2026-03-31T15:15:10.797Z</time></trkpt><trkpt lat="43.412465" lon="11.56535"><ele>547.0</ele><time>2026-03-31T15:15:12.796Z</time></trkpt><trkpt lat="43.4124367" lon="11.5652383"><ele>549.0</ele><time>2026-03-31T15:15:13.798Z</time></trkpt><trkpt lat="43.4124067" lon="11.5651317"><ele>549.8</ele><time>2026-03-31T15:15:14.799Z</time></trkpt><trkpt lat="43.4124033" lon="11.5650333"><ele>550.5999999999999</ele><time>2026-03-31T15:15:16.796Z</time></trkpt><trkpt lat="43.412485" lon="11.5649483"><ele>551.4</ele><time>2026-03-31T15:15:25.798Z</time></trkpt><trkpt lat="43.412555" lon="11.5648833"><ele>552.1999999999999</ele><time>2026-03-31T15:15:26.797Z</time></trkpt><trkpt lat="43.4126417" lon="11.5648017"><ele>553.0</ele><time>2026-03-31T15:15:27.799Z</time></trkpt><trkpt lat="43.412735" lon="11.5646967"><ele>553.0</ele><time>2026-03-31T15:15:28.796Z</time></trkpt><trkpt lat="43.4128283" lon="11.5646167"><ele>553.0</ele><time>2026-03-31T15:15:29.795Z</time></trkpt><trkpt lat="43.4129317" lon="11.5645633"><ele>553.0</ele><time>2026-03-31T15:15:30.795Z</time></trkpt><trkpt lat="43.4130467" lon="11.5645533"><ele>553.0</ele><time>2026-03-31T15:15:31.796Z</time></trkpt><trkpt lat="43.4131633" lon="11.5645667"><ele>556.25</ele><time>2026-03-31T15:15:32.798Z</time></trkpt><trkpt lat="43.4132733" lon="11.5645917"><ele>559.5</ele><time>2026-03-31T15:15:33.796Z</time></trkpt><trkpt lat="43.4133917" lon="11.564605"><ele>562.75</ele><time>2026-03-31T15:15:34.797Z</time></trkpt><trkpt lat="43.413515" lon="11.5646"><ele>566.0</ele><time>2026-03-31T15:15:35.794Z</time></trkpt><trkpt lat="43.4136417" lon="11.564575"><ele>566.0</ele><time>2026-03-31T15:15:36.795Z</time></trkpt><trkpt lat="43.4137533" lon="11.5645417"><ele>566.0</ele><time>2026-03-31T15:15:37.797Z</time></trkpt><trkpt lat="43.4138483" lon="11.5645233"><ele>566.0</ele><time>2026-03-31T15:15:38.797Z</time></trkpt><trkpt lat="43.41394" lon="11.5645283"><ele>566.0</ele><time>2026-03-31T15:15:39.795Z</time></trkpt><trkpt lat="43.4140283" lon="11.56459"><ele>566.0</ele><time>2026-03-31T15:15:40.796Z</time></trkpt><trkpt lat="43.4141133" lon="11.5647"><ele>567.0</ele><time>2026-03-31T15:15:41.796Z</time></trkpt><trkpt lat="43.414185" lon="11.5648017"><ele>568.0</ele><time>2026-03-31T15:15:42.794Z</time></trkpt><trkpt lat="43.4142567" lon="11.564875"><ele>569.0</ele><time>2026-03-31T15:15:43.794Z</time></trkpt><trkpt lat="43.41434" lon="11.56489"><ele>570.0</ele><time>2026-03-31T15:15:44.799Z</time></trkpt><trkpt lat="43.4144217" lon="11.5648667"><ele>571.0</ele><time>2026-03-31T15:15:45.796Z</time></trkpt><trkpt lat="43.4145033" lon="11.5648"><ele>571.0</ele><time>2026-03-31T15:15:46.796Z</time></trkpt><trkpt lat="43.414575" lon="11.5647167"><ele>571.0</ele><time>2026-03-31T15:15:47.795Z</time></trkpt><trkpt lat="43.41465" lon="11.5646333"><ele>571.0</ele><time>2026-03-31T15:15:48.796Z</time></trkpt><trkpt lat="43.4147317" lon="11.5645667"><ele>571.0</ele><time>2026-03-31T15:15:49.795Z</time></trkpt><trkpt lat="43.4148233" lon="11.5645267"><ele>571.0</ele><time>2026-03-31T15:15:50.797Z</time></trkpt><trkpt lat="43.4149183" lon="11.5644833"><ele>574.0</ele><time>2026-03-31T15:15:51.795Z</time></trkpt><trkpt lat="43.4150167" lon="11.5644067"><ele>577.0</ele><time>2026-03-31T15:15:52.796Z</time></trkpt><trkpt lat="43.4151133" lon="11.5643233"><ele>580.0</ele><time>2026-03-31T15:15:53.796Z</time></trkpt><trkpt lat="43.4152083" lon="11.5642367"><ele>583.0</ele><time>2026-03-31T15:15:54.797Z</time></trkpt><trkpt lat="43.415305" lon="11.56414"><ele>583.0</ele><time>2026-03-31T15:15:55.796Z</time></trkpt><trkpt lat="43.4154017" lon="11.564045"><ele>583.0</ele><time>2026-03-31T15:15:56.797Z</time></trkpt><trkpt lat="43.4155067" lon="11.563955"><ele>583.0</ele><time>2026-03-31T15:15:57.796Z</time></trkpt><trkpt lat="43.41561" lon="11.5638633"><ele>583.0</ele><time>2026-03-31T15:15:58.795Z</time></trkpt><trkpt lat="43.4157133" lon="11.563765"><ele>581.6</ele><time>2026-03-31T15:15:59.797Z</time></trkpt><trkpt lat="43.4158167" lon="11.5636767"><ele>580.1999999999999</ele><time>2026-03-31T15:16:00.794Z</time></trkpt><trkpt lat="43.4159167" lon="11.5636067"><ele>578.8</ele><time>2026-03-31T15:16:01.793Z</time></trkpt><trkpt lat="43.4160083" lon="11.5635467"><ele>577.4</ele><time>2026-03-31T15:16:02.797Z</time></trkpt><trkpt lat="43.4160783" lon="11.5634933"><ele>576.0</ele><time>2026-03-31T15:16:03.796Z</time></trkpt><trkpt lat="43.4161367" lon="11.56345"><ele>576.0</ele><time>2026-03-31T15:16:04.796Z</time></trkpt><trkpt lat="43.4162" lon="11.5634267"><ele>576.0</ele><time>2026-03-31T15:16:05.796Z</time></trkpt><trkpt lat="43.4162783" lon="11.5634317"><ele>576.0</ele><time>2026-03-31T15:16:06.797Z</time></trkpt><trkpt lat="43.4163717" lon="11.5634483"><ele>576.0</ele><time>2026-03-31T15:16:07.795Z</time></trkpt><trkpt lat="43.4165083" lon="11.5634967"><ele>576.0</ele><time>2026-03-31T15:16:08.797Z</time></trkpt><trkpt lat="43.416675" lon="11.56358"><ele>575.0</ele><time>2026-03-31T15:16:09.796Z</time></trkpt><trkpt lat="43.4168417" lon="11.5636767"><ele>574.0</ele><time>2026-03-31T15:16:10.795Z</time></trkpt><trkpt lat="43.416995" lon="11.56377"><ele>573.0</ele><time>2026-03-31T15:16:11.795Z</time></trkpt><trkpt lat="43.417135" lon="11.56385"><ele>573.0</ele><time>2026-03-31T15:16:12.794Z</time></trkpt><trkpt lat="43.417265" lon="11.5639183"><ele>573.0</ele><time>2026-03-31T15:16:13.796Z</time></trkpt><trkpt lat="43.417385" lon="11.5639817"><ele>573.0</ele><time>2026-03-31T15:16:14.793Z</time></trkpt><trkpt lat="43.4174983" lon="11.5640267"><ele>573.0</ele><time>2026-03-31T15:16:15.795Z</time></trkpt><trkpt lat="43.4176" lon="11.564065"><ele>573.0</ele><time>2026-03-31T15:16:16.796Z</time></trkpt><trkpt lat="43.4176883" lon="11.5640883"><ele>573.0</ele><time>2026-03-31T15:16:17.797Z</time></trkpt><trkpt lat="43.4177617" lon="11.56411"><ele>573.0</ele><time>2026-03-31T15:16:18.796Z</time></trkpt><trkpt lat="43.4178267" lon="11.5641433"><ele>573.0</ele><time>2026-03-31T15:16:19.796Z</time></trkpt><trkpt lat="43.417885" lon="11.564195"><ele>573.0</ele><time>2026-03-31T15:16:20.796Z</time></trkpt><trkpt lat="43.417925" lon="11.564285"><ele>573.0</ele><time>2026-03-31T15:16:21.797Z</time></trkpt><trkpt lat="43.4179433" lon="11.56439"><ele>573.0</ele><time>2026-03-31T15:16:22.795Z</time></trkpt><trkpt lat="43.4179533" lon="11.5644833"><ele>573.0</ele><time>2026-03-31T15:16:23.796Z</time></trkpt><trkpt lat="43.4179733" lon="11.56457"><ele>573.0</ele><time>2026-03-31T15:16:24.798Z</time></trkpt><trkpt lat="43.418045" lon="11.5646733"><ele>573.0</ele><time>2026-03-31T15:16:26.797Z</time></trkpt><trkpt lat="43.4181233" lon="11.5646617"><ele>573.0</ele><time>2026-03-31T15:16:27.798Z</time></trkpt><trkpt lat="43.4182183" lon="11.56463"><ele>573.0</ele><time>2026-03-31T15:16:28.797Z</time></trkpt><trkpt lat="43.4183383" lon="11.5646083"><ele>570.0</ele><time>2026-03-31T15:16:29.796Z</time></trkpt><trkpt lat="43.418465" lon="11.5646067"><ele>567.0</ele><time>2026-03-31T15:16:30.796Z</time></trkpt><trkpt lat="43.4185833" lon="11.5646283"><ele>564.0</ele><time>2026-03-31T15:16:31.795Z</time></trkpt><trkpt lat="43.4187033" lon="11.5646733"><ele>561.0</ele><time>2026-03-31T15:16:32.797Z</time></trkpt><trkpt lat="43.4188283" lon="11.5647433"><ele>559.0</ele><time>2026-03-31T15:16:33.797Z</time></trkpt><trkpt lat="43.4189567" lon="11.5648333"><ele>557.0</ele><time>2026-03-31T15:16:34.795Z</time></trkpt><trkpt lat="43.41909" lon="11.5649367"><ele>555.0</ele><time>2026-03-31T15:16:35.796Z</time></trkpt><trkpt lat="43.4192283" lon="11.5650217"><ele>553.0</ele><time>2026-03-31T15:16:36.796Z</time></trkpt><trkpt lat="43.4193717" lon="11.5650933"><ele>553.0</ele><time>2026-03-31T15:16:37.797Z</time></trkpt><trkpt lat="43.4195333" lon="11.5651517"><ele>553.0</ele><time>2026-03-31T15:16:38.798Z</time></trkpt><trkpt lat="43.4197033" lon="11.5651983"><ele>553.0</ele><time>2026-03-31T15:16:39.796Z</time></trkpt><trkpt lat="43.419865" lon="11.5652367"><ele>554.5</ele><time>2026-03-31T15:16:40.796Z</time></trkpt><trkpt lat="43.4200167" lon="11.5652517"><ele>556.0</ele><time>2026-03-31T15:16:41.796Z</time></trkpt><trkpt lat="43.420165" lon="11.5652483"><ele>557.5</ele><time>2026-03-31T15:16:42.796Z</time></trkpt><trkpt lat="43.420305" lon="11.5652317"><ele>559.0</ele><time>2026-03-31T15:16:43.796Z</time></trkpt><trkpt lat="43.42043" lon="11.5652067"><ele>561.0</ele><time>2026-03-31T15:16:44.797Z</time></trkpt><trkpt lat="43.4205383" lon="11.5651633"><ele>563.0</ele><time>2026-03-31T15:16:45.796Z</time></trkpt><trkpt lat="43.4206333" lon="11.56511"><ele>565.0</ele><time>2026-03-31T15:16:46.796Z</time></trkpt><trkpt lat="43.4207183" lon="11.56504"><ele>567.0</ele><time>2026-03-31T15:16:47.797Z</time></trkpt><trkpt lat="43.4207867" lon="11.5649617"><ele>569.0</ele><time>2026-03-31T15:16:48.796Z</time></trkpt><trkpt lat="43.420845" lon="11.564875"><ele>569.0</ele><time>2026-03-31T15:16:49.796Z</time></trkpt><trkpt lat="43.4208933" lon="11.5647767"><ele>569.0</ele><time>2026-03-31T15:16:50.796Z</time></trkpt><trkpt lat="43.420935" lon="11.5646683"><ele>569.0</ele><time>2026-03-31T15:16:51.797Z</time></trkpt><trkpt lat="43.4209733" lon="11.5645683"><ele>569.0</ele><time>2026-03-31T15:16:52.796Z</time></trkpt><trkpt lat="43.4210183" lon="11.564485"><ele>569.0</ele><time>2026-03-31T15:16:53.796Z</time></trkpt><trkpt lat="43.4210833" lon="11.564415"><ele>569.0</ele><time>2026-03-31T15:16:54.797Z</time></trkpt><trkpt lat="43.4211683" lon="11.5643617"><ele>570.0</ele><time>2026-03-31T15:16:55.798Z</time></trkpt><trkpt lat="43.4212533" lon="11.564325"><ele>571.0</ele><time>2026-03-31T15:16:56.799Z</time></trkpt><trkpt lat="43.4213417" lon="11.5643033"><ele>572.0</ele><time>2026-03-31T15:16:57.798Z</time></trkpt><trkpt lat="43.421455" lon="11.564295"><ele>573.0</ele><time>2026-03-31T15:16:58.797Z</time></trkpt><trkpt lat="43.42157" lon="11.5643"><ele>574.0</ele><time>2026-03-31T15:16:59.797Z</time></trkpt><trkpt lat="43.421695" lon="11.5643183"><ele>577.0</ele><time>2026-03-31T15:17:00.799Z</time></trkpt><trkpt lat="43.4218167" lon="11.5643283"><ele>580.0</ele><time>2026-03-31T15:17:01.799Z</time></trkpt><trkpt lat="43.4219367" lon="11.5643417"><ele>583.0</ele><time>2026-03-31T15:17:02.797Z</time></trkpt><trkpt lat="43.422055" lon="11.5643483"><ele>586.0</ele><time>2026-03-31T15:17:03.796Z</time></trkpt><trkpt lat="43.4221683" lon="11.5643567"><ele>588.75</ele><time>2026-03-31T15:17:04.797Z</time></trkpt><trkpt lat="43.422285" lon="11.564345"><ele>591.5</ele><time>2026-03-31T15:17:05.795Z</time></trkpt><trkpt lat="43.4224017" lon="11.5643317"><ele>594.25</ele><time>2026-03-31T15:17:06.793Z</time></trkpt><trkpt lat="43.4225233" lon="11.56431"><ele>597.0</ele><time>2026-03-31T15:17:07.797Z</time></trkpt><trkpt lat="43.4226383" lon="11.564285"><ele>597.0</ele><time>2026-03-31T15:17:08.797Z</time></trkpt><trkpt lat="43.4227467" lon="11.5642783"><ele>597.0</ele><time>2026-03-31T15:17:09.796Z</time></trkpt><trkpt lat="43.4228567" lon="11.5643"><ele>597.0</ele><time>2026-03-31T15:17:10.796Z</time></trkpt><trkpt lat="43.422975" lon="11.5643417"><ele>597.0</ele><time>2026-03-31T15:17:11.796Z</time></trkpt><trkpt lat="43.42311" lon="11.5643833"><ele>597.75</ele><time>2026-03-31T15:17:12.796Z</time></trkpt><trkpt lat="43.4232583" lon="11.5644083"><ele>598.5</ele><time>2026-03-31T15:17:13.796Z</time></trkpt><trkpt lat="43.4234067" lon="11.5644317"><ele>599.25</ele><time>2026-03-31T15:17:14.798Z</time></trkpt><trkpt lat="43.423545" lon="11.564455"><ele>600.0</ele><time>2026-03-31T15:17:15.797Z</time></trkpt><trkpt lat="43.4236767" lon="11.564475"><ele>600.0</ele><time>2026-03-31T15:17:16.795Z</time></trkpt><trkpt lat="43.4237983" lon="11.5644783"><ele>600.0</ele><time>2026-03-31T15:17:17.796Z</time></trkpt><trkpt lat="43.4239083" lon="11.5644567"><ele>600.0</ele><time>2026-03-31T15:17:18.797Z</time></trkpt><trkpt lat="43.4240183" lon="11.56442"><ele>600.0</ele><time>2026-03-31T15:17:19.797Z</time></trkpt><trkpt lat="43.42413" lon="11.5643933"><ele>600.0</ele><time>2026-03-31T15:17:20.797Z</time></trkpt><trkpt lat="43.4242367" lon="11.56438"><ele>600.0</ele><time>2026-03-31T15:17:21.795Z</time></trkpt><trkpt lat="43.4243317" lon="11.5644133"><ele>600.0</ele><time>2026-03-31T15:17:22.795Z</time></trkpt><trkpt lat="43.42442" lon="11.5644733"><ele>600.0</ele><time>2026-03-31T15:17:23.797Z</time></trkpt><trkpt lat="43.4244967" lon="11.56456"><ele>600.0</ele><time>2026-03-31T15:17:24.796Z</time></trkpt><trkpt lat="43.4245683" lon="11.5646417"><ele>599.5</ele><time>2026-03-31T15:17:25.795Z</time></trkpt><trkpt lat="43.42465" lon="11.5647167"><ele>599.0</ele><time>2026-03-31T15:17:26.798Z</time></trkpt><trkpt lat="43.4247517" lon="11.5647783"><ele>598.5</ele><time>2026-03-31T15:17:27.797Z</time></trkpt><trkpt lat="43.4248667" lon="11.5648283"><ele>598.0</ele><time>2026-03-31T15:17:28.796Z</time></trkpt><trkpt lat="43.424985" lon="11.56489"><ele>598.0</ele><time>2026-03-31T15:17:29.795Z</time></trkpt><trkpt lat="43.4251" lon="11.5649417"><ele>598.0</ele><time>2026-03-31T15:17:30.796Z</time></trkpt><trkpt lat="43.4252117" lon="11.5649967"><ele>598.0</ele><time>2026-03-31T15:17:31.798Z</time></trkpt><trkpt lat="43.4253317" lon="11.565025"><ele>598.0</ele><time>2026-03-31T15:17:32.796Z</time></trkpt><trkpt lat="43.425455" lon="11.5650317"><ele>597.75</ele><time>2026-03-31T15:17:33.795Z</time></trkpt><trkpt lat="43.4255667" lon="11.5650417"><ele>597.5</ele><time>2026-03-31T15:17:34.796Z</time></trkpt><trkpt lat="43.4256767" lon="11.5650517"><ele>597.25</ele><time>2026-03-31T15:17:35.796Z</time></trkpt><trkpt lat="43.425795" lon="11.5650283"><ele>597.0</ele><time>2026-03-31T15:17:36.797Z</time></trkpt><trkpt lat="43.4259267" lon="11.56499"><ele>597.0</ele><time>2026-03-31T15:17:37.796Z</time></trkpt><trkpt lat="43.4260583" lon="11.564945"><ele>597.0</ele><time>2026-03-31T15:17:38.797Z</time></trkpt><trkpt lat="43.4261883" lon="11.56491"><ele>597.0</ele><time>2026-03-31T15:17:39.795Z</time></trkpt><trkpt lat="43.4263167" lon="11.56488"><ele>597.0</ele><time>2026-03-31T15:17:40.793Z</time></trkpt><trkpt lat="43.4264417" lon="11.5648667"><ele>596.8000000000001</ele><time>2026-03-31T15:17:41.797Z</time></trkpt><trkpt lat="43.4265567" lon="11.564845"><ele>596.6</ele><time>2026-03-31T15:17:42.795Z</time></trkpt><trkpt lat="43.4266633" lon="11.5648217"><ele>596.4000000000001</ele><time>2026-03-31T15:17:43.794Z</time></trkpt><trkpt lat="43.42677" lon="11.5648"><ele>596.2</ele><time>2026-03-31T15:17:44.796Z</time></trkpt><trkpt lat="43.4268733" lon="11.564785"><ele>596.0</ele><time>2026-03-31T15:17:45.795Z</time></trkpt><trkpt lat="43.4269817" lon="11.5647967"><ele>596.0</ele><time>2026-03-31T15:17:46.795Z</time></trkpt><trkpt lat="43.427085" lon="11.564815"><ele>596.0</ele><time>2026-03-31T15:17:47.796Z</time></trkpt><trkpt lat="43.4271833" lon="11.5648217"><ele>596.0</ele><time>2026-03-31T15:17:48.797Z</time></trkpt><trkpt lat="43.42727" lon="11.5647767"><ele>596.0</ele><time>2026-03-31T15:17:49.796Z</time></trkpt><trkpt lat="43.42735" lon="11.5647033"><ele>596.0</ele><time>2026-03-31T15:17:50.796Z</time></trkpt><trkpt lat="43.4274217" lon="11.5646233"><ele>596.2</ele><time>2026-03-31T15:17:51.795Z</time></trkpt><trkpt lat="43.4275033" lon="11.56456"><ele>596.4000000000001</ele><time>2026-03-31T15:17:52.794Z</time></trkpt><trkpt lat="43.4275983" lon="11.5645283"><ele>596.6</ele><time>2026-03-31T15:17:53.795Z</time></trkpt><trkpt lat="43.4277017" lon="11.5645283"><ele>596.8000000000001</ele><time>2026-03-31T15:17:54.794Z</time></trkpt><trkpt lat="43.42781" lon="11.5645617"><ele>597.0</ele><time>2026-03-31T15:17:55.796Z</time></trkpt><trkpt lat="43.42791" lon="11.5646017"><ele>598.5</ele><time>2026-03-31T15:17:56.796Z</time></trkpt><trkpt lat="43.4279967" lon="11.5646333"><ele>600.0</ele><time>2026-03-31T15:17:57.795Z</time></trkpt><trkpt lat="43.4280767" lon="11.5646617"><ele>601.5</ele><time>2026-03-31T15:17:58.795Z</time></trkpt><trkpt lat="43.428155" lon="11.564685"><ele>603.0</ele><time>2026-03-31T15:17:59.797Z</time></trkpt><trkpt lat="43.428225" lon="11.5647"><ele>604.5</ele><time>2026-03-31T15:18:00.796Z</time></trkpt><trkpt lat="43.4282933" lon="11.56472"><ele>606.0</ele><time>2026-03-31T15:18:01.794Z</time></trkpt><trkpt lat="43.428405" lon="11.5647517"><ele>606.0</ele><time>2026-03-31T15:18:03.796Z</time></trkpt><trkpt lat="43.42853" lon="11.56475"><ele>606.0</ele><time>2026-03-31T15:18:05.796Z</time></trkpt><trkpt lat="43.4286033" lon="11.5647283"><ele>606.0</ele><time>2026-03-31T15:18:06.796Z</time></trkpt><trkpt lat="43.4286867" lon="11.5647"><ele>606.0</ele><time>2026-03-31T15:18:07.796Z</time></trkpt><trkpt lat="43.428765" lon="11.564695"><ele>606.0</ele><time>2026-03-31T15:18:08.797Z</time></trkpt><trkpt lat="43.4288517" lon="11.5647133"><ele>608.6</ele><time>2026-03-31T15:18:09.796Z</time></trkpt><trkpt lat="43.4289083" lon="11.5647967"><ele>611.2</ele><time>2026-03-31T15:18:10.796Z</time></trkpt><trkpt lat="43.4289733" lon="11.564885"><ele>613.8</ele><time>2026-03-31T15:18:11.797Z</time></trkpt><trkpt lat="43.429045" lon="11.5649567"><ele>616.4</ele><time>2026-03-31T15:18:12.796Z</time></trkpt><trkpt lat="43.4291283" lon="11.5650317"><ele>619.0</ele><time>2026-03-31T15:18:13.796Z</time></trkpt><trkpt lat="43.4292433" lon="11.5650783"><ele>619.0</ele><time>2026-03-31T15:18:14.796Z</time></trkpt><trkpt lat="43.4293467" lon="11.56511"><ele>619.0</ele><time>2026-03-31T15:18:15.796Z</time></trkpt><trkpt lat="43.4294583" lon="11.5651433"><ele>619.0</ele><time>2026-03-31T15:18:16.797Z</time></trkpt><trkpt lat="43.4295617" lon="11.56519"><ele>619.0</ele><time>2026-03-31T15:18:17.795Z</time></trkpt><trkpt lat="43.4296717" lon="11.56523"><ele>619.0</ele><time>2026-03-31T15:18:18.797Z</time></trkpt><trkpt lat="43.4297933" lon="11.565255"><ele>619.2</ele><time>2026-03-31T15:18:19.795Z</time></trkpt><trkpt lat="43.429905" lon="11.5652617"><ele>619.4</ele><time>2026-03-31T15:18:20.797Z</time></trkpt><trkpt lat="43.4300017" lon="11.5652383"><ele>619.6</ele><time>2026-03-31T15:18:21.796Z</time></trkpt><trkpt lat="43.4300783" lon="11.565185"><ele>619.8</ele><time>2026-03-31T15:18:22.795Z</time></trkpt><trkpt lat="43.4301367" lon="11.565105"><ele>620.0</ele><time>2026-03-31T15:18:23.797Z</time></trkpt><trkpt lat="43.4301917" lon="11.5650267"><ele>620.0</ele><time>2026-03-31T15:18:24.793Z</time></trkpt><trkpt lat="43.4302317" lon="11.5649517"><ele>620.0</ele><time>2026-03-31T15:18:25.796Z</time></trkpt><trkpt lat="43.43029" lon="11.56489"><ele>620.0</ele><time>2026-03-31T15:18:26.797Z</time></trkpt><trkpt lat="43.4303783" lon="11.56486"><ele>620.0</ele><time>2026-03-31T15:18:27.794Z</time></trkpt><trkpt lat="43.4304767" lon="11.56485"><ele>620.0</ele><time>2026-03-31T15:18:28.796Z</time></trkpt><trkpt lat="43.4305817" lon="11.5648817"><ele>620.0</ele><time>2026-03-31T15:18:29.795Z</time></trkpt><trkpt lat="43.4306933" lon="11.56492"><ele>621.0</ele><time>2026-03-31T15:18:30.796Z</time></trkpt><trkpt lat="43.4308083" lon="11.5649583"><ele>622.0</ele><time>2026-03-31T15:18:31.794Z</time></trkpt><trkpt lat="43.4309183" lon="11.5649867"><ele>623.0</ele><time>2026-03-31T15:18:32.797Z</time></trkpt><trkpt lat="43.43102" lon="11.564995"><ele>624.0</ele><time>2026-03-31T15:18:33.795Z</time></trkpt><trkpt lat="43.4311117" lon="11.565"><ele>625.0</ele><time>2026-03-31T15:18:34.794Z</time></trkpt><trkpt lat="43.431205" lon="11.5649917"><ele>625.0</ele><time>2026-03-31T15:18:35.795Z</time></trkpt><trkpt lat="43.431305" lon="11.5649567"><ele>625.0</ele><time>2026-03-31T15:18:36.795Z</time></trkpt><trkpt lat="43.4314033" lon="11.5648633"><ele>625.0</ele><time>2026-03-31T15:18:37.794Z</time></trkpt><trkpt lat="43.4314917" lon="11.5647583"><ele>625.0</ele><time>2026-03-31T15:18:38.795Z</time></trkpt><trkpt lat="43.4315833" lon="11.564635"><ele>624.5</ele><time>2026-03-31T15:18:39.796Z</time></trkpt><trkpt lat="43.4316717" lon="11.5645133"><ele>624.0</ele><time>2026-03-31T15:18:40.795Z</time></trkpt><trkpt lat="43.431755" lon="11.5643967"><ele>623.5</ele><time>2026-03-31T15:18:41.796Z</time></trkpt><trkpt lat="43.4318367" lon="11.564285"><ele>623.0</ele><time>2026-03-31T15:18:42.796Z</time></trkpt><trkpt lat="43.431915" lon="11.56417"><ele>623.0</ele><time>2026-03-31T15:18:43.794Z</time></trkpt><trkpt lat="43.4319817" lon="11.5640433"><ele>623.0</ele><time>2026-03-31T15:18:44.795Z</time></trkpt><trkpt lat="43.4320433" lon="11.5638933"><ele>623.0</ele><time>2026-03-31T15:18:45.796Z</time></trkpt><trkpt lat="43.4321017" lon="11.5637217"><ele>623.0</ele><time>2026-03-31T15:18:46.795Z</time></trkpt><trkpt lat="43.43215" lon="11.5635483"><ele>623.6</ele><time>2026-03-31T15:18:47.793Z</time></trkpt><trkpt lat="43.43219" lon="11.5633933"><ele>624.1999999999999</ele><time>2026-03-31T15:18:48.794Z</time></trkpt><trkpt lat="43.43223" lon="11.5632533"><ele>624.8</ele><time>2026-03-31T15:18:49.795Z</time></trkpt><trkpt lat="43.4322667" lon="11.5631367"><ele>625.4</ele><time>2026-03-31T15:18:50.795Z</time></trkpt><trkpt lat="43.43231" lon="11.5630333"><ele>626.0</ele><time>2026-03-31T15:18:51.796Z</time></trkpt><trkpt lat="43.4323567" lon="11.5629433"><ele>625.6666666666666</ele><time>2026-03-31T15:18:52.794Z</time></trkpt><trkpt lat="43.4323933" lon="11.56285"><ele>625.3333333333333</ele><time>2026-03-31T15:18:53.795Z</time></trkpt><trkpt lat="43.432415" lon="11.56275"><ele>625.0</ele><time>2026-03-31T15:18:54.796Z</time></trkpt><trkpt lat="43.432445" lon="11.5626533"><ele>624.6666666666666</ele><time>2026-03-31T15:18:55.796Z</time></trkpt><trkpt lat="43.432485" lon="11.5625717"><ele>624.3333333333334</ele><time>2026-03-31T15:18:56.797Z</time></trkpt><trkpt lat="43.4325567" lon="11.5625283"><ele>624.0</ele><time>2026-03-31T15:18:57.795Z</time></trkpt><trkpt lat="43.4326333" lon="11.5625233"><ele>624.0</ele><time>2026-03-31T15:18:58.795Z</time></trkpt><trkpt lat="43.432705" lon="11.562535"><ele>624.0</ele><time>2026-03-31T15:18:59.794Z</time></trkpt><trkpt lat="43.4327783" lon="11.56254"><ele>624.0</ele><time>2026-03-31T15:19:00.798Z</time></trkpt><trkpt lat="43.4328633" lon="11.56253"><ele>624.0</ele><time>2026-03-31T15:19:01.796Z</time></trkpt><trkpt lat="43.43297" lon="11.5624817"><ele>624.0</ele><time>2026-03-31T15:19:02.797Z</time></trkpt><trkpt lat="43.4330783" lon="11.5624233"><ele>622.2</ele><time>2026-03-31T15:19:03.795Z</time></trkpt><trkpt lat="43.433175" lon="11.5623633"><ele>620.4</ele><time>2026-03-31T15:19:04.795Z</time></trkpt><trkpt lat="43.4332583" lon="11.562285"><ele>618.6</ele><time>2026-03-31T15:19:05.796Z</time></trkpt><trkpt lat="43.43334" lon="11.562205"><ele>616.8</ele><time>2026-03-31T15:19:06.795Z</time></trkpt><trkpt lat="43.433425" lon="11.5621217"><ele>615.0</ele><time>2026-03-31T15:19:07.796Z</time></trkpt><trkpt lat="43.4335167" lon="11.5620367"><ele>614.8</ele><time>2026-03-31T15:19:08.799Z</time></trkpt><trkpt lat="43.433605" lon="11.5619533"><ele>614.6</ele><time>2026-03-31T15:19:09.796Z</time></trkpt><trkpt lat="43.43369" lon="11.5618783"><ele>614.4</ele><time>2026-03-31T15:19:10.795Z</time></trkpt><trkpt lat="43.4337783" lon="11.5618083"><ele>614.2</ele><time>2026-03-31T15:19:11.795Z</time></trkpt><trkpt lat="43.4338767" lon="11.5617267"><ele>614.0</ele><time>2026-03-31T15:19:12.796Z</time></trkpt><trkpt lat="43.4339717" lon="11.5616417"><ele>613.2</ele><time>2026-03-31T15:19:13.797Z</time></trkpt><trkpt lat="43.434055" lon="11.56156"><ele>612.4</ele><time>2026-03-31T15:19:14.795Z</time></trkpt><trkpt lat="43.4341383" lon="11.561505"><ele>611.6</ele><time>2026-03-31T15:19:15.795Z</time></trkpt><trkpt lat="43.4342133" lon="11.5614917"><ele>610.8</ele><time>2026-03-31T15:19:16.795Z</time></trkpt><trkpt lat="43.4342833" lon="11.5614783"><ele>610.0</ele><time>2026-03-31T15:19:17.794Z</time></trkpt><trkpt lat="43.4343967" lon="11.5614067"><ele>610.0</ele><time>2026-03-31T15:19:19.796Z</time></trkpt><trkpt lat="43.434475" lon="11.5612783"><ele>610.0</ele><time>2026-03-31T15:19:21.796Z</time></trkpt><trkpt lat="43.4345283" lon="11.56123"><ele>610.0</ele><time>2026-03-31T15:19:22.794Z</time></trkpt><trkpt lat="43.4345933" lon="11.5611917"><ele>610.0</ele><time>2026-03-31T15:19:23.794Z</time></trkpt><trkpt lat="43.434655" lon="11.5611533"><ele>610.0</ele><time>2026-03-31T15:19:24.796Z</time></trkpt><trkpt lat="43.4347333" lon="11.5610217"><ele>610.0</ele><time>2026-03-31T15:19:26.796Z</time></trkpt><trkpt lat="43.43476" lon="11.56093"><ele>611.6666666666667</ele><time>2026-03-31T15:19:27.795Z</time></trkpt><trkpt lat="43.434785" lon="11.5608383"><ele>613.3333333333334</ele><time>2026-03-31T15:19:28.796Z</time></trkpt><trkpt lat="43.4348117" lon="11.560735"><ele>615.0</ele><time>2026-03-31T15:19:29.795Z</time></trkpt><trkpt lat="43.43482" lon="11.56063"><ele>616.6666666666666</ele><time>2026-03-31T15:19:30.798Z</time></trkpt><trkpt lat="43.4348233" lon="11.5605233"><ele>618.3333333333333</ele><time>2026-03-31T15:19:31.797Z</time></trkpt><trkpt lat="43.434835" lon="11.5604183"><ele>620.0</ele><time>2026-03-31T15:19:32.799Z</time></trkpt><trkpt lat="43.4348467" lon="11.5603267"><ele>620.6666666666666</ele><time>2026-03-31T15:19:33.796Z</time></trkpt><trkpt lat="43.4348433" lon="11.56024"><ele>621.3333333333333</ele><time>2026-03-31T15:19:34.797Z</time></trkpt><trkpt lat="43.43482" lon="11.5601517"><ele>622.0</ele><time>2026-03-31T15:19:35.796Z</time></trkpt><trkpt lat="43.43477" lon="11.5600533"><ele>622.6666666666666</ele><time>2026-03-31T15:19:36.798Z</time></trkpt><trkpt lat="43.43472" lon="11.559955"><ele>623.3333333333334</ele><time>2026-03-31T15:19:37.799Z</time></trkpt><trkpt lat="43.4346767" lon="11.5598617"><ele>624.0</ele><time>2026-03-31T15:19:38.797Z</time></trkpt><trkpt lat="43.434635" lon="11.5597667"><ele>624.3333333333334</ele><time>2026-03-31T15:19:39.797Z</time></trkpt><trkpt lat="43.4345967" lon="11.55967"><ele>624.6666666666666</ele><time>2026-03-31T15:19:40.796Z</time></trkpt><trkpt lat="43.4345633" lon="11.5595783"><ele>625.0</ele><time>2026-03-31T15:19:41.796Z</time></trkpt><trkpt lat="43.4345217" lon="11.5594767"><ele>625.3333333333333</ele><time>2026-03-31T15:19:42.797Z</time></trkpt><trkpt lat="43.4344783" lon="11.5593633"><ele>625.6666666666666</ele><time>2026-03-31T15:19:43.798Z</time></trkpt><trkpt lat="43.43443" lon="11.559245"><ele>626.0</ele><time>2026-03-31T15:19:44.797Z</time></trkpt><trkpt lat="43.4343833" lon="11.5591167"><ele>627.75</ele><time>2026-03-31T15:19:45.796Z</time></trkpt><trkpt lat="43.4343433" lon="11.55896"><ele>629.5</ele><time>2026-03-31T15:19:46.796Z</time></trkpt><trkpt lat="43.4343083" lon="11.5587933"><ele>631.25</ele><time>2026-03-31T15:19:47.797Z</time></trkpt><trkpt lat="43.4342667" lon="11.5586383"><ele>633.0</ele><time>2026-03-31T15:19:48.796Z</time></trkpt><trkpt lat="43.4342333" lon="11.5584867"><ele>633.0</ele><time>2026-03-31T15:19:49.795Z</time></trkpt><trkpt lat="43.43421" lon="11.5583367"><ele>633.0</ele><time>2026-03-31T15:19:50.796Z</time></trkpt><trkpt lat="43.434185" lon="11.5581933"><ele>633.0</ele><time>2026-03-31T15:19:51.795Z</time></trkpt><trkpt lat="43.43417" lon="11.5580467"><ele>633.0</ele><time>2026-03-31T15:19:52.795Z</time></trkpt><trkpt lat="43.43418" lon="11.5578983"><ele>633.0</ele><time>2026-03-31T15:19:53.796Z</time></trkpt><trkpt lat="43.4342083" lon="11.557755"><ele>633.0</ele><time>2026-03-31T15:19:54.794Z</time></trkpt><trkpt lat="43.434245" lon="11.557615"><ele>633.0</ele><time>2026-03-31T15:19:55.799Z</time></trkpt><trkpt lat="43.43429" lon="11.557475"><ele>633.0</ele><time>2026-03-31T15:19:56.797Z</time></trkpt><trkpt lat="43.4343283" lon="11.5573367"><ele>633.0</ele><time>2026-03-31T15:19:57.796Z</time></trkpt><trkpt lat="43.43435" lon="11.5571867"><ele>633.0</ele><time>2026-03-31T15:19:58.796Z</time></trkpt><trkpt lat="43.434365" lon="11.5570183"><ele>632.25</ele><time>2026-03-31T15:19:59.797Z</time></trkpt><trkpt lat="43.4343767" lon="11.5568467"><ele>631.5</ele><time>2026-03-31T15:20:00.797Z</time></trkpt><trkpt lat="43.4343833" lon="11.55669"><ele>630.75</ele><time>2026-03-31T15:20:01.796Z</time></trkpt><trkpt lat="43.4343867" lon="11.5565383"><ele>630.0</ele><time>2026-03-31T15:20:02.796Z</time></trkpt><trkpt lat="43.4343917" lon="11.5563833"><ele>630.0</ele><time>2026-03-31T15:20:03.796Z</time></trkpt><trkpt lat="43.4344117" lon="11.5562267"><ele>630.0</ele><time>2026-03-31T15:20:04.796Z</time></trkpt><trkpt lat="43.434445" lon="11.5560717"><ele>630.0</ele><time>2026-03-31T15:20:05.796Z</time></trkpt><trkpt lat="43.43449" lon="11.5559267"><ele>630.0</ele><time>2026-03-31T15:20:06.797Z</time></trkpt><trkpt lat="43.4345433" lon="11.5557833"><ele>629.0</ele><time>2026-03-31T15:20:07.796Z</time></trkpt><trkpt lat="43.4346067" lon="11.555645"><ele>628.0</ele><time>2026-03-31T15:20:08.796Z</time></trkpt><trkpt lat="43.4346733" lon="11.555515"><ele>627.0</ele><time>2026-03-31T15:20:09.796Z</time></trkpt><trkpt lat="43.4347283" lon="11.55539"><ele>626.0</ele><time>2026-03-31T15:20:10.795Z</time></trkpt><trkpt lat="43.434775" lon="11.5552683"><ele>625.0</ele><time>2026-03-31T15:20:11.795Z</time></trkpt><trkpt lat="43.434825" lon="11.5551617"><ele>627.0000000000001</ele><time>2026-03-31T15:20:12.796Z</time></trkpt><trkpt lat="43.43487" lon="11.5550767"><ele>629.0</ele><time>2026-03-31T15:20:13.794Z</time></trkpt><trkpt lat="43.4349117" lon="11.555005"><ele>631.0</ele><time>2026-03-31T15:20:14.795Z</time></trkpt><trkpt lat="43.4349667" lon="11.554945"><ele>633.0</ele><time>2026-03-31T15:20:15.795Z</time></trkpt><trkpt lat="43.43503" lon="11.5549117"><ele>635.0</ele><time>2026-03-31T15:20:16.796Z</time></trkpt><trkpt lat="43.4351067" lon="11.55492"><ele>637.0000000000001</ele><time>2026-03-31T15:20:17.796Z</time></trkpt><trkpt lat="43.4351883" lon="11.55496"><ele>639.0</ele><time>2026-03-31T15:20:18.795Z</time></trkpt><trkpt lat="43.4352683" lon="11.5549983"><ele>639.0</ele><time>2026-03-31T15:20:19.793Z</time></trkpt><trkpt lat="43.43535" lon="11.5550217"><ele>639.0</ele><time>2026-03-31T15:20:20.795Z</time></trkpt><trkpt lat="43.435455" lon="11.5550467"><ele>639.0</ele><time>2026-03-31T15:20:21.795Z</time></trkpt><trkpt lat="43.4355783" lon="11.5550833"><ele>639.0</ele><time>2026-03-31T15:20:22.794Z</time></trkpt><trkpt lat="43.4356833" lon="11.5551217"><ele>639.0</ele><time>2026-03-31T15:20:23.796Z</time></trkpt><trkpt lat="43.435765" lon="11.5551483"><ele>639.5</ele><time>2026-03-31T15:20:24.795Z</time></trkpt><trkpt lat="43.4358317" lon="11.5551733"><ele>640.0</ele><time>2026-03-31T15:20:25.796Z</time></trkpt><trkpt lat="43.4359033" lon="11.55521"><ele>640.5</ele><time>2026-03-31T15:20:26.797Z</time></trkpt><trkpt lat="43.43599" lon="11.555255"><ele>641.0</ele><time>2026-03-31T15:20:27.794Z</time></trkpt><trkpt lat="43.4360867" lon="11.5553167"><ele>641.5</ele><time>2026-03-31T15:20:28.795Z</time></trkpt><trkpt lat="43.436175" lon="11.5553717"><ele>642.0</ele><time>2026-03-31T15:20:29.795Z</time></trkpt><trkpt lat="43.4362617" lon="11.555425"><ele>642.5</ele><time>2026-03-31T15:20:30.795Z</time></trkpt><trkpt lat="43.4363483" lon="11.555485"><ele>643.0</ele><time>2026-03-31T15:20:31.796Z</time></trkpt><trkpt lat="43.4364283" lon="11.555555"><ele>643.5</ele><time>2026-03-31T15:20:32.797Z</time></trkpt><trkpt lat="43.4364967" lon="11.5556283"><ele>644.0</ele><time>2026-03-31T15:20:33.796Z</time></trkpt><trkpt lat="43.4365617" lon="11.555695"><ele>644.5</ele><time>2026-03-31T15:20:34.795Z</time></trkpt><trkpt lat="43.4366283" lon="11.5557433"><ele>645.0</ele><time>2026-03-31T15:20:35.795Z</time></trkpt><trkpt lat="43.4367083" lon="11.5557783"><ele>645.0</ele><time>2026-03-31T15:20:36.796Z</time></trkpt><trkpt lat="43.4368067" lon="11.5558033"><ele>645.0</ele><time>2026-03-31T15:20:37.795Z</time></trkpt><trkpt lat="43.4369183" lon="11.5558083"><ele>645.0</ele><time>2026-03-31T15:20:38.797Z</time></trkpt><trkpt lat="43.4370133" lon="11.5557933"><ele>645.0</ele><time>2026-03-31T15:20:39.796Z</time></trkpt><trkpt lat="43.43709" lon="11.55578"><ele>645.0</ele><time>2026-03-31T15:20:40.795Z</time></trkpt><trkpt lat="43.4371617" lon="11.5557783"><ele>643.6666666666666</ele><time>2026-03-31T15:20:41.797Z</time></trkpt><trkpt lat="43.4372333" lon="11.55582"><ele>642.3333333333334</ele><time>2026-03-31T15:20:42.796Z</time></trkpt><trkpt lat="43.4373033" lon="11.5558733"><ele>641.0</ele><time>2026-03-31T15:20:43.795Z</time></trkpt><trkpt lat="43.43737" lon="11.55593"><ele>639.6666666666667</ele><time>2026-03-31T15:20:44.797Z</time></trkpt><trkpt lat="43.4374383" lon="11.555985"><ele>638.3333333333334</ele><time>2026-03-31T15:20:45.797Z</time></trkpt><trkpt lat="43.4375017" lon="11.5560417"><ele>637.0</ele><time>2026-03-31T15:20:46.797Z</time></trkpt><trkpt lat="43.437575" lon="11.5560967"><ele>637.0</ele><time>2026-03-31T15:20:47.796Z</time></trkpt><trkpt lat="43.4376483" lon="11.5561433"><ele>637.0</ele><time>2026-03-31T15:20:48.797Z</time></trkpt><trkpt lat="43.4377117" lon="11.5561833"><ele>637.0</ele><time>2026-03-31T15:20:49.795Z</time></trkpt><trkpt lat="43.43777" lon="11.5562283"><ele>637.0</ele><time>2026-03-31T15:20:50.796Z</time></trkpt><trkpt lat="43.4378267" lon="11.55628"><ele>637.0</ele><time>2026-03-31T15:20:51.796Z</time></trkpt><trkpt lat="43.4378833" lon="11.5563433"><ele>637.0</ele><time>2026-03-31T15:20:52.796Z</time></trkpt><trkpt lat="43.43794" lon="11.55643"><ele>637.0</ele><time>2026-03-31T15:20:53.796Z</time></trkpt><trkpt lat="43.43799" lon="11.5565433"><ele>634.1666666666667</ele><time>2026-03-31T15:20:54.795Z</time></trkpt><trkpt lat="43.43804" lon="11.5566583"><ele>631.3333333333334</ele><time>2026-03-31T15:20:55.795Z</time></trkpt><trkpt lat="43.4380833" lon="11.556765"><ele>628.5</ele><time>2026-03-31T15:20:56.797Z</time></trkpt><trkpt lat="43.4381317" lon="11.55686"><ele>625.6666666666666</ele><time>2026-03-31T15:20:57.796Z</time></trkpt><trkpt lat="43.4381867" lon="11.5569567"><ele>622.8333333333333</ele><time>2026-03-31T15:20:58.795Z</time></trkpt><trkpt lat="43.43824" lon="11.5570517"><ele>620.0</ele><time>2026-03-31T15:20:59.796Z</time></trkpt><trkpt lat="43.438295" lon="11.5571617"><ele>619.75</ele><time>2026-03-31T15:21:00.795Z</time></trkpt><trkpt lat="43.4383483" lon="11.5572833"><ele>619.5</ele><time>2026-03-31T15:21:01.795Z</time></trkpt><trkpt lat="43.4383917" lon="11.5574183"><ele>619.25</ele><time>2026-03-31T15:21:02.795Z</time></trkpt><trkpt lat="43.4384317" lon="11.5575717"><ele>619.0</ele><time>2026-03-31T15:21:03.795Z</time></trkpt><trkpt lat="43.43847" lon="11.55774"><ele>617.25</ele><time>2026-03-31T15:21:04.797Z</time></trkpt><trkpt lat="43.43851" lon="11.557915"><ele>615.5</ele><time>2026-03-31T15:21:05.796Z</time></trkpt><trkpt lat="43.4385483" lon="11.55807"><ele>613.75</ele><time>2026-03-31T15:21:06.798Z</time></trkpt><trkpt lat="43.438595" lon="11.5582017"><ele>612.0</ele><time>2026-03-31T15:21:07.795Z</time></trkpt><trkpt lat="43.4386533" lon="11.5583233"><ele>612.0</ele><time>2026-03-31T15:21:08.796Z</time></trkpt><trkpt lat="43.4387233" lon="11.5584567"><ele>612.0</ele><time>2026-03-31T15:21:09.797Z</time></trkpt><trkpt lat="43.438805" lon="11.5585833"><ele>612.0</ele><time>2026-03-31T15:21:10.795Z</time></trkpt><trkpt lat="43.43888" lon="11.5586917"><ele>612.0</ele><time>2026-03-31T15:21:11.795Z</time></trkpt><trkpt lat="43.4389433" lon="11.5587717"><ele>612.0</ele><time>2026-03-31T15:21:12.795Z</time></trkpt><trkpt lat="43.439" lon="11.5588433"><ele>612.5</ele><time>2026-03-31T15:21:13.797Z</time></trkpt><trkpt lat="43.4390417" lon="11.5589217"><ele>613.0</ele><time>2026-03-31T15:21:14.796Z</time></trkpt><trkpt lat="43.43908" lon="11.55901"><ele>613.5</ele><time>2026-03-31T15:21:15.795Z</time></trkpt><trkpt lat="43.4391183" lon="11.5591017"><ele>614.0</ele><time>2026-03-31T15:21:16.796Z</time></trkpt><trkpt lat="43.4391567" lon="11.5591917"><ele>614.5</ele><time>2026-03-31T15:21:17.797Z</time></trkpt><trkpt lat="43.4392" lon="11.559275"><ele>615.0</ele><time>2026-03-31T15:21:18.796Z</time></trkpt><trkpt lat="43.4392567" lon="11.5593483"><ele>615.0</ele><time>2026-03-31T15:21:19.796Z</time></trkpt><trkpt lat="43.4393283" lon="11.5594067"><ele>615.0</ele><time>2026-03-31T15:21:20.797Z</time></trkpt><trkpt lat="43.4394033" lon="11.5594767"><ele>615.0</ele><time>2026-03-31T15:21:21.799Z</time></trkpt><trkpt lat="43.439485" lon="11.5595533"><ele>615.0</ele><time>2026-03-31T15:21:22.793Z</time></trkpt><trkpt lat="43.4395583" lon="11.5596367"><ele>615.0</ele><time>2026-03-31T15:21:23.796Z</time></trkpt><trkpt lat="43.4396" lon="11.55973"><ele>615.0</ele><time>2026-03-31T15:21:24.795Z</time></trkpt><trkpt lat="43.4396467" lon="11.559835"><ele>611.2</ele><time>2026-03-31T15:21:25.796Z</time></trkpt><trkpt lat="43.4396817" lon="11.559955"><ele>607.4</ele><time>2026-03-31T15:21:26.797Z</time></trkpt><trkpt lat="43.4397283" lon="11.5600733"><ele>603.6</ele><time>2026-03-31T15:21:27.795Z</time></trkpt><trkpt lat="43.4398" lon="11.5601717"><ele>599.8</ele><time>2026-03-31T15:21:28.796Z</time></trkpt><trkpt lat="43.4398817" lon="11.5602633"><ele>596.0</ele><time>2026-03-31T15:21:29.798Z</time></trkpt><trkpt lat="43.439975" lon="11.5603417"><ele>597.0</ele><time>2026-03-31T15:21:30.799Z</time></trkpt><trkpt lat="43.4400617" lon="11.5604167"><ele>598.0</ele><time>2026-03-31T15:21:31.796Z</time></trkpt><trkpt lat="43.4401367" lon="11.5605167"><ele>599.0</ele><time>2026-03-31T15:21:32.797Z</time></trkpt><trkpt lat="43.4402033" lon="11.560635"><ele>600.0</ele><time>2026-03-31T15:21:33.796Z</time></trkpt><trkpt lat="43.4402733" lon="11.5607567"><ele>601.0</ele><time>2026-03-31T15:21:34.795Z</time></trkpt><trkpt lat="43.44035" lon="11.5608667"><ele>601.0</ele><time>2026-03-31T15:21:35.796Z</time></trkpt><trkpt lat="43.440435" lon="11.56097"><ele>601.0</ele><time>2026-03-31T15:21:36.796Z</time></trkpt><trkpt lat="43.4405233" lon="11.5610433"><ele>601.0</ele><time>2026-03-31T15:21:37.795Z</time></trkpt><trkpt lat="43.4406083" lon="11.5610867"><ele>601.0</ele><time>2026-03-31T15:21:38.795Z</time></trkpt><trkpt lat="43.4406983" lon="11.561115"><ele>601.0</ele><time>2026-03-31T15:21:39.795Z</time></trkpt><trkpt lat="43.4407983" lon="11.5611033"><ele>599.4</ele><time>2026-03-31T15:21:40.796Z</time></trkpt><trkpt lat="43.4408933" lon="11.5610617"><ele>597.8</ele><time>2026-03-31T15:21:41.796Z</time></trkpt><trkpt lat="43.4409667" lon="11.56099"><ele>596.1999999999999</ele><time>2026-03-31T15:21:42.796Z</time></trkpt><trkpt lat="43.4410167" lon="11.5608983"><ele>594.6</ele><time>2026-03-31T15:21:43.795Z</time></trkpt><trkpt lat="43.4410417" lon="11.560765"><ele>593.0</ele><time>2026-03-31T15:21:44.795Z</time></trkpt><trkpt lat="43.441045" lon="11.5606067"><ele>593.0</ele><time>2026-03-31T15:21:45.795Z</time></trkpt><trkpt lat="43.44105" lon="11.5604383"><ele>593.0</ele><time>2026-03-31T15:21:46.796Z</time></trkpt><trkpt lat="43.4410683" lon="11.56026"><ele>593.0</ele><time>2026-03-31T15:21:47.796Z</time></trkpt><trkpt lat="43.4411133" lon="11.5600733"><ele>593.0</ele><time>2026-03-31T15:21:48.79Z</time></trkpt><trkpt lat="43.44116" lon="11.5599"><ele>593.75</ele><time>2026-03-31T15:21:49.796Z</time></trkpt><trkpt lat="43.4412117" lon="11.5597317"><ele>594.5</ele><time>2026-03-31T15:21:50.796Z</time></trkpt><trkpt lat="43.441275" lon="11.5595633"><ele>595.25</ele><time>2026-03-31T15:21:51.797Z</time></trkpt><trkpt lat="43.4413417" lon="11.5593983"><ele>596.0</ele><time>2026-03-31T15:21:52.795Z</time></trkpt><trkpt lat="43.4414083" lon="11.559245"><ele>596.0</ele><time>2026-03-31T15:21:53.796Z</time></trkpt><trkpt lat="43.4414767" lon="11.5591233"><ele>596.0</ele><time>2026-03-31T15:21:54.791Z</time></trkpt><trkpt lat="43.44156" lon="11.5590233"><ele>596.0</ele><time>2026-03-31T15:21:55.796Z</time></trkpt><trkpt lat="43.4416633" lon="11.5589483"><ele>596.0</ele><time>2026-03-31T15:21:56.796Z</time></trkpt><trkpt lat="43.4417767" lon="11.558885"><ele>596.0</ele><time>2026-03-31T15:21:57.795Z</time></trkpt><trkpt lat="43.4419133" lon="11.5588233"><ele>596.0</ele><time>2026-03-31T15:21:58.794Z</time></trkpt><trkpt lat="43.4420533" lon="11.5587683"><ele>596.0</ele><time>2026-03-31T15:21:59.796Z</time></trkpt><trkpt lat="43.4421817" lon="11.55871"><ele>596.0</ele><time>2026-03-31T15:22:00.796Z</time></trkpt><trkpt lat="43.4423183" lon="11.5586317"><ele>595.25</ele><time>2026-03-31T15:22:01.796Z</time></trkpt><trkpt lat="43.442455" lon="11.5585433"><ele>594.5</ele><time>2026-03-31T15:22:02.796Z</time></trkpt><trkpt lat="43.4425917" lon="11.5584567"><ele>593.75</ele><time>2026-03-31T15:22:03.795Z</time></trkpt><trkpt lat="43.4427117" lon="11.558385"><ele>593.0</ele><time>2026-03-31T15:22:04.795Z</time></trkpt><trkpt lat="43.4428267" lon="11.5583183"><ele>593.0</ele><time>2026-03-31T15:22:05.796Z</time></trkpt><trkpt lat="43.4429467" lon="11.558265"><ele>593.0</ele><time>2026-03-31T15:22:06.795Z</time></trkpt><trkpt lat="43.4430667" lon="11.5582267"><ele>593.0</ele><time>2026-03-31T15:22:07.797Z</time></trkpt><trkpt lat="43.443185" lon="11.558215"><ele>593.0</ele><time>2026-03-31T15:22:08.797Z</time></trkpt><trkpt lat="43.4432833" lon="11.5582067"><ele>594.3333333333333</ele><time>2026-03-31T15:22:09.795Z</time></trkpt><trkpt lat="43.4433617" lon="11.5581883"><ele>595.6666666666666</ele><time>2026-03-31T15:22:11.795Z</time></trkpt><trkpt lat="43.4433437" lon="11.558104"><ele>597.0</ele><time>2026-03-31T15:24:07.796Z</time></trkpt><trkpt lat="43.4433059" lon="11.5579558"><ele>598.3333333333334</ele><time>2026-03-31T15:24:08.795Z</time></trkpt><trkpt lat="43.4432874" lon="11.5578346"><ele>599.6666666666667</ele><time>2026-03-31T15:24:09.797Z</time></trkpt><trkpt lat="43.4432962" lon="11.5577126"><ele>601.0</ele><time>2026-03-31T15:24:10.797Z</time></trkpt><trkpt lat="43.443314" lon="11.5575942"><ele>602.0</ele><time>2026-03-31T15:24:11.797Z</time></trkpt><trkpt lat="43.4434126" lon="11.5574569"><ele>603.0</ele><time>2026-03-31T15:24:12.797Z</time></trkpt><trkpt lat="43.4435425" lon="11.5573373"><ele>604.0</ele><time>2026-03-31T15:24:13.798Z</time></trkpt><trkpt lat="43.4436778" lon="11.557233"><ele>604.25</ele><time>2026-03-31T15:24:14.797Z</time></trkpt><trkpt lat="43.4438208" lon="11.5571488"><ele>604.5</ele><time>2026-03-31T15:24:15.797Z</time></trkpt><trkpt lat="43.4439541" lon="11.5570895"><ele>604.75</ele><time>2026-03-31T15:24:16.795Z</time></trkpt><trkpt lat="43.4440759" lon="11.5570415"><ele>605.0</ele><time>2026-03-31T15:24:17.796Z</time></trkpt><trkpt lat="43.4441768" lon="11.5569929"><ele>606.6</ele><time>2026-03-31T15:24:18.797Z</time></trkpt><trkpt lat="43.4442638" lon="11.556926"><ele>608.2</ele><time>2026-03-31T15:24:19.797Z</time></trkpt><trkpt lat="43.4443509" lon="11.556838"><ele>609.8</ele><time>2026-03-31T15:24:20.797Z</time></trkpt><trkpt lat="43.444426" lon="11.5567295"><ele>611.4</ele><time>2026-03-31T15:24:21.796Z</time></trkpt><trkpt lat="43.4444851" lon="11.5565961"><ele>613.0</ele><time>2026-03-31T15:24:22.796Z</time></trkpt><trkpt lat="43.44453" lon="11.5564363"><ele>613.0</ele><time>2026-03-31T15:24:23.795Z</time></trkpt><trkpt lat="43.4445608" lon="11.5562668"><ele>613.0</ele><time>2026-03-31T15:24:24.791Z</time></trkpt><trkpt lat="43.4445794" lon="11.5560968"><ele>613.0</ele><time>2026-03-31T15:24:25.795Z</time></trkpt><trkpt lat="43.4445819" lon="11.5559362"><ele>613.0</ele><time>2026-03-31T15:24:26.801Z</time></trkpt><trkpt lat="43.4445688" lon="11.5557914"><ele>612.25</ele><time>2026-03-31T15:24:27.796Z</time></trkpt><trkpt lat="43.4445382" lon="11.5556592"><ele>611.5</ele><time>2026-03-31T15:24:28.796Z</time></trkpt><trkpt lat="43.4444814" lon="11.5555333"><ele>610.75</ele><time>2026-03-31T15:24:29.797Z</time></trkpt><trkpt lat="43.4444096" lon="11.5553981"><ele>610.0</ele><time>2026-03-31T15:24:30.797Z</time></trkpt><trkpt lat="43.4443286" lon="11.5552478"><ele>606.6666666666667</ele><time>2026-03-31T15:24:31.796Z</time></trkpt><trkpt lat="43.4442462" lon="11.5550736"><ele>603.3333333333334</ele><time>2026-03-31T15:24:32.797Z</time></trkpt><trkpt lat="43.4441613" lon="11.5548806"><ele>600.0</ele><time>2026-03-31T15:24:33.795Z</time></trkpt><trkpt lat="43.4440725" lon="11.55469"><ele>596.3333333333334</ele><time>2026-03-31T15:24:34.796Z</time></trkpt><trkpt lat="43.4439885" lon="11.5545055"><ele>592.6666666666667</ele><time>2026-03-31T15:24:35.796Z</time></trkpt><trkpt lat="43.4439109" lon="11.5543302"><ele>589.0</ele><time>2026-03-31T15:24:36.797Z</time></trkpt><trkpt lat="43.4438412" lon="11.5541492"><ele>594.75</ele><time>2026-03-31T15:24:37.797Z</time></trkpt><trkpt lat="43.4437786" lon="11.553958"><ele>600.5</ele><time>2026-03-31T15:24:38.797Z</time></trkpt><trkpt lat="43.443723" lon="11.5537769"><ele>606.25</ele><time>2026-03-31T15:24:39.797Z</time></trkpt><trkpt lat="43.4436782" lon="11.5536112"><ele>612.0</ele><time>2026-03-31T15:24:40.797Z</time></trkpt><trkpt lat="43.4436463" lon="11.5534506"><ele>612.0</ele><time>2026-03-31T15:24:41.796Z</time></trkpt><trkpt lat="43.4436203" lon="11.553303"><ele>612.0</ele><time>2026-03-31T15:24:42.796Z</time></trkpt><trkpt lat="43.4435811" lon="11.5531621"><ele>612.0</ele><time>2026-03-31T15:24:43.796Z</time></trkpt><trkpt lat="43.4435241" lon="11.5530122"><ele>612.0</ele><time>2026-03-31T15:24:44.797Z</time></trkpt><trkpt lat="43.4434628" lon="11.5528531"><ele>607.25</ele><time>2026-03-31T15:24:45.797Z</time></trkpt><trkpt lat="43.4434076" lon="11.5526918"><ele>602.5</ele><time>2026-03-31T15:24:46.796Z</time></trkpt><trkpt lat="43.4433595" lon="11.5525326"><ele>597.75</ele><time>2026-03-31T15:24:47.795Z</time></trkpt><trkpt lat="43.4433048" lon="11.5523811"><ele>593.0</ele><time>2026-03-31T15:24:48.799Z</time></trkpt><trkpt lat="43.4432397" lon="11.5522303"><ele>593.0</ele><time>2026-03-31T15:24:49.794Z</time></trkpt><trkpt lat="43.4431725" lon="11.5520735"><ele>593.0</ele><time>2026-03-31T15:24:50.797Z</time></trkpt><trkpt lat="43.4430955" lon="11.5519224"><ele>593.0</ele><time>2026-03-31T15:24:51.795Z</time></trkpt><trkpt lat="43.4430069" lon="11.5517807"><ele>593.0</ele><time>2026-03-31T15:24:52.796Z</time></trkpt><trkpt lat="43.4429184" lon="11.551636"><ele>593.5</ele><time>2026-03-31T15:24:53.796Z</time></trkpt><trkpt lat="43.4428458" lon="11.5514922"><ele>594.0</ele><time>2026-03-31T15:24:54.797Z</time></trkpt><trkpt lat="43.4427785" lon="11.551366"><ele>594.5</ele><time>2026-03-31T15:24:55.798Z</time></trkpt><trkpt lat="43.4427055" lon="11.5512517"><ele>595.0</ele><time>2026-03-31T15:24:56.799Z</time></trkpt><trkpt lat="43.4426255" lon="11.5511376"><ele>593.25</ele><time>2026-03-31T15:24:57.796Z</time></trkpt><trkpt lat="43.4425329" lon="11.5510331"><ele>591.5</ele><time>2026-03-31T15:24:58.795Z</time></trkpt><trkpt lat="43.4424445" lon="11.5509231"><ele>589.75</ele><time>2026-03-31T15:24:59.796Z</time></trkpt><trkpt lat="43.4423685" lon="11.550785"><ele>588.0</ele><time>2026-03-31T15:25:00.795Z</time></trkpt><trkpt lat="43.4422909" lon="11.5506094"><ele>588.0</ele><time>2026-03-31T15:25:01.796Z</time></trkpt><trkpt lat="43.4422103" lon="11.5504114"><ele>588.0</ele><time>2026-03-31T15:25:02.796Z</time></trkpt><trkpt lat="43.4421432" lon="11.550235"><ele>588.0</ele><time>2026-03-31T15:25:03.796Z</time></trkpt><trkpt lat="43.4421027" lon="11.5500983"><ele>588.0</ele><time>2026-03-31T15:25:04.797Z</time></trkpt><trkpt lat="43.4420891" lon="11.5499858"><ele>588.8</ele><time>2026-03-31T15:25:05.796Z</time></trkpt><trkpt lat="43.4420988" lon="11.5498833"><ele>589.5999999999999</ele><time>2026-03-31T15:25:06.797Z</time></trkpt><trkpt lat="43.4421408" lon="11.5497765"><ele>590.4000000000001</ele><time>2026-03-31T15:25:07.797Z</time></trkpt><trkpt lat="43.4421927" lon="11.5496559"><ele>591.2</ele><time>2026-03-31T15:25:08.798Z</time></trkpt><trkpt lat="43.4422393" lon="11.5495121"><ele>592.0</ele><time>2026-03-31T15:25:09.795Z</time></trkpt><trkpt lat="43.4422643" lon="11.5493514"><ele>592.0</ele><time>2026-03-31T15:25:10.795Z</time></trkpt><trkpt lat="43.4422769" lon="11.5491644"><ele>592.0</ele><time>2026-03-31T15:25:11.797Z</time></trkpt><trkpt lat="43.4422839" lon="11.5489597"><ele>592.0</ele><time>2026-03-31T15:25:12.796Z</time></trkpt><trkpt lat="43.4422865" lon="11.5487614"><ele>592.0</ele><time>2026-03-31T15:25:13.795Z</time></trkpt><trkpt lat="43.442292" lon="11.5485728"><ele>592.0</ele><time>2026-03-31T15:25:14.797Z</time></trkpt><trkpt lat="43.4422955" lon="11.548398"><ele>592.0</ele><time>2026-03-31T15:25:15.796Z</time></trkpt><trkpt lat="43.442293" lon="11.5482346"><ele>592.0</ele><time>2026-03-31T15:25:16.795Z</time></trkpt><trkpt lat="43.4422868" lon="11.5480856"><ele>592.0</ele><time>2026-03-31T15:25:17.797Z</time></trkpt><trkpt lat="43.4422721" lon="11.5479349"><ele>592.0</ele><time>2026-03-31T15:25:18.797Z</time></trkpt><trkpt lat="43.4422462" lon="11.5477876"><ele>592.0</ele><time>2026-03-31T15:25:19.796Z</time></trkpt><trkpt lat="43.4422096" lon="11.5476463"><ele>592.0</ele><time>2026-03-31T15:25:20.797Z</time></trkpt><trkpt lat="43.4421688" lon="11.5475116"><ele>592.0</ele><time>2026-03-31T15:25:21.796Z</time></trkpt><trkpt lat="43.442136" lon="11.5473842"><ele>592.0</ele><time>2026-03-31T15:25:22.796Z</time></trkpt><trkpt lat="43.4421184" lon="11.5472525"><ele>593.8000000000001</ele><time>2026-03-31T15:25:23.795Z</time></trkpt><trkpt lat="43.4421233" lon="11.54711"><ele>595.6</ele><time>2026-03-31T15:25:24.797Z</time></trkpt><trkpt lat="43.4421467" lon="11.5469783"><ele>597.4000000000001</ele><time>2026-03-31T15:25:25.795Z</time></trkpt><trkpt lat="43.44218" lon="11.546855"><ele>599.2</ele><time>2026-03-31T15:25:26.796Z</time></trkpt><trkpt lat="43.4422217" lon="11.5467283"><ele>601.0</ele><time>2026-03-31T15:25:27.796Z</time></trkpt><trkpt lat="43.4422817" lon="11.5465967"><ele>601.0</ele><time>2026-03-31T15:25:28.794Z</time></trkpt><trkpt lat="43.4423583" lon="11.54648"><ele>601.0</ele><time>2026-03-31T15:25:29.798Z</time></trkpt><trkpt lat="43.4424417" lon="11.54639"><ele>601.0</ele><time>2026-03-31T15:25:30.797Z</time></trkpt><trkpt lat="43.442535" lon="11.5463267"><ele>601.0</ele><time>2026-03-31T15:25:31.797Z</time></trkpt><trkpt lat="43.4426267" lon="11.5462767"><ele>601.0</ele><time>2026-03-31T15:25:32.796Z</time></trkpt><trkpt lat="43.44272" lon="11.5462183"><ele>603.0</ele><time>2026-03-31T15:25:33.795Z</time></trkpt><trkpt lat="43.4427967" lon="11.5461383"><ele>605.0</ele><time>2026-03-31T15:25:34.795Z</time></trkpt><trkpt lat="43.4428567" lon="11.5460367"><ele>607.0</ele><time>2026-03-31T15:25:35.796Z</time></trkpt><trkpt lat="43.442895" lon="11.5459167"><ele>609.0</ele><time>2026-03-31T15:25:36.795Z</time></trkpt><trkpt lat="43.4429083" lon="11.5457867"><ele>611.0</ele><time>2026-03-31T15:25:37.796Z</time></trkpt><trkpt lat="43.442895" lon="11.5456567"><ele>611.0</ele><time>2026-03-31T15:25:38.797Z</time></trkpt><trkpt lat="43.4428583" lon="11.54551"><ele>611.0</ele><time>2026-03-31T15:25:39.795Z</time></trkpt><trkpt lat="43.4428183" lon="11.5453583"><ele>611.0</ele><time>2026-03-31T15:25:40.795Z</time></trkpt><trkpt lat="43.44277" lon="11.5451983"><ele>611.0</ele><time>2026-03-31T15:25:41.796Z</time></trkpt><trkpt lat="43.4427167" lon="11.54504"><ele>608.5</ele><time>2026-03-31T15:25:42.795Z</time></trkpt><trkpt lat="43.4426583" lon="11.5448933"><ele>606.0</ele><time>2026-03-31T15:25:43.796Z</time></trkpt><trkpt lat="43.44259" lon="11.5447467"><ele>603.5</ele><time>2026-03-31T15:25:44.797Z</time></trkpt><trkpt lat="43.442525" lon="11.5446167"><ele>601.0</ele><time>2026-03-31T15:25:45.796Z</time></trkpt><trkpt lat="43.4424683" lon="11.544515"><ele>598.8</ele><time>2026-03-31T15:25:46.796Z</time></trkpt><trkpt lat="43.4424133" lon="11.5444133"><ele>596.6</ele><time>2026-03-31T15:25:47.796Z</time></trkpt><trkpt lat="43.442365" lon="11.5443167"><ele>594.4</ele><time>2026-03-31T15:25:48.796Z</time></trkpt><trkpt lat="43.442325" lon="11.5442"><ele>592.2</ele><time>2026-03-31T15:25:49.796Z</time></trkpt><trkpt lat="43.4423083" lon="11.544075"><ele>590.0</ele><time>2026-03-31T15:25:50.798Z</time></trkpt><trkpt lat="43.442295" lon="11.5439533"><ele>590.0</ele><time>2026-03-31T15:25:51.796Z</time></trkpt><trkpt lat="43.4422717" lon="11.5438317"><ele>590.0</ele><time>2026-03-31T15:25:52.796Z</time></trkpt><trkpt lat="43.4422417" lon="11.5437117"><ele>590.0</ele><time>2026-03-31T15:25:53.796Z</time></trkpt><trkpt lat="43.44222" lon="11.5435833"><ele>590.0</ele><time>2026-03-31T15:25:54.796Z</time></trkpt><trkpt lat="43.4422217" lon="11.5434383"><ele>590.0</ele><time>2026-03-31T15:25:55.796Z</time></trkpt><trkpt lat="43.442235" lon="11.5432817"><ele>589.2</ele><time>2026-03-31T15:25:56.797Z</time></trkpt><trkpt lat="43.4422617" lon="11.5431317"><ele>588.4</ele><time>2026-03-31T15:25:57.796Z</time></trkpt><trkpt lat="43.44229" lon="11.543005"><ele>587.6</ele><time>2026-03-31T15:25:58.797Z</time></trkpt><trkpt lat="43.442305" lon="11.5428917"><ele>586.8</ele><time>2026-03-31T15:25:59.796Z</time></trkpt><trkpt lat="43.442305" lon="11.542785"><ele>586.0</ele><time>2026-03-31T15:26:00.796Z</time></trkpt><trkpt lat="43.442275" lon="11.5426767"><ele>585.6</ele><time>2026-03-31T15:26:01.796Z</time></trkpt><trkpt lat="43.4422233" lon="11.5425567"><ele>585.2</ele><time>2026-03-31T15:26:02.797Z</time></trkpt><trkpt lat="43.442165" lon="11.542425"><ele>584.8</ele><time>2026-03-31T15:26:03.795Z</time></trkpt><trkpt lat="43.4421067" lon="11.5423"><ele>584.4</ele><time>2026-03-31T15:26:04.796Z</time></trkpt><trkpt lat="43.4420667" lon="11.5421867"><ele>584.0</ele><time>2026-03-31T15:26:05.795Z</time></trkpt><trkpt lat="43.4420467" lon="11.5420867"><ele>586.1666666666666</ele><time>2026-03-31T15:26:06.796Z</time></trkpt><trkpt lat="43.4420483" lon="11.541995"><ele>588.3333333333333</ele><time>2026-03-31T15:26:07.796Z</time></trkpt><trkpt lat="43.4420583" lon="11.5418967"><ele>590.5</ele><time>2026-03-31T15:26:08.797Z</time></trkpt><trkpt lat="43.4420567" lon="11.5417867"><ele>592.6666666666666</ele><time>2026-03-31T15:26:09.796Z</time></trkpt><trkpt lat="43.44205" lon="11.541665"><ele>594.8333333333334</ele><time>2026-03-31T15:26:10.796Z</time></trkpt><trkpt lat="43.4420483" lon="11.5415283"><ele>597.0</ele><time>2026-03-31T15:26:11.796Z</time></trkpt><trkpt lat="43.442045" lon="11.541415"><ele>597.0</ele><time>2026-03-31T15:26:12.795Z</time></trkpt><trkpt lat="43.44204" lon="11.54131"><ele>597.0</ele><time>2026-03-31T15:26:13.795Z</time></trkpt><trkpt lat="43.442025" lon="11.5412167"><ele>597.0</ele><time>2026-03-31T15:26:14.798Z</time></trkpt><trkpt lat="43.4420033" lon="11.5411167"><ele>597.0</ele><time>2026-03-31T15:26:15.796Z</time></trkpt><trkpt lat="43.4419833" lon="11.5410167"><ele>597.0</ele><time>2026-03-31T15:26:16.796Z</time></trkpt><trkpt lat="43.4419683" lon="11.5408967"><ele>597.0</ele><time>2026-03-31T15:26:17.796Z</time></trkpt><trkpt lat="43.441965" lon="11.5407533"><ele>600.2</ele><time>2026-03-31T15:26:18.796Z</time></trkpt><trkpt lat="43.4419633" lon="11.5405917"><ele>603.4000000000001</ele><time>2026-03-31T15:26:19.795Z</time></trkpt><trkpt lat="43.4419683" lon="11.540445"><ele>606.5999999999999</ele><time>2026-03-31T15:26:20.797Z</time></trkpt><trkpt lat="43.4419783" lon="11.5403217"><ele>609.8</ele><time>2026-03-31T15:26:21.795Z</time></trkpt><trkpt lat="43.4419817" lon="11.54021"><ele>613.0</ele><time>2026-03-31T15:26:22.797Z</time></trkpt><trkpt lat="43.441975" lon="11.54009"><ele>613.1999999999999</ele><time>2026-03-31T15:26:23.795Z</time></trkpt><trkpt lat="43.4419467" lon="11.5399633"><ele>613.4</ele><time>2026-03-31T15:26:24.796Z</time></trkpt><trkpt lat="43.4419233" lon="11.5398417"><ele>613.5999999999999</ele><time>2026-03-31T15:26:25.796Z</time></trkpt><trkpt lat="43.44191" lon="11.53972"><ele>613.8</ele><time>2026-03-31T15:26:26.798Z</time></trkpt><trkpt lat="43.44191" lon="11.5395917"><ele>614.0</ele><time>2026-03-31T15:26:27.796Z</time></trkpt><trkpt lat="43.4419167" lon="11.5394483"><ele>613.5</ele><time>2026-03-31T15:26:28.796Z</time></trkpt><trkpt lat="43.4419267" lon="11.5393083"><ele>613.0</ele><time>2026-03-31T15:26:29.796Z</time></trkpt><trkpt lat="43.4419383" lon="11.53919"><ele>612.5</ele><time>2026-03-31T15:26:30.798Z</time></trkpt><trkpt lat="43.44195" lon="11.5390783"><ele>612.0</ele><time>2026-03-31T15:26:31.801Z</time></trkpt><trkpt lat="43.4419533" lon="11.5389883"><ele>611.5</ele><time>2026-03-31T15:26:32.797Z</time></trkpt><trkpt lat="43.44191" lon="11.538845"><ele>611.0</ele><time>2026-03-31T15:26:34.797Z</time></trkpt><trkpt lat="43.4418417" lon="11.5387767"><ele>611.0</ele><time>2026-03-31T15:26:36.796Z</time></trkpt><trkpt lat="43.44185" lon="11.5386733"><ele>611.0</ele><time>2026-03-31T15:26:39.795Z</time></trkpt><trkpt lat="43.4418867" lon="11.5385917"><ele>611.0</ele><time>2026-03-31T15:26:41.794Z</time></trkpt><trkpt lat="43.441885" lon="11.53848"><ele>611.0</ele><time>2026-03-31T15:26:43.796Z</time></trkpt><trkpt lat="43.4418517" lon="11.5383617"><ele>611.0</ele><time>2026-03-31T15:26:45.796Z</time></trkpt><trkpt lat="43.4418583" lon="11.5382467"><ele>611.0</ele><time>2026-03-31T15:26:47.794Z</time></trkpt><trkpt lat="43.441915" lon="11.5381"><ele>611.0</ele><time>2026-03-31T15:26:49.796Z</time></trkpt><trkpt lat="43.441935" lon="11.5380133"><ele>611.0</ele><time>2026-03-31T15:26:50.797Z</time></trkpt><trkpt lat="43.4419567" lon="11.5379167"><ele>611.0</ele><time>2026-03-31T15:26:51.796Z</time></trkpt><trkpt lat="43.4419767" lon="11.5378167"><ele>611.0</ele><time>2026-03-31T15:26:52.796Z</time></trkpt><trkpt lat="43.4419917" lon="11.5377067"><ele>611.0</ele><time>2026-03-31T15:26:53.792Z</time></trkpt><trkpt lat="43.4420033" lon="11.5375783"><ele>611.0</ele><time>2026-03-31T15:26:54.797Z</time></trkpt><trkpt lat="43.4420133" lon="11.5374583"><ele>611.5</ele><time>2026-03-31T15:26:55.797Z</time></trkpt><trkpt lat="43.44202" lon="11.5373533"><ele>612.0</ele><time>2026-03-31T15:26:56.797Z</time></trkpt><trkpt lat="43.4420367" lon="11.5372583"><ele>612.5</ele><time>2026-03-31T15:26:57.797Z</time></trkpt><trkpt lat="43.4420567" lon="11.5371633"><ele>613.0</ele><time>2026-03-31T15:26:58.796Z</time></trkpt><trkpt lat="43.44208" lon="11.53706"><ele>613.5</ele><time>2026-03-31T15:26:59.796Z</time></trkpt><trkpt lat="43.44209" lon="11.5369433"><ele>614.0</ele><time>2026-03-31T15:27:00.796Z</time></trkpt><trkpt lat="43.4420967" lon="11.536805"><ele>614.6</ele><time>2026-03-31T15:27:01.797Z</time></trkpt><trkpt lat="43.4420833" lon="11.5366483"><ele>615.2</ele><time>2026-03-31T15:27:02.797Z</time></trkpt><trkpt lat="43.4420817" lon="11.5364883"><ele>615.8000000000001</ele><time>2026-03-31T15:27:03.797Z</time></trkpt><trkpt lat="43.4420767" lon="11.5363483"><ele>616.4</ele><time>2026-03-31T15:27:04.796Z</time></trkpt><trkpt lat="43.44208" lon="11.5362167"><ele>617.0</ele><time>2026-03-31T15:27:05.797Z</time></trkpt><trkpt lat="43.4420733" lon="11.53611"><ele>618.0</ele><time>2026-03-31T15:27:06.797Z</time></trkpt><trkpt lat="43.4420633" lon="11.5360217"><ele>619.0</ele><time>2026-03-31T15:27:07.797Z</time></trkpt><trkpt lat="43.4420567" lon="11.5359283"><ele>620.0</ele><time>2026-03-31T15:27:08.798Z</time></trkpt><trkpt lat="43.4420817" lon="11.53579"><ele>621.0</ele><time>2026-03-31T15:27:10.795Z</time></trkpt><trkpt lat="43.4421483" lon="11.5356567"><ele>622.0</ele><time>2026-03-31T15:27:12.797Z</time></trkpt><trkpt lat="43.4422133" lon="11.5355017"><ele>623.5</ele><time>2026-03-31T15:27:14.797Z</time></trkpt><trkpt lat="43.44224" lon="11.5354017"><ele>625.0</ele><time>2026-03-31T15:27:15.796Z</time></trkpt><trkpt lat="43.44225" lon="11.535275"><ele>626.5</ele><time>2026-03-31T15:27:16.796Z</time></trkpt><trkpt lat="43.4422517" lon="11.535145"><ele>628.0</ele><time>2026-03-31T15:27:17.797Z</time></trkpt><trkpt lat="43.44224" lon="11.5350283"><ele>629.5</ele><time>2026-03-31T15:27:18.796Z</time></trkpt><trkpt lat="43.442225" lon="11.5349233"><ele>631.0</ele><time>2026-03-31T15:27:19.796Z</time></trkpt><trkpt lat="43.4422" lon="11.5348283"><ele>631.5</ele><time>2026-03-31T15:27:20.795Z</time></trkpt><trkpt lat="43.4421767" lon="11.5347367"><ele>632.0</ele><time>2026-03-31T15:27:21.796Z</time></trkpt><trkpt lat="43.4420883" lon="11.5346367"><ele>632.5</ele><time>2026-03-31T15:27:23.796Z</time></trkpt><trkpt lat="43.44198" lon="11.5345967"><ele>633.0</ele><time>2026-03-31T15:27:25.796Z</time></trkpt><trkpt lat="43.4419167" lon="11.53458"><ele>633.5</ele><time>2026-03-31T15:27:26.797Z</time></trkpt><trkpt lat="43.441855" lon="11.534545"><ele>634.0</ele><time>2026-03-31T15:27:27.795Z</time></trkpt><trkpt lat="43.4418" lon="11.5344933"><ele>635.6666666666667</ele><time>2026-03-31T15:27:28.795Z</time></trkpt><trkpt lat="43.4417333" lon="11.5344283"><ele>637.3333333333334</ele><time>2026-03-31T15:27:29.796Z</time></trkpt><trkpt lat="43.44167" lon="11.53432"><ele>639.0</ele><time>2026-03-31T15:27:30.797Z</time></trkpt><trkpt lat="43.4416067" lon="11.5342233"><ele>640.6666666666666</ele><time>2026-03-31T15:27:31.795Z</time></trkpt><trkpt lat="43.4415483" lon="11.5341417"><ele>642.3333333333333</ele><time>2026-03-31T15:27:32.797Z</time></trkpt><trkpt lat="43.4415133" lon="11.5340683"><ele>644.0</ele><time>2026-03-31T15:27:33.796Z</time></trkpt><trkpt lat="43.4415033" lon="11.5339783"><ele>644.0</ele><time>2026-03-31T15:27:34.795Z</time></trkpt><trkpt lat="43.4415017" lon="11.53388"><ele>644.0</ele><time>2026-03-31T15:27:35.795Z</time></trkpt><trkpt lat="43.4414967" lon="11.5337883"><ele>644.0</ele><time>2026-03-31T15:27:36.796Z</time></trkpt><trkpt lat="43.4414867" lon="11.5337"><ele>644.0</ele><time>2026-03-31T15:27:37.797Z</time></trkpt><trkpt lat="43.441475" lon="11.5336117"><ele>644.0</ele><time>2026-03-31T15:27:38.797Z</time></trkpt><trkpt lat="43.4414683" lon="11.53351"><ele>644.0</ele><time>2026-03-31T15:27:39.796Z</time></trkpt><trkpt lat="43.4414517" lon="11.5334167"><ele>644.0</ele><time>2026-03-31T15:27:40.795Z</time></trkpt><trkpt lat="43.4414283" lon="11.533305"><ele>644.3333333333333</ele><time>2026-03-31T15:27:41.796Z</time></trkpt><trkpt lat="43.4414033" lon="11.5331767"><ele>644.6666666666666</ele><time>2026-03-31T15:27:42.797Z</time></trkpt><trkpt lat="43.4413733" lon="11.533055"><ele>645.0</ele><time>2026-03-31T15:27:43.794Z</time></trkpt><trkpt lat="43.4413483" lon="11.5329417"><ele>645.3333333333334</ele><time>2026-03-31T15:27:44.796Z</time></trkpt><trkpt lat="43.44133" lon="11.5328333"><ele>645.6666666666667</ele><time>2026-03-31T15:27:45.796Z</time></trkpt><trkpt lat="43.4413117" lon="11.5327317"><ele>646.0</ele><time>2026-03-31T15:27:46.795Z</time></trkpt><trkpt lat="43.4412967" lon="11.532645"><ele>646.6666666666667</ele><time>2026-03-31T15:27:47.796Z</time></trkpt><trkpt lat="43.44129" lon="11.53255"><ele>647.3333333333334</ele><time>2026-03-31T15:27:48.796Z</time></trkpt><trkpt lat="43.4413017" lon="11.53243"><ele>648.0</ele><time>2026-03-31T15:27:49.797Z</time></trkpt><trkpt lat="43.4413117" lon="11.5323"><ele>648.6666666666666</ele><time>2026-03-31T15:27:50.797Z</time></trkpt><trkpt lat="43.441325" lon="11.5321717"><ele>649.3333333333333</ele><time>2026-03-31T15:27:51.797Z</time></trkpt><trkpt lat="43.44134" lon="11.5320367"><ele>650.0</ele><time>2026-03-31T15:27:52.796Z</time></trkpt><trkpt lat="43.4413417" lon="11.5319133"><ele>651.2</ele><time>2026-03-31T15:27:53.795Z</time></trkpt><trkpt lat="43.4413517" lon="11.5317483"><ele>652.4</ele><time>2026-03-31T15:27:54.794Z</time></trkpt><trkpt lat="43.44133" lon="11.5316233"><ele>653.5999999999999</ele><time>2026-03-31T15:27:55.796Z</time></trkpt><trkpt lat="43.4413033" lon="11.531495"><ele>654.8</ele><time>2026-03-31T15:27:56.796Z</time></trkpt><trkpt lat="43.4412733" lon="11.5313717"><ele>656.0</ele><time>2026-03-31T15:27:57.796Z</time></trkpt><trkpt lat="43.44125" lon="11.5312467"><ele>653.6666666666666</ele><time>2026-03-31T15:27:58.796Z</time></trkpt><trkpt lat="43.441235" lon="11.53113"><ele>651.3333333333333</ele><time>2026-03-31T15:27:59.797Z</time></trkpt><trkpt lat="43.441225" lon="11.5310083"><ele>649.0</ele><time>2026-03-31T15:28:00.795Z</time></trkpt><trkpt lat="43.4412233" lon="11.530885"><ele>646.6666666666666</ele><time>2026-03-31T15:28:01.797Z</time></trkpt><trkpt lat="43.4412333" lon="11.530765"><ele>644.3333333333334</ele><time>2026-03-31T15:28:02.797Z</time></trkpt><trkpt lat="43.441245" lon="11.530655"><ele>642.0</ele><time>2026-03-31T15:28:03.796Z</time></trkpt><trkpt lat="43.4412533" lon="11.5305583"><ele>644.0</ele><time>2026-03-31T15:28:04.797Z</time></trkpt><trkpt lat="43.4413" lon="11.5304"><ele>646.0</ele><time>2026-03-31T15:28:06.795Z</time></trkpt><trkpt lat="43.44134" lon="11.5302733"><ele>648.0</ele><time>2026-03-31T15:28:08.796Z</time></trkpt><trkpt lat="43.4413167" lon="11.5301833"><ele>650.0</ele><time>2026-03-31T15:28:10.798Z</time></trkpt><trkpt lat="43.44119" lon="11.5301283"><ele>652.0</ele><time>2026-03-31T15:28:12.797Z</time></trkpt><trkpt lat="43.4411183" lon="11.5301117"><ele>648.5</ele><time>2026-03-31T15:28:13.796Z</time></trkpt><trkpt lat="43.4410433" lon="11.5301"><ele>645.0</ele><time>2026-03-31T15:28:14.796Z</time></trkpt><trkpt lat="43.4409717" lon="11.530085"><ele>641.5</ele><time>2026-03-31T15:28:15.795Z</time></trkpt><trkpt lat="43.4408633" lon="11.530035"><ele>638.0</ele><time>2026-03-31T15:28:17.796Z</time></trkpt><trkpt lat="43.4408417" lon="11.5299517"><ele>634.5</ele><time>2026-03-31T15:28:19.796Z</time></trkpt><trkpt lat="43.440915" lon="11.5298733"><ele>631.0</ele><time>2026-03-31T15:28:21.796Z</time></trkpt><trkpt lat="43.4409533" lon="11.5297733"><ele>631.0</ele><time>2026-03-31T15:28:23.796Z</time></trkpt><trkpt lat="43.440915" lon="11.5296633"><ele>631.0</ele><time>2026-03-31T15:28:25.796Z</time></trkpt><trkpt lat="43.4408517" lon="11.529585"><ele>631.0</ele><time>2026-03-31T15:28:27.796Z</time></trkpt><trkpt lat="43.44083" lon="11.5293667"><ele>631.0</ele><time>2026-03-31T15:28:29.795Z</time></trkpt><trkpt lat="43.440825" lon="11.5291717"><ele>628.75</ele><time>2026-03-31T15:28:30.795Z</time></trkpt><trkpt lat="43.44082" lon="11.528975"><ele>626.5</ele><time>2026-03-31T15:28:31.795Z</time></trkpt><trkpt lat="43.440825" lon="11.5288083"><ele>624.25</ele><time>2026-03-31T15:28:32.797Z</time></trkpt><trkpt lat="43.4408433" lon="11.52867"><ele>622.0</ele><time>2026-03-31T15:28:33.795Z</time></trkpt><trkpt lat="43.4408817" lon="11.5285267"><ele>622.0</ele><time>2026-03-31T15:28:34.797Z</time></trkpt><trkpt lat="43.4409333" lon="11.528365"><ele>622.0</ele><time>2026-03-31T15:28:35.795Z</time></trkpt><trkpt lat="43.441" lon="11.5282083"><ele>622.0</ele><time>2026-03-31T15:28:36.795Z</time></trkpt><trkpt lat="43.44107" lon="11.5280467"><ele>622.0</ele><time>2026-03-31T15:28:37.796Z</time></trkpt><trkpt lat="43.44115" lon="11.5278933"><ele>620.5</ele><time>2026-03-31T15:28:38.795Z</time></trkpt><trkpt lat="43.441235" lon="11.52775"><ele>619.0</ele><time>2026-03-31T15:28:39.796Z</time></trkpt><trkpt lat="43.4413167" lon="11.5276267"><ele>617.5</ele><time>2026-03-31T15:28:40.792Z</time></trkpt><trkpt lat="43.4414117" lon="11.5275483"><ele>616.0</ele><time>2026-03-31T15:28:41.795Z</time></trkpt><trkpt lat="43.4415233" lon="11.52747"><ele>614.6666666666667</ele><time>2026-03-31T15:28:42.798Z</time></trkpt><trkpt lat="43.4416567" lon="11.5273883"><ele>613.3333333333334</ele><time>2026-03-31T15:28:43.796Z</time></trkpt><trkpt lat="43.4418083" lon="11.5273"><ele>612.0</ele><time>2026-03-31T15:28:44.796Z</time></trkpt><trkpt lat="43.4419617" lon="11.527215"><ele>612.0</ele><time>2026-03-31T15:28:45.796Z</time></trkpt><trkpt lat="43.4421083" lon="11.527165"><ele>612.0</ele><time>2026-03-31T15:28:46.795Z</time></trkpt><trkpt lat="43.4422617" lon="11.52715"><ele>612.0</ele><time>2026-03-31T15:28:47.795Z</time></trkpt><trkpt lat="43.442415" lon="11.5271683"><ele>611.25</ele><time>2026-03-31T15:28:48.796Z</time></trkpt><trkpt lat="43.44256" lon="11.52719"><ele>610.5</ele><time>2026-03-31T15:28:49.797Z</time></trkpt><trkpt lat="43.4426983" lon="11.5271967"><ele>609.75</ele><time>2026-03-31T15:28:50.797Z</time></trkpt><trkpt lat="43.44282" lon="11.52718"><ele>609.0</ele><time>2026-03-31T15:28:51.796Z</time></trkpt><trkpt lat="43.4429183" lon="11.5271333"><ele>611.0</ele><time>2026-03-31T15:28:52.804Z</time></trkpt><trkpt lat="43.443" lon="11.5270467"><ele>613.0</ele><time>2026-03-31T15:28:53.796Z</time></trkpt><trkpt lat="43.4430667" lon="11.52692"><ele>615.0</ele><time>2026-03-31T15:28:54.796Z</time></trkpt><trkpt lat="43.44312" lon="11.5267733"><ele>617.0</ele><time>2026-03-31T15:28:55.797Z</time></trkpt><trkpt lat="43.4431617" lon="11.5266217"><ele>617.0</ele><time>2026-03-31T15:28:56.796Z</time></trkpt><trkpt lat="43.4431833" lon="11.5264617"><ele>617.0</ele><time>2026-03-31T15:28:57.796Z</time></trkpt><trkpt lat="43.4431833" lon="11.5262917"><ele>617.0</ele><time>2026-03-31T15:28:58.797Z</time></trkpt><trkpt lat="43.44316" lon="11.5260983"><ele>617.0</ele><time>2026-03-31T15:28:59.797Z</time></trkpt><trkpt lat="43.443105" lon="11.52588"><ele>616.6666666666666</ele><time>2026-03-31T15:29:00.797Z</time></trkpt><trkpt lat="43.4430383" lon="11.525655"><ele>616.3333333333334</ele><time>2026-03-31T15:29:01.796Z</time></trkpt><trkpt lat="43.4429667" lon="11.52543"><ele>616.0</ele><time>2026-03-31T15:29:02.797Z</time></trkpt><trkpt lat="43.44289" lon="11.525205"><ele>617.0</ele><time>2026-03-31T15:29:03.797Z</time></trkpt><trkpt lat="43.4428167" lon="11.52501"><ele>618.0</ele><time>2026-03-31T15:29:04.796Z</time></trkpt><trkpt lat="43.4427467" lon="11.5248483"><ele>619.0</ele><time>2026-03-31T15:29:05.796Z</time></trkpt><trkpt lat="43.4426567" lon="11.5246967"><ele>620.0</ele><time>2026-03-31T15:29:06.797Z</time></trkpt><trkpt lat="43.4425483" lon="11.5245533"><ele>624.0</ele><time>2026-03-31T15:29:07.795Z</time></trkpt><trkpt lat="43.4424433" lon="11.524425"><ele>628.0</ele><time>2026-03-31T15:29:08.795Z</time></trkpt><trkpt lat="43.4423533" lon="11.5243183"><ele>632.0</ele><time>2026-03-31T15:29:09.795Z</time></trkpt><trkpt lat="43.44229" lon="11.5242117"><ele>636.0</ele><time>2026-03-31T15:29:10.798Z</time></trkpt><trkpt lat="43.4422583" lon="11.5240867"><ele>636.0</ele><time>2026-03-31T15:29:11.795Z</time></trkpt><trkpt lat="43.442255" lon="11.523955"><ele>636.0</ele><time>2026-03-31T15:29:12.796Z</time></trkpt><trkpt lat="43.4422467" lon="11.5238433"><ele>636.0</ele><time>2026-03-31T15:29:13.796Z</time></trkpt><trkpt lat="43.442235" lon="11.5237417"><ele>636.0</ele><time>2026-03-31T15:29:14.796Z</time></trkpt><trkpt lat="43.4422033" lon="11.5236483"><ele>636.0</ele><time>2026-03-31T15:29:15.796Z</time></trkpt><trkpt lat="43.4421033" lon="11.5235883"><ele>636.0</ele><time>2026-03-31T15:29:16.796Z</time></trkpt><trkpt lat="43.441985" lon="11.5235133"><ele>637.6666666666666</ele><time>2026-03-31T15:29:17.796Z</time></trkpt><trkpt lat="43.4418517" lon="11.52342"><ele>639.3333333333333</ele><time>2026-03-31T15:29:18.795Z</time></trkpt><trkpt lat="43.4417083" lon="11.52332"><ele>641.0</ele><time>2026-03-31T15:29:19.796Z</time></trkpt><trkpt lat="43.4415767" lon="11.5232533"><ele>641.0</ele><time>2026-03-31T15:29:20.796Z</time></trkpt><trkpt lat="43.4414717" lon="11.5231933"><ele>641.0</ele><time>2026-03-31T15:29:21.796Z</time></trkpt><trkpt lat="43.4414017" lon="11.5231333"><ele>641.0</ele><time>2026-03-31T15:29:22.796Z</time></trkpt><trkpt lat="43.441355" lon="11.5230717"><ele>641.0</ele><time>2026-03-31T15:29:23.795Z</time></trkpt><trkpt lat="43.441325" lon="11.52294"><ele>641.0</ele><time>2026-03-31T15:29:25.797Z</time></trkpt><trkpt lat="43.441375" lon="11.5228583"><ele>641.0</ele><time>2026-03-31T15:29:26.796Z</time></trkpt><trkpt lat="43.4414333" lon="11.5226883"><ele>642.75</ele><time>2026-03-31T15:29:27.796Z</time></trkpt><trkpt lat="43.4415" lon="11.5225133"><ele>644.5</ele><time>2026-03-31T15:29:28.797Z</time></trkpt><trkpt lat="43.4415433" lon="11.5223683"><ele>646.25</ele><time>2026-03-31T15:29:29.797Z</time></trkpt><trkpt lat="43.44161" lon="11.5222333"><ele>648.0</ele><time>2026-03-31T15:29:30.796Z</time></trkpt><trkpt lat="43.441695" lon="11.5221233"><ele>649.0</ele><time>2026-03-31T15:29:31.796Z</time></trkpt><trkpt lat="43.441795" lon="11.5220233"><ele>650.0</ele><time>2026-03-31T15:29:32.797Z</time></trkpt><trkpt lat="43.4419" lon="11.5219317"><ele>651.0</ele><time>2026-03-31T15:29:33.795Z</time></trkpt><trkpt lat="43.442025" lon="11.5218317"><ele>652.0</ele><time>2026-03-31T15:29:34.796Z</time></trkpt><trkpt lat="43.4421517" lon="11.5217183"><ele>652.0</ele><time>2026-03-31T15:29:35.795Z</time></trkpt><trkpt lat="43.4422717" lon="11.5215967"><ele>652.0</ele><time>2026-03-31T15:29:36.795Z</time></trkpt><trkpt lat="43.4423933" lon="11.5214733"><ele>652.0</ele><time>2026-03-31T15:29:37.795Z</time></trkpt><trkpt lat="43.44249" lon="11.5213517"><ele>652.0</ele><time>2026-03-31T15:29:38.795Z</time></trkpt><trkpt lat="43.4425683" lon="11.5212117"><ele>651.0</ele><time>2026-03-31T15:29:39.795Z</time></trkpt><trkpt lat="43.44265" lon="11.5210417"><ele>650.0</ele><time>2026-03-31T15:29:40.794Z</time></trkpt><trkpt lat="43.44273" lon="11.5208367"><ele>649.0</ele><time>2026-03-31T15:29:41.794Z</time></trkpt><trkpt lat="43.4428133" lon="11.5206233"><ele>649.0</ele><time>2026-03-31T15:29:42.802Z</time></trkpt><trkpt lat="43.4428933" lon="11.5204133"><ele>649.0</ele><time>2026-03-31T15:29:43.796Z</time></trkpt><trkpt lat="43.44296" lon="11.520225"><ele>649.0</ele><time>2026-03-31T15:29:44.796Z</time></trkpt><trkpt lat="43.44302" lon="11.5200733"><ele>648.6666666666667</ele><time>2026-03-31T15:29:45.796Z</time></trkpt><trkpt lat="43.443065" lon="11.519975"><ele>648.3333333333334</ele><time>2026-03-31T15:29:46.796Z</time></trkpt><trkpt lat="43.4431033" lon="11.5198983"><ele>648.0</ele><time>2026-03-31T15:29:47.795Z</time></trkpt><trkpt lat="43.4431317" lon="11.5197983"><ele>647.6666666666666</ele><time>2026-03-31T15:29:49.797Z</time></trkpt><trkpt lat="43.443045" lon="11.5197633"><ele>647.3333333333333</ele><time>2026-03-31T15:29:51.796Z</time></trkpt><trkpt lat="43.4429533" lon="11.5196867"><ele>647.0</ele><time>2026-03-31T15:29:53.798Z</time></trkpt><trkpt lat="43.4429017" lon="11.51961"><ele>648.0</ele><time>2026-03-31T15:29:54.796Z</time></trkpt><trkpt lat="43.4428483" lon="11.5195233"><ele>649.0</ele><time>2026-03-31T15:29:55.796Z</time></trkpt><trkpt lat="43.4428067" lon="11.51942"><ele>650.0</ele><time>2026-03-31T15:29:56.797Z</time></trkpt><trkpt lat="43.4427783" lon="11.519305"><ele>651.0</ele><time>2026-03-31T15:29:57.796Z</time></trkpt><trkpt lat="43.44277" lon="11.51918"><ele>652.0</ele><time>2026-03-31T15:29:58.796Z</time></trkpt><trkpt lat="43.4427733" lon="11.5190583"><ele>653.0</ele><time>2026-03-31T15:29:59.795Z</time></trkpt><trkpt lat="43.442785" lon="11.5189433"><ele>653.0</ele><time>2026-03-31T15:30:00.796Z</time></trkpt><trkpt lat="43.4427933" lon="11.5188333"><ele>653.0</ele><time>2026-03-31T15:30:01.796Z</time></trkpt><trkpt lat="43.4428" lon="11.5187267"><ele>653.0</ele><time>2026-03-31T15:30:02.796Z</time></trkpt><trkpt lat="43.4428133" lon="11.51863"><ele>653.0</ele><time>2026-03-31T15:30:03.796Z</time></trkpt><trkpt lat="43.4428333" lon="11.5185283"><ele>653.0</ele><time>2026-03-31T15:30:04.796Z</time></trkpt><trkpt lat="43.44286" lon="11.5184183"><ele>653.0</ele><time>2026-03-31T15:30:05.797Z</time></trkpt><trkpt lat="43.442885" lon="11.5183017"><ele>653.8</ele><time>2026-03-31T15:30:06.797Z</time></trkpt><trkpt lat="43.4429083" lon="11.5181833"><ele>654.5999999999999</ele><time>2026-03-31T15:30:07.796Z</time></trkpt><trkpt lat="43.4429333" lon="11.5180633"><ele>655.4000000000001</ele><time>2026-03-31T15:30:08.797Z</time></trkpt><trkpt lat="43.4429667" lon="11.5179383"><ele>656.2</ele><time>2026-03-31T15:30:09.796Z</time></trkpt><trkpt lat="43.443" lon="11.5178233"><ele>657.0</ele><time>2026-03-31T15:30:10.796Z</time></trkpt><trkpt lat="43.4430217" lon="11.51771"><ele>660.5</ele><time>2026-03-31T15:30:11.796Z</time></trkpt><trkpt lat="43.4430367" lon="11.5176017"><ele>664.0</ele><time>2026-03-31T15:30:12.796Z</time></trkpt><trkpt lat="43.443045" lon="11.5175"><ele>667.5</ele><time>2026-03-31T15:30:13.795Z</time></trkpt><trkpt lat="43.4430517" lon="11.517405"><ele>671.0</ele><time>2026-03-31T15:30:14.797Z</time></trkpt><trkpt lat="43.44306" lon="11.51724"><ele>674.5</ele><time>2026-03-31T15:30:16.794Z</time></trkpt><trkpt lat="43.443045" lon="11.517145"><ele>678.0</ele><time>2026-03-31T15:30:17.795Z</time></trkpt><trkpt lat="43.4430183" lon="11.5170367"><ele>679.8</ele><time>2026-03-31T15:30:18.794Z</time></trkpt><trkpt lat="43.4429883" lon="11.516915"><ele>681.5999999999999</ele><time>2026-03-31T15:30:19.797Z</time></trkpt><trkpt lat="43.4429483" lon="11.5167883"><ele>683.4000000000001</ele><time>2026-03-31T15:30:20.796Z</time></trkpt><trkpt lat="43.4429067" lon="11.5166567"><ele>685.2</ele><time>2026-03-31T15:30:21.796Z</time></trkpt><trkpt lat="43.442875" lon="11.5165317"><ele>687.0</ele><time>2026-03-31T15:30:22.796Z</time></trkpt><trkpt lat="43.4428517" lon="11.51642"><ele>684.8</ele><time>2026-03-31T15:30:23.795Z</time></trkpt><trkpt lat="43.4428333" lon="11.516305"><ele>682.6</ele><time>2026-03-31T15:30:24.797Z</time></trkpt><trkpt lat="43.4428217" lon="11.51617"><ele>680.4</ele><time>2026-03-31T15:30:25.796Z</time></trkpt><trkpt lat="43.442815" lon="11.5160317"><ele>678.1999999999999</ele><time>2026-03-31T15:30:26.795Z</time></trkpt><trkpt lat="43.44282" lon="11.515905"><ele>676.0</ele><time>2026-03-31T15:30:27.796Z</time></trkpt><trkpt lat="43.442835" lon="11.5157867"><ele>676.0</ele><time>2026-03-31T15:30:28.796Z</time></trkpt><trkpt lat="43.4428583" lon="11.5156717"><ele>676.0</ele><time>2026-03-31T15:30:29.796Z</time></trkpt><trkpt lat="43.4428817" lon="11.5155667"><ele>676.0</ele><time>2026-03-31T15:30:30.797Z</time></trkpt><trkpt lat="43.442915" lon="11.5154783"><ele>676.0</ele><time>2026-03-31T15:30:31.797Z</time></trkpt><trkpt lat="43.4429717" lon="11.5154267"><ele>676.0</ele><time>2026-03-31T15:30:32.797Z</time></trkpt><trkpt lat="43.4430383" lon="11.515415"><ele>676.0</ele><time>2026-03-31T15:30:33.797Z</time></trkpt><trkpt lat="43.4431167" lon="11.5154167"><ele>678.1666666666667</ele><time>2026-03-31T15:30:34.797Z</time></trkpt><trkpt lat="43.4431983" lon="11.5154167"><ele>680.3333333333334</ele><time>2026-03-31T15:30:35.796Z</time></trkpt><trkpt lat="43.4432883" lon="11.5154167"><ele>682.5</ele><time>2026-03-31T15:30:36.794Z</time></trkpt><trkpt lat="43.4433683" lon="11.51541"><ele>684.6666666666666</ele><time>2026-03-31T15:30:37.796Z</time></trkpt><trkpt lat="43.4434467" lon="11.515405"><ele>686.8333333333333</ele><time>2026-03-31T15:30:38.797Z</time></trkpt><trkpt lat="43.4435267" lon="11.5153867"><ele>689.0</ele><time>2026-03-31T15:30:39.795Z</time></trkpt><trkpt lat="43.4436117" lon="11.515355"><ele>689.0</ele><time>2026-03-31T15:30:40.797Z</time></trkpt><trkpt lat="43.4437133" lon="11.5153117"><ele>689.0</ele><time>2026-03-31T15:30:41.796Z</time></trkpt><trkpt lat="43.443815" lon="11.5152567"><ele>689.0</ele><time>2026-03-31T15:30:42.795Z</time></trkpt><trkpt lat="43.4438983" lon="11.5152033"><ele>689.0</ele><time>2026-03-31T15:30:43.795Z</time></trkpt><trkpt lat="43.4439733" lon="11.515155"><ele>689.0</ele><time>2026-03-31T15:30:44.795Z</time></trkpt><trkpt lat="43.444035" lon="11.5151067"><ele>692.3333333333333</ele><time>2026-03-31T15:30:45.795Z</time></trkpt><trkpt lat="43.44409" lon="11.5150533"><ele>695.6666666666666</ele><time>2026-03-31T15:30:46.796Z</time></trkpt><trkpt lat="43.4441233" lon="11.5149583"><ele>699.0</ele><time>2026-03-31T15:30:47.795Z</time></trkpt><trkpt lat="43.4441467" lon="11.5148433"><ele>702.3333333333334</ele><time>2026-03-31T15:30:48.795Z</time></trkpt><trkpt lat="43.44416" lon="11.5147067"><ele>705.6666666666667</ele><time>2026-03-31T15:30:49.795Z</time></trkpt><trkpt lat="43.4441617" lon="11.5145733"><ele>709.0</ele><time>2026-03-31T15:30:50.796Z</time></trkpt><trkpt lat="43.4441583" lon="11.5144567"><ele>709.2</ele><time>2026-03-31T15:30:51.795Z</time></trkpt><trkpt lat="43.4441617" lon="11.5143467"><ele>709.4000000000001</ele><time>2026-03-31T15:30:52.795Z</time></trkpt><trkpt lat="43.4441783" lon="11.5142367"><ele>709.6</ele><time>2026-03-31T15:30:53.795Z</time></trkpt><trkpt lat="43.444185" lon="11.5141217"><ele>709.8</ele><time>2026-03-31T15:30:54.794Z</time></trkpt><trkpt lat="43.4441833" lon="11.513995"><ele>710.0</ele><time>2026-03-31T15:30:55.795Z</time></trkpt><trkpt lat="43.4441717" lon="11.513835"><ele>710.0</ele><time>2026-03-31T15:30:56.796Z</time></trkpt><trkpt lat="43.4441517" lon="11.513665"><ele>710.0</ele><time>2026-03-31T15:30:57.796Z</time></trkpt><trkpt lat="43.4441317" lon="11.51351"><ele>710.0</ele><time>2026-03-31T15:30:58.796Z</time></trkpt><trkpt lat="43.4441367" lon="11.5133933"><ele>710.0</ele><time>2026-03-31T15:30:59.796Z</time></trkpt><trkpt lat="43.44414" lon="11.513305"><ele>710.0</ele><time>2026-03-31T15:31:00.796Z</time></trkpt><trkpt lat="43.444165" lon="11.5131567"><ele>710.0</ele><time>2026-03-31T15:31:02.796Z</time></trkpt><trkpt lat="43.4442283" lon="11.5130517"><ele>710.0</ele><time>2026-03-31T15:31:04.795Z</time></trkpt><trkpt lat="43.4443083" lon="11.5129567"><ele>710.0</ele><time>2026-03-31T15:31:06.796Z</time></trkpt><trkpt lat="43.4443667" lon="11.5128967"><ele>710.0</ele><time>2026-03-31T15:31:07.796Z</time></trkpt><trkpt lat="43.4444233" lon="11.51283"><ele>710.0</ele><time>2026-03-31T15:31:08.797Z</time></trkpt><trkpt lat="43.4444833" lon="11.5127483"><ele>710.0</ele><time>2026-03-31T15:31:09.798Z</time></trkpt><trkpt lat="43.44455" lon="11.5126417"><ele>708.3333333333333</ele><time>2026-03-31T15:31:10.796Z</time></trkpt><trkpt lat="43.444615" lon="11.5125583"><ele>706.6666666666666</ele><time>2026-03-31T15:31:11.796Z</time></trkpt><trkpt lat="43.4446733" lon="11.51249"><ele>705.0</ele><time>2026-03-31T15:31:12.797Z</time></trkpt><trkpt lat="43.4447333" lon="11.5124267"><ele>703.3333333333334</ele><time>2026-03-31T15:31:13.797Z</time></trkpt><trkpt lat="43.4447883" lon="11.5123717"><ele>701.6666666666667</ele><time>2026-03-31T15:31:14.797Z</time></trkpt><trkpt lat="43.4448467" lon="11.5123083"><ele>700.0</ele><time>2026-03-31T15:31:15.796Z</time></trkpt><trkpt lat="43.4449167" lon="11.5122617"><ele>704.5</ele><time>2026-03-31T15:31:16.796Z</time></trkpt><trkpt lat="43.445" lon="11.5122283"><ele>709.0</ele><time>2026-03-31T15:31:17.795Z</time></trkpt><trkpt lat="43.4450883" lon="11.5122067"><ele>713.5</ele><time>2026-03-31T15:31:18.796Z</time></trkpt><trkpt lat="43.4451667" lon="11.512195"><ele>718.0</ele><time>2026-03-31T15:31:19.796Z</time></trkpt><trkpt lat="43.4452317" lon="11.5121817"><ele>722.5</ele><time>2026-03-31T15:31:20.796Z</time></trkpt><trkpt lat="43.4453417" lon="11.5121533"><ele>727.0</ele><time>2026-03-31T15:31:22.796Z</time></trkpt><trkpt lat="43.445425" lon="11.5121233"><ele>725.2</ele><time>2026-03-31T15:31:24.795Z</time></trkpt><trkpt lat="43.4454883" lon="11.512045"><ele>723.4000000000001</ele><time>2026-03-31T15:31:26.795Z</time></trkpt><trkpt lat="43.4455233" lon="11.51197"><ele>721.5999999999999</ele><time>2026-03-31T15:31:27.797Z</time></trkpt><trkpt lat="43.44555" lon="11.5118667"><ele>719.8</ele><time>2026-03-31T15:31:28.796Z</time></trkpt><trkpt lat="43.4455617" lon="11.5117117"><ele>718.0</ele><time>2026-03-31T15:31:29.795Z</time></trkpt><trkpt lat="43.445565" lon="11.5115417"><ele>718.0</ele><time>2026-03-31T15:31:30.797Z</time></trkpt><trkpt lat="43.4455667" lon="11.5113667"><ele>718.0</ele><time>2026-03-31T15:31:31.796Z</time></trkpt><trkpt lat="43.4455633" lon="11.511185"><ele>718.0</ele><time>2026-03-31T15:31:32.798Z</time></trkpt><trkpt lat="43.4455533" lon="11.51101"><ele>718.0</ele><time>2026-03-31T15:31:33.795Z</time></trkpt><trkpt lat="43.445535" lon="11.5108517"><ele>721.25</ele><time>2026-03-31T15:31:34.796Z</time></trkpt><trkpt lat="43.4455083" lon="11.51069"><ele>724.5</ele><time>2026-03-31T15:31:35.797Z</time></trkpt><trkpt lat="43.4454733" lon="11.5105267"><ele>727.75</ele><time>2026-03-31T15:31:36.796Z</time></trkpt><trkpt lat="43.4454383" lon="11.5103533"><ele>731.0</ele><time>2026-03-31T15:31:37.795Z</time></trkpt><trkpt lat="43.4454033" lon="11.51017"><ele>731.25</ele><time>2026-03-31T15:31:38.796Z</time></trkpt><trkpt lat="43.4453683" lon="11.50999"><ele>731.5</ele><time>2026-03-31T15:31:39.795Z</time></trkpt><trkpt lat="43.4453267" lon="11.50981"><ele>731.75</ele><time>2026-03-31T15:31:40.796Z</time></trkpt><trkpt lat="43.4452683" lon="11.5095983"><ele>732.0</ele><time>2026-03-31T15:31:41.797Z</time></trkpt><trkpt lat="43.445195" lon="11.5093867"><ele>740.0</ele><time>2026-03-31T15:31:42.797Z</time></trkpt><trkpt lat="43.4451167" lon="11.5091783"><ele>748.0</ele><time>2026-03-31T15:31:43.794Z</time></trkpt><trkpt lat="43.44504" lon="11.5089767"><ele>756.0</ele><time>2026-03-31T15:31:44.797Z</time></trkpt><trkpt lat="43.44497" lon="11.5087983"><ele>762.75</ele><time>2026-03-31T15:31:45.796Z</time></trkpt><trkpt lat="43.44489" lon="11.5086767"><ele>769.5</ele><time>2026-03-31T15:31:46.797Z</time></trkpt><trkpt lat="43.444795" lon="11.5085767"><ele>776.25</ele><time>2026-03-31T15:31:47.795Z</time></trkpt><trkpt lat="43.4446767" lon="11.5085017"><ele>783.0</ele><time>2026-03-31T15:31:48.796Z</time></trkpt><trkpt lat="43.4445367" lon="11.5084683"><ele>783.0</ele><time>2026-03-31T15:31:49.796Z</time></trkpt><trkpt lat="43.444385" lon="11.5084667"><ele>783.0</ele><time>2026-03-31T15:31:50.796Z</time></trkpt><trkpt lat="43.44423" lon="11.5084867"><ele>783.0</ele><time>2026-03-31T15:31:51.796Z</time></trkpt><trkpt lat="43.44409" lon="11.5085017"><ele>783.0</ele><time>2026-03-31T15:31:52.796Z</time></trkpt><trkpt lat="43.4439667" lon="11.50848"><ele>783.0</ele><time>2026-03-31T15:31:53.796Z</time></trkpt><trkpt lat="43.4438433" lon="11.50843"><ele>783.0</ele><time>2026-03-31T15:31:54.795Z</time></trkpt><trkpt lat="43.4437433" lon="11.50832"><ele>783.0</ele><time>2026-03-31T15:31:55.795Z</time></trkpt><trkpt lat="43.443625" lon="11.5082317"><ele>783.0</ele><time>2026-03-31T15:31:56.797Z</time></trkpt><trkpt lat="43.4434933" lon="11.508165"><ele>780.5</ele><time>2026-03-31T15:31:57.794Z</time></trkpt><trkpt lat="43.4433517" lon="11.50812"><ele>778.0</ele><time>2026-03-31T15:31:58.796Z</time></trkpt><trkpt lat="43.4432167" lon="11.5080717"><ele>775.5</ele><time>2026-03-31T15:31:59.796Z</time></trkpt><trkpt lat="43.4431017" lon="11.5079983"><ele>773.0</ele><time>2026-03-31T15:32:00.796Z</time></trkpt><trkpt lat="43.443005" lon="11.5078683"><ele>777.0</ele><time>2026-03-31T15:32:01.795Z</time></trkpt><trkpt lat="43.4429383" lon="11.50771"><ele>781.0</ele><time>2026-03-31T15:32:02.798Z</time></trkpt><trkpt lat="43.44291" lon="11.5075217"><ele>785.0</ele><time>2026-03-31T15:32:03.795Z</time></trkpt><trkpt lat="43.44289" lon="11.50738"><ele>789.0</ele><time>2026-03-31T15:32:04.795Z</time></trkpt><trkpt lat="43.44286" lon="11.5072467"><ele>789.0</ele><time>2026-03-31T15:32:05.795Z</time></trkpt><trkpt lat="43.4428383" lon="11.5071583"><ele>789.0</ele><time>2026-03-31T15:32:06.796Z</time></trkpt><trkpt lat="43.4428217" lon="11.5070467"><ele>789.0</ele><time>2026-03-31T15:32:08.798Z</time></trkpt><trkpt lat="43.4427217" lon="11.5069617"><ele>789.0</ele><time>2026-03-31T15:35:10.794Z</time></trkpt><trkpt lat="43.442805" lon="11.50698"><ele>789.0</ele><time>2026-03-31T15:39:38.796Z</time></trkpt><trkpt lat="43.4427217" lon="11.5069917"><ele>789.0</ele><time>2026-03-31T15:41:22.796Z</time></trkpt><trkpt lat="43.4427867" lon="11.5070633"><ele>789.0</ele><time>2026-03-31T15:45:52.795Z</time></trkpt><trkpt lat="43.4427967" lon="11.5071833"><ele>789.0</ele><time>2026-03-31T15:45:55.796Z</time></trkpt><trkpt lat="43.4428217" lon="11.5073483"><ele>789.0</ele><time>2026-03-31T15:45:57.797Z</time></trkpt><trkpt lat="43.4428367" lon="11.5074583"><ele>789.0</ele><time>2026-03-31T15:45:58.792Z</time></trkpt><trkpt lat="43.4428567" lon="11.507575"><ele>789.0</ele><time>2026-03-31T15:45:59.796Z</time></trkpt><trkpt lat="43.442885" lon="11.507685"><ele>789.0</ele><time>2026-03-31T15:46:00.797Z</time></trkpt><trkpt lat="43.4429183" lon="11.50778"><ele>789.0</ele><time>2026-03-31T15:46:01.797Z</time></trkpt><trkpt lat="43.4429633" lon="11.5078733"><ele>789.0</ele><time>2026-03-31T15:46:02.797Z</time></trkpt><trkpt lat="43.4430117" lon="11.5079683"><ele>789.0</ele><time>2026-03-31T15:46:03.795Z</time></trkpt><trkpt lat="43.4430617" lon="11.5080617"><ele>789.0</ele><time>2026-03-31T15:46:04.797Z</time></trkpt><trkpt lat="43.443135" lon="11.5081383"><ele>789.0</ele><time>2026-03-31T15:46:05.796Z</time></trkpt><trkpt lat="43.4432267" lon="11.5081867"><ele>785.0</ele><time>2026-03-31T15:46:06.797Z</time></trkpt><trkpt lat="43.4433733" lon="11.5082717"><ele>781.0</ele><time>2026-03-31T15:46:07.796Z</time></trkpt><trkpt lat="43.4434767" lon="11.5083383"><ele>777.0</ele><time>2026-03-31T15:46:08.797Z</time></trkpt><trkpt lat="43.4435583" lon="11.5083967"><ele>773.0</ele><time>2026-03-31T15:46:09.796Z</time></trkpt><trkpt lat="43.443655" lon="11.508455"><ele>773.0</ele><time>2026-03-31T15:46:10.796Z</time></trkpt><trkpt lat="43.4437567" lon="11.5085133"><ele>773.0</ele><time>2026-03-31T15:46:11.795Z</time></trkpt><trkpt lat="43.4438383" lon="11.508575"><ele>773.0</ele><time>2026-03-31T15:46:12.796Z</time></trkpt><trkpt lat="43.4439367" lon="11.5086083"><ele>773.0</ele><time>2026-03-31T15:46:13.796Z</time></trkpt><trkpt lat="43.4440433" lon="11.5086183"><ele>773.0</ele><time>2026-03-31T15:46:14.797Z</time></trkpt><trkpt lat="43.4441467" lon="11.508605"><ele>775.0</ele><time>2026-03-31T15:46:15.793Z</time></trkpt><trkpt lat="43.4442483" lon="11.5085917"><ele>777.0</ele><time>2026-03-31T15:46:16.795Z</time></trkpt><trkpt lat="43.44435" lon="11.5085867"><ele>779.0</ele><time>2026-03-31T15:46:17.795Z</time></trkpt><trkpt lat="43.4444533" lon="11.5085783"><ele>781.0</ele><time>2026-03-31T15:46:18.793Z</time></trkpt><trkpt lat="43.444545" lon="11.5085783"><ele>783.0</ele><time>2026-03-31T15:46:19.795Z</time></trkpt><trkpt lat="43.444625" lon="11.50859"><ele>785.0</ele><time>2026-03-31T15:46:20.796Z</time></trkpt><trkpt lat="43.4447067" lon="11.5086133"><ele>787.0</ele><time>2026-03-31T15:46:21.795Z</time></trkpt><trkpt lat="43.4447833" lon="11.5086733"><ele>789.0</ele><time>2026-03-31T15:46:22.795Z</time></trkpt><trkpt lat="43.444855" lon="11.50875"><ele>791.0</ele><time>2026-03-31T15:46:23.794Z</time></trkpt><trkpt lat="43.4449233" lon="11.508885"><ele>793.0</ele><time>2026-03-31T15:46:24.795Z</time></trkpt><trkpt lat="43.44498" lon="11.5090033"><ele>783.75</ele><time>2026-03-31T15:46:25.795Z</time></trkpt><trkpt lat="43.4450467" lon="11.50915"><ele>774.5</ele><time>2026-03-31T15:46:26.795Z</time></trkpt><trkpt lat="43.4451017" lon="11.5092983"><ele>765.25</ele><time>2026-03-31T15:46:27.796Z</time></trkpt><trkpt lat="43.4451583" lon="11.50944"><ele>756.0</ele><time>2026-03-31T15:46:28.795Z</time></trkpt><trkpt lat="43.4452117" lon="11.509595"><ele>750.0</ele><time>2026-03-31T15:46:29.797Z</time></trkpt><trkpt lat="43.4452517" lon="11.5097617"><ele>744.0</ele><time>2026-03-31T15:46:30.796Z</time></trkpt><trkpt lat="43.4452883" lon="11.5099317"><ele>738.0</ele><time>2026-03-31T15:46:31.796Z</time></trkpt><trkpt lat="43.4453167" lon="11.510105"><ele>732.0</ele><time>2026-03-31T15:46:32.797Z</time></trkpt><trkpt lat="43.4453317" lon="11.510285"><ele>731.75</ele><time>2026-03-31T15:46:33.794Z</time></trkpt><trkpt lat="43.4453733" lon="11.5104583"><ele>731.5</ele><time>2026-03-31T15:46:34.795Z</time></trkpt><trkpt lat="43.4454133" lon="11.5106417"><ele>731.25</ele><time>2026-03-31T15:46:35.796Z</time></trkpt><trkpt lat="43.4454583" lon="11.5108367"><ele>731.0</ele><time>2026-03-31T15:46:36.796Z</time></trkpt><trkpt lat="43.4454967" lon="11.511045"><ele>726.6666666666666</ele><time>2026-03-31T15:46:37.795Z</time></trkpt><trkpt lat="43.4455133" lon="11.5112567"><ele>722.3333333333334</ele><time>2026-03-31T15:46:38.795Z</time></trkpt><trkpt lat="43.4455033" lon="11.5114733"><ele>718.0</ele><time>2026-03-31T15:46:39.797Z</time></trkpt><trkpt lat="43.44549" lon="11.5116883"><ele>718.0</ele><time>2026-03-31T15:46:40.795Z</time></trkpt><trkpt lat="43.4454833" lon="11.5118967"><ele>718.0</ele><time>2026-03-31T15:46:41.795Z</time></trkpt><trkpt lat="43.4454783" lon="11.512085"><ele>718.0</ele><time>2026-03-31T15:46:42.797Z</time></trkpt><trkpt lat="43.4454833" lon="11.512255"><ele>718.0</ele><time>2026-03-31T15:46:43.796Z</time></trkpt><trkpt lat="43.4455133" lon="11.5124117"><ele>716.25</ele><time>2026-03-31T15:46:44.797Z</time></trkpt><trkpt lat="43.4455717" lon="11.5125633"><ele>714.5</ele><time>2026-03-31T15:46:45.796Z</time></trkpt><trkpt lat="43.4456517" lon="11.5127133"><ele>712.75</ele><time>2026-03-31T15:46:46.794Z</time></trkpt><trkpt lat="43.4457367" lon="11.5128567"><ele>711.0</ele><time>2026-03-31T15:46:47.795Z</time></trkpt><trkpt lat="43.4458083" lon="11.5130067"><ele>711.0</ele><time>2026-03-31T15:46:48.796Z</time></trkpt><trkpt lat="43.4458283" lon="11.5131633"><ele>711.0</ele><time>2026-03-31T15:46:49.796Z</time></trkpt><trkpt lat="43.44581" lon="11.5133283"><ele>711.0</ele><time>2026-03-31T15:46:50.795Z</time></trkpt><trkpt lat="43.4457783" lon="11.5134917"><ele>711.0</ele><time>2026-03-31T15:46:51.796Z</time></trkpt><trkpt lat="43.44573" lon="11.5136533"><ele>712.0</ele><time>2026-03-31T15:46:52.795Z</time></trkpt><trkpt lat="43.4456967" lon="11.5138033"><ele>713.0</ele><time>2026-03-31T15:46:53.798Z</time></trkpt><trkpt lat="43.4456783" lon="11.5139517"><ele>714.0</ele><time>2026-03-31T15:46:54.797Z</time></trkpt><trkpt lat="43.4456833" lon="11.5140917"><ele>715.0</ele><time>2026-03-31T15:46:55.796Z</time></trkpt><trkpt lat="43.4457" lon="11.51421"><ele>716.0</ele><time>2026-03-31T15:46:56.798Z</time></trkpt><trkpt lat="43.4457283" lon="11.5143217"><ele>716.0</ele><time>2026-03-31T15:46:57.795Z</time></trkpt><trkpt lat="43.44584" lon="11.5144567"><ele>716.0</ele><time>2026-03-31T15:46:58.795Z</time></trkpt><trkpt lat="43.4459383" lon="11.5145833"><ele>716.0</ele><time>2026-03-31T15:46:59.796Z</time></trkpt><trkpt lat="43.4460333" lon="11.5147367"><ele>716.0</ele><time>2026-03-31T15:47:00.796Z</time></trkpt><trkpt lat="43.4461033" lon="11.51492"><ele>719.25</ele><time>2026-03-31T15:47:01.797Z</time></trkpt><trkpt lat="43.446145" lon="11.5150983"><ele>722.5</ele><time>2026-03-31T15:47:02.796Z</time></trkpt><trkpt lat="43.44618" lon="11.5152617"><ele>725.75</ele><time>2026-03-31T15:47:03.796Z</time></trkpt><trkpt lat="43.446225" lon="11.5154033"><ele>729.0</ele><time>2026-03-31T15:47:04.796Z</time></trkpt><trkpt lat="43.446285" lon="11.5155233"><ele>723.25</ele><time>2026-03-31T15:47:05.795Z</time></trkpt><trkpt lat="43.44636" lon="11.51562"><ele>717.5</ele><time>2026-03-31T15:47:06.797Z</time></trkpt><trkpt lat="43.4464417" lon="11.5157167"><ele>711.75</ele><time>2026-03-31T15:47:07.796Z</time></trkpt><trkpt lat="43.4465467" lon="11.5157967"><ele>706.0</ele><time>2026-03-31T15:47:08.796Z</time></trkpt><trkpt lat="43.4466517" lon="11.51589"><ele>706.0</ele><time>2026-03-31T15:47:09.795Z</time></trkpt><trkpt lat="43.44675" lon="11.5159767"><ele>706.0</ele><time>2026-03-31T15:47:10.794Z</time></trkpt><trkpt lat="43.44684" lon="11.5160817"><ele>706.0</ele><time>2026-03-31T15:47:11.795Z</time></trkpt><trkpt lat="43.4469383" lon="11.516175"><ele>706.0</ele><time>2026-03-31T15:47:12.796Z</time></trkpt><trkpt lat="43.4470233" lon="11.5162867"><ele>708.75</ele><time>2026-03-31T15:47:13.796Z</time></trkpt><trkpt lat="43.4470933" lon="11.5163967"><ele>711.5</ele><time>2026-03-31T15:47:14.796Z</time></trkpt><trkpt lat="43.4471483" lon="11.5165217"><ele>714.25</ele><time>2026-03-31T15:47:15.796Z</time></trkpt><trkpt lat="43.4471833" lon="11.5166733"><ele>717.0</ele><time>2026-03-31T15:47:16.794Z</time></trkpt><trkpt lat="43.447185" lon="11.5168467"><ele>706.25</ele><time>2026-03-31T15:47:17.796Z</time></trkpt><trkpt lat="43.44718" lon="11.5170183"><ele>695.5</ele><time>2026-03-31T15:47:18.795Z</time></trkpt><trkpt lat="43.4471717" lon="11.5171917"><ele>684.75</ele><time>2026-03-31T15:47:19.793Z</time></trkpt><trkpt lat="43.447175" lon="11.5173533"><ele>674.0</ele><time>2026-03-31T15:47:20.797Z</time></trkpt><trkpt lat="43.4471833" lon="11.51751"><ele>673.75</ele><time>2026-03-31T15:47:21.794Z</time></trkpt><trkpt lat="43.4472" lon="11.5176617"><ele>673.5</ele><time>2026-03-31T15:47:22.795Z</time></trkpt><trkpt lat="43.4472267" lon="11.51781"><ele>673.25</ele><time>2026-03-31T15:47:23.795Z</time></trkpt><trkpt lat="43.4472733" lon="11.5179633"><ele>673.0</ele><time>2026-03-31T15:47:24.795Z</time></trkpt><trkpt lat="43.4473333" lon="11.5181367"><ele>673.0</ele><time>2026-03-31T15:47:25.796Z</time></trkpt><trkpt lat="43.4474017" lon="11.5183083"><ele>673.0</ele><time>2026-03-31T15:47:26.792Z</time></trkpt><trkpt lat="43.4474733" lon="11.5184767"><ele>673.0</ele><time>2026-03-31T15:47:27.797Z</time></trkpt><trkpt lat="43.4475467" lon="11.5186567"><ele>673.0</ele><time>2026-03-31T15:47:28.794Z</time></trkpt><trkpt lat="43.4476217" lon="11.518845"><ele>672.75</ele><time>2026-03-31T15:47:29.796Z</time></trkpt><trkpt lat="43.44768" lon="11.51903"><ele>672.5</ele><time>2026-03-31T15:47:30.796Z</time></trkpt><trkpt lat="43.4477117" lon="11.5192083"><ele>672.25</ele><time>2026-03-31T15:47:31.796Z</time></trkpt><trkpt lat="43.4477133" lon="11.519395"><ele>672.0</ele><time>2026-03-31T15:47:32.795Z</time></trkpt><trkpt lat="43.4476883" lon="11.519585"><ele>669.25</ele><time>2026-03-31T15:47:33.796Z</time></trkpt><trkpt lat="43.447645" lon="11.5197717"><ele>666.5</ele><time>2026-03-31T15:47:34.794Z</time></trkpt><trkpt lat="43.4475933" lon="11.5199633"><ele>663.75</ele><time>2026-03-31T15:47:35.796Z</time></trkpt><trkpt lat="43.4475333" lon="11.5201567"><ele>661.0</ele><time>2026-03-31T15:47:36.795Z</time></trkpt><trkpt lat="43.4474783" lon="11.5203467"><ele>659.75</ele><time>2026-03-31T15:47:37.794Z</time></trkpt><trkpt lat="43.4474333" lon="11.52053"><ele>658.5</ele><time>2026-03-31T15:47:38.795Z</time></trkpt><trkpt lat="43.4474" lon="11.5207117"><ele>657.25</ele><time>2026-03-31T15:47:39.796Z</time></trkpt><trkpt lat="43.44738" lon="11.520895"><ele>656.0</ele><time>2026-03-31T15:47:40.794Z</time></trkpt><trkpt lat="43.44737" lon="11.5210817"><ele>654.0</ele><time>2026-03-31T15:47:41.796Z</time></trkpt><trkpt lat="43.447375" lon="11.5212667"><ele>652.0</ele><time>2026-03-31T15:47:42.797Z</time></trkpt><trkpt lat="43.447405" lon="11.52145"><ele>650.0</ele><time>2026-03-31T15:47:43.796Z</time></trkpt><trkpt lat="43.44746" lon="11.521625"><ele>648.0</ele><time>2026-03-31T15:47:44.796Z</time></trkpt><trkpt lat="43.4475333" lon="11.5217967"><ele>648.0</ele><time>2026-03-31T15:47:45.797Z</time></trkpt><trkpt lat="43.4476117" lon="11.5219667"><ele>648.0</ele><time>2026-03-31T15:47:46.795Z</time></trkpt><trkpt lat="43.44768" lon="11.5221383"><ele>648.0</ele><time>2026-03-31T15:47:47.795Z</time></trkpt><trkpt lat="43.4477367" lon="11.5223117"><ele>648.0</ele><time>2026-03-31T15:47:48.796Z</time></trkpt><trkpt lat="43.4477767" lon="11.522485"><ele>643.75</ele><time>2026-03-31T15:47:49.796Z</time></trkpt><trkpt lat="43.4478067" lon="11.52266"><ele>639.5</ele><time>2026-03-31T15:47:50.796Z</time></trkpt><trkpt lat="43.4478217" lon="11.5228317"><ele>635.25</ele><time>2026-03-31T15:47:51.796Z</time></trkpt><trkpt lat="43.4478267" lon="11.5230083"><ele>631.0</ele><time>2026-03-31T15:47:52.796Z</time></trkpt><trkpt lat="43.44783" lon="11.5231817"><ele>628.75</ele><time>2026-03-31T15:47:53.796Z</time></trkpt><trkpt lat="43.447845" lon="11.5233567"><ele>626.5</ele><time>2026-03-31T15:47:54.795Z</time></trkpt><trkpt lat="43.4478683" lon="11.5235383"><ele>624.25</ele><time>2026-03-31T15:47:55.796Z</time></trkpt><trkpt lat="43.4478867" lon="11.523715"><ele>622.0</ele><time>2026-03-31T15:47:56.795Z</time></trkpt><trkpt lat="43.4478967" lon="11.5238883"><ele>620.0</ele><time>2026-03-31T15:47:57.796Z</time></trkpt><trkpt lat="43.4478817" lon="11.5240667"><ele>618.0</ele><time>2026-03-31T15:47:58.793Z</time></trkpt><trkpt lat="43.4478417" lon="11.5242467"><ele>616.0</ele><time>2026-03-31T15:47:59.796Z</time></trkpt><trkpt lat="43.4477867" lon="11.524415"><ele>614.0</ele><time>2026-03-31T15:48:00.795Z</time></trkpt><trkpt lat="43.4477367" lon="11.52457"><ele>613.5</ele><time>2026-03-31T15:48:01.795Z</time></trkpt><trkpt lat="43.4476917" lon="11.52472"><ele>613.0</ele><time>2026-03-31T15:48:02.796Z</time></trkpt><trkpt lat="43.4476617" lon="11.5248717"><ele>612.5</ele><time>2026-03-31T15:48:03.795Z</time></trkpt><trkpt lat="43.4476683" lon="11.52503"><ele>612.0</ele><time>2026-03-31T15:48:04.795Z</time></trkpt><trkpt lat="43.4477033" lon="11.525195"><ele>612.0</ele><time>2026-03-31T15:48:05.795Z</time></trkpt><trkpt lat="43.4477567" lon="11.5253517"><ele>612.0</ele><time>2026-03-31T15:48:06.794Z</time></trkpt><trkpt lat="43.4477983" lon="11.5255033"><ele>612.0</ele><time>2026-03-31T15:48:07.795Z</time></trkpt><trkpt lat="43.4478017" lon="11.5256567"><ele>612.0</ele><time>2026-03-31T15:48:08.795Z</time></trkpt><trkpt lat="43.4477567" lon="11.52579"><ele>611.6</ele><time>2026-03-31T15:48:09.796Z</time></trkpt><trkpt lat="43.4476783" lon="11.5258867"><ele>611.2</ele><time>2026-03-31T15:48:10.795Z</time></trkpt><trkpt lat="43.4475683" lon="11.5259267"><ele>610.8</ele><time>2026-03-31T15:48:11.796Z</time></trkpt><trkpt lat="43.4474517" lon="11.5259217"><ele>610.4</ele><time>2026-03-31T15:48:12.797Z</time></trkpt><trkpt lat="43.4473483" lon="11.5258833"><ele>610.0</ele><time>2026-03-31T15:48:13.796Z</time></trkpt><trkpt lat="43.4472483" lon="11.5258567"><ele>610.0</ele><time>2026-03-31T15:48:14.795Z</time></trkpt><trkpt lat="43.4471467" lon="11.5258717"><ele>610.0</ele><time>2026-03-31T15:48:15.794Z</time></trkpt><trkpt lat="43.44706" lon="11.525945"><ele>610.0</ele><time>2026-03-31T15:48:16.794Z</time></trkpt><trkpt lat="43.4469983" lon="11.526055"><ele>610.0</ele><time>2026-03-31T15:48:17.795Z</time></trkpt><trkpt lat="43.4469717" lon="11.5261817"><ele>610.0</ele><time>2026-03-31T15:48:18.795Z</time></trkpt><trkpt lat="43.4469733" lon="11.526325"><ele>607.2</ele><time>2026-03-31T15:48:19.794Z</time></trkpt><trkpt lat="43.44702" lon="11.5264533"><ele>604.4</ele><time>2026-03-31T15:48:20.796Z</time></trkpt><trkpt lat="43.447105" lon="11.5265483"><ele>601.6</ele><time>2026-03-31T15:48:21.795Z</time></trkpt><trkpt lat="43.4471983" lon="11.52663"><ele>598.8</ele><time>2026-03-31T15:48:22.796Z</time></trkpt><trkpt lat="43.4472933" lon="11.52669"><ele>596.0</ele><time>2026-03-31T15:48:23.795Z</time></trkpt><trkpt lat="43.4473917" lon="11.526725"><ele>596.0</ele><time>2026-03-31T15:48:24.795Z</time></trkpt><trkpt lat="43.4474917" lon="11.526725"><ele>596.0</ele><time>2026-03-31T15:48:25.796Z</time></trkpt><trkpt lat="43.4475983" lon="11.5267"><ele>596.0</ele><time>2026-03-31T15:48:26.797Z</time></trkpt><trkpt lat="43.4477" lon="11.526675"><ele>596.0</ele><time>2026-03-31T15:48:27.796Z</time></trkpt><trkpt lat="43.447805" lon="11.5266633"><ele>596.0</ele><time>2026-03-31T15:48:28.796Z</time></trkpt><trkpt lat="43.44791" lon="11.5266883"><ele>594.0</ele><time>2026-03-31T15:48:29.796Z</time></trkpt><trkpt lat="43.448015" lon="11.526745"><ele>592.0</ele><time>2026-03-31T15:48:30.795Z</time></trkpt><trkpt lat="43.448115" lon="11.5268417"><ele>590.0</ele><time>2026-03-31T15:48:31.795Z</time></trkpt><trkpt lat="43.448205" lon="11.5269617"><ele>588.0</ele><time>2026-03-31T15:48:32.797Z</time></trkpt><trkpt lat="43.4482933" lon="11.5271"><ele>585.75</ele><time>2026-03-31T15:48:33.795Z</time></trkpt><trkpt lat="43.4483833" lon="11.52724"><ele>583.5</ele><time>2026-03-31T15:48:34.795Z</time></trkpt><trkpt lat="43.44849" lon="11.5273817"><ele>581.25</ele><time>2026-03-31T15:48:35.796Z</time></trkpt><trkpt lat="43.448605" lon="11.527525"><ele>579.0</ele><time>2026-03-31T15:48:36.796Z</time></trkpt><trkpt lat="43.4487283" lon="11.527665"><ele>576.3333333333334</ele><time>2026-03-31T15:48:37.796Z</time></trkpt><trkpt lat="43.448855" lon="11.527795"><ele>573.6666666666667</ele><time>2026-03-31T15:48:38.796Z</time></trkpt><trkpt lat="43.4489833" lon="11.5279267"><ele>571.0</ele><time>2026-03-31T15:48:39.795Z</time></trkpt><trkpt lat="43.4491067" lon="11.528075"><ele>569.6666666666667</ele><time>2026-03-31T15:48:40.795Z</time></trkpt><trkpt lat="43.4492167" lon="11.5282383"><ele>568.3333333333334</ele><time>2026-03-31T15:48:41.794Z</time></trkpt><trkpt lat="43.4493183" lon="11.5284067"><ele>567.0</ele><time>2026-03-31T15:48:42.795Z</time></trkpt><trkpt lat="43.4494183" lon="11.52858"><ele>563.6666666666666</ele><time>2026-03-31T15:48:43.795Z</time></trkpt><trkpt lat="43.449515" lon="11.52875"><ele>560.3333333333333</ele><time>2026-03-31T15:48:44.795Z</time></trkpt><trkpt lat="43.449605" lon="11.5289117"><ele>557.0</ele><time>2026-03-31T15:48:45.796Z</time></trkpt><trkpt lat="43.44969" lon="11.5290733"><ele>556.6666666666666</ele><time>2026-03-31T15:48:46.794Z</time></trkpt><trkpt lat="43.44977" lon="11.529245"><ele>556.3333333333334</ele><time>2026-03-31T15:48:47.794Z</time></trkpt><trkpt lat="43.449835" lon="11.5294367"><ele>556.0</ele><time>2026-03-31T15:48:48.796Z</time></trkpt><trkpt lat="43.4498783" lon="11.52964"><ele>555.0</ele><time>2026-03-31T15:48:49.796Z</time></trkpt><trkpt lat="43.449905" lon="11.5298433"><ele>554.0</ele><time>2026-03-31T15:48:50.795Z</time></trkpt><trkpt lat="43.44993" lon="11.530045"><ele>553.0</ele><time>2026-03-31T15:48:51.796Z</time></trkpt><trkpt lat="43.4499567" lon="11.5302533"><ele>553.25</ele><time>2026-03-31T15:48:52.795Z</time></trkpt><trkpt lat="43.44998" lon="11.5304567"><ele>553.5</ele><time>2026-03-31T15:48:53.795Z</time></trkpt><trkpt lat="43.4499983" lon="11.5306483"><ele>553.75</ele><time>2026-03-31T15:48:54.798Z</time></trkpt><trkpt lat="43.4500117" lon="11.530825"><ele>554.0</ele><time>2026-03-31T15:48:55.795Z</time></trkpt><trkpt lat="43.4500117" lon="11.5309883"><ele>554.0</ele><time>2026-03-31T15:48:56.796Z</time></trkpt><trkpt lat="43.4500083" lon="11.531135"><ele>554.0</ele><time>2026-03-31T15:48:57.795Z</time></trkpt><trkpt lat="43.4500133" lon="11.5312667"><ele>554.0</ele><time>2026-03-31T15:48:58.795Z</time></trkpt><trkpt lat="43.4500433" lon="11.5313717"><ele>554.0</ele><time>2026-03-31T15:48:59.796Z</time></trkpt><trkpt lat="43.4500933" lon="11.531455"><ele>554.0</ele><time>2026-03-31T15:49:00.795Z</time></trkpt><trkpt lat="43.45016" lon="11.5315217"><ele>554.0</ele><time>2026-03-31T15:49:01.796Z</time></trkpt><trkpt lat="43.450235" lon="11.53158"><ele>554.6</ele><time>2026-03-31T15:49:02.796Z</time></trkpt><trkpt lat="43.4503167" lon="11.531625"><ele>555.2</ele><time>2026-03-31T15:49:03.796Z</time></trkpt><trkpt lat="43.4504017" lon="11.5316633"><ele>555.8000000000001</ele><time>2026-03-31T15:49:04.796Z</time></trkpt><trkpt lat="43.4505017" lon="11.5317133"><ele>556.4</ele><time>2026-03-31T15:49:05.795Z</time></trkpt><trkpt lat="43.4506117" lon="11.5317667"><ele>557.0</ele><time>2026-03-31T15:49:06.795Z</time></trkpt><trkpt lat="43.4507183" lon="11.531835"><ele>557.75</ele><time>2026-03-31T15:49:07.796Z</time></trkpt><trkpt lat="43.45083" lon="11.5319017"><ele>558.5</ele><time>2026-03-31T15:49:08.796Z</time></trkpt><trkpt lat="43.4509383" lon="11.532"><ele>559.25</ele><time>2026-03-31T15:49:09.795Z</time></trkpt><trkpt lat="43.4510433" lon="11.5321083"><ele>560.0</ele><time>2026-03-31T15:49:10.795Z</time></trkpt><trkpt lat="43.451145" lon="11.5322283"><ele>560.0</ele><time>2026-03-31T15:49:11.795Z</time></trkpt><trkpt lat="43.4512383" lon="11.5323617"><ele>560.0</ele><time>2026-03-31T15:49:12.796Z</time></trkpt><trkpt lat="43.45131" lon="11.5325083"><ele>560.0</ele><time>2026-03-31T15:49:13.796Z</time></trkpt><trkpt lat="43.4513783" lon="11.532665"><ele>560.0</ele><time>2026-03-31T15:49:14.797Z</time></trkpt><trkpt lat="43.451445" lon="11.532825"><ele>562.0</ele><time>2026-03-31T15:49:15.795Z</time></trkpt><trkpt lat="43.4515133" lon="11.5329733"><ele>564.0</ele><time>2026-03-31T15:49:16.795Z</time></trkpt><trkpt lat="43.4515967" lon="11.53311"><ele>566.0</ele><time>2026-03-31T15:49:17.795Z</time></trkpt><trkpt lat="43.4517" lon="11.5332333"><ele>568.0</ele><time>2026-03-31T15:49:18.796Z</time></trkpt><trkpt lat="43.451815" lon="11.5333517"><ele>568.0</ele><time>2026-03-31T15:49:19.796Z</time></trkpt><trkpt lat="43.45193" lon="11.5334817"><ele>568.0</ele><time>2026-03-31T15:49:20.796Z</time></trkpt><trkpt lat="43.4520333" lon="11.533625"><ele>568.0</ele><time>2026-03-31T15:49:21.795Z</time></trkpt><trkpt lat="43.4521217" lon="11.53376"><ele>568.0</ele><time>2026-03-31T15:49:22.795Z</time></trkpt><trkpt lat="43.4521967" lon="11.5338867"><ele>567.1999999999999</ele><time>2026-03-31T15:49:23.796Z</time></trkpt><trkpt lat="43.4522583" lon="11.53401"><ele>566.4</ele><time>2026-03-31T15:49:24.798Z</time></trkpt><trkpt lat="43.4522933" lon="11.5341367"><ele>565.5999999999999</ele><time>2026-03-31T15:49:25.795Z</time></trkpt><trkpt lat="43.4523017" lon="11.5342683"><ele>564.8</ele><time>2026-03-31T15:49:26.793Z</time></trkpt><trkpt lat="43.4522783" lon="11.5343917"><ele>564.0</ele><time>2026-03-31T15:49:27.795Z</time></trkpt><trkpt lat="43.45224" lon="11.5345217"><ele>563.8</ele><time>2026-03-31T15:49:28.796Z</time></trkpt><trkpt lat="43.4521783" lon="11.5346367"><ele>563.5999999999999</ele><time>2026-03-31T15:49:29.795Z</time></trkpt><trkpt lat="43.4520733" lon="11.5347083"><ele>563.4</ele><time>2026-03-31T15:49:30.797Z</time></trkpt><trkpt lat="43.4519683" lon="11.534765"><ele>563.1999999999999</ele><time>2026-03-31T15:49:31.798Z</time></trkpt><trkpt lat="43.4518817" lon="11.53485"><ele>563.0</ele><time>2026-03-31T15:49:32.796Z</time></trkpt><trkpt lat="43.45182" lon="11.5349733"><ele>564.8</ele><time>2026-03-31T15:49:33.795Z</time></trkpt><trkpt lat="43.4517833" lon="11.5351"><ele>566.5999999999999</ele><time>2026-03-31T15:49:34.795Z</time></trkpt><trkpt lat="43.4517817" lon="11.5352467"><ele>568.4000000000001</ele><time>2026-03-31T15:49:35.795Z</time></trkpt><trkpt lat="43.45182" lon="11.5353917"><ele>570.2</ele><time>2026-03-31T15:49:36.797Z</time></trkpt><trkpt lat="43.45188" lon="11.5355467"><ele>572.0</ele><time>2026-03-31T15:49:37.796Z</time></trkpt><trkpt lat="43.4519517" lon="11.53571"><ele>572.0</ele><time>2026-03-31T15:49:38.797Z</time></trkpt><trkpt lat="43.4520233" lon="11.5358733"><ele>572.0</ele><time>2026-03-31T15:49:39.796Z</time></trkpt><trkpt lat="43.452115" lon="11.5360267"><ele>572.0</ele><time>2026-03-31T15:49:40.795Z</time></trkpt><trkpt lat="43.4522033" lon="11.5361867"><ele>572.0</ele><time>2026-03-31T15:49:41.795Z</time></trkpt><trkpt lat="43.452275" lon="11.5363417"><ele>568.75</ele><time>2026-03-31T15:49:42.796Z</time></trkpt><trkpt lat="43.452335" lon="11.5364967"><ele>565.5</ele><time>2026-03-31T15:49:43.796Z</time></trkpt><trkpt lat="43.45238" lon="11.536675"><ele>562.25</ele><time>2026-03-31T15:49:44.798Z</time></trkpt><trkpt lat="43.4524217" lon="11.536855"><ele>559.0</ele><time>2026-03-31T15:49:45.795Z</time></trkpt><trkpt lat="43.4524617" lon="11.537035"><ele>558.8</ele><time>2026-03-31T15:49:46.794Z</time></trkpt><trkpt lat="43.4524933" lon="11.5371917"><ele>558.5999999999999</ele><time>2026-03-31T15:49:47.795Z</time></trkpt><trkpt lat="43.45251" lon="11.5373283"><ele>558.4</ele><time>2026-03-31T15:49:48.795Z</time></trkpt><trkpt lat="43.452505" lon="11.5374533"><ele>558.1999999999999</ele><time>2026-03-31T15:49:49.795Z</time></trkpt><trkpt lat="43.452475" lon="11.5375933"><ele>558.0</ele><time>2026-03-31T15:49:50.796Z</time></trkpt><trkpt lat="43.4524467" lon="11.53772"><ele>558.0</ele><time>2026-03-31T15:49:51.795Z</time></trkpt><trkpt lat="43.452445" lon="11.5378583"><ele>558.0</ele><time>2026-03-31T15:49:52.795Z</time></trkpt><trkpt lat="43.45248" lon="11.53799"><ele>558.0</ele><time>2026-03-31T15:49:53.795Z</time></trkpt><trkpt lat="43.4525383" lon="11.5381167"><ele>558.0</ele><time>2026-03-31T15:49:54.795Z</time></trkpt><trkpt lat="43.452625" lon="11.5382267"><ele>558.0</ele><time>2026-03-31T15:49:55.796Z</time></trkpt><trkpt lat="43.4527033" lon="11.53833"><ele>557.75</ele><time>2026-03-31T15:49:56.796Z</time></trkpt><trkpt lat="43.452765" lon="11.5384517"><ele>557.5</ele><time>2026-03-31T15:49:57.796Z</time></trkpt><trkpt lat="43.4528133" lon="11.538605"><ele>557.25</ele><time>2026-03-31T15:49:58.797Z</time></trkpt><trkpt lat="43.452855" lon="11.5387683"><ele>557.0</ele><time>2026-03-31T15:49:59.795Z</time></trkpt><trkpt lat="43.4528967" lon="11.5389333"><ele>556.0</ele><time>2026-03-31T15:50:00.796Z</time></trkpt><trkpt lat="43.452925" lon="11.5391067"><ele>555.0</ele><time>2026-03-31T15:50:01.795Z</time></trkpt><trkpt lat="43.4529217" lon="11.5392883"><ele>554.0</ele><time>2026-03-31T15:50:02.795Z</time></trkpt><trkpt lat="43.4528983" lon="11.5394733"><ele>553.0</ele><time>2026-03-31T15:50:03.795Z</time></trkpt><trkpt lat="43.4528633" lon="11.539645"><ele>551.4</ele><time>2026-03-31T15:50:04.796Z</time></trkpt><trkpt lat="43.45282" lon="11.539795"><ele>549.8</ele><time>2026-03-31T15:50:05.796Z</time></trkpt><trkpt lat="43.45278" lon="11.5399283"><ele>548.2</ele><time>2026-03-31T15:50:06.797Z</time></trkpt><trkpt lat="43.4527467" lon="11.5400417"><ele>546.6</ele><time>2026-03-31T15:50:07.794Z</time></trkpt><trkpt lat="43.4527333" lon="11.54015"><ele>545.0</ele><time>2026-03-31T15:50:08.797Z</time></trkpt><trkpt lat="43.4527367" lon="11.5402517"><ele>541.25</ele><time>2026-03-31T15:50:09.795Z</time></trkpt><trkpt lat="43.45278" lon="11.540385"><ele>537.5</ele><time>2026-03-31T15:50:10.795Z</time></trkpt><trkpt lat="43.4528417" lon="11.540545"><ele>533.75</ele><time>2026-03-31T15:50:11.796Z</time></trkpt><trkpt lat="43.4529217" lon="11.540705"><ele>530.0</ele><time>2026-03-31T15:50:12.797Z</time></trkpt><trkpt lat="43.452995" lon="11.5408367"><ele>525.75</ele><time>2026-03-31T15:50:13.796Z</time></trkpt><trkpt lat="43.453085" lon="11.5409683"><ele>521.5</ele><time>2026-03-31T15:50:14.796Z</time></trkpt><trkpt lat="43.45318" lon="11.5411"><ele>517.25</ele><time>2026-03-31T15:50:15.795Z</time></trkpt><trkpt lat="43.453255" lon="11.5412083"><ele>513.0</ele><time>2026-03-31T15:50:16.795Z</time></trkpt><trkpt lat="43.4533183" lon="11.5413"><ele>511.79999999999995</ele><time>2026-03-31T15:50:17.795Z</time></trkpt><trkpt lat="43.4533767" lon="11.54138"><ele>510.59999999999997</ele><time>2026-03-31T15:50:18.795Z</time></trkpt><trkpt lat="43.4534217" lon="11.5415267"><ele>509.40000000000003</ele><time>2026-03-31T15:50:20.797Z</time></trkpt><trkpt lat="43.4533483" lon="11.5415733"><ele>508.20000000000005</ele><time>2026-03-31T15:50:21.795Z</time></trkpt><trkpt lat="43.4532617" lon="11.5416"><ele>507.0</ele><time>2026-03-31T15:50:22.795Z</time></trkpt><trkpt lat="43.453135" lon="11.541585"><ele>507.0</ele><time>2026-03-31T15:50:23.796Z</time></trkpt><trkpt lat="43.4530167" lon="11.5415467"><ele>507.00000000000006</ele><time>2026-03-31T15:50:24.796Z</time></trkpt><trkpt lat="43.4529083" lon="11.5414883"><ele>507.00000000000006</ele><time>2026-03-31T15:50:25.797Z</time></trkpt><trkpt lat="43.45281" lon="11.541435"><ele>507.0</ele><time>2026-03-31T15:50:26.795Z</time></trkpt><trkpt lat="43.452725" lon="11.5413967"><ele>507.0</ele><time>2026-03-31T15:50:27.796Z</time></trkpt><trkpt lat="43.4526483" lon="11.54138"><ele>507.6</ele><time>2026-03-31T15:50:28.794Z</time></trkpt><trkpt lat="43.4525817" lon="11.5414083"><ele>508.20000000000005</ele><time>2026-03-31T15:50:29.794Z</time></trkpt><trkpt lat="43.4525117" lon="11.541465"><ele>508.8</ele><time>2026-03-31T15:50:30.795Z</time></trkpt><trkpt lat="43.4524467" lon="11.5415367"><ele>509.4</ele><time>2026-03-31T15:50:31.797Z</time></trkpt><trkpt lat="43.4523717" lon="11.5417117"><ele>510.0</ele><time>2026-03-31T15:50:32.796Z</time></trkpt><trkpt lat="43.4523133" lon="11.541885"><ele>511.25</ele><time>2026-03-31T15:50:33.796Z</time></trkpt><trkpt lat="43.452255" lon="11.542065"><ele>512.5</ele><time>2026-03-31T15:50:34.795Z</time></trkpt><trkpt lat="43.4521933" lon="11.5422483"><ele>513.75</ele><time>2026-03-31T15:50:35.796Z</time></trkpt><trkpt lat="43.452125" lon="11.542415"><ele>515.0</ele><time>2026-03-31T15:50:36.797Z</time></trkpt><trkpt lat="43.4520567" lon="11.5425567"><ele>515.0</ele><time>2026-03-31T15:50:37.795Z</time></trkpt><trkpt lat="43.4519983" lon="11.5426883"><ele>515.0</ele><time>2026-03-31T15:50:38.795Z</time></trkpt><trkpt lat="43.45197" lon="11.5428367"><ele>515.0</ele><time>2026-03-31T15:50:39.796Z</time></trkpt><trkpt lat="43.4519767" lon="11.5430017"><ele>515.0</ele><time>2026-03-31T15:50:40.794Z</time></trkpt><trkpt lat="43.4520183" lon="11.5431817"><ele>512.75</ele><time>2026-03-31T15:50:41.795Z</time></trkpt><trkpt lat="43.452065" lon="11.5433567"><ele>510.5</ele><time>2026-03-31T15:50:42.796Z</time></trkpt><trkpt lat="43.4521033" lon="11.5435333"><ele>508.25</ele><time>2026-03-31T15:50:43.796Z</time></trkpt><trkpt lat="43.4521367" lon="11.54371"><ele>506.0</ele><time>2026-03-31T15:50:44.798Z</time></trkpt><trkpt lat="43.4521433" lon="11.5438883"><ele>502.8</ele><time>2026-03-31T15:50:45.795Z</time></trkpt><trkpt lat="43.452145" lon="11.5440467"><ele>499.6</ele><time>2026-03-31T15:50:46.796Z</time></trkpt><trkpt lat="43.45213" lon="11.5441833"><ele>496.4</ele><time>2026-03-31T15:50:47.797Z</time></trkpt><trkpt lat="43.4520783" lon="11.5443033"><ele>493.2</ele><time>2026-03-31T15:50:48.795Z</time></trkpt><trkpt lat="43.4519933" lon="11.5444067"><ele>490.0</ele><time>2026-03-31T15:50:49.796Z</time></trkpt><trkpt lat="43.4518867" lon="11.5444983"><ele>485.0</ele><time>2026-03-31T15:50:50.794Z</time></trkpt><trkpt lat="43.4517833" lon="11.544585"><ele>480.0</ele><time>2026-03-31T15:50:51.794Z</time></trkpt><trkpt lat="43.4516833" lon="11.54466"><ele>475.0</ele><time>2026-03-31T15:50:52.794Z</time></trkpt><trkpt lat="43.4516067" lon="11.54473"><ele>470.0</ele><time>2026-03-31T15:50:53.795Z</time></trkpt><trkpt lat="43.451545" lon="11.5448"><ele>465.0</ele><time>2026-03-31T15:50:54.795Z</time></trkpt><trkpt lat="43.45149" lon="11.5449317"><ele>465.0</ele><time>2026-03-31T15:50:56.796Z</time></trkpt><trkpt lat="43.4515833" lon="11.5450517"><ele>465.0</ele><time>2026-03-31T15:50:58.796Z</time></trkpt><trkpt lat="43.451675" lon="11.545075"><ele>465.0</ele><time>2026-03-31T15:50:59.795Z</time></trkpt><trkpt lat="43.4517817" lon="11.545035"><ele>465.0</ele><time>2026-03-31T15:51:00.797Z</time></trkpt><trkpt lat="43.4519067" lon="11.5449867"><ele>465.0</ele><time>2026-03-31T15:51:01.796Z</time></trkpt><trkpt lat="43.452055" lon="11.5449433"><ele>465.0</ele><time>2026-03-31T15:51:02.796Z</time></trkpt><trkpt lat="43.4521817" lon="11.54492"><ele>465.0</ele><time>2026-03-31T15:51:03.796Z</time></trkpt><trkpt lat="43.4522867" lon="11.5448917"><ele>465.0</ele><time>2026-03-31T15:51:04.795Z</time></trkpt><trkpt lat="43.4523633" lon="11.54489"><ele>465.0</ele><time>2026-03-31T15:51:05.796Z</time></trkpt><trkpt lat="43.4524317" lon="11.5448967"><ele>465.0</ele><time>2026-03-31T15:51:06.796Z</time></trkpt><trkpt lat="43.4524317" lon="11.5450133"><ele>465.0</ele><time>2026-03-31T15:51:08.796Z</time></trkpt><trkpt lat="43.4523467" lon="11.5450533"><ele>465.0</ele><time>2026-03-31T15:51:09.795Z</time></trkpt><trkpt lat="43.4522667" lon="11.54509"><ele>465.0</ele><time>2026-03-31T15:51:10.793Z</time></trkpt><trkpt lat="43.4521883" lon="11.5451333"><ele>465.0</ele><time>2026-03-31T15:51:11.796Z</time></trkpt><trkpt lat="43.4521167" lon="11.5452217"><ele>465.0</ele><time>2026-03-31T15:51:12.794Z</time></trkpt><trkpt lat="43.452045" lon="11.5453383"><ele>465.0</ele><time>2026-03-31T15:51:13.796Z</time></trkpt><trkpt lat="43.4519733" lon="11.5454533"><ele>465.0</ele><time>2026-03-31T15:51:14.796Z</time></trkpt><trkpt lat="43.4518817" lon="11.5455433"><ele>465.0</ele><time>2026-03-31T15:51:15.795Z</time></trkpt><trkpt lat="43.45177" lon="11.5455983"><ele>461.0</ele><time>2026-03-31T15:51:16.795Z</time></trkpt><trkpt lat="43.4516667" lon="11.545615"><ele>457.0</ele><time>2026-03-31T15:51:17.795Z</time></trkpt><trkpt lat="43.4515833" lon="11.5456217"><ele>453.0</ele><time>2026-03-31T15:51:18.796Z</time></trkpt><trkpt lat="43.451515" lon="11.5456417"><ele>449.0</ele><time>2026-03-31T15:51:19.797Z</time></trkpt><trkpt lat="43.451465" lon="11.5457333"><ele>445.0</ele><time>2026-03-31T15:51:21.795Z</time></trkpt><trkpt lat="43.4514817" lon="11.5458267"><ele>441.0</ele><time>2026-03-31T15:51:23.796Z</time></trkpt><trkpt lat="43.4516017" lon="11.5458933"><ele>441.0</ele><time>2026-03-31T15:51:25.796Z</time></trkpt><trkpt lat="43.4516883" lon="11.5459017"><ele>441.0</ele><time>2026-03-31T15:51:26.797Z</time></trkpt><trkpt lat="43.4518317" lon="11.545895"><ele>441.0</ele><time>2026-03-31T15:51:27.795Z</time></trkpt><trkpt lat="43.45198" lon="11.5458467"><ele>441.0</ele><time>2026-03-31T15:51:28.795Z</time></trkpt><trkpt lat="43.452115" lon="11.5457883"><ele>438.75</ele><time>2026-03-31T15:51:29.795Z</time></trkpt><trkpt lat="43.452235" lon="11.54576"><ele>436.5</ele><time>2026-03-31T15:51:30.796Z</time></trkpt><trkpt lat="43.4523483" lon="11.545765"><ele>434.25</ele><time>2026-03-31T15:51:31.796Z</time></trkpt><trkpt lat="43.4524567" lon="11.5457983"><ele>432.0</ele><time>2026-03-31T15:51:32.797Z</time></trkpt><trkpt lat="43.4525633" lon="11.5458233"><ele>432.0</ele><time>2026-03-31T15:51:33.795Z</time></trkpt><trkpt lat="43.452675" lon="11.5458167"><ele>432.00000000000006</ele><time>2026-03-31T15:51:34.794Z</time></trkpt><trkpt lat="43.4527683" lon="11.54578"><ele>432.00000000000006</ele><time>2026-03-31T15:51:35.796Z</time></trkpt><trkpt lat="43.4528483" lon="11.5457083"><ele>432.0</ele><time>2026-03-31T15:51:36.795Z</time></trkpt><trkpt lat="43.4529133" lon="11.5456067"><ele>432.0</ele><time>2026-03-31T15:51:37.794Z</time></trkpt><trkpt lat="43.4529583" lon="11.5454567"><ele>429.75</ele><time>2026-03-31T15:51:38.796Z</time></trkpt><trkpt lat="43.4529933" lon="11.5452883"><ele>427.5</ele><time>2026-03-31T15:51:39.795Z</time></trkpt><trkpt lat="43.4530183" lon="11.5451117"><ele>425.25</ele><time>2026-03-31T15:51:40.795Z</time></trkpt><trkpt lat="43.4530367" lon="11.544945"><ele>423.0</ele><time>2026-03-31T15:51:41.794Z</time></trkpt><trkpt lat="43.453055" lon="11.5448033"><ele>423.0</ele><time>2026-03-31T15:51:42.797Z</time></trkpt><trkpt lat="43.4530833" lon="11.5446917"><ele>423.0</ele><time>2026-03-31T15:51:43.795Z</time></trkpt><trkpt lat="43.4531217" lon="11.544595"><ele>423.0</ele><time>2026-03-31T15:51:44.794Z</time></trkpt><trkpt lat="43.4531767" lon="11.54453"><ele>423.0</ele><time>2026-03-31T15:51:45.796Z</time></trkpt><trkpt lat="43.4532417" lon="11.5445017"><ele>423.0</ele><time>2026-03-31T15:51:46.795Z</time></trkpt><trkpt lat="43.4533133" lon="11.5445183"><ele>423.0</ele><time>2026-03-31T15:51:47.795Z</time></trkpt><trkpt lat="43.4534233" lon="11.544765"><ele>423.0</ele><time>2026-03-31T15:51:49.796Z</time></trkpt><trkpt lat="43.453495" lon="11.5450133"><ele>423.0</ele><time>2026-03-31T15:51:50.797Z</time></trkpt><trkpt lat="43.4535717" lon="11.5452433"><ele>423.0</ele><time>2026-03-31T15:51:51.796Z</time></trkpt><trkpt lat="43.4536483" lon="11.5454383"><ele>420.0</ele><time>2026-03-31T15:51:52.795Z</time></trkpt><trkpt lat="43.4537283" lon="11.545625"><ele>417.0</ele><time>2026-03-31T15:51:53.796Z</time></trkpt><trkpt lat="43.4538033" lon="11.5458017"><ele>414.0</ele><time>2026-03-31T15:51:54.795Z</time></trkpt><trkpt lat="43.4538767" lon="11.5459617"><ele>411.0</ele><time>2026-03-31T15:51:55.796Z</time></trkpt><trkpt lat="43.4539533" lon="11.54611"><ele>405.25</ele><time>2026-03-31T15:51:56.795Z</time></trkpt><trkpt lat="43.4540233" lon="11.5462317"><ele>399.5</ele><time>2026-03-31T15:51:57.794Z</time></trkpt><trkpt lat="43.4541067" lon="11.5463333"><ele>393.75</ele><time>2026-03-31T15:51:58.79Z</time></trkpt><trkpt lat="43.4542033" lon="11.546425"><ele>388.0</ele><time>2026-03-31T15:51:59.791Z</time></trkpt><trkpt lat="43.454295" lon="11.5465183"><ele>388.0</ele><time>2026-03-31T15:52:00.796Z</time></trkpt><trkpt lat="43.4543617" lon="11.5466467"><ele>388.0</ele><time>2026-03-31T15:52:01.796Z</time></trkpt><trkpt lat="43.454405" lon="11.546785"><ele>388.0</ele><time>2026-03-31T15:52:02.796Z</time></trkpt><trkpt lat="43.4544467" lon="11.5469183"><ele>388.0</ele><time>2026-03-31T15:52:03.795Z</time></trkpt><trkpt lat="43.4545167" lon="11.547035"><ele>388.0</ele><time>2026-03-31T15:52:04.793Z</time></trkpt><trkpt lat="43.4546133" lon="11.547135"><ele>386.25</ele><time>2026-03-31T15:52:05.796Z</time></trkpt><trkpt lat="43.454715" lon="11.547225"><ele>384.5</ele><time>2026-03-31T15:52:06.795Z</time></trkpt><trkpt lat="43.4548067" lon="11.5473267"><ele>382.75</ele><time>2026-03-31T15:52:07.796Z</time></trkpt><trkpt lat="43.45488" lon="11.5474567"><ele>381.0</ele><time>2026-03-31T15:52:08.796Z</time></trkpt><trkpt lat="43.4549583" lon="11.5475817"><ele>381.0</ele><time>2026-03-31T15:52:09.796Z</time></trkpt><trkpt lat="43.45506" lon="11.54771"><ele>381.0</ele><time>2026-03-31T15:52:10.796Z</time></trkpt><trkpt lat="43.4551767" lon="11.5478217"><ele>381.0</ele><time>2026-03-31T15:52:11.795Z</time></trkpt><trkpt lat="43.4552933" lon="11.5479217"><ele>381.0</ele><time>2026-03-31T15:52:12.796Z</time></trkpt><trkpt lat="43.4554" lon="11.5480183"><ele>378.75</ele><time>2026-03-31T15:52:13.794Z</time></trkpt><trkpt lat="43.4555017" lon="11.548125"><ele>376.5</ele><time>2026-03-31T15:52:14.796Z</time></trkpt><trkpt lat="43.4555883" lon="11.54824"><ele>374.25</ele><time>2026-03-31T15:52:15.796Z</time></trkpt><trkpt lat="43.4556783" lon="11.5483517"><ele>372.0</ele><time>2026-03-31T15:52:16.795Z</time></trkpt><trkpt lat="43.455765" lon="11.5484683"><ele>372.0</ele><time>2026-03-31T15:52:17.796Z</time></trkpt><trkpt lat="43.45585" lon="11.5485883"><ele>372.0</ele><time>2026-03-31T15:52:18.795Z</time></trkpt><trkpt lat="43.45593" lon="11.5487133"><ele>372.0</ele><time>2026-03-31T15:52:19.796Z</time></trkpt><trkpt lat="43.45601" lon="11.54884"><ele>372.0</ele><time>2026-03-31T15:52:20.795Z</time></trkpt><trkpt lat="43.4560917" lon="11.5489617"><ele>370.0</ele><time>2026-03-31T15:52:21.794Z</time></trkpt><trkpt lat="43.4561867" lon="11.549075"><ele>368.0</ele><time>2026-03-31T15:52:22.795Z</time></trkpt><trkpt lat="43.4562817" lon="11.5491733"><ele>366.0</ele><time>2026-03-31T15:52:23.795Z</time></trkpt><trkpt lat="43.45638" lon="11.5492617"><ele>364.0</ele><time>2026-03-31T15:52:24.796Z</time></trkpt><trkpt lat="43.45648" lon="11.5493433"><ele>364.0</ele><time>2026-03-31T15:52:25.795Z</time></trkpt><trkpt lat="43.4565733" lon="11.5494267"><ele>364.0</ele><time>2026-03-31T15:52:26.796Z</time></trkpt><trkpt lat="43.45667" lon="11.549515"><ele>364.0</ele><time>2026-03-31T15:52:27.795Z</time></trkpt><trkpt lat="43.45677" lon="11.5496083"><ele>364.0</ele><time>2026-03-31T15:52:28.795Z</time></trkpt><trkpt lat="43.45687" lon="11.5496983"><ele>360.75</ele><time>2026-03-31T15:52:29.796Z</time></trkpt><trkpt lat="43.4569733" lon="11.54978"><ele>357.5</ele><time>2026-03-31T15:52:30.796Z</time></trkpt><trkpt lat="43.4570817" lon="11.54986"><ele>354.25</ele><time>2026-03-31T15:52:31.795Z</time></trkpt><trkpt lat="43.4571833" lon="11.5499417"><ele>351.0</ele><time>2026-03-31T15:52:32.796Z</time></trkpt><trkpt lat="43.4572667" lon="11.550045"><ele>351.0</ele><time>2026-03-31T15:52:33.795Z</time></trkpt><trkpt lat="43.457325" lon="11.5501783"><ele>351.0</ele><time>2026-03-31T15:52:34.795Z</time></trkpt><trkpt lat="43.45737" lon="11.5503183"><ele>351.0</ele><time>2026-03-31T15:52:35.796Z</time></trkpt><trkpt lat="43.45743" lon="11.5504517"><ele>351.0</ele><time>2026-03-31T15:52:36.795Z</time></trkpt><trkpt lat="43.4575" lon="11.55057"><ele>351.0</ele><time>2026-03-31T15:52:37.798Z</time></trkpt><trkpt lat="43.4575783" lon="11.550675"><ele>347.0</ele><time>2026-03-31T15:52:38.796Z</time></trkpt><trkpt lat="43.4576733" lon="11.5507567"><ele>343.0</ele><time>2026-03-31T15:52:39.794Z</time></trkpt><trkpt lat="43.457795" lon="11.5508183"><ele>339.0</ele><time>2026-03-31T15:52:40.796Z</time></trkpt><trkpt lat="43.4579283" lon="11.5508783"><ele>335.0</ele><time>2026-03-31T15:52:41.796Z</time></trkpt><trkpt lat="43.4580617" lon="11.5509433"><ele>334.5</ele><time>2026-03-31T15:52:42.796Z</time></trkpt><trkpt lat="43.4581917" lon="11.5510083"><ele>334.0</ele><time>2026-03-31T15:52:43.796Z</time></trkpt><trkpt lat="43.4583183" lon="11.5510733"><ele>333.5</ele><time>2026-03-31T15:52:44.796Z</time></trkpt><trkpt lat="43.4584483" lon="11.551125"><ele>333.0</ele><time>2026-03-31T15:52:45.792Z</time></trkpt><trkpt lat="43.4585817" lon="11.55115"><ele>333.0</ele><time>2026-03-31T15:52:46.792Z</time></trkpt><trkpt lat="43.45871" lon="11.55116"><ele>333.0</ele><time>2026-03-31T15:52:47.795Z</time></trkpt><trkpt lat="43.4588333" lon="11.5511567"><ele>333.0</ele><time>2026-03-31T15:52:48.796Z</time></trkpt><trkpt lat="43.4589583" lon="11.551155"><ele>333.0</ele><time>2026-03-31T15:52:49.796Z</time></trkpt><trkpt lat="43.4590783" lon="11.5511767"><ele>329.5</ele><time>2026-03-31T15:52:50.797Z</time></trkpt><trkpt lat="43.4591933" lon="11.5512417"><ele>326.0</ele><time>2026-03-31T15:52:51.795Z</time></trkpt><trkpt lat="43.4592967" lon="11.55135"><ele>322.5</ele><time>2026-03-31T15:52:52.795Z</time></trkpt><trkpt lat="43.459395" lon="11.55149"><ele>319.0</ele><time>2026-03-31T15:52:53.796Z</time></trkpt><trkpt lat="43.4594883" lon="11.55163"><ele>319.0</ele><time>2026-03-31T15:52:54.796Z</time></trkpt><trkpt lat="43.4595833" lon="11.551755"><ele>319.0</ele><time>2026-03-31T15:52:55.795Z</time></trkpt><trkpt lat="43.4596933" lon="11.5518517"><ele>319.0</ele><time>2026-03-31T15:52:56.796Z</time></trkpt><trkpt lat="43.4598067" lon="11.5519217"><ele>319.0</ele><time>2026-03-31T15:52:57.795Z</time></trkpt><trkpt lat="43.4599117" lon="11.55198"><ele>318.5</ele><time>2026-03-31T15:52:58.794Z</time></trkpt><trkpt lat="43.46002" lon="11.5520633"><ele>318.0</ele><time>2026-03-31T15:52:59.797Z</time></trkpt><trkpt lat="43.460125" lon="11.5521717"><ele>317.5</ele><time>2026-03-31T15:53:00.796Z</time></trkpt><trkpt lat="43.46022" lon="11.5522933"><ele>317.0</ele><time>2026-03-31T15:53:01.795Z</time></trkpt><trkpt lat="43.4603133" lon="11.5524017"><ele>317.0</ele><time>2026-03-31T15:53:02.796Z</time></trkpt><trkpt lat="43.4604083" lon="11.5525017"><ele>317.0</ele><time>2026-03-31T15:53:03.794Z</time></trkpt><trkpt lat="43.4604983" lon="11.5526067"><ele>317.0</ele><time>2026-03-31T15:53:04.796Z</time></trkpt><trkpt lat="43.460575" lon="11.55274"><ele>317.0</ele><time>2026-03-31T15:53:05.795Z</time></trkpt><trkpt lat="43.4606317" lon="11.552905"><ele>318.0</ele><time>2026-03-31T15:53:06.796Z</time></trkpt><trkpt lat="43.4606617" lon="11.55308"><ele>319.0</ele><time>2026-03-31T15:53:07.795Z</time></trkpt><trkpt lat="43.4606767" lon="11.55325"><ele>320.0</ele><time>2026-03-31T15:53:08.796Z</time></trkpt><trkpt lat="43.46069" lon="11.55342"><ele>321.0</ele><time>2026-03-31T15:53:09.796Z</time></trkpt><trkpt lat="43.4607117" lon="11.5535867"><ele>319.0</ele><time>2026-03-31T15:53:10.792Z</time></trkpt><trkpt lat="43.4607617" lon="11.5537433"><ele>317.0</ele><time>2026-03-31T15:53:11.795Z</time></trkpt><trkpt lat="43.4608383" lon="11.5538867"><ele>315.0</ele><time>2026-03-31T15:53:12.796Z</time></trkpt><trkpt lat="43.4609433" lon="11.5540283"><ele>313.0</ele><time>2026-03-31T15:53:13.797Z</time></trkpt><trkpt lat="43.461055" lon="11.5541783"><ele>313.0</ele><time>2026-03-31T15:53:14.796Z</time></trkpt><trkpt lat="43.4611733" lon="11.55433"><ele>313.0</ele><time>2026-03-31T15:53:15.795Z</time></trkpt><trkpt lat="43.4612917" lon="11.55448"><ele>313.0</ele><time>2026-03-31T15:53:16.794Z</time></trkpt><trkpt lat="43.4614117" lon="11.554615"><ele>311.66666666666663</ele><time>2026-03-31T15:53:17.795Z</time></trkpt><trkpt lat="43.4615367" lon="11.5547433"><ele>310.3333333333333</ele><time>2026-03-31T15:53:18.795Z</time></trkpt><trkpt lat="43.4616583" lon="11.5548683"><ele>309.0</ele><time>2026-03-31T15:53:19.795Z</time></trkpt><trkpt lat="43.4617683" lon="11.554995"><ele>309.0</ele><time>2026-03-31T15:53:20.797Z</time></trkpt><trkpt lat="43.4618733" lon="11.5551217"><ele>309.0</ele><time>2026-03-31T15:53:21.796Z</time></trkpt><trkpt lat="43.4619717" lon="11.5552383"><ele>309.0</ele><time>2026-03-31T15:53:22.793Z</time></trkpt><trkpt lat="43.4620733" lon="11.5553417"><ele>309.0</ele><time>2026-03-31T15:53:23.795Z</time></trkpt><trkpt lat="43.4621783" lon="11.5554383"><ele>307.59999999999997</ele><time>2026-03-31T15:53:24.796Z</time></trkpt><trkpt lat="43.4622833" lon="11.5555233"><ele>306.2</ele><time>2026-03-31T15:53:25.796Z</time></trkpt><trkpt lat="43.4623833" lon="11.5555917"><ele>304.79999999999995</ele><time>2026-03-31T15:53:26.796Z</time></trkpt><trkpt lat="43.4624733" lon="11.5556483"><ele>303.4</ele><time>2026-03-31T15:53:27.795Z</time></trkpt><trkpt lat="43.4625733" lon="11.555695"><ele>302.0</ele><time>2026-03-31T15:53:28.794Z</time></trkpt><trkpt lat="43.4626783" lon="11.55571"><ele>302.0</ele><time>2026-03-31T15:53:29.795Z</time></trkpt><trkpt lat="43.462785" lon="11.55571"><ele>302.0</ele><time>2026-03-31T15:53:30.797Z</time></trkpt><trkpt lat="43.4629" lon="11.5557033"><ele>302.0</ele><time>2026-03-31T15:53:31.799Z</time></trkpt><trkpt lat="43.4630217" lon="11.5557033"><ele>302.0</ele><time>2026-03-31T15:53:32.795Z</time></trkpt><trkpt lat="43.4631567" lon="11.5557217"><ele>301.0</ele><time>2026-03-31T15:53:33.797Z</time></trkpt><trkpt lat="43.463305" lon="11.5557533"><ele>300.0</ele><time>2026-03-31T15:53:34.796Z</time></trkpt><trkpt lat="43.4634617" lon="11.5557883"><ele>299.0</ele><time>2026-03-31T15:53:35.796Z</time></trkpt><trkpt lat="43.463615" lon="11.5558233"><ele>299.0</ele><time>2026-03-31T15:53:36.799Z</time></trkpt><trkpt lat="43.4637633" lon="11.555855"><ele>299.0</ele><time>2026-03-31T15:53:37.796Z</time></trkpt><trkpt lat="43.463905" lon="11.5558867"><ele>299.0</ele><time>2026-03-31T15:53:38.796Z</time></trkpt><trkpt lat="43.4640433" lon="11.5559133"><ele>299.0</ele><time>2026-03-31T15:53:39.795Z</time></trkpt><trkpt lat="43.4641817" lon="11.5559217"><ele>298.5</ele><time>2026-03-31T15:53:40.799Z</time></trkpt><trkpt lat="43.4643233" lon="11.5558967"><ele>298.0</ele><time>2026-03-31T15:53:41.795Z</time></trkpt><trkpt lat="43.4644667" lon="11.5558517"><ele>297.5</ele><time>2026-03-31T15:53:42.796Z</time></trkpt><trkpt lat="43.4646" lon="11.5558067"><ele>297.0</ele><time>2026-03-31T15:53:43.795Z</time></trkpt><trkpt lat="43.464735" lon="11.5557683"><ele>297.0</ele><time>2026-03-31T15:53:44.796Z</time></trkpt><trkpt lat="43.4648783" lon="11.5557383"><ele>297.0</ele><time>2026-03-31T15:53:45.795Z</time></trkpt><trkpt lat="43.4650167" lon="11.555745"><ele>297.0</ele><time>2026-03-31T15:53:46.795Z</time></trkpt><trkpt lat="43.4651617" lon="11.5557833"><ele>297.0</ele><time>2026-03-31T15:53:47.795Z</time></trkpt><trkpt lat="43.46531" lon="11.5558483"><ele>298.6666666666667</ele><time>2026-03-31T15:53:48.796Z</time></trkpt><trkpt lat="43.4654517" lon="11.5559217"><ele>300.33333333333337</ele><time>2026-03-31T15:53:49.798Z</time></trkpt><trkpt lat="43.46559" lon="11.5560033"><ele>302.0</ele><time>2026-03-31T15:53:50.796Z</time></trkpt><trkpt lat="43.465725" lon="11.5560917"><ele>302.0</ele><time>2026-03-31T15:53:51.796Z</time></trkpt><trkpt lat="43.4658583" lon="11.5561817"><ele>302.0</ele><time>2026-03-31T15:53:52.796Z</time></trkpt><trkpt lat="43.4659883" lon="11.5562717"><ele>302.0</ele><time>2026-03-31T15:53:53.796Z</time></trkpt><trkpt lat="43.4661167" lon="11.55636"><ele>302.0</ele><time>2026-03-31T15:53:54.795Z</time></trkpt><trkpt lat="43.4662417" lon="11.55644"><ele>297.75</ele><time>2026-03-31T15:53:55.796Z</time></trkpt><trkpt lat="43.4663683" lon="11.5565083"><ele>293.5</ele><time>2026-03-31T15:53:56.796Z</time></trkpt><trkpt lat="43.4665033" lon="11.55656"><ele>289.25</ele><time>2026-03-31T15:53:57.795Z</time></trkpt><trkpt lat="43.4666483" lon="11.5565933"><ele>285.0</ele><time>2026-03-31T15:53:58.795Z</time></trkpt><trkpt lat="43.4667933" lon="11.5566067"><ele>285.0</ele><time>2026-03-31T15:53:59.795Z</time></trkpt><trkpt lat="43.46694" lon="11.55659"><ele>285.0</ele><time>2026-03-31T15:54:00.8Z</time></trkpt><trkpt lat="43.4670933" lon="11.55655"><ele>285.0</ele><time>2026-03-31T15:54:01.797Z</time></trkpt><trkpt lat="43.4672467" lon="11.556505"><ele>284.6666666666667</ele><time>2026-03-31T15:54:02.795Z</time></trkpt><trkpt lat="43.4673967" lon="11.556455"><ele>284.33333333333337</ele><time>2026-03-31T15:54:03.795Z</time></trkpt><trkpt lat="43.467545" lon="11.5564033"><ele>284.0</ele><time>2026-03-31T15:54:04.795Z</time></trkpt><trkpt lat="43.4676967" lon="11.5563533"><ele>284.0</ele><time>2026-03-31T15:54:05.796Z</time></trkpt><trkpt lat="43.46785" lon="11.5563083"><ele>284.0</ele><time>2026-03-31T15:54:06.796Z</time></trkpt><trkpt lat="43.4680033" lon="11.5562583"><ele>284.0</ele><time>2026-03-31T15:54:07.795Z</time></trkpt><trkpt lat="43.4681567" lon="11.556205"><ele>286.0</ele><time>2026-03-31T15:54:08.796Z</time></trkpt><trkpt lat="43.4683117" lon="11.55615"><ele>288.0</ele><time>2026-03-31T15:54:09.797Z</time></trkpt><trkpt lat="43.46847" lon="11.5560933"><ele>290.0</ele><time>2026-03-31T15:54:10.795Z</time></trkpt><trkpt lat="43.4686283" lon="11.556035"><ele>288.6666666666667</ele><time>2026-03-31T15:54:11.795Z</time></trkpt><trkpt lat="43.4687883" lon="11.5559817"><ele>287.3333333333333</ele><time>2026-03-31T15:54:12.796Z</time></trkpt><trkpt lat="43.46895" lon="11.555935"><ele>286.0</ele><time>2026-03-31T15:54:13.796Z</time></trkpt><trkpt lat="43.4691083" lon="11.5558817"><ele>286.0</ele><time>2026-03-31T15:54:14.797Z</time></trkpt><trkpt lat="43.4692683" lon="11.5558367"><ele>286.0</ele><time>2026-03-31T15:54:15.795Z</time></trkpt><trkpt lat="43.4694283" lon="11.5558017"><ele>286.0</ele><time>2026-03-31T15:54:16.795Z</time></trkpt><trkpt lat="43.4695883" lon="11.555775"><ele>284.3333333333333</ele><time>2026-03-31T15:54:17.794Z</time></trkpt><trkpt lat="43.469745" lon="11.5557533"><ele>282.6666666666667</ele><time>2026-03-31T15:54:18.795Z</time></trkpt><trkpt lat="43.4699033" lon="11.5557317"><ele>281.0</ele><time>2026-03-31T15:54:19.796Z</time></trkpt><trkpt lat="43.4700583" lon="11.55571"><ele>281.0</ele><time>2026-03-31T15:54:20.798Z</time></trkpt><trkpt lat="43.470205" lon="11.555695"><ele>281.0</ele><time>2026-03-31T15:54:21.796Z</time></trkpt><trkpt lat="43.4703517" lon="11.5556883"><ele>281.0</ele><time>2026-03-31T15:54:22.795Z</time></trkpt><trkpt lat="43.4705017" lon="11.55569"><ele>281.0</ele><time>2026-03-31T15:54:23.795Z</time></trkpt><trkpt lat="43.4706483" lon="11.5557183"><ele>279.0</ele><time>2026-03-31T15:54:24.795Z</time></trkpt><trkpt lat="43.4707917" lon="11.5557733"><ele>277.0</ele><time>2026-03-31T15:54:25.795Z</time></trkpt><trkpt lat="43.4709283" lon="11.55586"><ele>275.0</ele><time>2026-03-31T15:54:26.796Z</time></trkpt><trkpt lat="43.4710683" lon="11.555975"><ele>275.0</ele><time>2026-03-31T15:54:27.795Z</time></trkpt><trkpt lat="43.4712083" lon="11.556115"><ele>275.0</ele><time>2026-03-31T15:54:28.796Z</time></trkpt><trkpt lat="43.4713383" lon="11.5562567"><ele>275.0</ele><time>2026-03-31T15:54:29.795Z</time></trkpt><trkpt lat="43.471465" lon="11.5563983"><ele>275.0</ele><time>2026-03-31T15:54:30.795Z</time></trkpt><trkpt lat="43.47159" lon="11.5565333"><ele>275.0</ele><time>2026-03-31T15:54:31.797Z</time></trkpt><trkpt lat="43.4717083" lon="11.5566683"><ele>275.0</ele><time>2026-03-31T15:54:32.795Z</time></trkpt><trkpt lat="43.4718283" lon="11.5568017"><ele>275.0</ele><time>2026-03-31T15:54:33.796Z</time></trkpt><trkpt lat="43.47195" lon="11.5569367"><ele>275.0</ele><time>2026-03-31T15:54:34.794Z</time></trkpt><trkpt lat="43.47207" lon="11.5570683"><ele>275.0</ele><time>2026-03-31T15:54:35.796Z</time></trkpt><trkpt lat="43.4721883" lon="11.5571967"><ele>273.6666666666667</ele><time>2026-03-31T15:54:36.796Z</time></trkpt><trkpt lat="43.4723083" lon="11.55732"><ele>272.3333333333333</ele><time>2026-03-31T15:54:37.796Z</time></trkpt><trkpt lat="43.4724333" lon="11.5574383"><ele>271.0</ele><time>2026-03-31T15:54:38.796Z</time></trkpt><trkpt lat="43.4725683" lon="11.5575483"><ele>271.0</ele><time>2026-03-31T15:54:39.796Z</time></trkpt><trkpt lat="43.47271" lon="11.55765"><ele>271.0</ele><time>2026-03-31T15:54:40.795Z</time></trkpt><trkpt lat="43.4728483" lon="11.5577417"><ele>271.0</ele><time>2026-03-31T15:54:41.796Z</time></trkpt><trkpt lat="43.4729767" lon="11.5578267"><ele>271.0</ele><time>2026-03-31T15:54:42.792Z</time></trkpt><trkpt lat="43.473105" lon="11.5578983"><ele>271.0</ele><time>2026-03-31T15:54:43.794Z</time></trkpt><trkpt lat="43.473245" lon="11.5579483"><ele>271.0</ele><time>2026-03-31T15:54:44.797Z</time></trkpt><trkpt lat="43.4734017" lon="11.5579667"><ele>271.0</ele><time>2026-03-31T15:54:45.795Z</time></trkpt><trkpt lat="43.47357" lon="11.55797"><ele>271.0</ele><time>2026-03-31T15:54:46.795Z</time></trkpt><trkpt lat="43.4737383" lon="11.557975"><ele>271.0</ele><time>2026-03-31T15:54:47.794Z</time></trkpt><trkpt lat="43.4738967" lon="11.5579767"><ele>271.0</ele><time>2026-03-31T15:54:48.79Z</time></trkpt><trkpt lat="43.4740517" lon="11.5579767"><ele>271.25</ele><time>2026-03-31T15:54:49.79Z</time></trkpt><trkpt lat="43.4742" lon="11.5579833"><ele>271.5</ele><time>2026-03-31T15:54:50.794Z</time></trkpt><trkpt lat="43.47435" lon="11.558"><ele>271.75</ele><time>2026-03-31T15:54:51.794Z</time></trkpt><trkpt lat="43.4744917" lon="11.5580383"><ele>272.0</ele><time>2026-03-31T15:54:52.795Z</time></trkpt><trkpt lat="43.4746317" lon="11.5581083"><ele>270.6666666666667</ele><time>2026-03-31T15:54:53.795Z</time></trkpt><trkpt lat="43.4747733" lon="11.558205"><ele>269.3333333333333</ele><time>2026-03-31T15:54:54.796Z</time></trkpt><trkpt lat="43.4749233" lon="11.5583083"><ele>268.0</ele><time>2026-03-31T15:54:55.795Z</time></trkpt><trkpt lat="43.4750783" lon="11.5584167"><ele>268.0</ele><time>2026-03-31T15:54:56.796Z</time></trkpt><trkpt lat="43.4752317" lon="11.5585233"><ele>268.0</ele><time>2026-03-31T15:54:57.795Z</time></trkpt><trkpt lat="43.4753767" lon="11.5586233"><ele>268.0</ele><time>2026-03-31T15:54:58.796Z</time></trkpt><trkpt lat="43.4755183" lon="11.5587217"><ele>266.3333333333333</ele><time>2026-03-31T15:54:59.796Z</time></trkpt><trkpt lat="43.4756583" lon="11.5588167"><ele>264.6666666666667</ele><time>2026-03-31T15:55:00.796Z</time></trkpt><trkpt lat="43.4757983" lon="11.5589133"><ele>263.0</ele><time>2026-03-31T15:55:01.797Z</time></trkpt><trkpt lat="43.475935" lon="11.5590083"><ele>263.0</ele><time>2026-03-31T15:55:02.796Z</time></trkpt><trkpt lat="43.4760667" lon="11.5591"><ele>263.0</ele><time>2026-03-31T15:55:03.798Z</time></trkpt><trkpt lat="43.4761917" lon="11.5591917"><ele>263.0</ele><time>2026-03-31T15:55:04.795Z</time></trkpt><trkpt lat="43.4763133" lon="11.5592817"><ele>263.0</ele><time>2026-03-31T15:55:05.796Z</time></trkpt><trkpt lat="43.4764383" lon="11.559375"><ele>263.25</ele><time>2026-03-31T15:55:06.795Z</time></trkpt><trkpt lat="43.4765617" lon="11.5594717"><ele>263.5</ele><time>2026-03-31T15:55:07.795Z</time></trkpt><trkpt lat="43.476675" lon="11.5595817"><ele>263.75</ele><time>2026-03-31T15:55:08.797Z</time></trkpt><trkpt lat="43.4767783" lon="11.5597"><ele>264.0</ele><time>2026-03-31T15:55:09.795Z</time></trkpt><trkpt lat="43.4768733" lon="11.5598283"><ele>263.75</ele><time>2026-03-31T15:55:10.796Z</time></trkpt><trkpt lat="43.4769567" lon="11.5599667"><ele>263.5</ele><time>2026-03-31T15:55:11.796Z</time></trkpt><trkpt lat="43.4770317" lon="11.5600967"><ele>263.25</ele><time>2026-03-31T15:55:12.796Z</time></trkpt><trkpt lat="43.4770983" lon="11.5602167"><ele>263.0</ele><time>2026-03-31T15:55:13.799Z</time></trkpt><trkpt lat="43.4771617" lon="11.5603183"><ele>262.83333333333337</ele><time>2026-03-31T15:55:14.796Z</time></trkpt><trkpt lat="43.4772167" lon="11.5604117"><ele>262.6666666666667</ele><time>2026-03-31T15:55:15.795Z</time></trkpt><trkpt lat="43.4772667" lon="11.5604933"><ele>262.5</ele><time>2026-03-31T15:55:16.796Z</time></trkpt><trkpt lat="43.477305" lon="11.5605733"><ele>262.3333333333333</ele><time>2026-03-31T15:55:17.794Z</time></trkpt><trkpt lat="43.477335" lon="11.560665"><ele>262.16666666666663</ele><time>2026-03-31T15:55:18.796Z</time></trkpt><trkpt lat="43.4773567" lon="11.5607783"><ele>262.0</ele><time>2026-03-31T15:55:19.797Z</time></trkpt><trkpt lat="43.4773667" lon="11.5609017"><ele>262.0</ele><time>2026-03-31T15:55:20.795Z</time></trkpt><trkpt lat="43.4773417" lon="11.561045"><ele>262.0</ele><time>2026-03-31T15:55:21.796Z</time></trkpt><trkpt lat="43.477295" lon="11.5611917"><ele>262.0</ele><time>2026-03-31T15:55:22.795Z</time></trkpt><trkpt lat="43.4772617" lon="11.5613433"><ele>262.0</ele><time>2026-03-31T15:55:23.797Z</time></trkpt><trkpt lat="43.4772267" lon="11.5614867"><ele>262.0</ele><time>2026-03-31T15:55:24.797Z</time></trkpt><trkpt lat="43.4772017" lon="11.5616283"><ele>262.0</ele><time>2026-03-31T15:55:25.795Z</time></trkpt><trkpt lat="43.4771733" lon="11.5617583"><ele>262.0</ele><time>2026-03-31T15:55:26.796Z</time></trkpt><trkpt lat="43.4771567" lon="11.5618717"><ele>262.0</ele><time>2026-03-31T15:55:27.793Z</time></trkpt><trkpt lat="43.47714" lon="11.5619667"><ele>262.0</ele><time>2026-03-31T15:55:28.795Z</time></trkpt><trkpt lat="43.4771067" lon="11.5620933"><ele>262.0</ele><time>2026-03-31T15:55:30.796Z</time></trkpt><trkpt lat="43.477025" lon="11.56218"><ele>263.0</ele><time>2026-03-31T15:56:02.798Z</time></trkpt><trkpt lat="43.476905" lon="11.56226"><ele>264.0</ele><time>2026-03-31T15:56:04.794Z</time></trkpt><trkpt lat="43.4768367" lon="11.5623183"><ele>265.0</ele><time>2026-03-31T15:56:05.792Z</time></trkpt><trkpt lat="43.4767617" lon="11.5623867"><ele>266.0</ele><time>2026-03-31T15:56:06.797Z</time></trkpt><trkpt lat="43.47668" lon="11.56246"><ele>267.0</ele><time>2026-03-31T15:56:07.795Z</time></trkpt><trkpt lat="43.4765983" lon="11.5625217"><ele>267.0</ele><time>2026-03-31T15:56:08.797Z</time></trkpt><trkpt lat="43.4765167" lon="11.56255"><ele>267.0</ele><time>2026-03-31T15:56:09.796Z</time></trkpt><trkpt lat="43.476425" lon="11.5625383"><ele>267.0</ele><time>2026-03-31T15:56:10.797Z</time></trkpt><trkpt lat="43.4763283" lon="11.5624917"><ele>267.0</ele><time>2026-03-31T15:56:11.797Z</time></trkpt><trkpt lat="43.4762367" lon="11.5624333"><ele>267.0</ele><time>2026-03-31T15:56:12.796Z</time></trkpt><trkpt lat="43.4761417" lon="11.562385"><ele>269.2</ele><time>2026-03-31T15:56:13.796Z</time></trkpt><trkpt lat="43.4760483" lon="11.5623567"><ele>271.4</ele><time>2026-03-31T15:56:14.797Z</time></trkpt><trkpt lat="43.4759517" lon="11.5623517"><ele>273.6</ele><time>2026-03-31T15:56:15.795Z</time></trkpt><trkpt lat="43.4758533" lon="11.562375"><ele>275.8</ele><time>2026-03-31T15:56:16.795Z</time></trkpt><trkpt lat="43.4757483" lon="11.5624117"><ele>278.0</ele><time>2026-03-31T15:56:17.794Z</time></trkpt><trkpt lat="43.4756483" lon="11.5624583"><ele>278.0</ele><time>2026-03-31T15:56:18.795Z</time></trkpt><trkpt lat="43.475545" lon="11.5625017"><ele>278.0</ele><time>2026-03-31T15:56:19.795Z</time></trkpt><trkpt lat="43.47544" lon="11.56253"><ele>278.0</ele><time>2026-03-31T15:56:20.798Z</time></trkpt><trkpt lat="43.47533" lon="11.5625483"><ele>278.0</ele><time>2026-03-31T15:56:21.797Z</time></trkpt><trkpt lat="43.4752217" lon="11.5625667"><ele>278.0</ele><time>2026-03-31T15:56:22.795Z</time></trkpt><trkpt lat="43.4751117" lon="11.5625883"><ele>280.0</ele><time>2026-03-31T15:56:23.796Z</time></trkpt><trkpt lat="43.4750017" lon="11.5626183"><ele>282.0</ele><time>2026-03-31T15:56:24.795Z</time></trkpt><trkpt lat="43.4748933" lon="11.562655"><ele>284.0</ele><time>2026-03-31T15:56:25.796Z</time></trkpt><trkpt lat="43.4747867" lon="11.5626917"><ele>286.0</ele><time>2026-03-31T15:56:26.797Z</time></trkpt><trkpt lat="43.474695" lon="11.5627233"><ele>288.0</ele><time>2026-03-31T15:56:27.794Z</time></trkpt><trkpt lat="43.47461" lon="11.562755"><ele>292.0</ele><time>2026-03-31T15:56:28.794Z</time></trkpt><trkpt lat="43.47453" lon="11.562795"><ele>296.0</ele><time>2026-03-31T15:56:29.794Z</time></trkpt><trkpt lat="43.4744567" lon="11.5628333"><ele>300.0</ele><time>2026-03-31T15:56:30.795Z</time></trkpt><trkpt lat="43.4743917" lon="11.5628717"><ele>304.0</ele><time>2026-03-31T15:56:31.795Z</time></trkpt><trkpt lat="43.4743333" lon="11.5629217"><ele>308.0</ele><time>2026-03-31T15:56:32.796Z</time></trkpt><trkpt lat="43.474265" lon="11.5630183"><ele>312.0</ele><time>2026-03-31T15:56:34.794Z</time></trkpt><trkpt lat="43.47433" lon="11.5631"><ele>312.8</ele><time>2026-03-31T15:56:37.796Z</time></trkpt><trkpt lat="43.47445" lon="11.5631367"><ele>313.6</ele><time>2026-03-31T15:56:38.796Z</time></trkpt><trkpt lat="43.4745483" lon="11.5631717"><ele>314.40000000000003</ele><time>2026-03-31T15:56:39.797Z</time></trkpt><trkpt lat="43.4746483" lon="11.5632233"><ele>315.2</ele><time>2026-03-31T15:56:40.795Z</time></trkpt><trkpt lat="43.4747617" lon="11.56326"><ele>316.0</ele><time>2026-03-31T15:56:41.795Z</time></trkpt><trkpt lat="43.4748667" lon="11.5632967"><ele>313.6</ele><time>2026-03-31T15:56:42.796Z</time></trkpt><trkpt lat="43.4749667" lon="11.5633217"><ele>311.20000000000005</ele><time>2026-03-31T15:56:43.796Z</time></trkpt><trkpt lat="43.47506" lon="11.5633583"><ele>308.79999999999995</ele><time>2026-03-31T15:56:44.797Z</time></trkpt><trkpt lat="43.4751483" lon="11.56341"><ele>306.4</ele><time>2026-03-31T15:56:45.796Z</time></trkpt><trkpt lat="43.47523" lon="11.56348"><ele>304.0</ele><time>2026-03-31T15:56:46.795Z</time></trkpt><trkpt lat="43.4753033" lon="11.5635633"><ele>304.0</ele><time>2026-03-31T15:56:47.796Z</time></trkpt><trkpt lat="43.47538" lon="11.5636567"><ele>304.0</ele><time>2026-03-31T15:56:48.796Z</time></trkpt><trkpt lat="43.4754567" lon="11.5637433"><ele>304.0</ele><time>2026-03-31T15:56:49.794Z</time></trkpt><trkpt lat="43.4755267" lon="11.5638167"><ele>304.0</ele><time>2026-03-31T15:56:50.796Z</time></trkpt><trkpt lat="43.4755817" lon="11.56389"><ele>304.0</ele><time>2026-03-31T15:56:51.795Z</time></trkpt><trkpt lat="43.4756133" lon="11.5639683"><ele>304.0</ele><time>2026-03-31T15:56:52.796Z</time></trkpt><trkpt lat="43.47561" lon="11.5641333"><ele>306.0</ele><time>2026-03-31T15:56:54.795Z</time></trkpt><trkpt lat="43.4755483" lon="11.5642633"><ele>308.0</ele><time>2026-03-31T15:56:56.796Z</time></trkpt><trkpt lat="43.47543" lon="11.56427"><ele>310.0</ele><time>2026-03-31T15:56:58.796Z</time></trkpt><trkpt lat="43.4753517" lon="11.5642433"><ele>312.0</ele><time>2026-03-31T15:56:59.795Z</time></trkpt><trkpt lat="43.47527" lon="11.5642283"><ele>314.0</ele><time>2026-03-31T15:57:00.796Z</time></trkpt><trkpt lat="43.4751833" lon="11.5642133"><ele>314.8</ele><time>2026-03-31T15:57:01.796Z</time></trkpt><trkpt lat="43.475085" lon="11.5642"><ele>315.59999999999997</ele><time>2026-03-31T15:57:02.796Z</time></trkpt><trkpt lat="43.4749783" lon="11.5641933"><ele>316.4</ele><time>2026-03-31T15:57:03.795Z</time></trkpt><trkpt lat="43.4748667" lon="11.5641883"><ele>317.2</ele><time>2026-03-31T15:57:04.795Z</time></trkpt><trkpt lat="43.4747617" lon="11.5641767"><ele>318.0</ele><time>2026-03-31T15:57:05.795Z</time></trkpt><trkpt lat="43.4746633" lon="11.5641683"><ele>318.8333333333333</ele><time>2026-03-31T15:57:06.798Z</time></trkpt><trkpt lat="43.4745633" lon="11.5641567"><ele>319.6666666666667</ele><time>2026-03-31T15:57:07.795Z</time></trkpt><trkpt lat="43.4744667" lon="11.5641433"><ele>320.5</ele><time>2026-03-31T15:57:08.795Z</time></trkpt><trkpt lat="43.474375" lon="11.564125"><ele>321.33333333333337</ele><time>2026-03-31T15:57:09.796Z</time></trkpt><trkpt lat="43.474295" lon="11.5641117"><ele>322.1666666666667</ele><time>2026-03-31T15:57:10.796Z</time></trkpt><trkpt lat="43.47423" lon="11.56411"><ele>323.0</ele><time>2026-03-31T15:57:11.796Z</time></trkpt><trkpt lat="43.4741267" lon="11.5641517"><ele>323.0</ele><time>2026-03-31T15:57:13.796Z</time></trkpt><trkpt lat="43.474005" lon="11.5641583"><ele>323.0</ele><time>2026-03-31T15:57:15.794Z</time></trkpt><trkpt lat="43.4738933" lon="11.564115"><ele>323.0</ele><time>2026-03-31T15:57:17.796Z</time></trkpt><trkpt lat="43.473775" lon="11.5641133"><ele>323.0</ele><time>2026-03-31T15:57:19.795Z</time></trkpt><trkpt lat="43.4737083" lon="11.5641117"><ele>323.0</ele><time>2026-03-31T15:57:20.796Z</time></trkpt><trkpt lat="43.4735967" lon="11.5640567"><ele>322.79999999999995</ele><time>2026-03-31T15:57:22.796Z</time></trkpt><trkpt lat="43.473535" lon="11.5639117"><ele>322.6</ele><time>2026-03-31T15:57:24.798Z</time></trkpt><trkpt lat="43.4734967" lon="11.5638283"><ele>322.4</ele><time>2026-03-31T15:57:25.795Z</time></trkpt><trkpt lat="43.4734533" lon="11.56376"><ele>322.20000000000005</ele><time>2026-03-31T15:57:26.796Z</time></trkpt><trkpt lat="43.4733717" lon="11.5636667"><ele>322.0</ele><time>2026-03-31T15:57:28.795Z</time></trkpt><trkpt lat="43.4732717" lon="11.5635683"><ele>324.40000000000003</ele><time>2026-03-31T15:57:30.794Z</time></trkpt><trkpt lat="43.4731767" lon="11.5634867"><ele>326.8</ele><time>2026-03-31T15:57:32.796Z</time></trkpt><trkpt lat="43.4730917" lon="11.56342"><ele>329.2</ele><time>2026-03-31T15:57:34.794Z</time></trkpt><trkpt lat="43.4730133" lon="11.563345"><ele>331.6</ele><time>2026-03-31T15:57:36.796Z</time></trkpt><trkpt lat="43.4729267" lon="11.5632533"><ele>334.0</ele><time>2026-03-31T15:57:38.797Z</time></trkpt><trkpt lat="43.4728433" lon="11.5631533"><ele>336.0</ele><time>2026-03-31T15:57:40.795Z</time></trkpt><trkpt lat="43.4727367" lon="11.563095"><ele>338.0</ele><time>2026-03-31T15:57:42.796Z</time></trkpt><trkpt lat="43.4726117" lon="11.5630883"><ele>340.0</ele><time>2026-03-31T15:57:44.796Z</time></trkpt><trkpt lat="43.4725467" lon="11.5631033"><ele>342.0</ele><time>2026-03-31T15:57:45.796Z</time></trkpt><trkpt lat="43.472445" lon="11.5631617"><ele>344.0</ele><time>2026-03-31T15:57:47.796Z</time></trkpt><trkpt lat="43.47235" lon="11.56317"><ele>344.0</ele><time>2026-03-31T15:57:49.796Z</time></trkpt><trkpt lat="43.4722817" lon="11.5631233"><ele>344.0</ele><time>2026-03-31T15:57:51.797Z</time></trkpt><trkpt lat="43.4722367" lon="11.56303"><ele>344.0</ele><time>2026-03-31T15:57:53.796Z</time></trkpt><trkpt lat="43.4721967" lon="11.56291"><ele>344.0</ele><time>2026-03-31T15:57:55.795Z</time></trkpt><trkpt lat="43.472105" lon="11.5628433"><ele>344.0</ele><time>2026-03-31T15:57:57.795Z</time></trkpt><trkpt lat="43.4719933" lon="11.5628083"><ele>348.0</ele><time>2026-03-31T15:57:59.794Z</time></trkpt><trkpt lat="43.47187" lon="11.5627733"><ele>352.0</ele><time>2026-03-31T15:58:01.794Z</time></trkpt><trkpt lat="43.4718033" lon="11.5627583"><ele>356.0</ele><time>2026-03-31T15:58:02.796Z</time></trkpt><trkpt lat="43.47174" lon="11.5627483"><ele>360.0</ele><time>2026-03-31T15:58:03.795Z</time></trkpt><trkpt lat="43.4716767" lon="11.562735"><ele>364.0</ele><time>2026-03-31T15:58:04.794Z</time></trkpt><trkpt lat="43.4715533" lon="11.562745"><ele>368.0</ele><time>2026-03-31T15:58:06.798Z</time></trkpt><trkpt lat="43.4714817" lon="11.5627883"><ele>368.0</ele><time>2026-03-31T15:58:07.796Z</time></trkpt><trkpt lat="43.4714167" lon="11.5628283"><ele>368.0</ele><time>2026-03-31T15:58:08.797Z</time></trkpt><trkpt lat="43.4713533" lon="11.5628517"><ele>368.0</ele><time>2026-03-31T15:58:09.796Z</time></trkpt><trkpt lat="43.4712917" lon="11.5628783"><ele>368.0</ele><time>2026-03-31T15:58:10.796Z</time></trkpt><trkpt lat="43.471225" lon="11.5628983"><ele>368.0</ele><time>2026-03-31T15:58:11.797Z</time></trkpt><trkpt lat="43.4711533" lon="11.5629117"><ele>368.0</ele><time>2026-03-31T15:58:12.796Z</time></trkpt><trkpt lat="43.4710867" lon="11.562915"><ele>368.0</ele><time>2026-03-31T15:58:13.796Z</time></trkpt><trkpt lat="43.4710233" lon="11.5629233"><ele>366.0</ele><time>2026-03-31T15:58:14.796Z</time></trkpt><trkpt lat="43.4709533" lon="11.5629467"><ele>364.0</ele><time>2026-03-31T15:58:15.795Z</time></trkpt><trkpt lat="43.470885" lon="11.5629717"><ele>362.0</ele><time>2026-03-31T15:58:16.795Z</time></trkpt><trkpt lat="43.4708133" lon="11.562985"><ele>360.0</ele><time>2026-03-31T15:58:17.796Z</time></trkpt><trkpt lat="43.4707383" lon="11.562975"><ele>358.0</ele><time>2026-03-31T15:58:18.794Z</time></trkpt><trkpt lat="43.4706683" lon="11.5629583"><ele>356.0</ele><time>2026-03-31T15:58:19.796Z</time></trkpt><trkpt lat="43.470605" lon="11.5629517"><ele>354.0</ele><time>2026-03-31T15:58:20.797Z</time></trkpt><trkpt lat="43.47051" lon="11.562995"><ele>354.0</ele><time>2026-03-31T15:58:22.795Z</time></trkpt><trkpt lat="43.4704533" lon="11.56306"><ele>354.0</ele><time>2026-03-31T15:58:23.797Z</time></trkpt><trkpt lat="43.470395" lon="11.56312"><ele>354.0</ele><time>2026-03-31T15:58:24.795Z</time></trkpt><trkpt lat="43.47033" lon="11.56317"><ele>354.0</ele><time>2026-03-31T15:58:25.796Z</time></trkpt><trkpt lat="43.470265" lon="11.563205"><ele>354.0</ele><time>2026-03-31T15:58:26.797Z</time></trkpt><trkpt lat="43.4701967" lon="11.5632267"><ele>354.0</ele><time>2026-03-31T15:58:27.795Z</time></trkpt><trkpt lat="43.4701283" lon="11.563235"><ele>354.0</ele><time>2026-03-31T15:58:28.796Z</time></trkpt><trkpt lat="43.4700567" lon="11.5632433"><ele>354.8571428571429</ele><time>2026-03-31T15:58:29.795Z</time></trkpt><trkpt lat="43.4699833" lon="11.5632717"><ele>355.71428571428567</ele><time>2026-03-31T15:58:30.796Z</time></trkpt><trkpt lat="43.46991" lon="11.5633083"><ele>356.57142857142856</ele><time>2026-03-31T15:58:31.796Z</time></trkpt><trkpt lat="43.46984" lon="11.5633483"><ele>357.42857142857144</ele><time>2026-03-31T15:58:32.797Z</time></trkpt><trkpt lat="43.4697733" lon="11.5633867"><ele>358.28571428571433</ele><time>2026-03-31T15:58:33.795Z</time></trkpt><trkpt lat="43.4697067" lon="11.5634217"><ele>359.1428571428571</ele><time>2026-03-31T15:58:34.796Z</time></trkpt><trkpt lat="43.4696433" lon="11.5634383"><ele>360.0</ele><time>2026-03-31T15:58:35.796Z</time></trkpt><trkpt lat="43.4695267" lon="11.56346"><ele>360.0</ele><time>2026-03-31T15:58:37.795Z</time></trkpt><trkpt lat="43.4694233" lon="11.5635133"><ele>360.0</ele><time>2026-03-31T15:58:39.795Z</time></trkpt><trkpt lat="43.469345" lon="11.56352"><ele>360.0</ele><time>2026-03-31T15:58:41.796Z</time></trkpt><trkpt lat="43.46928" lon="11.563495"><ele>360.0</ele><time>2026-03-31T15:58:43.796Z</time></trkpt><trkpt lat="43.4692" lon="11.56349"><ele>360.0</ele><time>2026-03-31T15:58:45.796Z</time></trkpt><trkpt lat="43.4691267" lon="11.5635233"><ele>360.0</ele><time>2026-03-31T15:58:47.794Z</time></trkpt><trkpt lat="43.4690883" lon="11.5636233"><ele>359.4</ele><time>2026-03-31T15:58:50.796Z</time></trkpt><trkpt lat="43.4691083" lon="11.5637333"><ele>358.8</ele><time>2026-03-31T15:58:52.795Z</time></trkpt><trkpt lat="43.4691133" lon="11.5638667"><ele>358.20000000000005</ele><time>2026-03-31T15:58:54.797Z</time></trkpt><trkpt lat="43.46908" lon="11.5640033"><ele>357.6</ele><time>2026-03-31T15:58:56.796Z</time></trkpt><trkpt lat="43.469055" lon="11.5641517"><ele>357.0</ele><time>2026-03-31T15:58:58.794Z</time></trkpt><trkpt lat="43.469075" lon="11.56433"><ele>357.0</ele><time>2026-03-31T15:59:00.796Z</time></trkpt><trkpt lat="43.469095" lon="11.5644283"><ele>357.0</ele><time>2026-03-31T15:59:01.796Z</time></trkpt><trkpt lat="43.4691317" lon="11.5645317"><ele>357.0</ele><time>2026-03-31T15:59:02.796Z</time></trkpt><trkpt lat="43.46918" lon="11.5646417"><ele>357.0</ele><time>2026-03-31T15:59:03.796Z</time></trkpt><trkpt lat="43.4692233" lon="11.5647517"><ele>357.0</ele><time>2026-03-31T15:59:04.796Z</time></trkpt><trkpt lat="43.4692667" lon="11.5648667"><ele>357.0</ele><time>2026-03-31T15:59:05.796Z</time></trkpt><trkpt lat="43.4693017" lon="11.5649933"><ele>357.6</ele><time>2026-03-31T15:59:06.795Z</time></trkpt><trkpt lat="43.4693317" lon="11.5651167"><ele>358.20000000000005</ele><time>2026-03-31T15:59:07.797Z</time></trkpt><trkpt lat="43.4693717" lon="11.5652333"><ele>358.8</ele><time>2026-03-31T15:59:08.797Z</time></trkpt><trkpt lat="43.469415" lon="11.565345"><ele>359.4</ele><time>2026-03-31T15:59:09.795Z</time></trkpt><trkpt lat="43.469465" lon="11.565465"><ele>360.0</ele><time>2026-03-31T15:59:10.796Z</time></trkpt><trkpt lat="43.4695067" lon="11.5655883"><ele>361.3333333333333</ele><time>2026-03-31T15:59:11.796Z</time></trkpt><trkpt lat="43.4695433" lon="11.56571"><ele>362.6666666666667</ele><time>2026-03-31T15:59:12.795Z</time></trkpt><trkpt lat="43.46957" lon="11.5658283"><ele>364.0</ele><time>2026-03-31T15:59:13.796Z</time></trkpt><trkpt lat="43.4695817" lon="11.5659417"><ele>365.33333333333337</ele><time>2026-03-31T15:59:14.796Z</time></trkpt><trkpt lat="43.4695883" lon="11.56605"><ele>366.6666666666667</ele><time>2026-03-31T15:59:15.796Z</time></trkpt><trkpt lat="43.4695933" lon="11.56615"><ele>368.0</ele><time>2026-03-31T15:59:16.794Z</time></trkpt><trkpt lat="43.4696033" lon="11.5662483"><ele>362.59999999999997</ele><time>2026-03-31T15:59:17.794Z</time></trkpt><trkpt lat="43.4696233" lon="11.56637"><ele>357.2</ele><time>2026-03-31T15:59:18.797Z</time></trkpt><trkpt lat="43.4696367" lon="11.5665017"><ele>351.8</ele><time>2026-03-31T15:59:19.795Z</time></trkpt><trkpt lat="43.46964" lon="11.56665"><ele>346.4</ele><time>2026-03-31T15:59:20.797Z</time></trkpt><trkpt lat="43.46964" lon="11.5668083"><ele>341.0</ele><time>2026-03-31T15:59:21.796Z</time></trkpt><trkpt lat="43.4696433" lon="11.566975"><ele>341.0</ele><time>2026-03-31T15:59:22.796Z</time></trkpt><trkpt lat="43.4696533" lon="11.5671433"><ele>341.0</ele><time>2026-03-31T15:59:23.796Z</time></trkpt><trkpt lat="43.469665" lon="11.5673083"><ele>341.0</ele><time>2026-03-31T15:59:24.795Z</time></trkpt><trkpt lat="43.4696883" lon="11.5674767"><ele>341.0</ele><time>2026-03-31T15:59:25.795Z</time></trkpt><trkpt lat="43.4697167" lon="11.56763"><ele>341.0</ele><time>2026-03-31T15:59:26.797Z</time></trkpt><trkpt lat="43.4697433" lon="11.5677633"><ele>341.0</ele><time>2026-03-31T15:59:27.796Z</time></trkpt><trkpt lat="43.4697717" lon="11.5678933"><ele>341.0</ele><time>2026-03-31T15:59:28.795Z</time></trkpt><trkpt lat="43.4697867" lon="11.5680283"><ele>341.0</ele><time>2026-03-31T15:59:29.796Z</time></trkpt><trkpt lat="43.4697883" lon="11.5681617"><ele>341.0</ele><time>2026-03-31T15:59:30.796Z</time></trkpt><trkpt lat="43.4697933" lon="11.5682917"><ele>341.83333333333337</ele><time>2026-03-31T15:59:31.796Z</time></trkpt><trkpt lat="43.4697933" lon="11.5684083"><ele>342.6666666666667</ele><time>2026-03-31T15:59:32.796Z</time></trkpt><trkpt lat="43.4698" lon="11.568525"><ele>343.5</ele><time>2026-03-31T15:59:33.797Z</time></trkpt><trkpt lat="43.4698133" lon="11.5686267"><ele>344.3333333333333</ele><time>2026-03-31T15:59:34.796Z</time></trkpt><trkpt lat="43.4698317" lon="11.5687183"><ele>345.16666666666663</ele><time>2026-03-31T15:59:35.796Z</time></trkpt><trkpt lat="43.4698483" lon="11.568815"><ele>346.0</ele><time>2026-03-31T15:59:36.797Z</time></trkpt><trkpt lat="43.4698633" lon="11.5689233"><ele>347.0</ele><time>2026-03-31T15:59:37.795Z</time></trkpt><trkpt lat="43.4698783" lon="11.5690383"><ele>348.0</ele><time>2026-03-31T15:59:38.795Z</time></trkpt><trkpt lat="43.469895" lon="11.569155"><ele>349.0</ele><time>2026-03-31T15:59:39.796Z</time></trkpt><trkpt lat="43.4699167" lon="11.5692667"><ele>350.0</ele><time>2026-03-31T15:59:40.795Z</time></trkpt><trkpt lat="43.4699433" lon="11.5693783"><ele>351.0</ele><time>2026-03-31T15:59:41.796Z</time></trkpt><trkpt lat="43.4699867" lon="11.5694917"><ele>352.0</ele><time>2026-03-31T15:59:42.797Z</time></trkpt><trkpt lat="43.47004" lon="11.56961"><ele>353.20000000000005</ele><time>2026-03-31T15:59:43.796Z</time></trkpt><trkpt lat="43.4701117" lon="11.569715"><ele>354.4</ele><time>2026-03-31T15:59:44.793Z</time></trkpt><trkpt lat="43.470195" lon="11.5698117"><ele>355.6</ele><time>2026-03-31T15:59:45.805Z</time></trkpt><trkpt lat="43.470255" lon="11.5699067"><ele>356.79999999999995</ele><time>2026-03-31T15:59:46.796Z</time></trkpt><trkpt lat="43.47031" lon="11.5700017"><ele>358.0</ele><time>2026-03-31T15:59:47.796Z</time></trkpt><trkpt lat="43.4703583" lon="11.570095"><ele>358.0</ele><time>2026-03-31T15:59:48.797Z</time></trkpt><trkpt lat="43.470395" lon="11.5701817"><ele>358.0</ele><time>2026-03-31T15:59:49.796Z</time></trkpt><trkpt lat="43.4704267" lon="11.5703133"><ele>358.0</ele><time>2026-03-31T15:59:51.793Z</time></trkpt><trkpt lat="43.4703767" lon="11.5703667"><ele>358.0</ele><time>2026-03-31T15:59:53.796Z</time></trkpt><trkpt lat="43.4702467" lon="11.5703867"><ele>358.0</ele><time>2026-03-31T15:59:55.795Z</time></trkpt><trkpt lat="43.47016" lon="11.57041"><ele>358.0</ele><time>2026-03-31T15:59:56.795Z</time></trkpt><trkpt lat="43.4700733" lon="11.5704417"><ele>358.0</ele><time>2026-03-31T15:59:57.794Z</time></trkpt><trkpt lat="43.4699883" lon="11.5704633"><ele>358.0</ele><time>2026-03-31T15:59:58.794Z</time></trkpt><trkpt lat="43.4699017" lon="11.570455"><ele>358.0</ele><time>2026-03-31T15:59:59.795Z</time></trkpt><trkpt lat="43.4698217" lon="11.5704167"><ele>358.0</ele><time>2026-03-31T16:00:00.793Z</time></trkpt><trkpt lat="43.469745" lon="11.5703317"><ele>358.0</ele><time>2026-03-31T16:00:01.79Z</time></trkpt><trkpt lat="43.4696683" lon="11.5702333"><ele>361.4</ele><time>2026-03-31T16:00:02.792Z</time></trkpt><trkpt lat="43.46959" lon="11.5701383"><ele>364.79999999999995</ele><time>2026-03-31T16:00:03.796Z</time></trkpt><trkpt lat="43.4695067" lon="11.5700467"><ele>368.2</ele><time>2026-03-31T16:00:04.797Z</time></trkpt><trkpt lat="43.46942" lon="11.569955"><ele>371.6</ele><time>2026-03-31T16:00:05.796Z</time></trkpt><trkpt lat="43.469335" lon="11.5698733"><ele>375.0</ele><time>2026-03-31T16:00:06.797Z</time></trkpt><trkpt lat="43.4692567" lon="11.5697933"><ele>375.0</ele><time>2026-03-31T16:00:07.795Z</time></trkpt><trkpt lat="43.4691833" lon="11.5697233"><ele>375.0</ele><time>2026-03-31T16:00:08.795Z</time></trkpt><trkpt lat="43.469105" lon="11.5696717"><ele>375.0</ele><time>2026-03-31T16:00:09.797Z</time></trkpt><trkpt lat="43.4690233" lon="11.5696233"><ele>375.0</ele><time>2026-03-31T16:00:10.794Z</time></trkpt><trkpt lat="43.4689417" lon="11.5695867"><ele>375.0</ele><time>2026-03-31T16:00:11.796Z</time></trkpt><trkpt lat="43.46886" lon="11.56955"><ele>375.0</ele><time>2026-03-31T16:00:12.795Z</time></trkpt><trkpt lat="43.46878" lon="11.5695167"><ele>381.0</ele><time>2026-03-31T16:00:13.795Z</time></trkpt><trkpt lat="43.468705" lon="11.5694867"><ele>387.0</ele><time>2026-03-31T16:00:14.796Z</time></trkpt><trkpt lat="43.4686383" lon="11.5694583"><ele>393.0</ele><time>2026-03-31T16:00:15.796Z</time></trkpt><trkpt lat="43.4685483" lon="11.5694233"><ele>399.0</ele><time>2026-03-31T16:00:17.796Z</time></trkpt><trkpt lat="43.468495" lon="11.5693517"><ele>405.0</ele><time>2026-03-31T16:00:19.798Z</time></trkpt><trkpt lat="43.4684883" lon="11.56921"><ele>411.0</ele><time>2026-03-31T16:00:21.796Z</time></trkpt><trkpt lat="43.4685467" lon="11.5691567"><ele>411.0</ele><time>2026-03-31T16:00:22.795Z</time></trkpt><trkpt lat="43.4686617" lon="11.5691033"><ele>411.0</ele><time>2026-03-31T16:00:24.796Z</time></trkpt><trkpt lat="43.4687483" lon="11.5690583"><ele>411.0</ele><time>2026-03-31T16:00:26.797Z</time></trkpt><trkpt lat="43.46878" lon="11.56897"><ele>411.0</ele><time>2026-03-31T16:00:28.796Z</time></trkpt><trkpt lat="43.4687567" lon="11.5688267"><ele>411.0</ele><time>2026-03-31T16:00:30.795Z</time></trkpt><trkpt lat="43.4687267" lon="11.56871"><ele>411.0</ele><time>2026-03-31T16:00:32.797Z</time></trkpt><trkpt lat="43.4686517" lon="11.5687"><ele>411.0</ele><time>2026-03-31T16:00:35.798Z</time></trkpt><trkpt lat="43.468555" lon="11.568735"><ele>411.0</ele><time>2026-03-31T16:00:37.797Z</time></trkpt><trkpt lat="43.4684867" lon="11.568715"><ele>411.0</ele><time>2026-03-31T16:00:39.796Z</time></trkpt><trkpt lat="43.4684667" lon="11.5685867"><ele>411.0</ele><time>2026-03-31T16:00:42.796Z</time></trkpt><trkpt lat="43.4684883" lon="11.5684217"><ele>413.6</ele><time>2026-03-31T16:00:43.795Z</time></trkpt><trkpt lat="43.4684867" lon="11.5683033"><ele>416.20000000000005</ele><time>2026-03-31T16:00:44.796Z</time></trkpt><trkpt lat="43.4684667" lon="11.5681783"><ele>418.79999999999995</ele><time>2026-03-31T16:00:45.796Z</time></trkpt><trkpt lat="43.468445" lon="11.5680467"><ele>421.4</ele><time>2026-03-31T16:00:46.794Z</time></trkpt><trkpt lat="43.4684217" lon="11.5679033"><ele>424.0</ele><time>2026-03-31T16:00:47.796Z</time></trkpt><trkpt lat="43.4683983" lon="11.5677833"><ele>424.83333333333337</ele><time>2026-03-31T16:00:48.797Z</time></trkpt><trkpt lat="43.46837" lon="11.5676767"><ele>425.6666666666667</ele><time>2026-03-31T16:00:49.796Z</time></trkpt><trkpt lat="43.4683417" lon="11.567565"><ele>426.5</ele><time>2026-03-31T16:00:50.797Z</time></trkpt><trkpt lat="43.4683033" lon="11.56746"><ele>427.33333333333337</ele><time>2026-03-31T16:00:51.796Z</time></trkpt><trkpt lat="43.4682517" lon="11.5673717"><ele>428.1666666666667</ele><time>2026-03-31T16:00:52.797Z</time></trkpt><trkpt lat="43.46819" lon="11.5672983"><ele>429.0</ele><time>2026-03-31T16:00:53.796Z</time></trkpt><trkpt lat="43.4681367" lon="11.5672233"><ele>429.0</ele><time>2026-03-31T16:00:54.795Z</time></trkpt><trkpt lat="43.4680783" lon="11.5671633"><ele>429.0</ele><time>2026-03-31T16:00:55.796Z</time></trkpt><trkpt lat="43.4680233" lon="11.5671017"><ele>429.0</ele><time>2026-03-31T16:00:56.796Z</time></trkpt><trkpt lat="43.4679767" lon="11.5670083"><ele>429.0</ele><time>2026-03-31T16:00:57.796Z</time></trkpt><trkpt lat="43.4679517" lon="11.5668983"><ele>429.0</ele><time>2026-03-31T16:00:58.795Z</time></trkpt><trkpt lat="43.4679433" lon="11.5667833"><ele>429.0</ele><time>2026-03-31T16:00:59.796Z</time></trkpt><trkpt lat="43.46795" lon="11.5666667"><ele>427.6666666666667</ele><time>2026-03-31T16:01:00.795Z</time></trkpt><trkpt lat="43.4679567" lon="11.5665467"><ele>426.33333333333337</ele><time>2026-03-31T16:01:01.795Z</time></trkpt><trkpt lat="43.4679483" lon="11.5664317"><ele>425.0</ele><time>2026-03-31T16:01:02.797Z</time></trkpt><trkpt lat="43.467925" lon="11.5662983"><ele>423.6666666666667</ele><time>2026-03-31T16:01:03.796Z</time></trkpt><trkpt lat="43.4678967" lon="11.5661883"><ele>422.33333333333337</ele><time>2026-03-31T16:01:04.795Z</time></trkpt><trkpt lat="43.4678533" lon="11.56609"><ele>421.0</ele><time>2026-03-31T16:01:05.797Z</time></trkpt><trkpt lat="43.4677883" lon="11.5660017"><ele>425.00000000000006</ele><time>2026-03-31T16:01:06.795Z</time></trkpt><trkpt lat="43.4677167" lon="11.565925"><ele>429.0</ele><time>2026-03-31T16:01:07.796Z</time></trkpt><trkpt lat="43.467635" lon="11.5658633"><ele>433.0</ele><time>2026-03-31T16:01:08.795Z</time></trkpt><trkpt lat="43.4675583" lon="11.5658033"><ele>437.0</ele><time>2026-03-31T16:01:09.796Z</time></trkpt><trkpt lat="43.46747" lon="11.56576"><ele>441.00000000000006</ele><time>2026-03-31T16:01:10.796Z</time></trkpt><trkpt lat="43.4673917" lon="11.565725"><ele>445.0</ele><time>2026-03-31T16:01:11.795Z</time></trkpt><trkpt lat="43.4673067" lon="11.565705"><ele>445.00000000000006</ele><time>2026-03-31T16:01:12.797Z</time></trkpt><trkpt lat="43.4672133" lon="11.5656933"><ele>445.0</ele><time>2026-03-31T16:01:13.796Z</time></trkpt><trkpt lat="43.46713" lon="11.5656833"><ele>445.0</ele><time>2026-03-31T16:01:14.795Z</time></trkpt><trkpt lat="43.467035" lon="11.5657117"><ele>445.0</ele><time>2026-03-31T16:01:16.798Z</time></trkpt><trkpt lat="43.4670067" lon="11.56579"><ele>445.00000000000006</ele><time>2026-03-31T16:01:18.797Z</time></trkpt><trkpt lat="43.4670667" lon="11.5658917"><ele>445.0</ele><time>2026-03-31T16:01:20.796Z</time></trkpt><trkpt lat="43.467105" lon="11.5659833"><ele>445.0</ele><time>2026-03-31T16:01:21.795Z</time></trkpt><trkpt lat="43.46714" lon="11.566085"><ele>445.0</ele><time>2026-03-31T16:01:22.793Z</time></trkpt><trkpt lat="43.4671833" lon="11.5662"><ele>445.0</ele><time>2026-03-31T16:01:23.798Z</time></trkpt><trkpt lat="43.467215" lon="11.5663217"><ele>445.0</ele><time>2026-03-31T16:01:24.797Z</time></trkpt><trkpt lat="43.4672417" lon="11.566455"><ele>445.0</ele><time>2026-03-31T16:01:25.796Z</time></trkpt><trkpt lat="43.467265" lon="11.5665867"><ele>447.6</ele><time>2026-03-31T16:01:26.797Z</time></trkpt><trkpt lat="43.4672833" lon="11.5667133"><ele>450.2</ele><time>2026-03-31T16:01:27.796Z</time></trkpt><trkpt lat="43.4672983" lon="11.5668433"><ele>452.79999999999995</ele><time>2026-03-31T16:01:28.796Z</time></trkpt><trkpt lat="43.4673017" lon="11.5669667"><ele>455.4</ele><time>2026-03-31T16:01:29.796Z</time></trkpt><trkpt lat="43.4673133" lon="11.5670933"><ele>458.0</ele><time>2026-03-31T16:01:30.795Z</time></trkpt><trkpt lat="43.46732" lon="11.56723"><ele>458.2</ele><time>2026-03-31T16:01:31.795Z</time></trkpt><trkpt lat="43.46733" lon="11.56737"><ele>458.4</ele><time>2026-03-31T16:01:32.796Z</time></trkpt><trkpt lat="43.4673467" lon="11.5675083"><ele>458.59999999999997</ele><time>2026-03-31T16:01:33.796Z</time></trkpt><trkpt lat="43.4673667" lon="11.56765"><ele>458.79999999999995</ele><time>2026-03-31T16:01:34.796Z</time></trkpt><trkpt lat="43.46738" lon="11.567795"><ele>459.0</ele><time>2026-03-31T16:01:35.796Z</time></trkpt><trkpt lat="43.46738" lon="11.5679367"><ele>459.0</ele><time>2026-03-31T16:01:36.796Z</time></trkpt><trkpt lat="43.46737" lon="11.5680617"><ele>459.0</ele><time>2026-03-31T16:01:37.795Z</time></trkpt><trkpt lat="43.4673667" lon="11.5681717"><ele>459.0</ele><time>2026-03-31T16:01:38.797Z</time></trkpt><trkpt lat="43.4673433" lon="11.5682817"><ele>459.0</ele><time>2026-03-31T16:01:39.795Z</time></trkpt><trkpt lat="43.46731" lon="11.5683783"><ele>459.0</ele><time>2026-03-31T16:01:40.796Z</time></trkpt><trkpt lat="43.4672133" lon="11.5684417"><ele>459.0</ele><time>2026-03-31T16:01:42.796Z</time></trkpt><trkpt lat="43.467145" lon="11.5684483"><ele>459.1666666666667</ele><time>2026-03-31T16:01:43.796Z</time></trkpt><trkpt lat="43.467065" lon="11.56838"><ele>459.33333333333337</ele><time>2026-03-31T16:01:45.796Z</time></trkpt><trkpt lat="43.4670233" lon="11.5683033"><ele>459.5</ele><time>2026-03-31T16:01:49.795Z</time></trkpt><trkpt lat="43.46696" lon="11.56834"><ele>459.6666666666667</ele><time>2026-03-31T16:01:53.794Z</time></trkpt><trkpt lat="43.466925" lon="11.5684367"><ele>459.83333333333337</ele><time>2026-03-31T16:01:55.794Z</time></trkpt><trkpt lat="43.46694" lon="11.56854"><ele>460.0</ele><time>2026-03-31T16:01:58.796Z</time></trkpt><trkpt lat="43.4669617" lon="11.5686517"><ele>458.8</ele><time>2026-03-31T16:02:01.795Z</time></trkpt><trkpt lat="43.4669033" lon="11.568775"><ele>457.6</ele><time>2026-03-31T16:02:03.796Z</time></trkpt><trkpt lat="43.4668517" lon="11.5688583"><ele>456.4</ele><time>2026-03-31T16:02:04.796Z</time></trkpt><trkpt lat="43.4667833" lon="11.568965"><ele>455.2</ele><time>2026-03-31T16:02:05.795Z</time></trkpt><trkpt lat="43.466715" lon="11.569115"><ele>454.0</ele><time>2026-03-31T16:02:06.795Z</time></trkpt><trkpt lat="43.4666433" lon="11.5692633"><ele>454.0</ele><time>2026-03-31T16:02:07.795Z</time></trkpt><trkpt lat="43.4665833" lon="11.5694017"><ele>454.0</ele><time>2026-03-31T16:02:08.796Z</time></trkpt><trkpt lat="43.4665233" lon="11.5695283"><ele>454.0</ele><time>2026-03-31T16:02:09.795Z</time></trkpt><trkpt lat="43.466455" lon="11.56963"><ele>454.0</ele><time>2026-03-31T16:02:10.795Z</time></trkpt><trkpt lat="43.466375" lon="11.56971"><ele>454.0</ele><time>2026-03-31T16:02:11.796Z</time></trkpt><trkpt lat="43.46628" lon="11.5697817"><ele>455.0</ele><time>2026-03-31T16:02:12.796Z</time></trkpt><trkpt lat="43.4661817" lon="11.5698483"><ele>456.0</ele><time>2026-03-31T16:02:13.796Z</time></trkpt><trkpt lat="43.46608" lon="11.5699083"><ele>457.0</ele><time>2026-03-31T16:02:14.796Z</time></trkpt><trkpt lat="43.4659817" lon="11.5699467"><ele>458.0</ele><time>2026-03-31T16:02:15.795Z</time></trkpt><trkpt lat="43.4658917" lon="11.56998"><ele>459.0</ele><time>2026-03-31T16:02:16.794Z</time></trkpt><trkpt lat="43.46581" lon="11.5700283"><ele>459.0</ele><time>2026-03-31T16:02:17.796Z</time></trkpt><trkpt lat="43.4657433" lon="11.5700917"><ele>459.0</ele><time>2026-03-31T16:02:18.795Z</time></trkpt><trkpt lat="43.4656883" lon="11.5701783"><ele>459.0</ele><time>2026-03-31T16:02:19.794Z</time></trkpt><trkpt lat="43.4656383" lon="11.5702883"><ele>459.0</ele><time>2026-03-31T16:02:20.796Z</time></trkpt><trkpt lat="43.4655817" lon="11.5703917"><ele>459.0</ele><time>2026-03-31T16:02:21.794Z</time></trkpt><trkpt lat="43.4655217" lon="11.5704817"><ele>459.0</ele><time>2026-03-31T16:02:22.795Z</time></trkpt><trkpt lat="43.4654583" lon="11.5705667"><ele>457.6666666666667</ele><time>2026-03-31T16:02:23.795Z</time></trkpt><trkpt lat="43.4654033" lon="11.5706567"><ele>456.33333333333337</ele><time>2026-03-31T16:02:24.796Z</time></trkpt><trkpt lat="43.46536" lon="11.570755"><ele>455.0</ele><time>2026-03-31T16:02:25.796Z</time></trkpt><trkpt lat="43.4653333" lon="11.5708533"><ele>453.6666666666667</ele><time>2026-03-31T16:02:26.799Z</time></trkpt><trkpt lat="43.46532" lon="11.5709567"><ele>452.33333333333337</ele><time>2026-03-31T16:02:27.796Z</time></trkpt><trkpt lat="43.4653133" lon="11.5710567"><ele>451.0</ele><time>2026-03-31T16:02:28.795Z</time></trkpt><trkpt lat="43.4653133" lon="11.571145"><ele>448.6</ele><time>2026-03-31T16:02:29.796Z</time></trkpt><trkpt lat="43.4653033" lon="11.5713017"><ele>446.20000000000005</ele><time>2026-03-31T16:02:31.796Z</time></trkpt><trkpt lat="43.4652267" lon="11.5714433"><ele>443.79999999999995</ele><time>2026-03-31T16:02:33.797Z</time></trkpt><trkpt lat="43.46516" lon="11.5715267"><ele>441.4</ele><time>2026-03-31T16:02:34.795Z</time></trkpt><trkpt lat="43.4650733" lon="11.5716167"><ele>439.0</ele><time>2026-03-31T16:02:35.798Z</time></trkpt><trkpt lat="43.4649817" lon="11.5717067"><ele>439.0</ele><time>2026-03-31T16:02:36.796Z</time></trkpt><trkpt lat="43.4648867" lon="11.5717967"><ele>439.0</ele><time>2026-03-31T16:02:37.797Z</time></trkpt><trkpt lat="43.4647867" lon="11.5718883"><ele>439.0</ele><time>2026-03-31T16:02:38.796Z</time></trkpt><trkpt lat="43.4646817" lon="11.571985"><ele>439.0</ele><time>2026-03-31T16:02:39.795Z</time></trkpt><trkpt lat="43.4645917" lon="11.5720733"><ele>439.2</ele><time>2026-03-31T16:02:40.794Z</time></trkpt><trkpt lat="43.4645033" lon="11.572165"><ele>439.4</ele><time>2026-03-31T16:02:41.796Z</time></trkpt><trkpt lat="43.464415" lon="11.5722667"><ele>439.6</ele><time>2026-03-31T16:02:42.795Z</time></trkpt><trkpt lat="43.464335" lon="11.572365"><ele>439.8</ele><time>2026-03-31T16:02:43.794Z</time></trkpt><trkpt lat="43.4642667" lon="11.5724483"><ele>440.0</ele><time>2026-03-31T16:02:44.797Z</time></trkpt><trkpt lat="43.4642117" lon="11.57252"><ele>439.99999999999994</ele><time>2026-03-31T16:02:45.794Z</time></trkpt><trkpt lat="43.4641483" lon="11.5725833"><ele>440.0</ele><time>2026-03-31T16:02:46.797Z</time></trkpt><trkpt lat="43.4640817" lon="11.5726283"><ele>440.0</ele><time>2026-03-31T16:02:47.794Z</time></trkpt><trkpt lat="43.4640183" lon="11.5726517"><ele>440.0</ele><time>2026-03-31T16:02:48.795Z</time></trkpt><trkpt lat="43.463955" lon="11.572655"><ele>440.0</ele><time>2026-03-31T16:02:49.795Z</time></trkpt><trkpt lat="43.4638933" lon="11.5726333"><ele>439.99999999999994</ele><time>2026-03-31T16:02:50.795Z</time></trkpt><trkpt lat="43.4638367" lon="11.5725633"><ele>440.0</ele><time>2026-03-31T16:02:51.796Z</time></trkpt><trkpt lat="43.4637667" lon="11.5725167"><ele>440.57142857142856</ele><time>2026-03-31T16:02:52.796Z</time></trkpt><trkpt lat="43.4637017" lon="11.5724783"><ele>441.1428571428571</ele><time>2026-03-31T16:02:53.794Z</time></trkpt><trkpt lat="43.4636333" lon="11.5724767"><ele>441.71428571428567</ele><time>2026-03-31T16:02:54.794Z</time></trkpt><trkpt lat="43.463565" lon="11.5724983"><ele>442.2857142857143</ele><time>2026-03-31T16:02:55.795Z</time></trkpt><trkpt lat="43.4635" lon="11.57255"><ele>442.8571428571429</ele><time>2026-03-31T16:02:56.796Z</time></trkpt><trkpt lat="43.4634333" lon="11.5726067"><ele>443.4285714285714</ele><time>2026-03-31T16:02:57.793Z</time></trkpt><trkpt lat="43.4633617" lon="11.5726483"><ele>444.0</ele><time>2026-03-31T16:02:58.795Z</time></trkpt><trkpt lat="43.463265" lon="11.5727117"><ele>444.0</ele><time>2026-03-31T16:03:00.795Z</time></trkpt><trkpt lat="43.4632217" lon="11.5728317"><ele>444.0</ele><time>2026-03-31T16:03:02.795Z</time></trkpt><trkpt lat="43.463155" lon="11.5728917"><ele>444.0</ele><time>2026-03-31T16:03:04.797Z</time></trkpt><trkpt lat="43.4631067" lon="11.5730033"><ele>444.0</ele><time>2026-03-31T16:03:06.796Z</time></trkpt><trkpt lat="43.4630833" lon="11.5730967"><ele>444.0</ele><time>2026-03-31T16:03:07.795Z</time></trkpt><trkpt lat="43.4630683" lon="11.5731917"><ele>444.0</ele><time>2026-03-31T16:03:08.796Z</time></trkpt><trkpt lat="43.4630517" lon="11.57328"><ele>444.5</ele><time>2026-03-31T16:03:09.795Z</time></trkpt><trkpt lat="43.4630183" lon="11.57337"><ele>445.0</ele><time>2026-03-31T16:03:10.795Z</time></trkpt><trkpt lat="43.4629667" lon="11.57344"><ele>445.5</ele><time>2026-03-31T16:03:11.796Z</time></trkpt><trkpt lat="43.4629033" lon="11.5735083"><ele>446.0</ele><time>2026-03-31T16:03:12.796Z</time></trkpt><trkpt lat="43.4628383" lon="11.5735817"><ele>446.5</ele><time>2026-03-31T16:03:13.795Z</time></trkpt><trkpt lat="43.4627733" lon="11.5736367"><ele>447.0</ele><time>2026-03-31T16:03:14.796Z</time></trkpt><trkpt lat="43.462695" lon="11.5736733"><ele>448.20000000000005</ele><time>2026-03-31T16:03:15.795Z</time></trkpt><trkpt lat="43.4626" lon="11.5736817"><ele>449.40000000000003</ele><time>2026-03-31T16:03:16.796Z</time></trkpt><trkpt lat="43.4625067" lon="11.5736683"><ele>450.59999999999997</ele><time>2026-03-31T16:03:17.796Z</time></trkpt><trkpt lat="43.4624267" lon="11.57363"><ele>451.79999999999995</ele><time>2026-03-31T16:03:18.797Z</time></trkpt><trkpt lat="43.46236" lon="11.573555"><ele>453.0</ele><time>2026-03-31T16:03:19.796Z</time></trkpt><trkpt lat="43.46231" lon="11.57345"><ele>453.0</ele><time>2026-03-31T16:03:20.797Z</time></trkpt><trkpt lat="43.4622633" lon="11.5733567"><ele>452.99999999999994</ele><time>2026-03-31T16:03:21.797Z</time></trkpt><trkpt lat="43.4622133" lon="11.5732767"><ele>452.99999999999994</ele><time>2026-03-31T16:03:22.795Z</time></trkpt><trkpt lat="43.462125" lon="11.5732"><ele>453.0</ele><time>2026-03-31T16:03:24.799Z</time></trkpt><trkpt lat="43.462015" lon="11.5732567"><ele>453.0</ele><time>2026-03-31T16:03:26.796Z</time></trkpt><trkpt lat="43.4619" lon="11.5732933"><ele>452.6666666666667</ele><time>2026-03-31T16:03:28.795Z</time></trkpt><trkpt lat="43.4617983" lon="11.5733683"><ele>452.33333333333337</ele><time>2026-03-31T16:03:30.797Z</time></trkpt><trkpt lat="43.4617767" lon="11.5734983"><ele>452.0</ele><time>2026-03-31T16:03:32.797Z</time></trkpt><trkpt lat="43.4617533" lon="11.5735883"><ele>451.6666666666667</ele><time>2026-03-31T16:03:34.795Z</time></trkpt><trkpt lat="43.461665" lon="11.5736467"><ele>451.33333333333337</ele><time>2026-03-31T16:03:36.796Z</time></trkpt><trkpt lat="43.4616017" lon="11.5736683"><ele>451.0</ele><time>2026-03-31T16:03:37.797Z</time></trkpt><trkpt lat="43.4615417" lon="11.5737017"><ele>449.8</ele><time>2026-03-31T16:03:38.797Z</time></trkpt><trkpt lat="43.4614383" lon="11.5737867"><ele>448.6</ele><time>2026-03-31T16:03:40.795Z</time></trkpt><trkpt lat="43.4613817" lon="11.5738367"><ele>447.4</ele><time>2026-03-31T16:03:41.795Z</time></trkpt><trkpt lat="43.461325" lon="11.57388"><ele>446.2</ele><time>2026-03-31T16:03:42.794Z</time></trkpt><trkpt lat="43.4612317" lon="11.573975"><ele>445.0</ele><time>2026-03-31T16:03:44.796Z</time></trkpt><trkpt lat="43.461135" lon="11.5740633"><ele>443.2</ele><time>2026-03-31T16:03:46.795Z</time></trkpt><trkpt lat="43.4610317" lon="11.5741333"><ele>441.4</ele><time>2026-03-31T16:03:48.797Z</time></trkpt><trkpt lat="43.460955" lon="11.57428"><ele>439.6</ele><time>2026-03-31T16:03:50.797Z</time></trkpt><trkpt lat="43.4609117" lon="11.5743633"><ele>437.8</ele><time>2026-03-31T16:03:51.796Z</time></trkpt><trkpt lat="43.4608567" lon="11.5744317"><ele>436.0</ele><time>2026-03-31T16:03:52.795Z</time></trkpt><trkpt lat="43.4607967" lon="11.5744833"><ele>436.0</ele><time>2026-03-31T16:03:53.796Z</time></trkpt><trkpt lat="43.4606933" lon="11.57452"><ele>436.0</ele><time>2026-03-31T16:03:55.796Z</time></trkpt><trkpt lat="43.460585" lon="11.574505"><ele>436.0</ele><time>2026-03-31T16:03:57.795Z</time></trkpt><trkpt lat="43.4605" lon="11.5744933"><ele>436.0</ele><time>2026-03-31T16:03:58.795Z</time></trkpt><trkpt lat="43.4604033" lon="11.57449"><ele>436.0</ele><time>2026-03-31T16:03:59.798Z</time></trkpt><trkpt lat="43.4602967" lon="11.574505"><ele>436.0</ele><time>2026-03-31T16:04:00.795Z</time></trkpt><trkpt lat="43.460175" lon="11.57452"><ele>436.0</ele><time>2026-03-31T16:04:01.796Z</time></trkpt><trkpt lat="43.460055" lon="11.5745367"><ele>436.0</ele><time>2026-03-31T16:04:02.795Z</time></trkpt><trkpt lat="43.4599467" lon="11.5745567"><ele>436.0</ele><time>2026-03-31T16:04:03.795Z</time></trkpt><trkpt lat="43.4598383" lon="11.5745933"><ele>436.0</ele><time>2026-03-31T16:04:04.795Z</time></trkpt><trkpt lat="43.4597383" lon="11.5746483"><ele>436.0</ele><time>2026-03-31T16:04:05.795Z</time></trkpt><trkpt lat="43.45965" lon="11.57471"><ele>436.0</ele><time>2026-03-31T16:04:06.798Z</time></trkpt><trkpt lat="43.4595817" lon="11.5747733"><ele>436.0</ele><time>2026-03-31T16:04:07.795Z</time></trkpt><trkpt lat="43.4595133" lon="11.5748283"><ele>436.0</ele><time>2026-03-31T16:04:08.795Z</time></trkpt><trkpt lat="43.4594383" lon="11.5748767"><ele>438.0</ele><time>2026-03-31T16:04:09.795Z</time></trkpt><trkpt lat="43.45936" lon="11.57492"><ele>440.0</ele><time>2026-03-31T16:04:10.796Z</time></trkpt><trkpt lat="43.4592817" lon="11.5749467"><ele>442.0</ele><time>2026-03-31T16:04:11.796Z</time></trkpt><trkpt lat="43.4591967" lon="11.5749533"><ele>444.0</ele><time>2026-03-31T16:04:12.796Z</time></trkpt><trkpt lat="43.4590967" lon="11.5749483"><ele>446.0</ele><time>2026-03-31T16:04:13.795Z</time></trkpt><trkpt lat="43.4589967" lon="11.57494"><ele>446.0</ele><time>2026-03-31T16:04:14.797Z</time></trkpt><trkpt lat="43.45888" lon="11.574925"><ele>446.0</ele><time>2026-03-31T16:04:15.796Z</time></trkpt><trkpt lat="43.45876" lon="11.5749"><ele>446.0</ele><time>2026-03-31T16:04:16.795Z</time></trkpt><trkpt lat="43.458635" lon="11.5748733"><ele>446.0</ele><time>2026-03-31T16:04:17.796Z</time></trkpt><trkpt lat="43.458525" lon="11.5748467"><ele>447.16666666666663</ele><time>2026-03-31T16:04:18.797Z</time></trkpt><trkpt lat="43.45843" lon="11.5748167"><ele>448.3333333333333</ele><time>2026-03-31T16:04:19.795Z</time></trkpt><trkpt lat="43.458345" lon="11.5747867"><ele>449.5</ele><time>2026-03-31T16:04:20.796Z</time></trkpt><trkpt lat="43.45827" lon="11.5747733"><ele>450.66666666666663</ele><time>2026-03-31T16:04:21.795Z</time></trkpt><trkpt lat="43.4582017" lon="11.57478"><ele>451.8333333333333</ele><time>2026-03-31T16:04:22.797Z</time></trkpt><trkpt lat="43.4581533" lon="11.5748633"><ele>453.0</ele><time>2026-03-31T16:04:23.797Z</time></trkpt><trkpt lat="43.45811" lon="11.5749567"><ele>453.0</ele><time>2026-03-31T16:04:24.796Z</time></trkpt><trkpt lat="43.458085" lon="11.5750633"><ele>453.0</ele><time>2026-03-31T16:04:25.796Z</time></trkpt><trkpt lat="43.4580667" lon="11.5751667"><ele>453.0</ele><time>2026-03-31T16:04:26.792Z</time></trkpt><trkpt lat="43.4580333" lon="11.575265"><ele>453.0</ele><time>2026-03-31T16:04:27.795Z</time></trkpt><trkpt lat="43.4579967" lon="11.5753667"><ele>453.0</ele><time>2026-03-31T16:04:28.796Z</time></trkpt><trkpt lat="43.457955" lon="11.575475"><ele>453.0</ele><time>2026-03-31T16:04:29.796Z</time></trkpt><trkpt lat="43.45792" lon="11.575575"><ele>455.79999999999995</ele><time>2026-03-31T16:04:30.797Z</time></trkpt><trkpt lat="43.4578883" lon="11.57567"><ele>458.59999999999997</ele><time>2026-03-31T16:04:31.796Z</time></trkpt><trkpt lat="43.457845" lon="11.57575"><ele>461.40000000000003</ele><time>2026-03-31T16:04:32.797Z</time></trkpt><trkpt lat="43.4577383" lon="11.57584"><ele>464.20000000000005</ele><time>2026-03-31T16:04:34.796Z</time></trkpt><trkpt lat="43.4576283" lon="11.57586"><ele>467.0</ele><time>2026-03-31T16:04:36.796Z</time></trkpt><trkpt lat="43.45753" lon="11.5758117"><ele>466.99999999999994</ele><time>2026-03-31T16:04:38.796Z</time></trkpt><trkpt lat="43.4574683" lon="11.575785"><ele>467.0</ele><time>2026-03-31T16:04:39.795Z</time></trkpt><trkpt lat="43.457385" lon="11.575785"><ele>467.0</ele><time>2026-03-31T16:04:40.796Z</time></trkpt><trkpt lat="43.457305" lon="11.5758117"><ele>467.0</ele><time>2026-03-31T16:04:41.797Z</time></trkpt><trkpt lat="43.457235" lon="11.5758583"><ele>466.99999999999994</ele><time>2026-03-31T16:04:42.795Z</time></trkpt><trkpt lat="43.4571633" lon="11.5758983"><ele>467.0</ele><time>2026-03-31T16:04:43.796Z</time></trkpt><trkpt lat="43.4570883" lon="11.57593"><ele>466.3333333333333</ele><time>2026-03-31T16:04:44.796Z</time></trkpt><trkpt lat="43.457005" lon="11.5759533"><ele>465.66666666666663</ele><time>2026-03-31T16:04:45.795Z</time></trkpt><trkpt lat="43.45693" lon="11.5759833"><ele>465.0</ele><time>2026-03-31T16:04:46.794Z</time></trkpt><trkpt lat="43.456865" lon="11.5760217"><ele>464.33333333333337</ele><time>2026-03-31T16:04:47.796Z</time></trkpt><trkpt lat="43.4568067" lon="11.5760817"><ele>463.6666666666667</ele><time>2026-03-31T16:04:48.797Z</time></trkpt><trkpt lat="43.4567567" lon="11.576155"><ele>463.0</ele><time>2026-03-31T16:04:49.797Z</time></trkpt><trkpt lat="43.4567083" lon="11.5762417"><ele>463.00000000000006</ele><time>2026-03-31T16:04:50.796Z</time></trkpt><trkpt lat="43.4566567" lon="11.5763317"><ele>463.0</ele><time>2026-03-31T16:04:51.796Z</time></trkpt><trkpt lat="43.45661" lon="11.57642"><ele>463.0</ele><time>2026-03-31T16:04:52.795Z</time></trkpt><trkpt lat="43.45656" lon="11.5765067"><ele>463.0</ele><time>2026-03-31T16:04:53.796Z</time></trkpt><trkpt lat="43.45651" lon="11.5765967"><ele>463.00000000000006</ele><time>2026-03-31T16:04:54.797Z</time></trkpt><trkpt lat="43.45646" lon="11.5767"><ele>463.0</ele><time>2026-03-31T16:04:55.795Z</time></trkpt><trkpt lat="43.45642" lon="11.57683"><ele>463.00000000000006</ele><time>2026-03-31T16:04:56.797Z</time></trkpt><trkpt lat="43.456375" lon="11.576955"><ele>463.0</ele><time>2026-03-31T16:04:57.797Z</time></trkpt><trkpt lat="43.4563267" lon="11.5770717"><ele>463.0</ele><time>2026-03-31T16:04:58.795Z</time></trkpt><trkpt lat="43.4562767" lon="11.57717"><ele>463.0</ele><time>2026-03-31T16:04:59.795Z</time></trkpt><trkpt lat="43.456225" lon="11.577255"><ele>463.00000000000006</ele><time>2026-03-31T16:05:00.794Z</time></trkpt><trkpt lat="43.4561817" lon="11.5773267"><ele>463.0</ele><time>2026-03-31T16:05:01.795Z</time></trkpt><trkpt lat="43.456125" lon="11.5774733"><ele>462.79999999999995</ele><time>2026-03-31T16:05:03.795Z</time></trkpt><trkpt lat="43.4561233" lon="11.5775683"><ele>462.59999999999997</ele><time>2026-03-31T16:05:04.796Z</time></trkpt><trkpt lat="43.4561367" lon="11.5776683"><ele>462.40000000000003</ele><time>2026-03-31T16:05:05.796Z</time></trkpt><trkpt lat="43.4561317" lon="11.5778317"><ele>462.20000000000005</ele><time>2026-03-31T16:05:07.797Z</time></trkpt><trkpt lat="43.4560783" lon="11.5779967"><ele>462.0</ele><time>2026-03-31T16:05:09.797Z</time></trkpt><trkpt lat="43.4560483" lon="11.5780817"><ele>461.0</ele><time>2026-03-31T16:05:10.795Z</time></trkpt><trkpt lat="43.45602" lon="11.5781667"><ele>460.0</ele><time>2026-03-31T16:05:11.795Z</time></trkpt><trkpt lat="43.4559917" lon="11.5782483"><ele>459.0</ele><time>2026-03-31T16:05:12.796Z</time></trkpt><trkpt lat="43.45595" lon="11.5783283"><ele>458.0</ele><time>2026-03-31T16:05:13.795Z</time></trkpt><trkpt lat="43.4558983" lon="11.57841"><ele>457.0</ele><time>2026-03-31T16:05:14.796Z</time></trkpt><trkpt lat="43.4558383" lon="11.5785"><ele>456.0</ele><time>2026-03-31T16:05:15.796Z</time></trkpt><trkpt lat="43.4557733" lon="11.57858"><ele>456.0</ele><time>2026-03-31T16:05:16.794Z</time></trkpt><trkpt lat="43.4557033" lon="11.57866"><ele>456.0</ele><time>2026-03-31T16:05:17.796Z</time></trkpt><trkpt lat="43.455635" lon="11.5787317"><ele>456.0</ele><time>2026-03-31T16:05:18.795Z</time></trkpt><trkpt lat="43.45557" lon="11.5787933"><ele>456.0</ele><time>2026-03-31T16:05:19.796Z</time></trkpt><trkpt lat="43.4555133" lon="11.5788583"><ele>456.0</ele><time>2026-03-31T16:05:20.797Z</time></trkpt><trkpt lat="43.4554617" lon="11.5789417"><ele>456.0</ele><time>2026-03-31T16:05:21.797Z</time></trkpt><trkpt lat="43.4554133" lon="11.57904"><ele>455.5</ele><time>2026-03-31T16:05:22.796Z</time></trkpt><trkpt lat="43.4554067" lon="11.5791767"><ele>455.0</ele><time>2026-03-31T16:05:23.795Z</time></trkpt><trkpt lat="43.4554033" lon="11.579305"><ele>454.5</ele><time>2026-03-31T16:05:24.797Z</time></trkpt><trkpt lat="43.455395" lon="11.5794117"><ele>454.0</ele><time>2026-03-31T16:05:25.796Z</time></trkpt><trkpt lat="43.455395" lon="11.5795233"><ele>453.5</ele><time>2026-03-31T16:05:26.797Z</time></trkpt><trkpt lat="43.4553983" lon="11.5796233"><ele>453.0</ele><time>2026-03-31T16:05:27.795Z</time></trkpt><trkpt lat="43.455395" lon="11.5797133"><ele>449.75</ele><time>2026-03-31T16:05:28.796Z</time></trkpt><trkpt lat="43.45537" lon="11.5798767"><ele>446.5</ele><time>2026-03-31T16:05:30.797Z</time></trkpt><trkpt lat="43.4553333" lon="11.58003"><ele>443.25</ele><time>2026-03-31T16:05:32.796Z</time></trkpt><trkpt lat="43.4552883" lon="11.5801767"><ele>440.0</ele><time>2026-03-31T16:05:34.796Z</time></trkpt><trkpt lat="43.4552383" lon="11.5802967"><ele>437.4</ele><time>2026-03-31T16:05:36.796Z</time></trkpt><trkpt lat="43.4551583" lon="11.580375"><ele>434.8</ele><time>2026-03-31T16:05:38.795Z</time></trkpt><trkpt lat="43.4550517" lon="11.5804133"><ele>432.20000000000005</ele><time>2026-03-31T16:05:40.795Z</time></trkpt><trkpt lat="43.45495" lon="11.5804817"><ele>429.6</ele><time>2026-03-31T16:05:42.795Z</time></trkpt><trkpt lat="43.4548683" lon="11.5805867"><ele>427.0</ele><time>2026-03-31T16:05:44.796Z</time></trkpt><trkpt lat="43.454805" lon="11.58072"><ele>427.0</ele><time>2026-03-31T16:05:46.795Z</time></trkpt><trkpt lat="43.4547733" lon="11.5808867"><ele>427.00000000000006</ele><time>2026-03-31T16:05:48.796Z</time></trkpt><trkpt lat="43.45476" lon="11.5809717"><ele>427.00000000000006</ele><time>2026-03-31T16:05:49.797Z</time></trkpt><trkpt lat="43.4547283" lon="11.5811233"><ele>427.0</ele><time>2026-03-31T16:05:51.796Z</time></trkpt><trkpt lat="43.45467" lon="11.5812733"><ele>427.0</ele><time>2026-03-31T16:05:53.795Z</time></trkpt><trkpt lat="43.4546117" lon="11.5813817"><ele>425.33333333333337</ele><time>2026-03-31T16:05:55.796Z</time></trkpt><trkpt lat="43.4545283" lon="11.5814683"><ele>423.6666666666667</ele><time>2026-03-31T16:05:57.796Z</time></trkpt><trkpt lat="43.4544117" lon="11.5815217"><ele>422.0</ele><time>2026-03-31T16:05:59.795Z</time></trkpt><trkpt lat="43.4543433" lon="11.5815383"><ele>420.33333333333337</ele><time>2026-03-31T16:06:00.797Z</time></trkpt><trkpt lat="43.4542733" lon="11.58155"><ele>418.6666666666667</ele><time>2026-03-31T16:06:01.795Z</time></trkpt><trkpt lat="43.454205" lon="11.5815333"><ele>417.0</ele><time>2026-03-31T16:06:02.796Z</time></trkpt><trkpt lat="43.45412" lon="11.5815117"><ele>417.0</ele><time>2026-03-31T16:06:04.795Z</time></trkpt><trkpt lat="43.4540417" lon="11.5815617"><ele>417.0</ele><time>2026-03-31T16:06:07.794Z</time></trkpt><trkpt lat="43.4540033" lon="11.5816517"><ele>417.0</ele><time>2026-03-31T16:06:10.798Z</time></trkpt><trkpt lat="43.45401" lon="11.5817717"><ele>417.0</ele><time>2026-03-31T16:06:13.794Z</time></trkpt><trkpt lat="43.454045" lon="11.5818867"><ele>417.0</ele><time>2026-03-31T16:06:15.795Z</time></trkpt><trkpt lat="43.4540433" lon="11.5820533"><ele>415.14285714285717</ele><time>2026-03-31T16:06:17.796Z</time></trkpt><trkpt lat="43.45403" lon="11.5821467"><ele>413.2857142857143</ele><time>2026-03-31T16:06:18.797Z</time></trkpt><trkpt lat="43.45401" lon="11.5822383"><ele>411.42857142857144</ele><time>2026-03-31T16:06:19.796Z</time></trkpt><trkpt lat="43.4539867" lon="11.582325"><ele>409.57142857142856</ele><time>2026-03-31T16:06:20.796Z</time></trkpt><trkpt lat="43.4539633" lon="11.5824167"><ele>407.71428571428567</ele><time>2026-03-31T16:06:21.795Z</time></trkpt><trkpt lat="43.4539433" lon="11.5825167"><ele>405.85714285714283</ele><time>2026-03-31T16:06:22.796Z</time></trkpt><trkpt lat="43.4539283" lon="11.5826217"><ele>404.0</ele><time>2026-03-31T16:06:23.794Z</time></trkpt><trkpt lat="43.4539133" lon="11.5827217"><ele>403.99999999999994</ele><time>2026-03-31T16:06:24.796Z</time></trkpt><trkpt lat="43.4539067" lon="11.5828183"><ele>404.0</ele><time>2026-03-31T16:06:25.796Z</time></trkpt><trkpt lat="43.4539033" lon="11.5829917"><ele>404.0</ele><time>2026-03-31T16:06:27.794Z</time></trkpt><trkpt lat="43.4539067" lon="11.5830917"><ele>404.0</ele><time>2026-03-31T16:06:28.794Z</time></trkpt><trkpt lat="43.4539067" lon="11.5831983"><ele>403.99999999999994</ele><time>2026-03-31T16:06:29.794Z</time></trkpt><trkpt lat="43.4538967" lon="11.5833133"><ele>404.0</ele><time>2026-03-31T16:06:30.798Z</time></trkpt><trkpt lat="43.4538833" lon="11.5834267"><ele>403.66666666666663</ele><time>2026-03-31T16:06:31.793Z</time></trkpt><trkpt lat="43.4538683" lon="11.583545"><ele>403.3333333333333</ele><time>2026-03-31T16:06:32.796Z</time></trkpt><trkpt lat="43.45386" lon="11.58366"><ele>403.0</ele><time>2026-03-31T16:06:33.796Z</time></trkpt><trkpt lat="43.4538567" lon="11.5837683"><ele>402.66666666666663</ele><time>2026-03-31T16:06:34.795Z</time></trkpt><trkpt lat="43.453845" lon="11.5838733"><ele>402.3333333333333</ele><time>2026-03-31T16:06:35.796Z</time></trkpt><trkpt lat="43.453835" lon="11.5839783"><ele>402.0</ele><time>2026-03-31T16:06:36.797Z</time></trkpt><trkpt lat="43.4538267" lon="11.58408"><ele>400.5</ele><time>2026-03-31T16:06:37.796Z</time></trkpt><trkpt lat="43.45382" lon="11.5841783"><ele>399.0</ele><time>2026-03-31T16:06:38.796Z</time></trkpt><trkpt lat="43.45382" lon="11.5842733"><ele>397.5</ele><time>2026-03-31T16:06:39.796Z</time></trkpt><trkpt lat="43.4538233" lon="11.5843667"><ele>396.0</ele><time>2026-03-31T16:06:40.796Z</time></trkpt><trkpt lat="43.4538467" lon="11.5844767"><ele>394.5</ele><time>2026-03-31T16:06:41.797Z</time></trkpt><trkpt lat="43.4538867" lon="11.5845983"><ele>393.0</ele><time>2026-03-31T16:06:42.797Z</time></trkpt><trkpt lat="43.4539217" lon="11.5847183"><ele>390.2</ele><time>2026-03-31T16:06:43.797Z</time></trkpt><trkpt lat="43.4539633" lon="11.5848417"><ele>387.4</ele><time>2026-03-31T16:06:44.799Z</time></trkpt><trkpt lat="43.454005" lon="11.584965"><ele>384.59999999999997</ele><time>2026-03-31T16:06:45.796Z</time></trkpt><trkpt lat="43.4540517" lon="11.5850933"><ele>381.79999999999995</ele><time>2026-03-31T16:06:46.797Z</time></trkpt><trkpt lat="43.454095" lon="11.5852267"><ele>379.0</ele><time>2026-03-31T16:06:47.796Z</time></trkpt><trkpt lat="43.45412" lon="11.58537"><ele>377.3333333333333</ele><time>2026-03-31T16:06:48.796Z</time></trkpt><trkpt lat="43.454135" lon="11.5855033"><ele>375.66666666666663</ele><time>2026-03-31T16:06:49.795Z</time></trkpt><trkpt lat="43.4541433" lon="11.5856267"><ele>374.0</ele><time>2026-03-31T16:06:50.796Z</time></trkpt><trkpt lat="43.4541483" lon="11.585745"><ele>372.3333333333333</ele><time>2026-03-31T16:06:51.797Z</time></trkpt><trkpt lat="43.45415" lon="11.5858567"><ele>370.6666666666667</ele><time>2026-03-31T16:06:52.795Z</time></trkpt><trkpt lat="43.4541517" lon="11.5859633"><ele>369.0</ele><time>2026-03-31T16:06:53.797Z</time></trkpt><trkpt lat="43.4541467" lon="11.58608"><ele>367.4</ele><time>2026-03-31T16:06:54.796Z</time></trkpt><trkpt lat="43.4541417" lon="11.5862083"><ele>365.79999999999995</ele><time>2026-03-31T16:06:55.796Z</time></trkpt><trkpt lat="43.45413" lon="11.5863383"><ele>364.20000000000005</ele><time>2026-03-31T16:06:56.797Z</time></trkpt><trkpt lat="43.4541183" lon="11.58648"><ele>362.6</ele><time>2026-03-31T16:06:57.796Z</time></trkpt><trkpt lat="43.4541033" lon="11.586635"><ele>361.0</ele><time>2026-03-31T16:06:58.793Z</time></trkpt><trkpt lat="43.4540883" lon="11.5867933"><ele>361.0</ele><time>2026-03-31T16:06:59.795Z</time></trkpt><trkpt lat="43.4540683" lon="11.5869433"><ele>361.0</ele><time>2026-03-31T16:07:00.797Z</time></trkpt><trkpt lat="43.45405" lon="11.5870783"><ele>361.0</ele><time>2026-03-31T16:07:01.796Z</time></trkpt><trkpt lat="43.4540333" lon="11.5872"><ele>361.0</ele><time>2026-03-31T16:07:02.796Z</time></trkpt><trkpt lat="43.4540217" lon="11.5873133"><ele>361.0</ele><time>2026-03-31T16:07:03.797Z</time></trkpt><trkpt lat="43.4540117" lon="11.58742"><ele>360.3333333333333</ele><time>2026-03-31T16:07:04.796Z</time></trkpt><trkpt lat="43.4540067" lon="11.5875217"><ele>359.66666666666663</ele><time>2026-03-31T16:07:05.797Z</time></trkpt><trkpt lat="43.4540017" lon="11.5876233"><ele>359.0</ele><time>2026-03-31T16:07:06.797Z</time></trkpt><trkpt lat="43.454" lon="11.587725"><ele>358.3333333333333</ele><time>2026-03-31T16:07:07.797Z</time></trkpt><trkpt lat="43.45401" lon="11.5878367"><ele>357.6666666666667</ele><time>2026-03-31T16:07:08.797Z</time></trkpt><trkpt lat="43.454025" lon="11.5879533"><ele>357.0</ele><time>2026-03-31T16:07:09.795Z</time></trkpt><trkpt lat="43.4540417" lon="11.5880683"><ele>356.1666666666667</ele><time>2026-03-31T16:07:10.796Z</time></trkpt><trkpt lat="43.454065" lon="11.5881833"><ele>355.3333333333333</ele><time>2026-03-31T16:07:11.796Z</time></trkpt><trkpt lat="43.4540917" lon="11.5882933"><ele>354.5</ele><time>2026-03-31T16:07:12.796Z</time></trkpt><trkpt lat="43.4541167" lon="11.588395"><ele>353.66666666666663</ele><time>2026-03-31T16:07:13.798Z</time></trkpt><trkpt lat="43.4541367" lon="11.5884933"><ele>352.8333333333333</ele><time>2026-03-31T16:07:14.797Z</time></trkpt><trkpt lat="43.4541483" lon="11.588595"><ele>352.0</ele><time>2026-03-31T16:07:15.797Z</time></trkpt><trkpt lat="43.4541517" lon="11.5887017"><ele>351.0</ele><time>2026-03-31T16:07:16.796Z</time></trkpt><trkpt lat="43.4541367" lon="11.58881"><ele>350.0</ele><time>2026-03-31T16:07:17.796Z</time></trkpt><trkpt lat="43.4541233" lon="11.588905"><ele>349.0</ele><time>2026-03-31T16:07:18.797Z</time></trkpt><trkpt lat="43.45412" lon="11.589"><ele>348.0</ele><time>2026-03-31T16:07:19.794Z</time></trkpt><trkpt lat="43.454125" lon="11.5891133"><ele>347.0</ele><time>2026-03-31T16:07:20.796Z</time></trkpt><trkpt lat="43.4541183" lon="11.58923"><ele>346.0</ele><time>2026-03-31T16:07:21.795Z</time></trkpt><trkpt lat="43.4541017" lon="11.5893433"><ele>346.0</ele><time>2026-03-31T16:07:22.796Z</time></trkpt><trkpt lat="43.4540783" lon="11.5894517"><ele>346.0</ele><time>2026-03-31T16:07:23.796Z</time></trkpt><trkpt lat="43.4540617" lon="11.58956"><ele>346.0</ele><time>2026-03-31T16:07:24.796Z</time></trkpt><trkpt lat="43.4540517" lon="11.58966"><ele>346.0</ele><time>2026-03-31T16:07:25.796Z</time></trkpt><trkpt lat="43.4540417" lon="11.5897533"><ele>346.0</ele><time>2026-03-31T16:07:26.796Z</time></trkpt><trkpt lat="43.4540283" lon="11.5898467"><ele>346.0</ele><time>2026-03-31T16:07:27.795Z</time></trkpt><trkpt lat="43.454005" lon="11.5899383"><ele>346.0</ele><time>2026-03-31T16:07:28.797Z</time></trkpt><trkpt lat="43.4539733" lon="11.5900217"><ele>344.16666666666663</ele><time>2026-03-31T16:07:29.795Z</time></trkpt><trkpt lat="43.4539317" lon="11.5901033"><ele>342.3333333333333</ele><time>2026-03-31T16:07:30.796Z</time></trkpt><trkpt lat="43.4539" lon="11.59018"><ele>340.5</ele><time>2026-03-31T16:07:31.796Z</time></trkpt><trkpt lat="43.4538733" lon="11.5903433"><ele>338.6666666666667</ele><time>2026-03-31T16:07:33.797Z</time></trkpt><trkpt lat="43.4538733" lon="11.5904467"><ele>336.83333333333337</ele><time>2026-03-31T16:07:34.795Z</time></trkpt><trkpt lat="43.4538833" lon="11.590555"><ele>335.0</ele><time>2026-03-31T16:07:35.795Z</time></trkpt><trkpt lat="43.4538933" lon="11.590655"><ele>333.1666666666667</ele><time>2026-03-31T16:07:36.797Z</time></trkpt><trkpt lat="43.4539067" lon="11.5907533"><ele>331.33333333333337</ele><time>2026-03-31T16:07:37.797Z</time></trkpt><trkpt lat="43.4539067" lon="11.5908583"><ele>329.5</ele><time>2026-03-31T16:07:38.797Z</time></trkpt><trkpt lat="43.4539033" lon="11.59098"><ele>327.6666666666667</ele><time>2026-03-31T16:07:39.797Z</time></trkpt><trkpt lat="43.453895" lon="11.5911083"><ele>325.8333333333333</ele><time>2026-03-31T16:07:40.796Z</time></trkpt><trkpt lat="43.453885" lon="11.59124"><ele>324.0</ele><time>2026-03-31T16:07:41.798Z</time></trkpt><trkpt lat="43.45387" lon="11.59136"><ele>322.3333333333333</ele><time>2026-03-31T16:07:42.798Z</time></trkpt><trkpt lat="43.4538583" lon="11.59148"><ele>320.6666666666667</ele><time>2026-03-31T16:07:43.797Z</time></trkpt><trkpt lat="43.4538533" lon="11.5915867"><ele>319.0</ele><time>2026-03-31T16:07:44.797Z</time></trkpt><trkpt lat="43.4538583" lon="11.5916867"><ele>317.33333333333337</ele><time>2026-03-31T16:07:45.796Z</time></trkpt><trkpt lat="43.4538733" lon="11.5917917"><ele>315.6666666666667</ele><time>2026-03-31T16:07:46.795Z</time></trkpt><trkpt lat="43.453905" lon="11.5919067"><ele>314.0</ele><time>2026-03-31T16:07:47.797Z</time></trkpt><trkpt lat="43.4539533" lon="11.5920333"><ele>312.59999999999997</ele><time>2026-03-31T16:07:48.795Z</time></trkpt><trkpt lat="43.4540117" lon="11.59217"><ele>311.2</ele><time>2026-03-31T16:07:49.795Z</time></trkpt><trkpt lat="43.4540667" lon="11.5923017"><ele>309.79999999999995</ele><time>2026-03-31T16:07:50.797Z</time></trkpt><trkpt lat="43.4541217" lon="11.592435"><ele>308.4</ele><time>2026-03-31T16:07:51.796Z</time></trkpt><trkpt lat="43.4541683" lon="11.59257"><ele>307.0</ele><time>2026-03-31T16:07:52.796Z</time></trkpt><trkpt lat="43.4542033" lon="11.5927133"><ele>306.5</ele><time>2026-03-31T16:07:53.796Z</time></trkpt><trkpt lat="43.454235" lon="11.5928483"><ele>306.0</ele><time>2026-03-31T16:07:54.797Z</time></trkpt><trkpt lat="43.4542683" lon="11.5929667"><ele>305.5</ele><time>2026-03-31T16:07:55.797Z</time></trkpt><trkpt lat="43.4542917" lon="11.5930667"><ele>305.0</ele><time>2026-03-31T16:07:56.797Z</time></trkpt><trkpt lat="43.4543017" lon="11.5931633"><ele>304.5</ele><time>2026-03-31T16:07:57.795Z</time></trkpt><trkpt lat="43.4542883" lon="11.5932667"><ele>304.0</ele><time>2026-03-31T16:07:58.796Z</time></trkpt><trkpt lat="43.454265" lon="11.5933617"><ele>304.0</ele><time>2026-03-31T16:07:59.795Z</time></trkpt><trkpt lat="43.4542167" lon="11.593455"><ele>304.0</ele><time>2026-03-31T16:08:00.797Z</time></trkpt><trkpt lat="43.4541483" lon="11.593545"><ele>304.0</ele><time>2026-03-31T16:08:01.797Z</time></trkpt><trkpt lat="43.454065" lon="11.5936283"><ele>304.0</ele><time>2026-03-31T16:08:02.796Z</time></trkpt><trkpt lat="43.4539967" lon="11.5937133"><ele>304.0</ele><time>2026-03-31T16:08:03.796Z</time></trkpt><trkpt lat="43.4539533" lon="11.5937983"><ele>304.0</ele><time>2026-03-31T16:08:04.795Z</time></trkpt><trkpt lat="43.4539267" lon="11.5938817"><ele>303.3333333333333</ele><time>2026-03-31T16:08:05.797Z</time></trkpt><trkpt lat="43.453935" lon="11.594"><ele>302.66666666666663</ele><time>2026-03-31T16:08:06.797Z</time></trkpt><trkpt lat="43.4539383" lon="11.5941217"><ele>302.0</ele><time>2026-03-31T16:08:07.797Z</time></trkpt><trkpt lat="43.4539317" lon="11.5942467"><ele>301.3333333333333</ele><time>2026-03-31T16:08:08.797Z</time></trkpt><trkpt lat="43.4539167" lon="11.5943567"><ele>300.6666666666667</ele><time>2026-03-31T16:08:09.796Z</time></trkpt><trkpt lat="43.4539017" lon="11.59445"><ele>300.0</ele><time>2026-03-31T16:08:10.794Z</time></trkpt><trkpt lat="43.4539017" lon="11.5945917"><ele>298.1666666666667</ele><time>2026-03-31T16:08:12.797Z</time></trkpt><trkpt lat="43.4539717" lon="11.594705"><ele>296.3333333333333</ele><time>2026-03-31T16:08:14.798Z</time></trkpt><trkpt lat="43.45404" lon="11.5947633"><ele>294.5</ele><time>2026-03-31T16:08:15.797Z</time></trkpt><trkpt lat="43.4541133" lon="11.5948383"><ele>292.66666666666663</ele><time>2026-03-31T16:08:16.796Z</time></trkpt><trkpt lat="43.4541867" lon="11.5949033"><ele>290.8333333333333</ele><time>2026-03-31T16:08:17.794Z</time></trkpt><trkpt lat="43.454255" lon="11.59495"><ele>289.0</ele><time>2026-03-31T16:08:18.795Z</time></trkpt><trkpt lat="43.45437" lon="11.5949583"><ele>289.0</ele><time>2026-03-31T16:08:20.797Z</time></trkpt><trkpt lat="43.4544933" lon="11.5949067"><ele>289.0</ele><time>2026-03-31T16:08:22.795Z</time></trkpt><trkpt lat="43.4545767" lon="11.5948533"><ele>289.0</ele><time>2026-03-31T16:08:23.796Z</time></trkpt><trkpt lat="43.4546667" lon="11.5948017"><ele>289.0</ele><time>2026-03-31T16:08:24.797Z</time></trkpt><trkpt lat="43.4547517" lon="11.594775"><ele>289.0</ele><time>2026-03-31T16:08:25.796Z</time></trkpt><trkpt lat="43.4548383" lon="11.5947683"><ele>289.3333333333333</ele><time>2026-03-31T16:08:26.797Z</time></trkpt><trkpt lat="43.45492" lon="11.59477"><ele>289.66666666666663</ele><time>2026-03-31T16:08:27.797Z</time></trkpt><trkpt lat="43.4549933" lon="11.594785"><ele>290.0</ele><time>2026-03-31T16:08:28.796Z</time></trkpt><trkpt lat="43.4550567" lon="11.5948433"><ele>290.3333333333333</ele><time>2026-03-31T16:08:29.796Z</time></trkpt><trkpt lat="43.4550733" lon="11.594965"><ele>290.6666666666667</ele><time>2026-03-31T16:08:30.796Z</time></trkpt><trkpt lat="43.4550833" lon="11.595085"><ele>291.0</ele><time>2026-03-31T16:08:31.797Z</time></trkpt><trkpt lat="43.455085" lon="11.59522"><ele>289.8</ele><time>2026-03-31T16:08:32.796Z</time></trkpt><trkpt lat="43.455095" lon="11.595365"><ele>288.6</ele><time>2026-03-31T16:08:33.796Z</time></trkpt><trkpt lat="43.4551283" lon="11.5955183"><ele>287.4</ele><time>2026-03-31T16:08:34.797Z</time></trkpt><trkpt lat="43.4551633" lon="11.5956633"><ele>286.2</ele><time>2026-03-31T16:08:35.795Z</time></trkpt><trkpt lat="43.4552033" lon="11.59579"><ele>285.0</ele><time>2026-03-31T16:08:36.799Z</time></trkpt><trkpt lat="43.4552517" lon="11.5958917"><ele>285.0</ele><time>2026-03-31T16:08:37.797Z</time></trkpt><trkpt lat="43.455315" lon="11.59598"><ele>285.0</ele><time>2026-03-31T16:08:38.797Z</time></trkpt><trkpt lat="43.4554033" lon="11.5960567"><ele>285.0</ele><time>2026-03-31T16:08:39.796Z</time></trkpt><trkpt lat="43.4554883" lon="11.5961267"><ele>285.0</ele><time>2026-03-31T16:08:40.797Z</time></trkpt><trkpt lat="43.455565" lon="11.5961967"><ele>285.0</ele><time>2026-03-31T16:08:41.796Z</time></trkpt><trkpt lat="43.45563" lon="11.5962767"><ele>284.57142857142856</ele><time>2026-03-31T16:08:42.796Z</time></trkpt><trkpt lat="43.4556867" lon="11.596355"><ele>284.14285714285717</ele><time>2026-03-31T16:08:43.797Z</time></trkpt><trkpt lat="43.4557433" lon="11.5964333"><ele>283.7142857142857</ele><time>2026-03-31T16:08:44.794Z</time></trkpt><trkpt lat="43.455795" lon="11.5965017"><ele>283.2857142857143</ele><time>2026-03-31T16:08:45.796Z</time></trkpt><trkpt lat="43.4558483" lon="11.5965567"><ele>282.85714285714283</ele><time>2026-03-31T16:08:46.795Z</time></trkpt><trkpt lat="43.45591" lon="11.596585"><ele>282.42857142857144</ele><time>2026-03-31T16:08:47.797Z</time></trkpt><trkpt lat="43.455985" lon="11.5965833"><ele>282.0</ele><time>2026-03-31T16:08:48.795Z</time></trkpt><trkpt lat="43.456055" lon="11.596585"><ele>282.0</ele><time>2026-03-31T16:08:49.795Z</time></trkpt><trkpt lat="43.45612" lon="11.5965967"><ele>282.0</ele><time>2026-03-31T16:08:50.796Z</time></trkpt><trkpt lat="43.4561867" lon="11.5966067"><ele>282.0</ele><time>2026-03-31T16:08:51.796Z</time></trkpt><trkpt lat="43.4562533" lon="11.5966167"><ele>282.0</ele><time>2026-03-31T16:08:52.796Z</time></trkpt><trkpt lat="43.4563217" lon="11.5966217"><ele>282.0</ele><time>2026-03-31T16:08:53.797Z</time></trkpt><trkpt lat="43.456395" lon="11.5966433"><ele>282.0</ele><time>2026-03-31T16:08:54.795Z</time></trkpt><trkpt lat="43.45646" lon="11.5966733"><ele>282.0</ele><time>2026-03-31T16:08:55.795Z</time></trkpt><trkpt lat="43.456525" lon="11.596695"><ele>280.0</ele><time>2026-03-31T16:08:56.8Z</time></trkpt><trkpt lat="43.45664" lon="11.5967417"><ele>278.0</ele><time>2026-03-31T16:08:58.795Z</time></trkpt><trkpt lat="43.4567467" lon="11.59684"><ele>276.0</ele><time>2026-03-31T16:09:00.798Z</time></trkpt><trkpt lat="43.4568217" lon="11.5969883"><ele>274.0</ele><time>2026-03-31T16:09:02.797Z</time></trkpt><trkpt lat="43.4568467" lon="11.5970817"><ele>273.8333333333333</ele><time>2026-03-31T16:09:03.797Z</time></trkpt><trkpt lat="43.45686" lon="11.5971783"><ele>273.66666666666663</ele><time>2026-03-31T16:09:04.796Z</time></trkpt><trkpt lat="43.456865" lon="11.5972717"><ele>273.5</ele><time>2026-03-31T16:09:05.796Z</time></trkpt><trkpt lat="43.4568867" lon="11.59737"><ele>273.3333333333333</ele><time>2026-03-31T16:09:06.797Z</time></trkpt><trkpt lat="43.456925" lon="11.597475"><ele>273.1666666666667</ele><time>2026-03-31T16:09:07.796Z</time></trkpt><trkpt lat="43.4569883" lon="11.59759"><ele>273.0</ele><time>2026-03-31T16:09:08.797Z</time></trkpt><trkpt lat="43.4570783" lon="11.5977267"><ele>272.3333333333333</ele><time>2026-03-31T16:09:09.796Z</time></trkpt><trkpt lat="43.4571783" lon="11.5978733"><ele>271.66666666666663</ele><time>2026-03-31T16:09:10.796Z</time></trkpt><trkpt lat="43.457275" lon="11.5980433"><ele>271.0</ele><time>2026-03-31T16:09:11.796Z</time></trkpt><trkpt lat="43.4573617" lon="11.5982383"><ele>271.0</ele><time>2026-03-31T16:09:12.796Z</time></trkpt><trkpt lat="43.4574333" lon="11.5984533"><ele>271.0</ele><time>2026-03-31T16:09:13.796Z</time></trkpt><trkpt lat="43.4575033" lon="11.5986767"><ele>271.0</ele><time>2026-03-31T16:09:14.796Z</time></trkpt><trkpt lat="43.4575883" lon="11.5988967"><ele>270.0</ele><time>2026-03-31T16:09:15.796Z</time></trkpt><trkpt lat="43.45768" lon="11.5991233"><ele>269.0</ele><time>2026-03-31T16:09:16.795Z</time></trkpt><trkpt lat="43.4577717" lon="11.5993283"><ele>268.0</ele><time>2026-03-31T16:09:17.795Z</time></trkpt><trkpt lat="43.4578583" lon="11.5995183"><ele>266.3333333333333</ele><time>2026-03-31T16:09:18.795Z</time></trkpt><trkpt lat="43.45795" lon="11.599715"><ele>264.6666666666667</ele><time>2026-03-31T16:09:19.797Z</time></trkpt><trkpt lat="43.4580367" lon="11.5999017"><ele>263.0</ele><time>2026-03-31T16:09:20.797Z</time></trkpt><trkpt lat="43.45812" lon="11.6000733"><ele>263.0</ele><time>2026-03-31T16:09:21.797Z</time></trkpt><trkpt lat="43.4581983" lon="11.6002333"><ele>263.0</ele><time>2026-03-31T16:09:22.796Z</time></trkpt><trkpt lat="43.4582817" lon="11.6004"><ele>263.0</ele><time>2026-03-31T16:09:23.796Z</time></trkpt><trkpt lat="43.4583633" lon="11.6005633"><ele>263.0</ele><time>2026-03-31T16:09:24.796Z</time></trkpt><trkpt lat="43.4584433" lon="11.6007267"><ele>262.0</ele><time>2026-03-31T16:09:25.796Z</time></trkpt><trkpt lat="43.4585183" lon="11.600885"><ele>261.0</ele><time>2026-03-31T16:09:26.796Z</time></trkpt><trkpt lat="43.4585933" lon="11.6010383"><ele>260.0</ele><time>2026-03-31T16:09:27.796Z</time></trkpt><trkpt lat="43.4586633" lon="11.6011833"><ele>259.0</ele><time>2026-03-31T16:09:28.795Z</time></trkpt><trkpt lat="43.4587383" lon="11.6013267"><ele>259.2</ele><time>2026-03-31T16:09:29.791Z</time></trkpt><trkpt lat="43.4588067" lon="11.6014667"><ele>259.4</ele><time>2026-03-31T16:09:30.797Z</time></trkpt><trkpt lat="43.4588717" lon="11.6016"><ele>259.6</ele><time>2026-03-31T16:09:31.797Z</time></trkpt><trkpt lat="43.4589317" lon="11.6017233"><ele>259.8</ele><time>2026-03-31T16:09:32.797Z</time></trkpt><trkpt lat="43.459" lon="11.6018267"><ele>260.0</ele><time>2026-03-31T16:09:33.796Z</time></trkpt><trkpt lat="43.4590933" lon="11.6019167"><ele>260.0</ele><time>2026-03-31T16:09:34.796Z</time></trkpt><trkpt lat="43.4592083" lon="11.6019717"><ele>260.0</ele><time>2026-03-31T16:09:35.797Z</time></trkpt><trkpt lat="43.4593317" lon="11.6020033"><ele>260.0</ele><time>2026-03-31T16:09:36.797Z</time></trkpt><trkpt lat="43.459455" lon="11.6020167"><ele>260.0</ele><time>2026-03-31T16:09:37.798Z</time></trkpt><trkpt lat="43.4595767" lon="11.60204"><ele>259.75</ele><time>2026-03-31T16:09:38.797Z</time></trkpt><trkpt lat="43.4596967" lon="11.602095"><ele>259.5</ele><time>2026-03-31T16:09:39.797Z</time></trkpt><trkpt lat="43.45981" lon="11.6021983"><ele>259.25</ele><time>2026-03-31T16:09:40.796Z</time></trkpt><trkpt lat="43.4599267" lon="11.60233"><ele>259.0</ele><time>2026-03-31T16:09:41.797Z</time></trkpt><trkpt lat="43.4600417" lon="11.60247"><ele>259.0</ele><time>2026-03-31T16:09:42.797Z</time></trkpt><trkpt lat="43.4601533" lon="11.6026083"><ele>259.0</ele><time>2026-03-31T16:09:43.797Z</time></trkpt><trkpt lat="43.4602683" lon="11.60275"><ele>259.0</ele><time>2026-03-31T16:09:44.798Z</time></trkpt><trkpt lat="43.4603833" lon="11.602895"><ele>257.66666666666663</ele><time>2026-03-31T16:09:45.797Z</time></trkpt><trkpt lat="43.4604967" lon="11.60304"><ele>256.3333333333333</ele><time>2026-03-31T16:09:46.796Z</time></trkpt><trkpt lat="43.4606067" lon="11.60319"><ele>255.0</ele><time>2026-03-31T16:09:47.798Z</time></trkpt><trkpt lat="43.4607117" lon="11.6033333"><ele>255.0</ele><time>2026-03-31T16:09:48.797Z</time></trkpt><trkpt lat="43.460805" lon="11.603465"><ele>255.0</ele><time>2026-03-31T16:09:49.797Z</time></trkpt><trkpt lat="43.4608983" lon="11.60359"><ele>255.0</ele><time>2026-03-31T16:09:50.798Z</time></trkpt><trkpt lat="43.461" lon="11.60373"><ele>255.0</ele><time>2026-03-31T16:09:51.797Z</time></trkpt><trkpt lat="43.461095" lon="11.6038633"><ele>254.25</ele><time>2026-03-31T16:09:52.795Z</time></trkpt><trkpt lat="43.461195" lon="11.6039917"><ele>253.5</ele><time>2026-03-31T16:09:53.795Z</time></trkpt><trkpt lat="43.4613017" lon="11.60412"><ele>252.75</ele><time>2026-03-31T16:09:54.797Z</time></trkpt><trkpt lat="43.4614083" lon="11.6042517"><ele>252.0</ele><time>2026-03-31T16:09:55.797Z</time></trkpt><trkpt lat="43.46152" lon="11.6043867"><ele>249.33333333333331</ele><time>2026-03-31T16:09:56.793Z</time></trkpt><trkpt lat="43.461635" lon="11.6045283"><ele>246.66666666666666</ele><time>2026-03-31T16:09:57.797Z</time></trkpt><trkpt lat="43.4617567" lon="11.604675"><ele>244.0</ele><time>2026-03-31T16:09:58.795Z</time></trkpt><trkpt lat="43.461875" lon="11.604825"><ele>244.0</ele><time>2026-03-31T16:09:59.796Z</time></trkpt><trkpt lat="43.4619917" lon="11.6049733"><ele>244.0</ele><time>2026-03-31T16:10:00.796Z</time></trkpt><trkpt lat="43.4621183" lon="11.60512"><ele>244.0</ele><time>2026-03-31T16:10:01.798Z</time></trkpt><trkpt lat="43.4622433" lon="11.6052617"><ele>241.0</ele><time>2026-03-31T16:10:02.797Z</time></trkpt><trkpt lat="43.46238" lon="11.60541"><ele>238.0</ele><time>2026-03-31T16:10:03.796Z</time></trkpt><trkpt lat="43.4625167" lon="11.6055667"><ele>235.0</ele><time>2026-03-31T16:10:04.795Z</time></trkpt><trkpt lat="43.4626517" lon="11.605725"><ele>235.0</ele><time>2026-03-31T16:10:05.797Z</time></trkpt><trkpt lat="43.4627833" lon="11.6058767"><ele>235.0</ele><time>2026-03-31T16:10:06.797Z</time></trkpt><trkpt lat="43.462915" lon="11.6060233"><ele>235.0</ele><time>2026-03-31T16:10:07.797Z</time></trkpt><trkpt lat="43.4630333" lon="11.6061617"><ele>237.0</ele><time>2026-03-31T16:10:08.796Z</time></trkpt><trkpt lat="43.463145" lon="11.60629"><ele>239.0</ele><time>2026-03-31T16:10:09.795Z</time></trkpt><trkpt lat="43.463255" lon="11.6064017"><ele>241.0</ele><time>2026-03-31T16:10:10.797Z</time></trkpt><trkpt lat="43.4633633" lon="11.6065083"><ele>243.0</ele><time>2026-03-31T16:10:11.796Z</time></trkpt><trkpt lat="43.4634733" lon="11.6066117"><ele>243.0</ele><time>2026-03-31T16:10:12.797Z</time></trkpt><trkpt lat="43.46359" lon="11.6067167"><ele>243.0</ele><time>2026-03-31T16:10:13.797Z</time></trkpt><trkpt lat="43.4637117" lon="11.6068183"><ele>243.0</ele><time>2026-03-31T16:10:14.797Z</time></trkpt><trkpt lat="43.4638467" lon="11.60691"><ele>243.0</ele><time>2026-03-31T16:10:15.797Z</time></trkpt><trkpt lat="43.4639867" lon="11.6069867"><ele>247.0</ele><time>2026-03-31T16:10:16.796Z</time></trkpt><trkpt lat="43.4641333" lon="11.60706"><ele>251.0</ele><time>2026-03-31T16:10:17.796Z</time></trkpt><trkpt lat="43.4642833" lon="11.607125"><ele>255.0</ele><time>2026-03-31T16:10:18.797Z</time></trkpt><trkpt lat="43.4644283" lon="11.607165"><ele>255.0</ele><time>2026-03-31T16:10:19.797Z</time></trkpt><trkpt lat="43.464575" lon="11.6071867"><ele>255.0</ele><time>2026-03-31T16:10:20.795Z</time></trkpt><trkpt lat="43.4647267" lon="11.6071883"><ele>255.0</ele><time>2026-03-31T16:10:21.796Z</time></trkpt><trkpt lat="43.4648717" lon="11.6071667"><ele>255.0</ele><time>2026-03-31T16:10:22.797Z</time></trkpt><trkpt lat="43.4650133" lon="11.6071117"><ele>255.0</ele><time>2026-03-31T16:10:23.796Z</time></trkpt><trkpt lat="43.46516" lon="11.6070317"><ele>255.0</ele><time>2026-03-31T16:10:24.797Z</time></trkpt><trkpt lat="43.4653017" lon="11.6069417"><ele>255.0</ele><time>2026-03-31T16:10:25.795Z</time></trkpt><trkpt lat="43.4654333" lon="11.6068517"><ele>254.75</ele><time>2026-03-31T16:10:26.796Z</time></trkpt><trkpt lat="43.4655533" lon="11.6067733"><ele>254.5</ele><time>2026-03-31T16:10:27.797Z</time></trkpt><trkpt lat="43.4656633" lon="11.6067"><ele>254.25</ele><time>2026-03-31T16:10:28.797Z</time></trkpt><trkpt lat="43.4657767" lon="11.6066417"><ele>254.0</ele><time>2026-03-31T16:10:29.791Z</time></trkpt><trkpt lat="43.465895" lon="11.60662"><ele>254.0</ele><time>2026-03-31T16:10:30.796Z</time></trkpt><trkpt lat="43.4660183" lon="11.60664"><ele>254.0</ele><time>2026-03-31T16:10:31.796Z</time></trkpt><trkpt lat="43.4661433" lon="11.6067067"><ele>254.0</ele><time>2026-03-31T16:10:32.797Z</time></trkpt><trkpt lat="43.4662717" lon="11.6068167"><ele>254.0</ele><time>2026-03-31T16:10:33.797Z</time></trkpt><trkpt lat="43.4663983" lon="11.6069367"><ele>253.0</ele><time>2026-03-31T16:10:34.796Z</time></trkpt><trkpt lat="43.4665267" lon="11.6070517"><ele>252.0</ele><time>2026-03-31T16:10:35.798Z</time></trkpt><trkpt lat="43.4666567" lon="11.607165"><ele>251.0</ele><time>2026-03-31T16:10:36.795Z</time></trkpt><trkpt lat="43.466785" lon="11.60728"><ele>251.0</ele><time>2026-03-31T16:10:37.796Z</time></trkpt><trkpt lat="43.4669133" lon="11.6073917"><ele>251.0</ele><time>2026-03-31T16:10:38.796Z</time></trkpt><trkpt lat="43.46704" lon="11.6074967"><ele>251.0</ele><time>2026-03-31T16:10:39.797Z</time></trkpt><trkpt lat="43.467165" lon="11.6076"><ele>251.0</ele><time>2026-03-31T16:10:40.795Z</time></trkpt><trkpt lat="43.4672833" lon="11.607705"><ele>250.0</ele><time>2026-03-31T16:10:41.796Z</time></trkpt><trkpt lat="43.4673967" lon="11.6078083"><ele>249.0</ele><time>2026-03-31T16:10:42.796Z</time></trkpt><trkpt lat="43.467505" lon="11.607915"><ele>248.0</ele><time>2026-03-31T16:10:43.795Z</time></trkpt><trkpt lat="43.4676117" lon="11.608025"><ele>247.0</ele><time>2026-03-31T16:10:44.797Z</time></trkpt><trkpt lat="43.4677233" lon="11.6081483"><ele>246.5</ele><time>2026-03-31T16:10:45.795Z</time></trkpt><trkpt lat="43.4678317" lon="11.6082683"><ele>246.0</ele><time>2026-03-31T16:10:46.795Z</time></trkpt><trkpt lat="43.4679433" lon="11.6083867"><ele>245.5</ele><time>2026-03-31T16:10:47.797Z</time></trkpt><trkpt lat="43.4680633" lon="11.6085"><ele>245.0</ele><time>2026-03-31T16:10:48.797Z</time></trkpt><trkpt lat="43.4681917" lon="11.60861"><ele>243.25</ele><time>2026-03-31T16:10:49.796Z</time></trkpt><trkpt lat="43.4683167" lon="11.6087083"><ele>241.5</ele><time>2026-03-31T16:10:50.796Z</time></trkpt><trkpt lat="43.4684433" lon="11.6088"><ele>239.75</ele><time>2026-03-31T16:10:51.797Z</time></trkpt><trkpt lat="43.46857" lon="11.6088933"><ele>238.0</ele><time>2026-03-31T16:10:52.796Z</time></trkpt><trkpt lat="43.468695" lon="11.6089917"><ele>237.0</ele><time>2026-03-31T16:10:53.797Z</time></trkpt><trkpt lat="43.4688183" lon="11.60909"><ele>236.0</ele><time>2026-03-31T16:10:54.797Z</time></trkpt><trkpt lat="43.4689417" lon="11.6091883"><ele>235.0</ele><time>2026-03-31T16:10:55.797Z</time></trkpt><trkpt lat="43.4690617" lon="11.609285"><ele>234.0</ele><time>2026-03-31T16:10:56.799Z</time></trkpt><trkpt lat="43.4691783" lon="11.60938"><ele>234.0</ele><time>2026-03-31T16:10:57.797Z</time></trkpt><trkpt lat="43.469295" lon="11.60947"><ele>234.0</ele><time>2026-03-31T16:10:58.795Z</time></trkpt><trkpt lat="43.469405" lon="11.6095533"><ele>234.0</ele><time>2026-03-31T16:10:59.797Z</time></trkpt><trkpt lat="43.4695067" lon="11.6096283"><ele>234.0</ele><time>2026-03-31T16:11:00.796Z</time></trkpt><trkpt lat="43.4695883" lon="11.6096817"><ele>234.0</ele><time>2026-03-31T16:11:01.796Z</time></trkpt><trkpt lat="43.4696517" lon="11.60973"><ele>233.99999999999997</ele><time>2026-03-31T16:11:02.797Z</time></trkpt><trkpt lat="43.46972" lon="11.609815"><ele>233.99999999999997</ele><time>2026-03-31T16:11:04.797Z</time></trkpt><trkpt lat="43.46975" lon="11.6099283"><ele>234.0</ele><time>2026-03-31T16:11:06.797Z</time></trkpt><trkpt lat="43.4697417" lon="11.610095"><ele>234.0</ele><time>2026-03-31T16:11:08.797Z</time></trkpt><trkpt lat="43.4697167" lon="11.610245"><ele>234.2</ele><time>2026-03-31T16:11:10.796Z</time></trkpt><trkpt lat="43.4697883" lon="11.6103717"><ele>234.39999999999998</ele><time>2026-03-31T16:11:12.797Z</time></trkpt><trkpt lat="43.4698417" lon="11.6104333"><ele>234.6</ele><time>2026-03-31T16:11:13.796Z</time></trkpt><trkpt lat="43.469925" lon="11.6104917"><ele>234.8</ele><time>2026-03-31T16:11:14.797Z</time></trkpt><trkpt lat="43.4700433" lon="11.6105283"><ele>235.0</ele><time>2026-03-31T16:11:15.797Z</time></trkpt><trkpt lat="43.470195" lon="11.6105517"><ele>235.0</ele><time>2026-03-31T16:11:16.794Z</time></trkpt><trkpt lat="43.470335" lon="11.610565"><ele>235.0</ele><time>2026-03-31T16:11:17.794Z</time></trkpt><trkpt lat="43.4704683" lon="11.6105633"><ele>235.0</ele><time>2026-03-31T16:11:18.796Z</time></trkpt><trkpt lat="43.4705983" lon="11.6105733"><ele>235.0</ele><time>2026-03-31T16:11:19.796Z</time></trkpt><trkpt lat="43.4707167" lon="11.610605"><ele>235.4</ele><time>2026-03-31T16:11:20.797Z</time></trkpt><trkpt lat="43.470825" lon="11.610675"><ele>235.8</ele><time>2026-03-31T16:11:21.795Z</time></trkpt><trkpt lat="43.4709167" lon="11.6107417"><ele>236.2</ele><time>2026-03-31T16:11:22.795Z</time></trkpt><trkpt lat="43.4710033" lon="11.6107883"><ele>236.6</ele><time>2026-03-31T16:11:23.798Z</time></trkpt><trkpt lat="43.471105" lon="11.61083"><ele>237.0</ele><time>2026-03-31T16:11:24.797Z</time></trkpt><trkpt lat="43.4712183" lon="11.6108683"><ele>236.0</ele><time>2026-03-31T16:11:25.796Z</time></trkpt><trkpt lat="43.471335" lon="11.610905"><ele>235.0</ele><time>2026-03-31T16:11:26.797Z</time></trkpt><trkpt lat="43.47145" lon="11.6109517"><ele>234.0</ele><time>2026-03-31T16:11:27.797Z</time></trkpt><trkpt lat="43.4715533" lon="11.61101"><ele>233.0</ele><time>2026-03-31T16:11:28.796Z</time></trkpt><trkpt lat="43.471635" lon="11.6110983"><ele>233.83333333333334</ele><time>2026-03-31T16:11:29.796Z</time></trkpt><trkpt lat="43.4716967" lon="11.6111983"><ele>234.66666666666669</ele><time>2026-03-31T16:11:30.797Z</time></trkpt><trkpt lat="43.4717583" lon="11.6112867"><ele>235.5</ele><time>2026-03-31T16:11:31.796Z</time></trkpt><trkpt lat="43.4718167" lon="11.6113483"><ele>236.33333333333331</ele><time>2026-03-31T16:11:32.796Z</time></trkpt><trkpt lat="43.4718867" lon="11.6113833"><ele>237.16666666666666</ele><time>2026-03-31T16:11:33.796Z</time></trkpt><trkpt lat="43.471975" lon="11.611395"><ele>238.0</ele><time>2026-03-31T16:11:34.797Z</time></trkpt><trkpt lat="43.4720667" lon="11.6114133"><ele>237.66666666666666</ele><time>2026-03-31T16:11:35.797Z</time></trkpt><trkpt lat="43.4721517" lon="11.611435"><ele>237.33333333333331</ele><time>2026-03-31T16:11:36.797Z</time></trkpt><trkpt lat="43.47224" lon="11.6114483"><ele>237.0</ele><time>2026-03-31T16:11:37.796Z</time></trkpt><trkpt lat="43.4723267" lon="11.6114483"><ele>236.66666666666669</ele><time>2026-03-31T16:11:38.796Z</time></trkpt><trkpt lat="43.4724067" lon="11.611435"><ele>236.33333333333334</ele><time>2026-03-31T16:11:39.795Z</time></trkpt><trkpt lat="43.4724833" lon="11.6114217"><ele>236.0</ele><time>2026-03-31T16:11:40.796Z</time></trkpt><trkpt lat="43.4725533" lon="11.61141"><ele>236.00000000000003</ele><time>2026-03-31T16:11:41.795Z</time></trkpt><trkpt lat="43.47265" lon="11.6114517"><ele>236.0</ele><time>2026-03-31T16:11:43.797Z</time></trkpt><trkpt lat="43.472675" lon="11.611585"><ele>236.0</ele><time>2026-03-31T16:11:46.792Z</time></trkpt><trkpt lat="43.472665" lon="11.6116867"><ele>236.0</ele><time>2026-03-31T16:11:47.797Z</time></trkpt><trkpt lat="43.4726467" lon="11.6117933"><ele>236.00000000000003</ele><time>2026-03-31T16:11:48.796Z</time></trkpt><trkpt lat="43.47263" lon="11.6119017"><ele>236.0</ele><time>2026-03-31T16:11:49.797Z</time></trkpt><trkpt lat="43.4726033" lon="11.611995"><ele>236.66666666666669</ele><time>2026-03-31T16:11:50.797Z</time></trkpt><trkpt lat="43.4725517" lon="11.61206"><ele>237.33333333333334</ele><time>2026-03-31T16:11:51.797Z</time></trkpt><trkpt lat="43.4724933" lon="11.6121033"><ele>238.0</ele><time>2026-03-31T16:11:52.796Z</time></trkpt><trkpt lat="43.4724083" lon="11.6121633"><ele>238.66666666666669</ele><time>2026-03-31T16:11:54.798Z</time></trkpt><trkpt lat="43.47242" lon="11.6122917"><ele>239.33333333333334</ele><time>2026-03-31T16:11:57.797Z</time></trkpt><trkpt lat="43.4724267" lon="11.6123967"><ele>240.0</ele><time>2026-03-31T16:11:59.796Z</time></trkpt><trkpt lat="43.4723883" lon="11.6124833"><ele>240.0</ele><time>2026-03-31T16:12:01.795Z</time></trkpt><trkpt lat="43.4723217" lon="11.6125433"><ele>240.0</ele><time>2026-03-31T16:12:03.791Z</time></trkpt><trkpt lat="43.4722533" lon="11.612585"><ele>240.0</ele><time>2026-03-31T16:12:05.791Z</time></trkpt><trkpt lat="43.47218" lon="11.6126467"><ele>240.0</ele><time>2026-03-31T16:12:07.795Z</time></trkpt><trkpt lat="43.4721017" lon="11.612705"><ele>240.0</ele><time>2026-03-31T16:12:09.791Z</time></trkpt><trkpt lat="43.4719983" lon="11.6128"><ele>241.8</ele><time>2026-03-31T16:12:11.793Z</time></trkpt><trkpt lat="43.471915" lon="11.61286"><ele>243.6</ele><time>2026-03-31T16:12:12.796Z</time></trkpt><trkpt lat="43.471825" lon="11.6129283"><ele>245.39999999999998</ele><time>2026-03-31T16:12:13.797Z</time></trkpt><trkpt lat="43.4717367" lon="11.6129917"><ele>247.2</ele><time>2026-03-31T16:12:14.797Z</time></trkpt><trkpt lat="43.47166" lon="11.6130617"><ele>249.0</ele><time>2026-03-31T16:12:15.797Z</time></trkpt><trkpt lat="43.47159" lon="11.613135"><ele>249.0</ele><time>2026-03-31T16:12:16.796Z</time></trkpt><trkpt lat="43.4715317" lon="11.613205"><ele>249.0</ele><time>2026-03-31T16:12:17.797Z</time></trkpt><trkpt lat="43.4714833" lon="11.6132733"><ele>249.0</ele><time>2026-03-31T16:12:18.797Z</time></trkpt><trkpt lat="43.4714417" lon="11.6133433"><ele>249.0</ele><time>2026-03-31T16:12:19.796Z</time></trkpt><trkpt lat="43.4714033" lon="11.6134217"><ele>249.0</ele><time>2026-03-31T16:12:20.798Z</time></trkpt><trkpt lat="43.4713617" lon="11.6135017"><ele>249.0</ele><time>2026-03-31T16:12:21.798Z</time></trkpt><trkpt lat="43.471315" lon="11.6136333"><ele>249.6</ele><time>2026-03-31T16:12:23.799Z</time></trkpt><trkpt lat="43.4713633" lon="11.61375"><ele>250.2</ele><time>2026-03-31T16:12:25.797Z</time></trkpt><trkpt lat="43.4714267" lon="11.6138183"><ele>250.79999999999998</ele><time>2026-03-31T16:12:26.798Z</time></trkpt><trkpt lat="43.4715083" lon="11.6138917"><ele>251.39999999999998</ele><time>2026-03-31T16:12:27.798Z</time></trkpt><trkpt lat="43.4716067" lon="11.6139833"><ele>252.0</ele><time>2026-03-31T16:12:28.796Z</time></trkpt><trkpt lat="43.4717317" lon="11.6141217"><ele>252.0</ele><time>2026-03-31T16:12:29.796Z</time></trkpt><trkpt lat="43.471835" lon="11.6142367"><ele>252.0</ele><time>2026-03-31T16:12:30.797Z</time></trkpt><trkpt lat="43.4719217" lon="11.6143367"><ele>252.0</ele><time>2026-03-31T16:12:31.797Z</time></trkpt><trkpt lat="43.4719867" lon="11.61443"><ele>252.0</ele><time>2026-03-31T16:12:32.799Z</time></trkpt><trkpt lat="43.4720367" lon="11.6145383"><ele>252.0</ele><time>2026-03-31T16:12:33.797Z</time></trkpt><trkpt lat="43.4720667" lon="11.6146583"><ele>252.0</ele><time>2026-03-31T16:12:34.796Z</time></trkpt><trkpt lat="43.47208" lon="11.614775"><ele>252.0</ele><time>2026-03-31T16:12:35.797Z</time></trkpt><trkpt lat="43.4720817" lon="11.6148967"><ele>252.0</ele><time>2026-03-31T16:12:36.796Z</time></trkpt><trkpt lat="43.4720817" lon="11.6150233"><ele>252.0</ele><time>2026-03-31T16:12:37.798Z</time></trkpt><trkpt lat="43.4720783" lon="11.6151333"><ele>252.0</ele><time>2026-03-31T16:12:38.797Z</time></trkpt><trkpt lat="43.472065" lon="11.6152733"><ele>252.0</ele><time>2026-03-31T16:12:40.797Z</time></trkpt><trkpt lat="43.472055" lon="11.6153917"><ele>251.75</ele><time>2026-03-31T16:12:43.797Z</time></trkpt><trkpt lat="43.4721367" lon="11.6155117"><ele>251.5</ele><time>2026-03-31T16:12:45.796Z</time></trkpt><trkpt lat="43.4722133" lon="11.615575"><ele>251.25</ele><time>2026-03-31T16:12:46.796Z</time></trkpt><trkpt lat="43.4723267" lon="11.6156483"><ele>251.0</ele><time>2026-03-31T16:12:47.796Z</time></trkpt><trkpt lat="43.4724883" lon="11.6157533"><ele>251.0</ele><time>2026-03-31T16:12:48.798Z</time></trkpt><trkpt lat="43.4726367" lon="11.6158483"><ele>251.0</ele><time>2026-03-31T16:12:49.797Z</time></trkpt><trkpt lat="43.4727817" lon="11.61594"><ele>251.0</ele><time>2026-03-31T16:12:50.797Z</time></trkpt><trkpt lat="43.472915" lon="11.6160183"><ele>250.25</ele><time>2026-03-31T16:12:51.797Z</time></trkpt><trkpt lat="43.473035" lon="11.6160867"><ele>249.5</ele><time>2026-03-31T16:12:52.796Z</time></trkpt><trkpt lat="43.4731517" lon="11.6161517"><ele>248.75</ele><time>2026-03-31T16:12:53.797Z</time></trkpt><trkpt lat="43.4732617" lon="11.61622"><ele>248.0</ele><time>2026-03-31T16:12:54.797Z</time></trkpt><trkpt lat="43.4733733" lon="11.616285"><ele>248.0</ele><time>2026-03-31T16:12:55.795Z</time></trkpt><trkpt lat="43.4734933" lon="11.6163517"><ele>248.0</ele><time>2026-03-31T16:12:56.797Z</time></trkpt><trkpt lat="43.4736133" lon="11.6164267"><ele>248.0</ele><time>2026-03-31T16:12:57.797Z</time></trkpt><trkpt lat="43.4737367" lon="11.6165017"><ele>248.0</ele><time>2026-03-31T16:12:58.795Z</time></trkpt><trkpt lat="43.4738683" lon="11.6165767"><ele>246.75</ele><time>2026-03-31T16:12:59.797Z</time></trkpt><trkpt lat="43.4740033" lon="11.616655"><ele>245.5</ele><time>2026-03-31T16:13:00.797Z</time></trkpt><trkpt lat="43.4741383" lon="11.61673"><ele>244.25</ele><time>2026-03-31T16:13:01.797Z</time></trkpt><trkpt lat="43.47427" lon="11.6168017"><ele>243.0</ele><time>2026-03-31T16:13:02.798Z</time></trkpt><trkpt lat="43.4744083" lon="11.6168833"><ele>243.0</ele><time>2026-03-31T16:13:03.797Z</time></trkpt><trkpt lat="43.4745433" lon="11.6169633"><ele>243.0</ele><time>2026-03-31T16:13:04.796Z</time></trkpt><trkpt lat="43.4746683" lon="11.61704"><ele>243.0</ele><time>2026-03-31T16:13:05.792Z</time></trkpt><trkpt lat="43.4747917" lon="11.6171183"><ele>243.0</ele><time>2026-03-31T16:13:06.795Z</time></trkpt><trkpt lat="43.474905" lon="11.6171883"><ele>242.2</ele><time>2026-03-31T16:13:07.797Z</time></trkpt><trkpt lat="43.4750117" lon="11.6172517"><ele>241.4</ele><time>2026-03-31T16:13:08.797Z</time></trkpt><trkpt lat="43.4751067" lon="11.617315"><ele>240.59999999999997</ele><time>2026-03-31T16:13:09.796Z</time></trkpt><trkpt lat="43.475195" lon="11.6173683"><ele>239.79999999999998</ele><time>2026-03-31T16:13:10.796Z</time></trkpt><trkpt lat="43.475275" lon="11.6174233"><ele>239.0</ele><time>2026-03-31T16:13:11.796Z</time></trkpt><trkpt lat="43.4753467" lon="11.6174767"><ele>239.00000000000003</ele><time>2026-03-31T16:13:12.797Z</time></trkpt><trkpt lat="43.4754167" lon="11.6175333"><ele>239.0</ele><time>2026-03-31T16:13:13.795Z</time></trkpt><trkpt lat="43.47547" lon="11.6176"><ele>239.0</ele><time>2026-03-31T16:13:14.791Z</time></trkpt><trkpt lat="43.4755033" lon="11.6177567"><ele>239.0</ele><time>2026-03-31T16:13:16.796Z</time></trkpt><trkpt lat="43.4754733" lon="11.6178883"><ele>239.00000000000003</ele><time>2026-03-31T16:13:18.797Z</time></trkpt><trkpt lat="43.4754317" lon="11.61796"><ele>239.0</ele><time>2026-03-31T16:13:20.797Z</time></trkpt><trkpt lat="43.47532" lon="11.617945"><ele>238.39999999999998</ele><time>2026-03-31T16:28:39.797Z</time></trkpt><trkpt lat="43.4754083" lon="11.6180383"><ele>237.79999999999998</ele><time>2026-03-31T16:34:18.797Z</time></trkpt><trkpt lat="43.4755017" lon="11.6180583"><ele>237.20000000000002</ele><time>2026-03-31T16:35:30.795Z</time></trkpt><trkpt lat="43.4755683" lon="11.61809"><ele>236.60000000000002</ele><time>2026-03-31T16:35:31.797Z</time></trkpt><trkpt lat="43.4756617" lon="11.6181383"><ele>236.0</ele><time>2026-03-31T16:35:33.795Z</time></trkpt><trkpt lat="43.4757583" lon="11.6181117"><ele>235.33333333333334</ele><time>2026-03-31T16:35:35.797Z</time></trkpt><trkpt lat="43.4758367" lon="11.618015"><ele>234.66666666666669</ele><time>2026-03-31T16:35:37.796Z</time></trkpt><trkpt lat="43.475885" lon="11.617925"><ele>234.0</ele><time>2026-03-31T16:35:39.796Z</time></trkpt><trkpt lat="43.47597" lon="11.6178733"><ele>233.33333333333331</ele><time>2026-03-31T16:35:41.797Z</time></trkpt><trkpt lat="43.4760417" lon="11.617895"><ele>232.66666666666666</ele><time>2026-03-31T16:35:42.796Z</time></trkpt><trkpt lat="43.47612" lon="11.6179367"><ele>232.0</ele><time>2026-03-31T16:35:43.797Z</time></trkpt><trkpt lat="43.476215" lon="11.61798"><ele>231.66666666666666</ele><time>2026-03-31T16:35:44.797Z</time></trkpt><trkpt lat="43.47635" lon="11.61807"><ele>231.33333333333331</ele><time>2026-03-31T16:35:45.796Z</time></trkpt><trkpt lat="43.4764933" lon="11.61818"><ele>231.0</ele><time>2026-03-31T16:35:46.793Z</time></trkpt><trkpt lat="43.4766383" lon="11.618315"><ele>231.0</ele><time>2026-03-31T16:35:47.797Z</time></trkpt><trkpt lat="43.4767683" lon="11.61846"><ele>231.0</ele><time>2026-03-31T16:35:48.796Z</time></trkpt><trkpt lat="43.476885" lon="11.618625"><ele>231.0</ele><time>2026-03-31T16:35:49.797Z</time></trkpt><trkpt lat="43.4769883" lon="11.61883"><ele>231.66666666666669</ele><time>2026-03-31T16:35:50.798Z</time></trkpt><trkpt lat="43.477075" lon="11.6190533"><ele>232.33333333333334</ele><time>2026-03-31T16:35:51.796Z</time></trkpt><trkpt lat="43.47716" lon="11.6193083"><ele>233.0</ele><time>2026-03-31T16:35:52.795Z</time></trkpt><trkpt lat="43.4772383" lon="11.619565"><ele>231.0</ele><time>2026-03-31T16:35:53.798Z</time></trkpt><trkpt lat="43.4773117" lon="11.6198117"><ele>229.0</ele><time>2026-03-31T16:35:54.797Z</time></trkpt><trkpt lat="43.4773783" lon="11.6200417"><ele>227.0</ele><time>2026-03-31T16:35:55.796Z</time></trkpt><trkpt lat="43.4774383" lon="11.6202533"><ele>226.0</ele><time>2026-03-31T16:35:56.798Z</time></trkpt><trkpt lat="43.477495" lon="11.6204433"><ele>225.0</ele><time>2026-03-31T16:35:57.796Z</time></trkpt><trkpt lat="43.4775417" lon="11.62061"><ele>224.0</ele><time>2026-03-31T16:35:58.796Z</time></trkpt><trkpt lat="43.4775817" lon="11.6207517"><ele>223.0</ele><time>2026-03-31T16:35:59.797Z</time></trkpt><trkpt lat="43.4776133" lon="11.6208617"><ele>222.99999999999997</ele><time>2026-03-31T16:36:00.798Z</time></trkpt><trkpt lat="43.4776433" lon="11.6209467"><ele>223.0</ele><time>2026-03-31T16:36:01.795Z</time></trkpt><trkpt lat="43.47768" lon="11.6210317"><ele>223.0</ele><time>2026-03-31T16:36:03.795Z</time></trkpt><trkpt lat="43.4777417" lon="11.6210983"><ele>223.0</ele><time>2026-03-31T16:36:06.799Z</time></trkpt><trkpt lat="43.477805" lon="11.621025"><ele>222.99999999999997</ele><time>2026-03-31T16:36:08.798Z</time></trkpt><trkpt lat="43.4778583" lon="11.6209267"><ele>223.0</ele><time>2026-03-31T16:36:09.795Z</time></trkpt><trkpt lat="43.4779233" lon="11.620775"><ele>223.25</ele><time>2026-03-31T16:36:10.796Z</time></trkpt><trkpt lat="43.4779767" lon="11.6206433"><ele>223.5</ele><time>2026-03-31T16:36:11.796Z</time></trkpt><trkpt lat="43.478055" lon="11.6204983"><ele>223.75</ele><time>2026-03-31T16:36:12.798Z</time></trkpt><trkpt lat="43.478135" lon="11.62035"><ele>224.0</ele><time>2026-03-31T16:36:13.794Z</time></trkpt><trkpt lat="43.4781933" lon="11.6202083"><ele>224.0</ele><time>2026-03-31T16:36:14.798Z</time></trkpt><trkpt lat="43.47824" lon="11.6200767"><ele>223.99999999999997</ele><time>2026-03-31T16:36:15.798Z</time></trkpt><trkpt lat="43.4782717" lon="11.61995"><ele>223.99999999999997</ele><time>2026-03-31T16:36:16.796Z</time></trkpt><trkpt lat="43.4782917" lon="11.6198283"><ele>224.0</ele><time>2026-03-31T16:36:17.798Z</time></trkpt><trkpt lat="43.4783" lon="11.6197017"><ele>224.0</ele><time>2026-03-31T16:36:18.797Z</time></trkpt><trkpt lat="43.4782883" lon="11.6195617"><ele>226.5</ele><time>2026-03-31T16:36:19.798Z</time></trkpt><trkpt lat="43.478265" lon="11.6194133"><ele>229.0</ele><time>2026-03-31T16:36:20.799Z</time></trkpt><trkpt lat="43.4782433" lon="11.619265"><ele>231.5</ele><time>2026-03-31T16:36:21.798Z</time></trkpt><trkpt lat="43.4782267" lon="11.61911"><ele>234.0</ele><time>2026-03-31T16:36:22.796Z</time></trkpt><trkpt lat="43.47822" lon="11.6189467"><ele>234.0</ele><time>2026-03-31T16:36:23.798Z</time></trkpt><trkpt lat="43.4782333" lon="11.618795"><ele>233.99999999999997</ele><time>2026-03-31T16:36:24.797Z</time></trkpt><trkpt lat="43.478245" lon="11.6186483"><ele>233.99999999999997</ele><time>2026-03-31T16:36:25.797Z</time></trkpt><trkpt lat="43.47827" lon="11.6185117"><ele>234.0</ele><time>2026-03-31T16:36:26.799Z</time></trkpt><trkpt lat="43.478315" lon="11.6183717"><ele>234.0</ele><time>2026-03-31T16:36:27.797Z</time></trkpt><trkpt lat="43.47836" lon="11.61825"><ele>234.66666666666666</ele><time>2026-03-31T16:36:28.797Z</time></trkpt><trkpt lat="43.478415" lon="11.6181417"><ele>235.33333333333331</ele><time>2026-03-31T16:36:29.797Z</time></trkpt><trkpt lat="43.47847" lon="11.6180417"><ele>236.0</ele><time>2026-03-31T16:36:30.797Z</time></trkpt><trkpt lat="43.4785233" lon="11.6179433"><ele>236.66666666666666</ele><time>2026-03-31T16:36:31.798Z</time></trkpt><trkpt lat="43.4785767" lon="11.6178483"><ele>237.33333333333331</ele><time>2026-03-31T16:36:32.798Z</time></trkpt><trkpt lat="43.4786233" lon="11.6177733"><ele>238.0</ele><time>2026-03-31T16:36:33.798Z</time></trkpt><trkpt lat="43.4787167" lon="11.617705"><ele>237.33333333333331</ele><time>2026-03-31T16:36:35.797Z</time></trkpt><trkpt lat="43.478815" lon="11.61773"><ele>236.66666666666666</ele><time>2026-03-31T16:36:37.798Z</time></trkpt><trkpt lat="43.4788833" lon="11.6178483"><ele>236.0</ele><time>2026-03-31T16:36:39.794Z</time></trkpt><trkpt lat="43.4789317" lon="11.6179367"><ele>235.33333333333331</ele><time>2026-03-31T16:36:41.792Z</time></trkpt><trkpt lat="43.4789683" lon="11.618015"><ele>234.66666666666666</ele><time>2026-03-31T16:36:43.797Z</time></trkpt><trkpt lat="43.4790283" lon="11.6181017"><ele>234.0</ele><time>2026-03-31T16:36:45.797Z</time></trkpt><trkpt lat="43.4791267" lon="11.61819"><ele>233.83333333333334</ele><time>2026-03-31T16:36:47.797Z</time></trkpt><trkpt lat="43.479205" lon="11.6182617"><ele>233.66666666666669</ele><time>2026-03-31T16:36:49.798Z</time></trkpt><trkpt lat="43.4792683" lon="11.6183617"><ele>233.5</ele><time>2026-03-31T16:37:35.797Z</time></trkpt><trkpt lat="43.47932" lon="11.618425"><ele>233.33333333333334</ele><time>2026-03-31T16:37:40.796Z</time></trkpt><trkpt lat="43.479278" lon="11.6184946"><ele>233.16666666666669</ele><time>2026-03-31T16:39:33.796Z</time></trkpt><trkpt lat="43.4792614" lon="11.6185806"><ele>233.0</ele><time>2026-03-31T16:40:18.753Z</time></trkpt><trkpt lat="43.4793267" lon="11.618655"><ele>232.0</ele><time>2026-03-31T16:40:30.798Z</time></trkpt></trkseg></trk></gpx>